<?xml version="1.0" encoding="UTF-8" standalone="no" ?>
<gpx xmlns="http://www.topografix.com/GPX/1/1" xmlns:xsi="http://www.w3.org/2001/XMLSchema-instance" xsi:schemaLocation="http://www.topografix.com/GPX/1/1 http://www.topografix.com/GPX/1/1/gpx.xsd" version="1.1" creator="VisuGPX - https://www.visugpx.com">
  <metadata>
    <name>fresnay</name>
  </metadata>
  <trk>
    <name><![CDATA[fresnay_1]]></name>
    <trkseg>
      <trkpt lat="48.64177" lon="-2.31835">
        <ele>45.6</ele>
        <time>2017-08-15T07:52:19Z</time>
      </trkpt>
      <trkpt lat="48.64166" lon="-2.31836">
        <ele>45</ele>
        <time>2017-08-15T07:52:23Z</time>
      </trkpt>
      <trkpt lat="48.64157" lon="-2.31831">
        <ele>45.6</ele>
        <time>2017-08-15T07:52:27Z</time>
      </trkpt>
      <trkpt lat="48.6414" lon="-2.31825">
        <ele>45.2</ele>
        <time>2017-08-15T07:52:31Z</time>
      </trkpt>
      <trkpt lat="48.64121" lon="-2.31819">
        <ele>45.6</ele>
        <time>2017-08-15T07:52:35Z</time>
      </trkpt>
      <trkpt lat="48.64106" lon="-2.31815">
        <ele>46.2</ele>
        <time>2017-08-15T07:52:39Z</time>
      </trkpt>
      <trkpt lat="48.64093" lon="-2.31813">
        <ele>46.2</ele>
        <time>2017-08-15T07:52:43Z</time>
      </trkpt>
      <trkpt lat="48.64072" lon="-2.31811">
        <ele>45.6</ele>
        <time>2017-08-15T07:52:47Z</time>
      </trkpt>
      <trkpt lat="48.64055" lon="-2.31806">
        <ele>46.4</ele>
        <time>2017-08-15T07:52:51Z</time>
      </trkpt>
      <trkpt lat="48.64042" lon="-2.31803">
        <ele>46.2</ele>
        <time>2017-08-15T07:52:55Z</time>
      </trkpt>
      <trkpt lat="48.64027" lon="-2.31797">
        <ele>46.4</ele>
        <time>2017-08-15T07:52:59Z</time>
      </trkpt>
      <trkpt lat="48.64012" lon="-2.3179">
        <ele>46.4</ele>
        <time>2017-08-15T07:53:03Z</time>
      </trkpt>
      <trkpt lat="48.63998" lon="-2.31783">
        <ele>47</ele>
        <time>2017-08-15T07:53:07Z</time>
      </trkpt>
      <trkpt lat="48.63988" lon="-2.31778">
        <ele>46.6</ele>
        <time>2017-08-15T07:53:11Z</time>
      </trkpt>
      <trkpt lat="48.63977" lon="-2.31772">
        <ele>47.4</ele>
        <time>2017-08-15T07:53:15Z</time>
      </trkpt>
      <trkpt lat="48.6397" lon="-2.31761">
        <ele>46</ele>
        <time>2017-08-15T07:53:19Z</time>
      </trkpt>
      <trkpt lat="48.63973" lon="-2.31747">
        <ele>46.4</ele>
        <time>2017-08-15T07:53:23Z</time>
      </trkpt>
      <trkpt lat="48.63979" lon="-2.31733">
        <ele>46</ele>
        <time>2017-08-15T07:53:27Z</time>
      </trkpt>
      <trkpt lat="48.63989" lon="-2.31717">
        <ele>46.4</ele>
        <time>2017-08-15T07:53:31Z</time>
      </trkpt>
      <trkpt lat="48.63993" lon="-2.31704">
        <ele>46.2</ele>
        <time>2017-08-15T07:53:35Z</time>
      </trkpt>
      <trkpt lat="48.64001" lon="-2.31689">
        <ele>45</ele>
        <time>2017-08-15T07:53:39Z</time>
      </trkpt>
      <trkpt lat="48.64013" lon="-2.31673">
        <ele>45</ele>
        <time>2017-08-15T07:53:43Z</time>
      </trkpt>
      <trkpt lat="48.6403" lon="-2.31655">
        <ele>44.6</ele>
        <time>2017-08-15T07:53:47Z</time>
      </trkpt>
      <trkpt lat="48.64034" lon="-2.3163">
        <ele>44.2</ele>
        <time>2017-08-15T07:53:51Z</time>
      </trkpt>
      <trkpt lat="48.64054" lon="-2.31609">
        <ele>43</ele>
        <time>2017-08-15T07:53:55Z</time>
      </trkpt>
      <trkpt lat="48.64061" lon="-2.31589">
        <ele>43.6</ele>
        <time>2017-08-15T07:53:59Z</time>
      </trkpt>
      <trkpt lat="48.64071" lon="-2.31571">
        <ele>41.6</ele>
        <time>2017-08-15T07:54:03Z</time>
      </trkpt>
      <trkpt lat="48.64084" lon="-2.31555">
        <ele>41.4</ele>
        <time>2017-08-15T07:54:07Z</time>
      </trkpt>
      <trkpt lat="48.64098" lon="-2.31537">
        <ele>40.6</ele>
        <time>2017-08-15T07:54:11Z</time>
      </trkpt>
      <trkpt lat="48.64109" lon="-2.31529">
        <ele>40.2</ele>
        <time>2017-08-15T07:54:15Z</time>
      </trkpt>
      <trkpt lat="48.64121" lon="-2.31508">
        <ele>39.2</ele>
        <time>2017-08-15T07:54:19Z</time>
      </trkpt>
      <trkpt lat="48.64126" lon="-2.31492">
        <ele>38</ele>
        <time>2017-08-15T07:54:23Z</time>
      </trkpt>
      <trkpt lat="48.64115" lon="-2.31488">
        <ele>37.6</ele>
        <time>2017-08-15T07:54:27Z</time>
      </trkpt>
      <trkpt lat="48.64102" lon="-2.31484">
        <ele>36.8</ele>
        <time>2017-08-15T07:54:31Z</time>
      </trkpt>
      <trkpt lat="48.64091" lon="-2.31476">
        <ele>35.8</ele>
        <time>2017-08-15T07:54:35Z</time>
      </trkpt>
      <trkpt lat="48.64087" lon="-2.31467">
        <ele>34.8</ele>
        <time>2017-08-15T07:54:39Z</time>
      </trkpt>
      <trkpt lat="48.64082" lon="-2.31462">
        <ele>34.2</ele>
        <time>2017-08-15T07:54:43Z</time>
      </trkpt>
      <trkpt lat="48.64076" lon="-2.31454">
        <ele>33.4</ele>
        <time>2017-08-15T07:54:47Z</time>
      </trkpt>
      <trkpt lat="48.64068" lon="-2.31444">
        <ele>32.4</ele>
        <time>2017-08-15T07:54:51Z</time>
      </trkpt>
      <trkpt lat="48.64057" lon="-2.31431">
        <ele>31</ele>
        <time>2017-08-15T07:54:55Z</time>
      </trkpt>
      <trkpt lat="48.64045" lon="-2.31417">
        <ele>28.6</ele>
        <time>2017-08-15T07:54:59Z</time>
      </trkpt>
      <trkpt lat="48.64017" lon="-2.31391">
        <ele>24.6</ele>
        <time>2017-08-15T07:55:03Z</time>
      </trkpt>
      <trkpt lat="48.63996" lon="-2.31363">
        <ele>21</ele>
        <time>2017-08-15T07:55:07Z</time>
      </trkpt>
      <trkpt lat="48.63989" lon="-2.31323">
        <ele>17.8</ele>
        <time>2017-08-15T07:55:11Z</time>
      </trkpt>
      <trkpt lat="48.63987" lon="-2.31292">
        <ele>14.4</ele>
        <time>2017-08-15T07:55:15Z</time>
      </trkpt>
      <trkpt lat="48.63981" lon="-2.31267">
        <ele>12.8</ele>
        <time>2017-08-15T07:55:19Z</time>
      </trkpt>
      <trkpt lat="48.63974" lon="-2.31239">
        <ele>11.4</ele>
        <time>2017-08-15T07:55:23Z</time>
      </trkpt>
      <trkpt lat="48.63968" lon="-2.31231">
        <ele>10.6</ele>
        <time>2017-08-15T07:55:27Z</time>
      </trkpt>
      <trkpt lat="48.63965" lon="-2.3122">
        <ele>10.8</ele>
        <time>2017-08-15T07:55:31Z</time>
      </trkpt>
      <trkpt lat="48.63961" lon="-2.31215">
        <ele>12</ele>
        <time>2017-08-15T07:55:35Z</time>
      </trkpt>
      <trkpt lat="48.63958" lon="-2.3121">
        <ele>12.4</ele>
        <time>2017-08-15T07:55:39Z</time>
      </trkpt>
      <trkpt lat="48.63942" lon="-2.31198">
        <ele>12</ele>
        <time>2017-08-15T07:55:43Z</time>
      </trkpt>
      <trkpt lat="48.63936" lon="-2.31191">
        <ele>13.6</ele>
        <time>2017-08-15T07:55:47Z</time>
      </trkpt>
      <trkpt lat="48.63936" lon="-2.31192">
        <ele>14</ele>
        <time>2017-08-15T07:55:51Z</time>
      </trkpt>
      <trkpt lat="48.63932" lon="-2.31196">
        <ele>15.4</ele>
        <time>2017-08-15T07:55:55Z</time>
      </trkpt>
      <trkpt lat="48.63927" lon="-2.31201">
        <ele>16.2</ele>
        <time>2017-08-15T07:55:59Z</time>
      </trkpt>
      <trkpt lat="48.63925" lon="-2.31208">
        <ele>16.8</ele>
        <time>2017-08-15T07:56:03Z</time>
      </trkpt>
      <trkpt lat="48.63919" lon="-2.31214">
        <ele>18.2</ele>
        <time>2017-08-15T07:56:07Z</time>
      </trkpt>
      <trkpt lat="48.63913" lon="-2.31222">
        <ele>18.8</ele>
        <time>2017-08-15T07:56:11Z</time>
      </trkpt>
      <trkpt lat="48.6391" lon="-2.31229">
        <ele>19.2</ele>
        <time>2017-08-15T07:56:15Z</time>
      </trkpt>
      <trkpt lat="48.63907" lon="-2.31237">
        <ele>20.8</ele>
        <time>2017-08-15T07:56:19Z</time>
      </trkpt>
      <trkpt lat="48.63908" lon="-2.31244">
        <ele>21.6</ele>
        <time>2017-08-15T07:56:23Z</time>
      </trkpt>
      <trkpt lat="48.639" lon="-2.31252">
        <ele>22.2</ele>
        <time>2017-08-15T07:56:27Z</time>
      </trkpt>
      <trkpt lat="48.63892" lon="-2.31258">
        <ele>23.2</ele>
        <time>2017-08-15T07:56:31Z</time>
      </trkpt>
      <trkpt lat="48.63884" lon="-2.31264">
        <ele>24.6</ele>
        <time>2017-08-15T07:56:35Z</time>
      </trkpt>
      <trkpt lat="48.63875" lon="-2.31268">
        <ele>25.2</ele>
        <time>2017-08-15T07:56:39Z</time>
      </trkpt>
      <trkpt lat="48.63865" lon="-2.31273">
        <ele>27</ele>
        <time>2017-08-15T07:56:43Z</time>
      </trkpt>
      <trkpt lat="48.63855" lon="-2.31276">
        <ele>27.4</ele>
        <time>2017-08-15T07:56:47Z</time>
      </trkpt>
      <trkpt lat="48.63849" lon="-2.31281">
        <ele>28.6</ele>
        <time>2017-08-15T07:56:51Z</time>
      </trkpt>
      <trkpt lat="48.63839" lon="-2.31292">
        <ele>29.8</ele>
        <time>2017-08-15T07:56:59Z</time>
      </trkpt>
      <trkpt lat="48.63834" lon="-2.313">
        <ele>30.6</ele>
        <time>2017-08-15T07:57:03Z</time>
      </trkpt>
      <trkpt lat="48.63827" lon="-2.31306">
        <ele>31</ele>
        <time>2017-08-15T07:57:07Z</time>
      </trkpt>
      <trkpt lat="48.63818" lon="-2.31311">
        <ele>31.8</ele>
        <time>2017-08-15T07:57:11Z</time>
      </trkpt>
      <trkpt lat="48.63804" lon="-2.31323">
        <ele>32.4</ele>
        <time>2017-08-15T07:57:15Z</time>
      </trkpt>
      <trkpt lat="48.63798" lon="-2.31331">
        <ele>33</ele>
        <time>2017-08-15T07:57:19Z</time>
      </trkpt>
      <trkpt lat="48.63791" lon="-2.31346">
        <ele>33.2</ele>
        <time>2017-08-15T07:57:23Z</time>
      </trkpt>
      <trkpt lat="48.63786" lon="-2.31359">
        <ele>33.8</ele>
        <time>2017-08-15T07:57:27Z</time>
      </trkpt>
      <trkpt lat="48.63784" lon="-2.31371">
        <ele>33.8</ele>
        <time>2017-08-15T07:57:31Z</time>
      </trkpt>
      <trkpt lat="48.63786" lon="-2.31382">
        <ele>34</ele>
        <time>2017-08-15T07:57:35Z</time>
      </trkpt>
      <trkpt lat="48.63787" lon="-2.31392">
        <ele>34.6</ele>
        <time>2017-08-15T07:57:39Z</time>
      </trkpt>
      <trkpt lat="48.6378" lon="-2.31403">
        <ele>35</ele>
        <time>2017-08-15T07:57:43Z</time>
      </trkpt>
      <trkpt lat="48.63774" lon="-2.31412">
        <ele>35.8</ele>
        <time>2017-08-15T07:57:47Z</time>
      </trkpt>
      <trkpt lat="48.63767" lon="-2.31421">
        <ele>35.8</ele>
        <time>2017-08-15T07:57:51Z</time>
      </trkpt>
      <trkpt lat="48.63763" lon="-2.3143">
        <ele>36.2</ele>
        <time>2017-08-15T07:57:55Z</time>
      </trkpt>
      <trkpt lat="48.63757" lon="-2.31437">
        <ele>36.2</ele>
        <time>2017-08-15T07:57:59Z</time>
      </trkpt>
      <trkpt lat="48.63752" lon="-2.31443">
        <ele>37</ele>
        <time>2017-08-15T07:58:03Z</time>
      </trkpt>
      <trkpt lat="48.63745" lon="-2.31449">
        <ele>37.2</ele>
        <time>2017-08-15T07:58:07Z</time>
      </trkpt>
      <trkpt lat="48.63734" lon="-2.31451">
        <ele>38.2</ele>
        <time>2017-08-15T07:58:11Z</time>
      </trkpt>
      <trkpt lat="48.63724" lon="-2.31454">
        <ele>39</ele>
        <time>2017-08-15T07:58:15Z</time>
      </trkpt>
      <trkpt lat="48.63713" lon="-2.31458">
        <ele>39.8</ele>
        <time>2017-08-15T07:58:19Z</time>
      </trkpt>
      <trkpt lat="48.63705" lon="-2.31464">
        <ele>40.2</ele>
        <time>2017-08-15T07:58:23Z</time>
      </trkpt>
      <trkpt lat="48.63699" lon="-2.31469">
        <ele>40.2</ele>
        <time>2017-08-15T07:58:27Z</time>
      </trkpt>
      <trkpt lat="48.63687" lon="-2.31475">
        <ele>41</ele>
        <time>2017-08-15T07:58:31Z</time>
      </trkpt>
      <trkpt lat="48.63665" lon="-2.31486">
        <ele>41.6</ele>
        <time>2017-08-15T07:58:35Z</time>
      </trkpt>
      <trkpt lat="48.63647" lon="-2.31498">
        <ele>42.4</ele>
        <time>2017-08-15T07:58:39Z</time>
      </trkpt>
      <trkpt lat="48.63631" lon="-2.31493">
        <ele>43.2</ele>
        <time>2017-08-15T07:58:43Z</time>
      </trkpt>
      <trkpt lat="48.6362" lon="-2.31483">
        <ele>43.6</ele>
        <time>2017-08-15T07:58:47Z</time>
      </trkpt>
      <trkpt lat="48.63614" lon="-2.31473">
        <ele>44.2</ele>
        <time>2017-08-15T07:58:51Z</time>
      </trkpt>
      <trkpt lat="48.6361" lon="-2.31461">
        <ele>44.8</ele>
        <time>2017-08-15T07:58:55Z</time>
      </trkpt>
      <trkpt lat="48.63608" lon="-2.31448">
        <ele>45.6</ele>
        <time>2017-08-15T07:58:59Z</time>
      </trkpt>
      <trkpt lat="48.63606" lon="-2.31435">
        <ele>46.2</ele>
        <time>2017-08-15T07:59:03Z</time>
      </trkpt>
      <trkpt lat="48.63605" lon="-2.31423">
        <ele>47</ele>
        <time>2017-08-15T07:59:07Z</time>
      </trkpt>
      <trkpt lat="48.63604" lon="-2.31409">
        <ele>47.6</ele>
        <time>2017-08-15T07:59:11Z</time>
      </trkpt>
      <trkpt lat="48.63604" lon="-2.31396">
        <ele>47.6</ele>
        <time>2017-08-15T07:59:15Z</time>
      </trkpt>
      <trkpt lat="48.63603" lon="-2.31384">
        <ele>48</ele>
        <time>2017-08-15T07:59:19Z</time>
      </trkpt>
      <trkpt lat="48.63602" lon="-2.31373">
        <ele>48</ele>
        <time>2017-08-15T07:59:23Z</time>
      </trkpt>
      <trkpt lat="48.63599" lon="-2.3136">
        <ele>48.4</ele>
        <time>2017-08-15T07:59:27Z</time>
      </trkpt>
      <trkpt lat="48.63596" lon="-2.31347">
        <ele>48.6</ele>
        <time>2017-08-15T07:59:31Z</time>
      </trkpt>
      <trkpt lat="48.63594" lon="-2.31335">
        <ele>48.6</ele>
        <time>2017-08-15T07:59:35Z</time>
      </trkpt>
      <trkpt lat="48.63593" lon="-2.31325">
        <ele>49</ele>
        <time>2017-08-15T07:59:39Z</time>
      </trkpt>
      <trkpt lat="48.63595" lon="-2.31312">
        <ele>49.6</ele>
        <time>2017-08-15T07:59:43Z</time>
      </trkpt>
      <trkpt lat="48.63592" lon="-2.31304">
        <ele>48.4</ele>
        <time>2017-08-15T07:59:47Z</time>
      </trkpt>
      <trkpt lat="48.63588" lon="-2.31305">
        <ele>48.4</ele>
        <time>2017-08-15T07:59:51Z</time>
      </trkpt>
      <trkpt lat="48.63579" lon="-2.31305">
        <ele>48.4</ele>
        <time>2017-08-15T07:59:55Z</time>
      </trkpt>
      <trkpt lat="48.63568" lon="-2.31307">
        <ele>48</ele>
        <time>2017-08-15T07:59:59Z</time>
      </trkpt>
      <trkpt lat="48.63558" lon="-2.31317">
        <ele>48</ele>
        <time>2017-08-15T08:00:03Z</time>
      </trkpt>
      <trkpt lat="48.63553" lon="-2.31326">
        <ele>48</ele>
        <time>2017-08-15T08:00:07Z</time>
      </trkpt>
      <trkpt lat="48.63549" lon="-2.3133">
        <ele>48.2</ele>
        <time>2017-08-15T08:00:11Z</time>
      </trkpt>
      <trkpt lat="48.63547" lon="-2.31333">
        <ele>48.6</ele>
        <time>2017-08-15T08:00:15Z</time>
      </trkpt>
      <trkpt lat="48.63538" lon="-2.31335">
        <ele>49.4</ele>
        <time>2017-08-15T08:00:19Z</time>
      </trkpt>
      <trkpt lat="48.63529" lon="-2.31339">
        <ele>49.6</ele>
        <time>2017-08-15T08:00:23Z</time>
      </trkpt>
      <trkpt lat="48.63506" lon="-2.31339">
        <ele>50.4</ele>
        <time>2017-08-15T08:00:27Z</time>
      </trkpt>
      <trkpt lat="48.63495" lon="-2.31337">
        <ele>50.4</ele>
        <time>2017-08-15T08:00:31Z</time>
      </trkpt>
      <trkpt lat="48.63483" lon="-2.31333">
        <ele>50.4</ele>
        <time>2017-08-15T08:00:35Z</time>
      </trkpt>
      <trkpt lat="48.6347" lon="-2.31333">
        <ele>49.6</ele>
        <time>2017-08-15T08:00:39Z</time>
      </trkpt>
      <trkpt lat="48.63462" lon="-2.31346">
        <ele>50.2</ele>
        <time>2017-08-15T08:00:43Z</time>
      </trkpt>
      <trkpt lat="48.63459" lon="-2.31358">
        <ele>51</ele>
        <time>2017-08-15T08:00:47Z</time>
      </trkpt>
      <trkpt lat="48.63458" lon="-2.31371">
        <ele>51.6</ele>
        <time>2017-08-15T08:00:51Z</time>
      </trkpt>
      <trkpt lat="48.63456" lon="-2.31386">
        <ele>51.8</ele>
        <time>2017-08-15T08:00:55Z</time>
      </trkpt>
      <trkpt lat="48.63449" lon="-2.31398">
        <ele>52</ele>
        <time>2017-08-15T08:00:59Z</time>
      </trkpt>
      <trkpt lat="48.63442" lon="-2.3141">
        <ele>52.6</ele>
        <time>2017-08-15T08:01:03Z</time>
      </trkpt>
      <trkpt lat="48.63438" lon="-2.31425">
        <ele>53</ele>
        <time>2017-08-15T08:01:07Z</time>
      </trkpt>
      <trkpt lat="48.63437" lon="-2.31443">
        <ele>52.8</ele>
        <time>2017-08-15T08:01:11Z</time>
      </trkpt>
      <trkpt lat="48.63432" lon="-2.31459">
        <ele>53.2</ele>
        <time>2017-08-15T08:01:15Z</time>
      </trkpt>
      <trkpt lat="48.63423" lon="-2.31464">
        <ele>53.2</ele>
        <time>2017-08-15T08:01:19Z</time>
      </trkpt>
      <trkpt lat="48.63413" lon="-2.31467">
        <ele>52.8</ele>
        <time>2017-08-15T08:01:23Z</time>
      </trkpt>
      <trkpt lat="48.63406" lon="-2.31478">
        <ele>51.6</ele>
        <time>2017-08-15T08:01:27Z</time>
      </trkpt>
      <trkpt lat="48.63384" lon="-2.31489">
        <ele>50.6</ele>
        <time>2017-08-15T08:01:31Z</time>
      </trkpt>
      <trkpt lat="48.63372" lon="-2.31504">
        <ele>50</ele>
        <time>2017-08-15T08:01:35Z</time>
      </trkpt>
      <trkpt lat="48.63365" lon="-2.31518">
        <ele>49</ele>
        <time>2017-08-15T08:01:39Z</time>
      </trkpt>
      <trkpt lat="48.63364" lon="-2.31532">
        <ele>49.6</ele>
        <time>2017-08-15T08:01:43Z</time>
      </trkpt>
      <trkpt lat="48.63356" lon="-2.31537">
        <ele>50</ele>
        <time>2017-08-15T08:01:47Z</time>
      </trkpt>
      <trkpt lat="48.63346" lon="-2.31543">
        <ele>48.6</ele>
        <time>2017-08-15T08:01:51Z</time>
      </trkpt>
      <trkpt lat="48.63335" lon="-2.31552">
        <ele>46.6</ele>
        <time>2017-08-15T08:01:55Z</time>
      </trkpt>
      <trkpt lat="48.63323" lon="-2.31562">
        <ele>46.2</ele>
        <time>2017-08-15T08:01:59Z</time>
      </trkpt>
      <trkpt lat="48.63308" lon="-2.31569">
        <ele>46.4</ele>
        <time>2017-08-15T08:02:03Z</time>
      </trkpt>
      <trkpt lat="48.63302" lon="-2.3158">
        <ele>45.6</ele>
        <time>2017-08-15T08:02:07Z</time>
      </trkpt>
      <trkpt lat="48.6331" lon="-2.31582">
        <ele>46</ele>
        <time>2017-08-15T08:02:11Z</time>
      </trkpt>
      <trkpt lat="48.63319" lon="-2.31591">
        <ele>47.6</ele>
        <time>2017-08-15T08:02:15Z</time>
      </trkpt>
      <trkpt lat="48.63323" lon="-2.31602">
        <ele>48.4</ele>
        <time>2017-08-15T08:02:19Z</time>
      </trkpt>
      <trkpt lat="48.63328" lon="-2.31612">
        <ele>48.4</ele>
        <time>2017-08-15T08:02:23Z</time>
      </trkpt>
      <trkpt lat="48.63335" lon="-2.3162">
        <ele>48.4</ele>
        <time>2017-08-15T08:02:27Z</time>
      </trkpt>
      <trkpt lat="48.63343" lon="-2.31624">
        <ele>49.2</ele>
        <time>2017-08-15T08:02:31Z</time>
      </trkpt>
      <trkpt lat="48.63353" lon="-2.31626">
        <ele>49.4</ele>
        <time>2017-08-15T08:02:35Z</time>
      </trkpt>
      <trkpt lat="48.63365" lon="-2.31633">
        <ele>49</ele>
        <time>2017-08-15T08:02:39Z</time>
      </trkpt>
      <trkpt lat="48.63374" lon="-2.3165">
        <ele>49</ele>
        <time>2017-08-15T08:02:43Z</time>
      </trkpt>
      <trkpt lat="48.63379" lon="-2.31665">
        <ele>48.4</ele>
        <time>2017-08-15T08:02:47Z</time>
      </trkpt>
      <trkpt lat="48.6339" lon="-2.31688">
        <ele>47.8</ele>
        <time>2017-08-15T08:02:51Z</time>
      </trkpt>
      <trkpt lat="48.63398" lon="-2.3171">
        <ele>47</ele>
        <time>2017-08-15T08:02:55Z</time>
      </trkpt>
      <trkpt lat="48.63401" lon="-2.31732">
        <ele>47.2</ele>
        <time>2017-08-15T08:02:59Z</time>
      </trkpt>
      <trkpt lat="48.63408" lon="-2.31752">
        <ele>46.4</ele>
        <time>2017-08-15T08:03:03Z</time>
      </trkpt>
      <trkpt lat="48.6341" lon="-2.31773">
        <ele>45.6</ele>
        <time>2017-08-15T08:03:07Z</time>
      </trkpt>
      <trkpt lat="48.63411" lon="-2.31796">
        <ele>45.2</ele>
        <time>2017-08-15T08:03:11Z</time>
      </trkpt>
      <trkpt lat="48.63418" lon="-2.3182">
        <ele>44.4</ele>
        <time>2017-08-15T08:03:15Z</time>
      </trkpt>
      <trkpt lat="48.63431" lon="-2.31852">
        <ele>42.4</ele>
        <time>2017-08-15T08:03:19Z</time>
      </trkpt>
      <trkpt lat="48.63441" lon="-2.31886">
        <ele>40.4</ele>
        <time>2017-08-15T08:03:23Z</time>
      </trkpt>
      <trkpt lat="48.63448" lon="-2.31906">
        <ele>37.6</ele>
        <time>2017-08-15T08:03:27Z</time>
      </trkpt>
      <trkpt lat="48.6346" lon="-2.31901">
        <ele>37</ele>
        <time>2017-08-15T08:03:31Z</time>
      </trkpt>
      <trkpt lat="48.63464" lon="-2.31892">
        <ele>37.4</ele>
        <time>2017-08-15T08:03:35Z</time>
      </trkpt>
      <trkpt lat="48.63476" lon="-2.31895">
        <ele>37.4</ele>
        <time>2017-08-15T08:03:39Z</time>
      </trkpt>
      <trkpt lat="48.63485" lon="-2.31909">
        <ele>38.2</ele>
        <time>2017-08-15T08:03:43Z</time>
      </trkpt>
      <trkpt lat="48.63491" lon="-2.31921">
        <ele>38.2</ele>
        <time>2017-08-15T08:03:47Z</time>
      </trkpt>
      <trkpt lat="48.635" lon="-2.31935">
        <ele>39</ele>
        <time>2017-08-15T08:03:51Z</time>
      </trkpt>
      <trkpt lat="48.63507" lon="-2.31948">
        <ele>39.6</ele>
        <time>2017-08-15T08:03:55Z</time>
      </trkpt>
      <trkpt lat="48.6351" lon="-2.31962">
        <ele>40.8</ele>
        <time>2017-08-15T08:03:59Z</time>
      </trkpt>
      <trkpt lat="48.63516" lon="-2.31976">
        <ele>41</ele>
        <time>2017-08-15T08:04:03Z</time>
      </trkpt>
      <trkpt lat="48.63523" lon="-2.31988">
        <ele>41.8</ele>
        <time>2017-08-15T08:04:07Z</time>
      </trkpt>
      <trkpt lat="48.6353" lon="-2.31999">
        <ele>42.4</ele>
        <time>2017-08-15T08:04:11Z</time>
      </trkpt>
      <trkpt lat="48.63535" lon="-2.32011">
        <ele>42.8</ele>
        <time>2017-08-15T08:04:15Z</time>
      </trkpt>
      <trkpt lat="48.6353" lon="-2.32023">
        <ele>42.8</ele>
        <time>2017-08-15T08:04:19Z</time>
      </trkpt>
      <trkpt lat="48.63517" lon="-2.32037">
        <ele>42</ele>
        <time>2017-08-15T08:04:23Z</time>
      </trkpt>
      <trkpt lat="48.63508" lon="-2.32053">
        <ele>42.2</ele>
        <time>2017-08-15T08:04:27Z</time>
      </trkpt>
      <trkpt lat="48.63489" lon="-2.32072">
        <ele>40.4</ele>
        <time>2017-08-15T08:04:31Z</time>
      </trkpt>
      <trkpt lat="48.63474" lon="-2.32087">
        <ele>39.2</ele>
        <time>2017-08-15T08:04:35Z</time>
      </trkpt>
      <trkpt lat="48.63445" lon="-2.32107">
        <ele>37.8</ele>
        <time>2017-08-15T08:04:39Z</time>
      </trkpt>
      <trkpt lat="48.63403" lon="-2.32111">
        <ele>37.2</ele>
        <time>2017-08-15T08:04:43Z</time>
      </trkpt>
      <trkpt lat="48.63373" lon="-2.32096">
        <ele>36.2</ele>
        <time>2017-08-15T08:04:47Z</time>
      </trkpt>
      <trkpt lat="48.63336" lon="-2.32083">
        <ele>33</ele>
        <time>2017-08-15T08:04:51Z</time>
      </trkpt>
      <trkpt lat="48.63304" lon="-2.32089">
        <ele>29.8</ele>
        <time>2017-08-15T08:04:55Z</time>
      </trkpt>
      <trkpt lat="48.63283" lon="-2.32103">
        <ele>25.6</ele>
        <time>2017-08-15T08:04:59Z</time>
      </trkpt>
      <trkpt lat="48.63238" lon="-2.32136">
        <ele>22.6</ele>
        <time>2017-08-15T08:05:03Z</time>
      </trkpt>
      <trkpt lat="48.63214" lon="-2.3217">
        <ele>17.2</ele>
        <time>2017-08-15T08:05:07Z</time>
      </trkpt>
      <trkpt lat="48.63184" lon="-2.32203">
        <ele>12.8</ele>
        <time>2017-08-15T08:05:11Z</time>
      </trkpt>
      <trkpt lat="48.63158" lon="-2.32221">
        <ele>9.2</ele>
        <time>2017-08-15T08:05:15Z</time>
      </trkpt>
      <trkpt lat="48.63147" lon="-2.32233">
        <ele>8</ele>
        <time>2017-08-15T08:05:19Z</time>
      </trkpt>
      <trkpt lat="48.63145" lon="-2.32247">
        <ele>7.8</ele>
        <time>2017-08-15T08:05:23Z</time>
      </trkpt>
      <trkpt lat="48.63144" lon="-2.32256">
        <ele>8.6</ele>
        <time>2017-08-15T08:05:27Z</time>
      </trkpt>
      <trkpt lat="48.63148" lon="-2.32264">
        <ele>9</ele>
        <time>2017-08-15T08:05:31Z</time>
      </trkpt>
      <trkpt lat="48.63147" lon="-2.32275">
        <ele>9.6</ele>
        <time>2017-08-15T08:05:35Z</time>
      </trkpt>
      <trkpt lat="48.63148" lon="-2.32283">
        <ele>11.2</ele>
        <time>2017-08-15T08:05:39Z</time>
      </trkpt>
      <trkpt lat="48.63146" lon="-2.3229">
        <ele>12.2</ele>
        <time>2017-08-15T08:05:43Z</time>
      </trkpt>
      <trkpt lat="48.63145" lon="-2.32295">
        <ele>13.4</ele>
        <time>2017-08-15T08:05:47Z</time>
      </trkpt>
      <trkpt lat="48.63149" lon="-2.32302">
        <ele>13.8</ele>
        <time>2017-08-15T08:05:51Z</time>
      </trkpt>
      <trkpt lat="48.63153" lon="-2.32306">
        <ele>14.8</ele>
        <time>2017-08-15T08:05:55Z</time>
      </trkpt>
      <trkpt lat="48.63157" lon="-2.32312">
        <ele>15.8</ele>
        <time>2017-08-15T08:05:59Z</time>
      </trkpt>
      <trkpt lat="48.63161" lon="-2.32315">
        <ele>17</ele>
        <time>2017-08-15T08:06:03Z</time>
      </trkpt>
      <trkpt lat="48.63165" lon="-2.32321">
        <ele>17.4</ele>
        <time>2017-08-15T08:06:07Z</time>
      </trkpt>
      <trkpt lat="48.63166" lon="-2.32326">
        <ele>18</ele>
        <time>2017-08-15T08:06:11Z</time>
      </trkpt>
      <trkpt lat="48.63172" lon="-2.32333">
        <ele>19.6</ele>
        <time>2017-08-15T08:06:15Z</time>
      </trkpt>
      <trkpt lat="48.63181" lon="-2.32342">
        <ele>20</ele>
        <time>2017-08-15T08:06:19Z</time>
      </trkpt>
      <trkpt lat="48.6319" lon="-2.32352">
        <ele>20.4</ele>
        <time>2017-08-15T08:06:23Z</time>
      </trkpt>
      <trkpt lat="48.63195" lon="-2.3236">
        <ele>21.8</ele>
        <time>2017-08-15T08:06:27Z</time>
      </trkpt>
      <trkpt lat="48.63196" lon="-2.32373">
        <ele>22.2</ele>
        <time>2017-08-15T08:06:31Z</time>
      </trkpt>
      <trkpt lat="48.63198" lon="-2.32382">
        <ele>23</ele>
        <time>2017-08-15T08:06:35Z</time>
      </trkpt>
      <trkpt lat="48.63199" lon="-2.32392">
        <ele>24.2</ele>
        <time>2017-08-15T08:06:39Z</time>
      </trkpt>
      <trkpt lat="48.63204" lon="-2.32399">
        <ele>25</ele>
        <time>2017-08-15T08:06:43Z</time>
      </trkpt>
      <trkpt lat="48.63212" lon="-2.32411">
        <ele>26.2</ele>
        <time>2017-08-15T08:06:47Z</time>
      </trkpt>
      <trkpt lat="48.63217" lon="-2.32423">
        <ele>27.6</ele>
        <time>2017-08-15T08:06:51Z</time>
      </trkpt>
      <trkpt lat="48.63219" lon="-2.32432">
        <ele>28.6</ele>
        <time>2017-08-15T08:06:55Z</time>
      </trkpt>
      <trkpt lat="48.63219" lon="-2.32444">
        <ele>30</ele>
        <time>2017-08-15T08:06:59Z</time>
      </trkpt>
      <trkpt lat="48.6322" lon="-2.32455">
        <ele>31.2</ele>
        <time>2017-08-15T08:07:03Z</time>
      </trkpt>
      <trkpt lat="48.63222" lon="-2.32466">
        <ele>32.8</ele>
        <time>2017-08-15T08:07:07Z</time>
      </trkpt>
      <trkpt lat="48.63228" lon="-2.32476">
        <ele>34.4</ele>
        <time>2017-08-15T08:07:11Z</time>
      </trkpt>
      <trkpt lat="48.63232" lon="-2.32486">
        <ele>35.6</ele>
        <time>2017-08-15T08:07:15Z</time>
      </trkpt>
      <trkpt lat="48.63234" lon="-2.32497">
        <ele>36.6</ele>
        <time>2017-08-15T08:07:19Z</time>
      </trkpt>
      <trkpt lat="48.63238" lon="-2.32505">
        <ele>38</ele>
        <time>2017-08-15T08:07:23Z</time>
      </trkpt>
      <trkpt lat="48.63244" lon="-2.32512">
        <ele>39.4</ele>
        <time>2017-08-15T08:07:27Z</time>
      </trkpt>
      <trkpt lat="48.63249" lon="-2.32517">
        <ele>39.4</ele>
        <time>2017-08-15T08:07:31Z</time>
      </trkpt>
      <trkpt lat="48.63255" lon="-2.32524">
        <ele>40</ele>
        <time>2017-08-15T08:07:35Z</time>
      </trkpt>
      <trkpt lat="48.63257" lon="-2.32535">
        <ele>40.6</ele>
        <time>2017-08-15T08:07:39Z</time>
      </trkpt>
      <trkpt lat="48.63259" lon="-2.32545">
        <ele>40.6</ele>
        <time>2017-08-15T08:07:43Z</time>
      </trkpt>
      <trkpt lat="48.6326" lon="-2.32558">
        <ele>41</ele>
        <time>2017-08-15T08:07:47Z</time>
      </trkpt>
      <trkpt lat="48.63262" lon="-2.32572">
        <ele>41.4</ele>
        <time>2017-08-15T08:07:51Z</time>
      </trkpt>
      <trkpt lat="48.63275" lon="-2.3258">
        <ele>41.6</ele>
        <time>2017-08-15T08:07:59Z</time>
      </trkpt>
      <trkpt lat="48.63286" lon="-2.32581">
        <ele>41.2</ele>
        <time>2017-08-15T08:08:03Z</time>
      </trkpt>
      <trkpt lat="48.63292" lon="-2.32588">
        <ele>41.4</ele>
        <time>2017-08-15T08:08:07Z</time>
      </trkpt>
      <trkpt lat="48.63293" lon="-2.32607">
        <ele>41</ele>
        <time>2017-08-15T08:08:11Z</time>
      </trkpt>
      <trkpt lat="48.63287" lon="-2.32625">
        <ele>40.6</ele>
        <time>2017-08-15T08:08:15Z</time>
      </trkpt>
      <trkpt lat="48.63281" lon="-2.3264">
        <ele>41.4</ele>
        <time>2017-08-15T08:08:19Z</time>
      </trkpt>
      <trkpt lat="48.63273" lon="-2.32654">
        <ele>41.2</ele>
        <time>2017-08-15T08:08:23Z</time>
      </trkpt>
      <trkpt lat="48.63264" lon="-2.32669">
        <ele>41</ele>
        <time>2017-08-15T08:08:27Z</time>
      </trkpt>
      <trkpt lat="48.63252" lon="-2.32682">
        <ele>40.8</ele>
        <time>2017-08-15T08:08:31Z</time>
      </trkpt>
      <trkpt lat="48.63241" lon="-2.32691">
        <ele>41.8</ele>
        <time>2017-08-15T08:08:35Z</time>
      </trkpt>
      <trkpt lat="48.63229" lon="-2.32699">
        <ele>41.8</ele>
        <time>2017-08-15T08:08:39Z</time>
      </trkpt>
      <trkpt lat="48.63219" lon="-2.32707">
        <ele>43</ele>
        <time>2017-08-15T08:08:43Z</time>
      </trkpt>
      <trkpt lat="48.6321" lon="-2.32717">
        <ele>43.2</ele>
        <time>2017-08-15T08:08:47Z</time>
      </trkpt>
      <trkpt lat="48.63208" lon="-2.32734">
        <ele>44.2</ele>
        <time>2017-08-15T08:08:51Z</time>
      </trkpt>
      <trkpt lat="48.63211" lon="-2.32752">
        <ele>44</ele>
        <time>2017-08-15T08:08:55Z</time>
      </trkpt>
      <trkpt lat="48.63215" lon="-2.3277">
        <ele>44</ele>
        <time>2017-08-15T08:08:59Z</time>
      </trkpt>
      <trkpt lat="48.63222" lon="-2.32787">
        <ele>45.4</ele>
        <time>2017-08-15T08:09:03Z</time>
      </trkpt>
      <trkpt lat="48.63227" lon="-2.32801">
        <ele>45</ele>
        <time>2017-08-15T08:09:07Z</time>
      </trkpt>
      <trkpt lat="48.63234" lon="-2.32814">
        <ele>45</ele>
        <time>2017-08-15T08:09:11Z</time>
      </trkpt>
      <trkpt lat="48.63241" lon="-2.32831">
        <ele>45.6</ele>
        <time>2017-08-15T08:09:15Z</time>
      </trkpt>
      <trkpt lat="48.63244" lon="-2.32849">
        <ele>45.6</ele>
        <time>2017-08-15T08:09:19Z</time>
      </trkpt>
      <trkpt lat="48.63252" lon="-2.32868">
        <ele>46.4</ele>
        <time>2017-08-15T08:09:23Z</time>
      </trkpt>
      <trkpt lat="48.63254" lon="-2.32886">
        <ele>46</ele>
        <time>2017-08-15T08:09:27Z</time>
      </trkpt>
      <trkpt lat="48.6326" lon="-2.32904">
        <ele>47.2</ele>
        <time>2017-08-15T08:09:31Z</time>
      </trkpt>
      <trkpt lat="48.63261" lon="-2.3292">
        <ele>47.4</ele>
        <time>2017-08-15T08:09:35Z</time>
      </trkpt>
      <trkpt lat="48.63266" lon="-2.32937">
        <ele>49.2</ele>
        <time>2017-08-15T08:09:39Z</time>
      </trkpt>
      <trkpt lat="48.63263" lon="-2.32951">
        <ele>49.4</ele>
        <time>2017-08-15T08:09:43Z</time>
      </trkpt>
      <trkpt lat="48.63266" lon="-2.32973">
        <ele>50</ele>
        <time>2017-08-15T08:09:47Z</time>
      </trkpt>
      <trkpt lat="48.63266" lon="-2.32994">
        <ele>51</ele>
        <time>2017-08-15T08:09:51Z</time>
      </trkpt>
      <trkpt lat="48.63267" lon="-2.33014">
        <ele>51.4</ele>
        <time>2017-08-15T08:09:55Z</time>
      </trkpt>
      <trkpt lat="48.63265" lon="-2.33036">
        <ele>51.6</ele>
        <time>2017-08-15T08:09:59Z</time>
      </trkpt>
      <trkpt lat="48.63256" lon="-2.33064">
        <ele>50.2</ele>
        <time>2017-08-15T08:10:03Z</time>
      </trkpt>
      <trkpt lat="48.63241" lon="-2.33088">
        <ele>49.4</ele>
        <time>2017-08-15T08:10:07Z</time>
      </trkpt>
      <trkpt lat="48.63224" lon="-2.3311">
        <ele>48.8</ele>
        <time>2017-08-15T08:10:11Z</time>
      </trkpt>
      <trkpt lat="48.6321" lon="-2.33132">
        <ele>48.4</ele>
        <time>2017-08-15T08:10:15Z</time>
      </trkpt>
      <trkpt lat="48.63205" lon="-2.33156">
        <ele>48.2</ele>
        <time>2017-08-15T08:10:19Z</time>
      </trkpt>
      <trkpt lat="48.63204" lon="-2.33182">
        <ele>48.2</ele>
        <time>2017-08-15T08:10:23Z</time>
      </trkpt>
      <trkpt lat="48.63195" lon="-2.33207">
        <ele>48</ele>
        <time>2017-08-15T08:10:27Z</time>
      </trkpt>
      <trkpt lat="48.63183" lon="-2.3323">
        <ele>48</ele>
        <time>2017-08-15T08:10:31Z</time>
      </trkpt>
      <trkpt lat="48.63172" lon="-2.33254">
        <ele>47.8</ele>
        <time>2017-08-15T08:10:35Z</time>
      </trkpt>
      <trkpt lat="48.63166" lon="-2.33278">
        <ele>49.2</ele>
        <time>2017-08-15T08:10:39Z</time>
      </trkpt>
      <trkpt lat="48.63162" lon="-2.33303">
        <ele>48.8</ele>
        <time>2017-08-15T08:10:43Z</time>
      </trkpt>
      <trkpt lat="48.6316" lon="-2.33328">
        <ele>49</ele>
        <time>2017-08-15T08:10:47Z</time>
      </trkpt>
      <trkpt lat="48.63158" lon="-2.33352">
        <ele>48.4</ele>
        <time>2017-08-15T08:10:51Z</time>
      </trkpt>
      <trkpt lat="48.63156" lon="-2.33375">
        <ele>48.4</ele>
        <time>2017-08-15T08:10:55Z</time>
      </trkpt>
      <trkpt lat="48.63151" lon="-2.33395">
        <ele>48.4</ele>
        <time>2017-08-15T08:10:59Z</time>
      </trkpt>
      <trkpt lat="48.63137" lon="-2.33397">
        <ele>48</ele>
        <time>2017-08-15T08:11:03Z</time>
      </trkpt>
      <trkpt lat="48.63124" lon="-2.33383">
        <ele>48.2</ele>
        <time>2017-08-15T08:11:07Z</time>
      </trkpt>
      <trkpt lat="48.63107" lon="-2.33384">
        <ele>48</ele>
        <time>2017-08-15T08:11:11Z</time>
      </trkpt>
      <trkpt lat="48.63094" lon="-2.33395">
        <ele>48.8</ele>
        <time>2017-08-15T08:11:15Z</time>
      </trkpt>
      <trkpt lat="48.63082" lon="-2.33408">
        <ele>48.4</ele>
        <time>2017-08-15T08:11:19Z</time>
      </trkpt>
      <trkpt lat="48.63066" lon="-2.33422">
        <ele>48.2</ele>
        <time>2017-08-15T08:11:23Z</time>
      </trkpt>
      <trkpt lat="48.63047" lon="-2.33437">
        <ele>49.2</ele>
        <time>2017-08-15T08:11:27Z</time>
      </trkpt>
      <trkpt lat="48.63028" lon="-2.33451">
        <ele>49.6</ele>
        <time>2017-08-15T08:11:31Z</time>
      </trkpt>
      <trkpt lat="48.6301" lon="-2.33463">
        <ele>49.4</ele>
        <time>2017-08-15T08:11:35Z</time>
      </trkpt>
      <trkpt lat="48.62992" lon="-2.33473">
        <ele>49.4</ele>
        <time>2017-08-15T08:11:39Z</time>
      </trkpt>
      <trkpt lat="48.62974" lon="-2.33482">
        <ele>50.2</ele>
        <time>2017-08-15T08:11:43Z</time>
      </trkpt>
      <trkpt lat="48.62956" lon="-2.33491">
        <ele>50.2</ele>
        <time>2017-08-15T08:11:47Z</time>
      </trkpt>
      <trkpt lat="48.6294" lon="-2.335">
        <ele>50.6</ele>
        <time>2017-08-15T08:11:51Z</time>
      </trkpt>
      <trkpt lat="48.62922" lon="-2.3351">
        <ele>51</ele>
        <time>2017-08-15T08:11:55Z</time>
      </trkpt>
      <trkpt lat="48.62905" lon="-2.33518">
        <ele>51.6</ele>
        <time>2017-08-15T08:11:59Z</time>
      </trkpt>
      <trkpt lat="48.62878" lon="-2.33529">
        <ele>51.2</ele>
        <time>2017-08-15T08:12:07Z</time>
      </trkpt>
      <trkpt lat="48.6286" lon="-2.33534">
        <ele>52</ele>
        <time>2017-08-15T08:12:11Z</time>
      </trkpt>
      <trkpt lat="48.62838" lon="-2.33538">
        <ele>51.4</ele>
        <time>2017-08-15T08:12:15Z</time>
      </trkpt>
      <trkpt lat="48.62817" lon="-2.33543">
        <ele>52</ele>
        <time>2017-08-15T08:12:19Z</time>
      </trkpt>
      <trkpt lat="48.62797" lon="-2.33549">
        <ele>52</ele>
        <time>2017-08-15T08:12:23Z</time>
      </trkpt>
      <trkpt lat="48.62777" lon="-2.33556">
        <ele>52.2</ele>
        <time>2017-08-15T08:12:27Z</time>
      </trkpt>
      <trkpt lat="48.62757" lon="-2.33563">
        <ele>52.4</ele>
        <time>2017-08-15T08:12:31Z</time>
      </trkpt>
      <trkpt lat="48.62739" lon="-2.33572">
        <ele>52.6</ele>
        <time>2017-08-15T08:12:35Z</time>
      </trkpt>
      <trkpt lat="48.62722" lon="-2.33585">
        <ele>52.8</ele>
        <time>2017-08-15T08:12:39Z</time>
      </trkpt>
      <trkpt lat="48.62706" lon="-2.33601">
        <ele>53.8</ele>
        <time>2017-08-15T08:12:43Z</time>
      </trkpt>
      <trkpt lat="48.62691" lon="-2.33614">
        <ele>53.6</ele>
        <time>2017-08-15T08:12:47Z</time>
      </trkpt>
      <trkpt lat="48.62675" lon="-2.33626">
        <ele>53.8</ele>
        <time>2017-08-15T08:12:51Z</time>
      </trkpt>
      <trkpt lat="48.62659" lon="-2.33636">
        <ele>54</ele>
        <time>2017-08-15T08:12:55Z</time>
      </trkpt>
      <trkpt lat="48.62642" lon="-2.33646">
        <ele>54.4</ele>
        <time>2017-08-15T08:12:59Z</time>
      </trkpt>
      <trkpt lat="48.62627" lon="-2.33658">
        <ele>54</ele>
        <time>2017-08-15T08:13:03Z</time>
      </trkpt>
      <trkpt lat="48.62616" lon="-2.33673">
        <ele>53.4</ele>
        <time>2017-08-15T08:13:07Z</time>
      </trkpt>
      <trkpt lat="48.62609" lon="-2.33683">
        <ele>53.8</ele>
        <time>2017-08-15T08:13:11Z</time>
      </trkpt>
      <trkpt lat="48.62606" lon="-2.33682">
        <ele>54</ele>
        <time>2017-08-15T08:13:15Z</time>
      </trkpt>
      <trkpt lat="48.62603" lon="-2.33667">
        <ele>53.2</ele>
        <time>2017-08-15T08:13:19Z</time>
      </trkpt>
      <trkpt lat="48.62602" lon="-2.33642">
        <ele>52.4</ele>
        <time>2017-08-15T08:13:23Z</time>
      </trkpt>
      <trkpt lat="48.62598" lon="-2.33614">
        <ele>52</ele>
        <time>2017-08-15T08:13:27Z</time>
      </trkpt>
      <trkpt lat="48.62579" lon="-2.33603">
        <ele>50.6</ele>
        <time>2017-08-15T08:13:31Z</time>
      </trkpt>
      <trkpt lat="48.62559" lon="-2.33608">
        <ele>50.8</ele>
        <time>2017-08-15T08:13:35Z</time>
      </trkpt>
      <trkpt lat="48.62538" lon="-2.33613">
        <ele>50.2</ele>
        <time>2017-08-15T08:13:39Z</time>
      </trkpt>
      <trkpt lat="48.62517" lon="-2.33619">
        <ele>50.6</ele>
        <time>2017-08-15T08:13:43Z</time>
      </trkpt>
      <trkpt lat="48.62497" lon="-2.33625">
        <ele>50.2</ele>
        <time>2017-08-15T08:13:47Z</time>
      </trkpt>
      <trkpt lat="48.62479" lon="-2.33633">
        <ele>49.4</ele>
        <time>2017-08-15T08:13:51Z</time>
      </trkpt>
      <trkpt lat="48.6246" lon="-2.33641">
        <ele>49</ele>
        <time>2017-08-15T08:13:55Z</time>
      </trkpt>
      <trkpt lat="48.62441" lon="-2.33653">
        <ele>49.6</ele>
        <time>2017-08-15T08:13:59Z</time>
      </trkpt>
      <trkpt lat="48.62421" lon="-2.33666">
        <ele>49.4</ele>
        <time>2017-08-15T08:14:03Z</time>
      </trkpt>
      <trkpt lat="48.62402" lon="-2.33679">
        <ele>49.2</ele>
        <time>2017-08-15T08:14:07Z</time>
      </trkpt>
      <trkpt lat="48.62384" lon="-2.33691">
        <ele>48</ele>
        <time>2017-08-15T08:14:11Z</time>
      </trkpt>
      <trkpt lat="48.62367" lon="-2.33702">
        <ele>48.2</ele>
        <time>2017-08-15T08:14:15Z</time>
      </trkpt>
      <trkpt lat="48.62349" lon="-2.33714">
        <ele>48.2</ele>
        <time>2017-08-15T08:14:19Z</time>
      </trkpt>
      <trkpt lat="48.62331" lon="-2.33726">
        <ele>46.8</ele>
        <time>2017-08-15T08:14:23Z</time>
      </trkpt>
      <trkpt lat="48.62327" lon="-2.33739">
        <ele>46.4</ele>
        <time>2017-08-15T08:14:27Z</time>
      </trkpt>
      <trkpt lat="48.62333" lon="-2.33754">
        <ele>46.2</ele>
        <time>2017-08-15T08:14:31Z</time>
      </trkpt>
      <trkpt lat="48.62327" lon="-2.33769">
        <ele>46.8</ele>
        <time>2017-08-15T08:14:35Z</time>
      </trkpt>
      <trkpt lat="48.62325" lon="-2.33783">
        <ele>47.2</ele>
        <time>2017-08-15T08:14:39Z</time>
      </trkpt>
      <trkpt lat="48.6232" lon="-2.33794">
        <ele>47</ele>
        <time>2017-08-15T08:14:43Z</time>
      </trkpt>
      <trkpt lat="48.62311" lon="-2.33801">
        <ele>46.6</ele>
        <time>2017-08-15T08:14:47Z</time>
      </trkpt>
      <trkpt lat="48.62299" lon="-2.33809">
        <ele>46.6</ele>
        <time>2017-08-15T08:14:51Z</time>
      </trkpt>
      <trkpt lat="48.62281" lon="-2.33822">
        <ele>45</ele>
        <time>2017-08-15T08:14:55Z</time>
      </trkpt>
      <trkpt lat="48.62262" lon="-2.33846">
        <ele>42.6</ele>
        <time>2017-08-15T08:14:59Z</time>
      </trkpt>
      <trkpt lat="48.62248" lon="-2.33863">
        <ele>39.6</ele>
        <time>2017-08-15T08:15:03Z</time>
      </trkpt>
      <trkpt lat="48.62232" lon="-2.33871">
        <ele>36</ele>
        <time>2017-08-15T08:15:07Z</time>
      </trkpt>
      <trkpt lat="48.62221" lon="-2.33876">
        <ele>34.2</ele>
        <time>2017-08-15T08:15:11Z</time>
      </trkpt>
      <trkpt lat="48.62202" lon="-2.33884">
        <ele>32.4</ele>
        <time>2017-08-15T08:15:15Z</time>
      </trkpt>
      <trkpt lat="48.62185" lon="-2.3389">
        <ele>28.6</ele>
        <time>2017-08-15T08:15:19Z</time>
      </trkpt>
      <trkpt lat="48.62193" lon="-2.33909">
        <ele>25.8</ele>
        <time>2017-08-15T08:15:23Z</time>
      </trkpt>
      <trkpt lat="48.62209" lon="-2.33924">
        <ele>22.6</ele>
        <time>2017-08-15T08:15:27Z</time>
      </trkpt>
      <trkpt lat="48.62221" lon="-2.33949">
        <ele>18.8</ele>
        <time>2017-08-15T08:15:31Z</time>
      </trkpt>
      <trkpt lat="48.62221" lon="-2.33969">
        <ele>16.2</ele>
        <time>2017-08-15T08:15:35Z</time>
      </trkpt>
      <trkpt lat="48.62209" lon="-2.33968">
        <ele>13.2</ele>
        <time>2017-08-15T08:15:39Z</time>
      </trkpt>
      <trkpt lat="48.62187" lon="-2.33957">
        <ele>10.4</ele>
        <time>2017-08-15T08:15:43Z</time>
      </trkpt>
      <trkpt lat="48.62175" lon="-2.33956">
        <ele>8</ele>
        <time>2017-08-15T08:15:47Z</time>
      </trkpt>
      <trkpt lat="48.62153" lon="-2.33955">
        <ele>3.6</ele>
        <time>2017-08-15T08:15:51Z</time>
      </trkpt>
      <trkpt lat="48.62127" lon="-2.33947">
        <ele>2</ele>
        <time>2017-08-15T08:15:55Z</time>
      </trkpt>
      <trkpt lat="48.62107" lon="-2.33936">
        <ele>-1.2</ele>
        <time>2017-08-15T08:15:59Z</time>
      </trkpt>
      <trkpt lat="48.62087" lon="-2.33922">
        <ele>-2.2</ele>
        <time>2017-08-15T08:16:03Z</time>
      </trkpt>
      <trkpt lat="48.62072" lon="-2.33905">
        <ele>-2.2</ele>
        <time>2017-08-15T08:16:07Z</time>
      </trkpt>
      <trkpt lat="48.62061" lon="-2.33888">
        <ele>-3.4</ele>
        <time>2017-08-15T08:16:11Z</time>
      </trkpt>
      <trkpt lat="48.62045" lon="-2.33862">
        <ele>-4.4</ele>
        <time>2017-08-15T08:16:15Z</time>
      </trkpt>
      <trkpt lat="48.62022" lon="-2.33836">
        <ele>-6.6</ele>
        <time>2017-08-15T08:16:19Z</time>
      </trkpt>
      <trkpt lat="48.61996" lon="-2.33841">
        <ele>-7.8</ele>
        <time>2017-08-15T08:16:23Z</time>
      </trkpt>
      <trkpt lat="48.61973" lon="-2.33865">
        <ele>-7.8</ele>
        <time>2017-08-15T08:16:27Z</time>
      </trkpt>
      <trkpt lat="48.61951" lon="-2.33887">
        <ele>-8.4</ele>
        <time>2017-08-15T08:16:31Z</time>
      </trkpt>
      <trkpt lat="48.61933" lon="-2.33913">
        <ele>-8.2</ele>
        <time>2017-08-15T08:16:35Z</time>
      </trkpt>
      <trkpt lat="48.61921" lon="-2.33941">
        <ele>-8</ele>
        <time>2017-08-15T08:16:39Z</time>
      </trkpt>
      <trkpt lat="48.61911" lon="-2.33963">
        <ele>-8</ele>
        <time>2017-08-15T08:16:43Z</time>
      </trkpt>
      <trkpt lat="48.61903" lon="-2.3398">
        <ele>-7.4</ele>
        <time>2017-08-15T08:16:47Z</time>
      </trkpt>
      <trkpt lat="48.61894" lon="-2.33998">
        <ele>-7.8</ele>
        <time>2017-08-15T08:16:51Z</time>
      </trkpt>
      <trkpt lat="48.61885" lon="-2.34019">
        <ele>-8</ele>
        <time>2017-08-15T08:16:55Z</time>
      </trkpt>
      <trkpt lat="48.61874" lon="-2.34035">
        <ele>-8.2</ele>
        <time>2017-08-15T08:16:59Z</time>
      </trkpt>
      <trkpt lat="48.61867" lon="-2.34052">
        <ele>-8.2</ele>
        <time>2017-08-15T08:17:03Z</time>
      </trkpt>
      <trkpt lat="48.61861" lon="-2.34072">
        <ele>-7.6</ele>
        <time>2017-08-15T08:17:07Z</time>
      </trkpt>
      <trkpt lat="48.61852" lon="-2.34093">
        <ele>-7.6</ele>
        <time>2017-08-15T08:17:11Z</time>
      </trkpt>
      <trkpt lat="48.61838" lon="-2.34111">
        <ele>-7.8</ele>
        <time>2017-08-15T08:17:15Z</time>
      </trkpt>
      <trkpt lat="48.61828" lon="-2.3413">
        <ele>-7.6</ele>
        <time>2017-08-15T08:17:19Z</time>
      </trkpt>
      <trkpt lat="48.61815" lon="-2.3415">
        <ele>-7.8</ele>
        <time>2017-08-15T08:17:23Z</time>
      </trkpt>
      <trkpt lat="48.61802" lon="-2.34162">
        <ele>-7.2</ele>
        <time>2017-08-15T08:17:27Z</time>
      </trkpt>
      <trkpt lat="48.61785" lon="-2.34174">
        <ele>-7.4</ele>
        <time>2017-08-15T08:17:31Z</time>
      </trkpt>
      <trkpt lat="48.61771" lon="-2.3419">
        <ele>-6.6</ele>
        <time>2017-08-15T08:17:35Z</time>
      </trkpt>
      <trkpt lat="48.61768" lon="-2.34204">
        <ele>-5.6</ele>
        <time>2017-08-15T08:17:39Z</time>
      </trkpt>
      <trkpt lat="48.61764" lon="-2.34211">
        <ele>-4.6</ele>
        <time>2017-08-15T08:17:43Z</time>
      </trkpt>
      <trkpt lat="48.61755" lon="-2.3422">
        <ele>-5.2</ele>
        <time>2017-08-15T08:17:47Z</time>
      </trkpt>
      <trkpt lat="48.61745" lon="-2.3423">
        <ele>-5.4</ele>
        <time>2017-08-15T08:17:51Z</time>
      </trkpt>
      <trkpt lat="48.61737" lon="-2.34241">
        <ele>-5.6</ele>
        <time>2017-08-15T08:17:55Z</time>
      </trkpt>
      <trkpt lat="48.61729" lon="-2.34254">
        <ele>-5.2</ele>
        <time>2017-08-15T08:17:59Z</time>
      </trkpt>
      <trkpt lat="48.61721" lon="-2.34266">
        <ele>-4.8</ele>
        <time>2017-08-15T08:18:03Z</time>
      </trkpt>
      <trkpt lat="48.6171" lon="-2.34278">
        <ele>-4.2</ele>
        <time>2017-08-15T08:18:07Z</time>
      </trkpt>
      <trkpt lat="48.61699" lon="-2.34294">
        <ele>-4</ele>
        <time>2017-08-15T08:18:11Z</time>
      </trkpt>
      <trkpt lat="48.61688" lon="-2.34307">
        <ele>-4.6</ele>
        <time>2017-08-15T08:18:15Z</time>
      </trkpt>
      <trkpt lat="48.61676" lon="-2.34319">
        <ele>-4.2</ele>
        <time>2017-08-15T08:18:19Z</time>
      </trkpt>
      <trkpt lat="48.61664" lon="-2.3433">
        <ele>-3.6</ele>
        <time>2017-08-15T08:18:23Z</time>
      </trkpt>
      <trkpt lat="48.61654" lon="-2.34348">
        <ele>-2.4</ele>
        <time>2017-08-15T08:18:27Z</time>
      </trkpt>
      <trkpt lat="48.61645" lon="-2.34361">
        <ele>-1.8</ele>
        <time>2017-08-15T08:18:31Z</time>
      </trkpt>
      <trkpt lat="48.61636" lon="-2.34374">
        <ele>-2.4</ele>
        <time>2017-08-15T08:18:35Z</time>
      </trkpt>
      <trkpt lat="48.61624" lon="-2.34395">
        <ele>-4</ele>
        <time>2017-08-15T08:18:39Z</time>
      </trkpt>
      <trkpt lat="48.61613" lon="-2.34411">
        <ele>-5.2</ele>
        <time>2017-08-15T08:18:43Z</time>
      </trkpt>
      <trkpt lat="48.61601" lon="-2.34425">
        <ele>-5.4</ele>
        <time>2017-08-15T08:18:47Z</time>
      </trkpt>
      <trkpt lat="48.6159" lon="-2.34439">
        <ele>-5.4</ele>
        <time>2017-08-15T08:18:51Z</time>
      </trkpt>
      <trkpt lat="48.61582" lon="-2.34456">
        <ele>-4.8</ele>
        <time>2017-08-15T08:18:55Z</time>
      </trkpt>
      <trkpt lat="48.61574" lon="-2.34474">
        <ele>-5.2</ele>
        <time>2017-08-15T08:18:59Z</time>
      </trkpt>
      <trkpt lat="48.61564" lon="-2.3449">
        <ele>-5</ele>
        <time>2017-08-15T08:19:03Z</time>
      </trkpt>
      <trkpt lat="48.61552" lon="-2.34505">
        <ele>-5.4</ele>
        <time>2017-08-15T08:19:07Z</time>
      </trkpt>
      <trkpt lat="48.61544" lon="-2.3452">
        <ele>-5</ele>
        <time>2017-08-15T08:19:11Z</time>
      </trkpt>
      <trkpt lat="48.61536" lon="-2.34538">
        <ele>-5.6</ele>
        <time>2017-08-15T08:19:15Z</time>
      </trkpt>
      <trkpt lat="48.61528" lon="-2.34558">
        <ele>-6.4</ele>
        <time>2017-08-15T08:19:19Z</time>
      </trkpt>
      <trkpt lat="48.61521" lon="-2.34582">
        <ele>-6.6</ele>
        <time>2017-08-15T08:19:23Z</time>
      </trkpt>
      <trkpt lat="48.61511" lon="-2.34599">
        <ele>-7</ele>
        <time>2017-08-15T08:19:27Z</time>
      </trkpt>
      <trkpt lat="48.61501" lon="-2.34613">
        <ele>-8.4</ele>
        <time>2017-08-15T08:19:31Z</time>
      </trkpt>
      <trkpt lat="48.61493" lon="-2.34631">
        <ele>-9</ele>
        <time>2017-08-15T08:19:35Z</time>
      </trkpt>
      <trkpt lat="48.61486" lon="-2.34651">
        <ele>-8.6</ele>
        <time>2017-08-15T08:19:39Z</time>
      </trkpt>
      <trkpt lat="48.61476" lon="-2.34672">
        <ele>-8.6</ele>
        <time>2017-08-15T08:19:43Z</time>
      </trkpt>
      <trkpt lat="48.61468" lon="-2.3469">
        <ele>-8.4</ele>
        <time>2017-08-15T08:19:47Z</time>
      </trkpt>
      <trkpt lat="48.61462" lon="-2.34703">
        <ele>-9</ele>
        <time>2017-08-15T08:19:51Z</time>
      </trkpt>
      <trkpt lat="48.61459" lon="-2.34711">
        <ele>-9</ele>
        <time>2017-08-15T08:19:55Z</time>
      </trkpt>
      <trkpt lat="48.61457" lon="-2.34721">
        <ele>-9</ele>
        <time>2017-08-15T08:19:59Z</time>
      </trkpt>
      <trkpt lat="48.61456" lon="-2.34732">
        <ele>-8.6</ele>
        <time>2017-08-15T08:20:03Z</time>
      </trkpt>
      <trkpt lat="48.6145" lon="-2.34744">
        <ele>-8</ele>
        <time>2017-08-15T08:20:07Z</time>
      </trkpt>
      <trkpt lat="48.61445" lon="-2.34756">
        <ele>-8.8</ele>
        <time>2017-08-15T08:20:11Z</time>
      </trkpt>
      <trkpt lat="48.61436" lon="-2.34769">
        <ele>-8.8</ele>
        <time>2017-08-15T08:20:15Z</time>
      </trkpt>
      <trkpt lat="48.61429" lon="-2.34789">
        <ele>-9</ele>
        <time>2017-08-15T08:20:19Z</time>
      </trkpt>
      <trkpt lat="48.61419" lon="-2.3481">
        <ele>-9.4</ele>
        <time>2017-08-15T08:20:23Z</time>
      </trkpt>
      <trkpt lat="48.61411" lon="-2.3483">
        <ele>-9.8</ele>
        <time>2017-08-15T08:20:27Z</time>
      </trkpt>
      <trkpt lat="48.61404" lon="-2.34851">
        <ele>-9.2</ele>
        <time>2017-08-15T08:20:31Z</time>
      </trkpt>
      <trkpt lat="48.61396" lon="-2.34868">
        <ele>-9</ele>
        <time>2017-08-15T08:20:35Z</time>
      </trkpt>
      <trkpt lat="48.61384" lon="-2.34885">
        <ele>-8.6</ele>
        <time>2017-08-15T08:20:39Z</time>
      </trkpt>
      <trkpt lat="48.61374" lon="-2.34896">
        <ele>-9</ele>
        <time>2017-08-15T08:20:43Z</time>
      </trkpt>
      <trkpt lat="48.61368" lon="-2.34909">
        <ele>-8.8</ele>
        <time>2017-08-15T08:20:47Z</time>
      </trkpt>
      <trkpt lat="48.61363" lon="-2.34921">
        <ele>-9.2</ele>
        <time>2017-08-15T08:20:51Z</time>
      </trkpt>
      <trkpt lat="48.61355" lon="-2.34929">
        <ele>-10</ele>
        <time>2017-08-15T08:20:55Z</time>
      </trkpt>
      <trkpt lat="48.61348" lon="-2.34938">
        <ele>-10</ele>
        <time>2017-08-15T08:20:59Z</time>
      </trkpt>
      <trkpt lat="48.61344" lon="-2.34946">
        <ele>-9.4</ele>
        <time>2017-08-15T08:21:03Z</time>
      </trkpt>
      <trkpt lat="48.61334" lon="-2.34957">
        <ele>-10</ele>
        <time>2017-08-15T08:21:07Z</time>
      </trkpt>
      <trkpt lat="48.61325" lon="-2.34959">
        <ele>-10</ele>
        <time>2017-08-15T08:21:11Z</time>
      </trkpt>
      <trkpt lat="48.61319" lon="-2.34962">
        <ele>-10</ele>
        <time>2017-08-15T08:21:15Z</time>
      </trkpt>
      <trkpt lat="48.6131" lon="-2.34969">
        <ele>-9.4</ele>
        <time>2017-08-15T08:21:19Z</time>
      </trkpt>
      <trkpt lat="48.61298" lon="-2.34975">
        <ele>-9.8</ele>
        <time>2017-08-15T08:21:23Z</time>
      </trkpt>
      <trkpt lat="48.61285" lon="-2.34981">
        <ele>-10</ele>
        <time>2017-08-15T08:21:27Z</time>
      </trkpt>
      <trkpt lat="48.6127" lon="-2.34985">
        <ele>-10.2</ele>
        <time>2017-08-15T08:21:31Z</time>
      </trkpt>
      <trkpt lat="48.61259" lon="-2.34995">
        <ele>-9.8</ele>
        <time>2017-08-15T08:21:35Z</time>
      </trkpt>
      <trkpt lat="48.61248" lon="-2.35001">
        <ele>-10</ele>
        <time>2017-08-15T08:21:39Z</time>
      </trkpt>
      <trkpt lat="48.61237" lon="-2.3501">
        <ele>-10</ele>
        <time>2017-08-15T08:21:43Z</time>
      </trkpt>
      <trkpt lat="48.61226" lon="-2.35023">
        <ele>-9.8</ele>
        <time>2017-08-15T08:21:47Z</time>
      </trkpt>
      <trkpt lat="48.61211" lon="-2.35036">
        <ele>-10.2</ele>
        <time>2017-08-15T08:21:51Z</time>
      </trkpt>
      <trkpt lat="48.61197" lon="-2.35043">
        <ele>-9.4</ele>
        <time>2017-08-15T08:21:55Z</time>
      </trkpt>
      <trkpt lat="48.61183" lon="-2.35049">
        <ele>-9.4</ele>
        <time>2017-08-15T08:21:59Z</time>
      </trkpt>
      <trkpt lat="48.61168" lon="-2.35059">
        <ele>-9.4</ele>
        <time>2017-08-15T08:22:03Z</time>
      </trkpt>
      <trkpt lat="48.6115" lon="-2.35066">
        <ele>-9.4</ele>
        <time>2017-08-15T08:22:07Z</time>
      </trkpt>
      <trkpt lat="48.61132" lon="-2.35073">
        <ele>-8.4</ele>
        <time>2017-08-15T08:22:11Z</time>
      </trkpt>
      <trkpt lat="48.61114" lon="-2.3508">
        <ele>-8.4</ele>
        <time>2017-08-15T08:22:15Z</time>
      </trkpt>
      <trkpt lat="48.61099" lon="-2.35083">
        <ele>-9</ele>
        <time>2017-08-15T08:22:19Z</time>
      </trkpt>
      <trkpt lat="48.61082" lon="-2.35082">
        <ele>-9.4</ele>
        <time>2017-08-15T08:22:23Z</time>
      </trkpt>
      <trkpt lat="48.61065" lon="-2.35081">
        <ele>-9.4</ele>
        <time>2017-08-15T08:22:27Z</time>
      </trkpt>
      <trkpt lat="48.61051" lon="-2.35082">
        <ele>-9.8</ele>
        <time>2017-08-15T08:22:31Z</time>
      </trkpt>
      <trkpt lat="48.6104" lon="-2.35094">
        <ele>-9.2</ele>
        <time>2017-08-15T08:22:35Z</time>
      </trkpt>
      <trkpt lat="48.61032" lon="-2.3511">
        <ele>-8.4</ele>
        <time>2017-08-15T08:22:39Z</time>
      </trkpt>
      <trkpt lat="48.61025" lon="-2.35121">
        <ele>-8</ele>
        <time>2017-08-15T08:22:43Z</time>
      </trkpt>
      <trkpt lat="48.61017" lon="-2.35128">
        <ele>-7</ele>
        <time>2017-08-15T08:22:47Z</time>
      </trkpt>
      <trkpt lat="48.61009" lon="-2.35134">
        <ele>-6.4</ele>
        <time>2017-08-15T08:22:51Z</time>
      </trkpt>
      <trkpt lat="48.60998" lon="-2.35137">
        <ele>-5</ele>
        <time>2017-08-15T08:22:55Z</time>
      </trkpt>
      <trkpt lat="48.60988" lon="-2.35139">
        <ele>-4</ele>
        <time>2017-08-15T08:22:59Z</time>
      </trkpt>
      <trkpt lat="48.6098" lon="-2.3514">
        <ele>-3.2</ele>
        <time>2017-08-15T08:23:03Z</time>
      </trkpt>
      <trkpt lat="48.60968" lon="-2.35141">
        <ele>-2.2</ele>
        <time>2017-08-15T08:23:07Z</time>
      </trkpt>
      <trkpt lat="48.60957" lon="-2.35139">
        <ele>-1.2</ele>
        <time>2017-08-15T08:23:11Z</time>
      </trkpt>
      <trkpt lat="48.60946" lon="-2.3514">
        <ele>-0.8</ele>
        <time>2017-08-15T08:23:15Z</time>
      </trkpt>
      <trkpt lat="48.60937" lon="-2.3514">
        <ele>-0.2</ele>
        <time>2017-08-15T08:23:19Z</time>
      </trkpt>
      <trkpt lat="48.60928" lon="-2.35142">
        <ele>-0.6</ele>
        <time>2017-08-15T08:23:23Z</time>
      </trkpt>
      <trkpt lat="48.6092" lon="-2.35143">
        <ele>0.2</ele>
        <time>2017-08-15T08:23:27Z</time>
      </trkpt>
      <trkpt lat="48.60912" lon="-2.35144">
        <ele>0.6</ele>
        <time>2017-08-15T08:23:31Z</time>
      </trkpt>
      <trkpt lat="48.60899" lon="-2.35147">
        <ele>0.4</ele>
        <time>2017-08-15T08:23:35Z</time>
      </trkpt>
      <trkpt lat="48.60886" lon="-2.35151">
        <ele>0.2</ele>
        <time>2017-08-15T08:23:39Z</time>
      </trkpt>
      <trkpt lat="48.60873" lon="-2.35149">
        <ele>0.2</ele>
        <time>2017-08-15T08:23:43Z</time>
      </trkpt>
      <trkpt lat="48.6085" lon="-2.35139">
        <ele>-1.6</ele>
        <time>2017-08-15T08:23:47Z</time>
      </trkpt>
      <trkpt lat="48.6082" lon="-2.3513">
        <ele>-4.8</ele>
        <time>2017-08-15T08:23:51Z</time>
      </trkpt>
      <trkpt lat="48.60798" lon="-2.35141">
        <ele>-7.4</ele>
        <time>2017-08-15T08:23:55Z</time>
      </trkpt>
      <trkpt lat="48.60782" lon="-2.35167">
        <ele>-10</ele>
        <time>2017-08-15T08:23:59Z</time>
      </trkpt>
      <trkpt lat="48.60766" lon="-2.35191">
        <ele>-10.6</ele>
        <time>2017-08-15T08:24:03Z</time>
      </trkpt>
      <trkpt lat="48.60753" lon="-2.35213">
        <ele>-10.4</ele>
        <time>2017-08-15T08:24:07Z</time>
      </trkpt>
      <trkpt lat="48.60744" lon="-2.3523">
        <ele>-9.8</ele>
        <time>2017-08-15T08:24:11Z</time>
      </trkpt>
      <trkpt lat="48.6074" lon="-2.35246">
        <ele>-10.2</ele>
        <time>2017-08-15T08:24:15Z</time>
      </trkpt>
      <trkpt lat="48.60739" lon="-2.35265">
        <ele>-10.2</ele>
        <time>2017-08-15T08:24:19Z</time>
      </trkpt>
      <trkpt lat="48.60732" lon="-2.35294">
        <ele>-10</ele>
        <time>2017-08-15T08:24:23Z</time>
      </trkpt>
      <trkpt lat="48.60725" lon="-2.35322">
        <ele>-10.2</ele>
        <time>2017-08-15T08:24:27Z</time>
      </trkpt>
      <trkpt lat="48.60715" lon="-2.35347">
        <ele>-10</ele>
        <time>2017-08-15T08:24:31Z</time>
      </trkpt>
      <trkpt lat="48.60713" lon="-2.35367">
        <ele>-10</ele>
        <time>2017-08-15T08:24:35Z</time>
      </trkpt>
      <trkpt lat="48.60713" lon="-2.35388">
        <ele>-10</ele>
        <time>2017-08-15T08:24:39Z</time>
      </trkpt>
      <trkpt lat="48.60703" lon="-2.35406">
        <ele>-10.4</ele>
        <time>2017-08-15T08:24:43Z</time>
      </trkpt>
      <trkpt lat="48.60688" lon="-2.35416">
        <ele>-10</ele>
        <time>2017-08-15T08:24:47Z</time>
      </trkpt>
      <trkpt lat="48.60687" lon="-2.35437">
        <ele>-10</ele>
        <time>2017-08-15T08:24:51Z</time>
      </trkpt>
      <trkpt lat="48.60697" lon="-2.35452">
        <ele>-9.4</ele>
        <time>2017-08-15T08:24:55Z</time>
      </trkpt>
      <trkpt lat="48.60697" lon="-2.35474">
        <ele>-9.4</ele>
        <time>2017-08-15T08:24:59Z</time>
      </trkpt>
      <trkpt lat="48.60696" lon="-2.35502">
        <ele>-10.2</ele>
        <time>2017-08-15T08:25:03Z</time>
      </trkpt>
      <trkpt lat="48.60696" lon="-2.35528">
        <ele>-9.8</ele>
        <time>2017-08-15T08:25:07Z</time>
      </trkpt>
      <trkpt lat="48.60694" lon="-2.35555">
        <ele>-9.8</ele>
        <time>2017-08-15T08:25:11Z</time>
      </trkpt>
      <trkpt lat="48.60691" lon="-2.35576">
        <ele>-9</ele>
        <time>2017-08-15T08:25:15Z</time>
      </trkpt>
      <trkpt lat="48.60688" lon="-2.35594">
        <ele>-9</ele>
        <time>2017-08-15T08:25:19Z</time>
      </trkpt>
      <trkpt lat="48.60686" lon="-2.35615">
        <ele>-8.8</ele>
        <time>2017-08-15T08:25:23Z</time>
      </trkpt>
      <trkpt lat="48.60679" lon="-2.35636">
        <ele>-8.4</ele>
        <time>2017-08-15T08:25:27Z</time>
      </trkpt>
      <trkpt lat="48.60675" lon="-2.35659">
        <ele>-8</ele>
        <time>2017-08-15T08:25:31Z</time>
      </trkpt>
      <trkpt lat="48.60669" lon="-2.35682">
        <ele>-8</ele>
        <time>2017-08-15T08:25:35Z</time>
      </trkpt>
      <trkpt lat="48.60661" lon="-2.35704">
        <ele>-8</ele>
        <time>2017-08-15T08:25:39Z</time>
      </trkpt>
      <trkpt lat="48.6065" lon="-2.35723">
        <ele>-8</ele>
        <time>2017-08-15T08:25:43Z</time>
      </trkpt>
      <trkpt lat="48.60639" lon="-2.3574">
        <ele>-7.8</ele>
        <time>2017-08-15T08:25:47Z</time>
      </trkpt>
      <trkpt lat="48.60626" lon="-2.35754">
        <ele>-7.4</ele>
        <time>2017-08-15T08:25:51Z</time>
      </trkpt>
      <trkpt lat="48.60614" lon="-2.35768">
        <ele>-7.4</ele>
        <time>2017-08-15T08:25:55Z</time>
      </trkpt>
      <trkpt lat="48.60604" lon="-2.35782">
        <ele>-7.2</ele>
        <time>2017-08-15T08:25:59Z</time>
      </trkpt>
      <trkpt lat="48.60595" lon="-2.35798">
        <ele>-7</ele>
        <time>2017-08-15T08:26:03Z</time>
      </trkpt>
      <trkpt lat="48.60587" lon="-2.35814">
        <ele>-6.6</ele>
        <time>2017-08-15T08:26:07Z</time>
      </trkpt>
      <trkpt lat="48.60578" lon="-2.35826">
        <ele>-6.8</ele>
        <time>2017-08-15T08:26:11Z</time>
      </trkpt>
      <trkpt lat="48.60566" lon="-2.3583">
        <ele>-6.8</ele>
        <time>2017-08-15T08:26:15Z</time>
      </trkpt>
      <trkpt lat="48.60556" lon="-2.3583">
        <ele>-6.2</ele>
        <time>2017-08-15T08:26:19Z</time>
      </trkpt>
      <trkpt lat="48.60549" lon="-2.3582">
        <ele>-5.2</ele>
        <time>2017-08-15T08:26:23Z</time>
      </trkpt>
      <trkpt lat="48.60543" lon="-2.3581">
        <ele>-5.6</ele>
        <time>2017-08-15T08:26:27Z</time>
      </trkpt>
      <trkpt lat="48.60539" lon="-2.35816">
        <ele>-4.6</ele>
        <time>2017-08-15T08:26:31Z</time>
      </trkpt>
      <trkpt lat="48.60539" lon="-2.35829">
        <ele>-4</ele>
        <time>2017-08-15T08:26:35Z</time>
      </trkpt>
      <trkpt lat="48.60539" lon="-2.35841">
        <ele>-2.2</ele>
        <time>2017-08-15T08:26:39Z</time>
      </trkpt>
      <trkpt lat="48.60536" lon="-2.35853">
        <ele>-1.8</ele>
        <time>2017-08-15T08:26:43Z</time>
      </trkpt>
      <trkpt lat="48.60532" lon="-2.35863">
        <ele>-0.2</ele>
        <time>2017-08-15T08:26:47Z</time>
      </trkpt>
      <trkpt lat="48.60527" lon="-2.35873">
        <ele>0.2</ele>
        <time>2017-08-15T08:26:51Z</time>
      </trkpt>
      <trkpt lat="48.60523" lon="-2.35883">
        <ele>1.8</ele>
        <time>2017-08-15T08:26:55Z</time>
      </trkpt>
      <trkpt lat="48.6052" lon="-2.35893">
        <ele>2.8</ele>
        <time>2017-08-15T08:26:59Z</time>
      </trkpt>
      <trkpt lat="48.60517" lon="-2.35905">
        <ele>4</ele>
        <time>2017-08-15T08:27:03Z</time>
      </trkpt>
      <trkpt lat="48.60515" lon="-2.35917">
        <ele>4</ele>
        <time>2017-08-15T08:27:07Z</time>
      </trkpt>
      <trkpt lat="48.60515" lon="-2.35929">
        <ele>4.6</ele>
        <time>2017-08-15T08:27:11Z</time>
      </trkpt>
      <trkpt lat="48.60517" lon="-2.3594">
        <ele>6.4</ele>
        <time>2017-08-15T08:27:15Z</time>
      </trkpt>
      <trkpt lat="48.6052" lon="-2.35951">
        <ele>7.6</ele>
        <time>2017-08-15T08:27:19Z</time>
      </trkpt>
      <trkpt lat="48.60519" lon="-2.35964">
        <ele>8</ele>
        <time>2017-08-15T08:27:23Z</time>
      </trkpt>
      <trkpt lat="48.60518" lon="-2.35974">
        <ele>7.8</ele>
        <time>2017-08-15T08:27:27Z</time>
      </trkpt>
      <trkpt lat="48.60514" lon="-2.35985">
        <ele>8.8</ele>
        <time>2017-08-15T08:27:31Z</time>
      </trkpt>
      <trkpt lat="48.60509" lon="-2.35993">
        <ele>9</ele>
        <time>2017-08-15T08:27:35Z</time>
      </trkpt>
      <trkpt lat="48.60505" lon="-2.36004">
        <ele>9.8</ele>
        <time>2017-08-15T08:27:39Z</time>
      </trkpt>
      <trkpt lat="48.60501" lon="-2.36014">
        <ele>10.6</ele>
        <time>2017-08-15T08:27:43Z</time>
      </trkpt>
      <trkpt lat="48.60497" lon="-2.36022">
        <ele>12.4</ele>
        <time>2017-08-15T08:27:47Z</time>
      </trkpt>
      <trkpt lat="48.60497" lon="-2.36032">
        <ele>13.6</ele>
        <time>2017-08-15T08:27:51Z</time>
      </trkpt>
      <trkpt lat="48.60499" lon="-2.36044">
        <ele>15.2</ele>
        <time>2017-08-15T08:27:55Z</time>
      </trkpt>
      <trkpt lat="48.60503" lon="-2.36057">
        <ele>15.2</ele>
        <time>2017-08-15T08:27:59Z</time>
      </trkpt>
      <trkpt lat="48.60506" lon="-2.36069">
        <ele>16.8</ele>
        <time>2017-08-15T08:28:03Z</time>
      </trkpt>
      <trkpt lat="48.6051" lon="-2.36079">
        <ele>17.8</ele>
        <time>2017-08-15T08:28:07Z</time>
      </trkpt>
      <trkpt lat="48.60512" lon="-2.36091">
        <ele>18.8</ele>
        <time>2017-08-15T08:28:11Z</time>
      </trkpt>
      <trkpt lat="48.60515" lon="-2.36103">
        <ele>19.4</ele>
        <time>2017-08-15T08:28:15Z</time>
      </trkpt>
      <trkpt lat="48.60519" lon="-2.36115">
        <ele>19.8</ele>
        <time>2017-08-15T08:28:19Z</time>
      </trkpt>
      <trkpt lat="48.60521" lon="-2.36127">
        <ele>20.4</ele>
        <time>2017-08-15T08:28:23Z</time>
      </trkpt>
      <trkpt lat="48.60525" lon="-2.36138">
        <ele>21.2</ele>
        <time>2017-08-15T08:28:27Z</time>
      </trkpt>
      <trkpt lat="48.60528" lon="-2.36149">
        <ele>21.6</ele>
        <time>2017-08-15T08:28:31Z</time>
      </trkpt>
      <trkpt lat="48.60531" lon="-2.36162">
        <ele>22.6</ele>
        <time>2017-08-15T08:28:35Z</time>
      </trkpt>
      <trkpt lat="48.60534" lon="-2.36177">
        <ele>22.8</ele>
        <time>2017-08-15T08:28:39Z</time>
      </trkpt>
      <trkpt lat="48.60537" lon="-2.3619">
        <ele>22.6</ele>
        <time>2017-08-15T08:28:43Z</time>
      </trkpt>
      <trkpt lat="48.60541" lon="-2.36209">
        <ele>21.4</ele>
        <time>2017-08-15T08:28:47Z</time>
      </trkpt>
      <trkpt lat="48.60542" lon="-2.36224">
        <ele>21.6</ele>
        <time>2017-08-15T08:28:51Z</time>
      </trkpt>
      <trkpt lat="48.60536" lon="-2.36235">
        <ele>22.8</ele>
        <time>2017-08-15T08:28:55Z</time>
      </trkpt>
      <trkpt lat="48.60528" lon="-2.36242">
        <ele>23.8</ele>
        <time>2017-08-15T08:28:59Z</time>
      </trkpt>
      <trkpt lat="48.60521" lon="-2.36244">
        <ele>25.4</ele>
        <time>2017-08-15T08:29:03Z</time>
      </trkpt>
      <trkpt lat="48.60513" lon="-2.36247">
        <ele>26.8</ele>
        <time>2017-08-15T08:29:07Z</time>
      </trkpt>
      <trkpt lat="48.60505" lon="-2.3625">
        <ele>28.2</ele>
        <time>2017-08-15T08:29:11Z</time>
      </trkpt>
      <trkpt lat="48.60497" lon="-2.36255">
        <ele>28.8</ele>
        <time>2017-08-15T08:29:15Z</time>
      </trkpt>
      <trkpt lat="48.60489" lon="-2.3626">
        <ele>30</ele>
        <time>2017-08-15T08:29:19Z</time>
      </trkpt>
      <trkpt lat="48.60482" lon="-2.36266">
        <ele>30.6</ele>
        <time>2017-08-15T08:29:23Z</time>
      </trkpt>
      <trkpt lat="48.60475" lon="-2.36272">
        <ele>32</ele>
        <time>2017-08-15T08:29:27Z</time>
      </trkpt>
      <trkpt lat="48.60467" lon="-2.36278">
        <ele>32.6</ele>
        <time>2017-08-15T08:29:31Z</time>
      </trkpt>
      <trkpt lat="48.6046" lon="-2.36284">
        <ele>33.8</ele>
        <time>2017-08-15T08:29:35Z</time>
      </trkpt>
      <trkpt lat="48.60453" lon="-2.3629">
        <ele>34.8</ele>
        <time>2017-08-15T08:29:39Z</time>
      </trkpt>
      <trkpt lat="48.60445" lon="-2.36296">
        <ele>35</ele>
        <time>2017-08-15T08:29:43Z</time>
      </trkpt>
      <trkpt lat="48.60438" lon="-2.36302">
        <ele>36.2</ele>
        <time>2017-08-15T08:29:47Z</time>
      </trkpt>
      <trkpt lat="48.60432" lon="-2.36309">
        <ele>37.2</ele>
        <time>2017-08-15T08:29:51Z</time>
      </trkpt>
      <trkpt lat="48.60425" lon="-2.36315">
        <ele>37.4</ele>
        <time>2017-08-15T08:29:55Z</time>
      </trkpt>
      <trkpt lat="48.60418" lon="-2.36321">
        <ele>38</ele>
        <time>2017-08-15T08:29:59Z</time>
      </trkpt>
      <trkpt lat="48.6041" lon="-2.36327">
        <ele>39.4</ele>
        <time>2017-08-15T08:30:03Z</time>
      </trkpt>
      <trkpt lat="48.60404" lon="-2.36333">
        <ele>40</ele>
        <time>2017-08-15T08:30:07Z</time>
      </trkpt>
      <trkpt lat="48.60397" lon="-2.36339">
        <ele>40.8</ele>
        <time>2017-08-15T08:30:11Z</time>
      </trkpt>
      <trkpt lat="48.60391" lon="-2.36344">
        <ele>41.2</ele>
        <time>2017-08-15T08:30:15Z</time>
      </trkpt>
      <trkpt lat="48.60384" lon="-2.3635">
        <ele>41.4</ele>
        <time>2017-08-15T08:30:19Z</time>
      </trkpt>
      <trkpt lat="48.60377" lon="-2.36357">
        <ele>41</ele>
        <time>2017-08-15T08:30:23Z</time>
      </trkpt>
      <trkpt lat="48.60369" lon="-2.36364">
        <ele>41.2</ele>
        <time>2017-08-15T08:30:27Z</time>
      </trkpt>
      <trkpt lat="48.60362" lon="-2.3637">
        <ele>41.2</ele>
        <time>2017-08-15T08:30:31Z</time>
      </trkpt>
      <trkpt lat="48.60355" lon="-2.36377">
        <ele>41</ele>
        <time>2017-08-15T08:30:35Z</time>
      </trkpt>
      <trkpt lat="48.60348" lon="-2.36384">
        <ele>41.4</ele>
        <time>2017-08-15T08:30:39Z</time>
      </trkpt>
      <trkpt lat="48.6034" lon="-2.36393">
        <ele>41.2</ele>
        <time>2017-08-15T08:30:43Z</time>
      </trkpt>
      <trkpt lat="48.60333" lon="-2.364">
        <ele>41.6</ele>
        <time>2017-08-15T08:30:47Z</time>
      </trkpt>
      <trkpt lat="48.60325" lon="-2.36407">
        <ele>41.6</ele>
        <time>2017-08-15T08:30:51Z</time>
      </trkpt>
      <trkpt lat="48.60317" lon="-2.36413">
        <ele>41.6</ele>
        <time>2017-08-15T08:30:55Z</time>
      </trkpt>
      <trkpt lat="48.60309" lon="-2.36421">
        <ele>42.2</ele>
        <time>2017-08-15T08:30:59Z</time>
      </trkpt>
      <trkpt lat="48.60301" lon="-2.36428">
        <ele>42</ele>
        <time>2017-08-15T08:31:03Z</time>
      </trkpt>
      <trkpt lat="48.60293" lon="-2.36435">
        <ele>41.8</ele>
        <time>2017-08-15T08:31:07Z</time>
      </trkpt>
      <trkpt lat="48.60286" lon="-2.36441">
        <ele>42.2</ele>
        <time>2017-08-15T08:31:11Z</time>
      </trkpt>
      <trkpt lat="48.60278" lon="-2.36445">
        <ele>42.2</ele>
        <time>2017-08-15T08:31:15Z</time>
      </trkpt>
      <trkpt lat="48.60275" lon="-2.36434">
        <ele>42.4</ele>
        <time>2017-08-15T08:31:19Z</time>
      </trkpt>
      <trkpt lat="48.60273" lon="-2.3642">
        <ele>43</ele>
        <time>2017-08-15T08:31:23Z</time>
      </trkpt>
      <trkpt lat="48.6027" lon="-2.36407">
        <ele>43.6</ele>
        <time>2017-08-15T08:31:27Z</time>
      </trkpt>
      <trkpt lat="48.60268" lon="-2.36394">
        <ele>44</ele>
        <time>2017-08-15T08:31:31Z</time>
      </trkpt>
      <trkpt lat="48.60264" lon="-2.36382">
        <ele>43.6</ele>
        <time>2017-08-15T08:31:35Z</time>
      </trkpt>
      <trkpt lat="48.60262" lon="-2.36371">
        <ele>43.6</ele>
        <time>2017-08-15T08:31:39Z</time>
      </trkpt>
      <trkpt lat="48.60259" lon="-2.3636">
        <ele>43</ele>
        <time>2017-08-15T08:31:43Z</time>
      </trkpt>
      <trkpt lat="48.60249" lon="-2.36362">
        <ele>43.2</ele>
        <time>2017-08-15T08:31:47Z</time>
      </trkpt>
      <trkpt lat="48.60239" lon="-2.36351">
        <ele>41.4</ele>
        <time>2017-08-15T08:31:51Z</time>
      </trkpt>
      <trkpt lat="48.60237" lon="-2.36334">
        <ele>40.6</ele>
        <time>2017-08-15T08:31:55Z</time>
      </trkpt>
      <trkpt lat="48.6023" lon="-2.36319">
        <ele>39.4</ele>
        <time>2017-08-15T08:31:59Z</time>
      </trkpt>
      <trkpt lat="48.60219" lon="-2.36314">
        <ele>36.6</ele>
        <time>2017-08-15T08:32:03Z</time>
      </trkpt>
      <trkpt lat="48.60214" lon="-2.36304">
        <ele>34.6</ele>
        <time>2017-08-15T08:32:07Z</time>
      </trkpt>
      <trkpt lat="48.60208" lon="-2.36286">
        <ele>31.4</ele>
        <time>2017-08-15T08:32:11Z</time>
      </trkpt>
      <trkpt lat="48.60198" lon="-2.36275">
        <ele>28.4</ele>
        <time>2017-08-15T08:32:15Z</time>
      </trkpt>
      <trkpt lat="48.60189" lon="-2.36267">
        <ele>25.2</ele>
        <time>2017-08-15T08:32:19Z</time>
      </trkpt>
      <trkpt lat="48.60181" lon="-2.36271">
        <ele>25</ele>
        <time>2017-08-15T08:32:23Z</time>
      </trkpt>
      <trkpt lat="48.60176" lon="-2.3628">
        <ele>26</ele>
        <time>2017-08-15T08:32:27Z</time>
      </trkpt>
      <trkpt lat="48.6017" lon="-2.36284">
        <ele>27</ele>
        <time>2017-08-15T08:32:31Z</time>
      </trkpt>
      <trkpt lat="48.60164" lon="-2.36286">
        <ele>27.4</ele>
        <time>2017-08-15T08:32:35Z</time>
      </trkpt>
      <trkpt lat="48.6016" lon="-2.36287">
        <ele>28.6</ele>
        <time>2017-08-15T08:32:39Z</time>
      </trkpt>
      <trkpt lat="48.60153" lon="-2.36288">
        <ele>29.6</ele>
        <time>2017-08-15T08:32:43Z</time>
      </trkpt>
      <trkpt lat="48.60144" lon="-2.36287">
        <ele>31.4</ele>
        <time>2017-08-15T08:32:47Z</time>
      </trkpt>
      <trkpt lat="48.6014" lon="-2.36287">
        <ele>34</ele>
        <time>2017-08-15T08:32:55Z</time>
      </trkpt>
      <trkpt lat="48.60133" lon="-2.36289">
        <ele>34.8</ele>
        <time>2017-08-15T08:32:59Z</time>
      </trkpt>
      <trkpt lat="48.60127" lon="-2.36287">
        <ele>34.6</ele>
        <time>2017-08-15T08:33:03Z</time>
      </trkpt>
      <trkpt lat="48.60119" lon="-2.36285">
        <ele>34</ele>
        <time>2017-08-15T08:33:07Z</time>
      </trkpt>
      <trkpt lat="48.60112" lon="-2.36288">
        <ele>33.6</ele>
        <time>2017-08-15T08:33:11Z</time>
      </trkpt>
      <trkpt lat="48.60104" lon="-2.36286">
        <ele>32</ele>
        <time>2017-08-15T08:33:15Z</time>
      </trkpt>
      <trkpt lat="48.60096" lon="-2.36291">
        <ele>33.4</ele>
        <time>2017-08-15T08:33:19Z</time>
      </trkpt>
      <trkpt lat="48.60092" lon="-2.36299">
        <ele>35.2</ele>
        <time>2017-08-15T08:33:23Z</time>
      </trkpt>
      <trkpt lat="48.60086" lon="-2.36301">
        <ele>34.4</ele>
        <time>2017-08-15T08:33:27Z</time>
      </trkpt>
      <trkpt lat="48.60076" lon="-2.36306">
        <ele>34</ele>
        <time>2017-08-15T08:33:31Z</time>
      </trkpt>
      <trkpt lat="48.60071" lon="-2.36313">
        <ele>34.4</ele>
        <time>2017-08-15T08:33:35Z</time>
      </trkpt>
      <trkpt lat="48.60063" lon="-2.36318">
        <ele>34.6</ele>
        <time>2017-08-15T08:33:39Z</time>
      </trkpt>
      <trkpt lat="48.60058" lon="-2.36321">
        <ele>34.6</ele>
        <time>2017-08-15T08:33:43Z</time>
      </trkpt>
      <trkpt lat="48.60049" lon="-2.36326">
        <ele>34</ele>
        <time>2017-08-15T08:33:47Z</time>
      </trkpt>
      <trkpt lat="48.60041" lon="-2.36331">
        <ele>35</ele>
        <time>2017-08-15T08:33:51Z</time>
      </trkpt>
      <trkpt lat="48.60032" lon="-2.36335">
        <ele>35.4</ele>
        <time>2017-08-15T08:33:55Z</time>
      </trkpt>
      <trkpt lat="48.60025" lon="-2.36341">
        <ele>35.4</ele>
        <time>2017-08-15T08:33:59Z</time>
      </trkpt>
      <trkpt lat="48.60021" lon="-2.36346">
        <ele>36.4</ele>
        <time>2017-08-15T08:34:03Z</time>
      </trkpt>
      <trkpt lat="48.60016" lon="-2.36352">
        <ele>37.8</ele>
        <time>2017-08-15T08:34:11Z</time>
      </trkpt>
      <trkpt lat="48.60014" lon="-2.36358">
        <ele>37.6</ele>
        <time>2017-08-15T08:34:15Z</time>
      </trkpt>
      <trkpt lat="48.6001" lon="-2.3636">
        <ele>38.2</ele>
        <time>2017-08-15T08:34:23Z</time>
      </trkpt>
      <trkpt lat="48.60008" lon="-2.36367">
        <ele>39.4</ele>
        <time>2017-08-15T08:34:27Z</time>
      </trkpt>
      <trkpt lat="48.60007" lon="-2.36377">
        <ele>41.2</ele>
        <time>2017-08-15T08:34:31Z</time>
      </trkpt>
      <trkpt lat="48.60004" lon="-2.36386">
        <ele>42</ele>
        <time>2017-08-15T08:34:35Z</time>
      </trkpt>
      <trkpt lat="48.59999" lon="-2.36389">
        <ele>41.6</ele>
        <time>2017-08-15T08:34:39Z</time>
      </trkpt>
      <trkpt lat="48.59987" lon="-2.36388">
        <ele>39.4</ele>
        <time>2017-08-15T08:34:43Z</time>
      </trkpt>
      <trkpt lat="48.5997" lon="-2.36384">
        <ele>37.4</ele>
        <time>2017-08-15T08:34:47Z</time>
      </trkpt>
      <trkpt lat="48.59951" lon="-2.36381">
        <ele>34.6</ele>
        <time>2017-08-15T08:34:51Z</time>
      </trkpt>
      <trkpt lat="48.59933" lon="-2.36375">
        <ele>30</ele>
        <time>2017-08-15T08:34:55Z</time>
      </trkpt>
      <trkpt lat="48.59912" lon="-2.36367">
        <ele>25.2</ele>
        <time>2017-08-15T08:34:59Z</time>
      </trkpt>
      <trkpt lat="48.59892" lon="-2.36352">
        <ele>21.6</ele>
        <time>2017-08-15T08:35:03Z</time>
      </trkpt>
      <trkpt lat="48.5987" lon="-2.36336">
        <ele>16.8</ele>
        <time>2017-08-15T08:35:07Z</time>
      </trkpt>
      <trkpt lat="48.59846" lon="-2.36344">
        <ele>15.2</ele>
        <time>2017-08-15T08:35:11Z</time>
      </trkpt>
      <trkpt lat="48.5982" lon="-2.36358">
        <ele>11.8</ele>
        <time>2017-08-15T08:35:15Z</time>
      </trkpt>
      <trkpt lat="48.59802" lon="-2.36363">
        <ele>8.6</ele>
        <time>2017-08-15T08:35:19Z</time>
      </trkpt>
      <trkpt lat="48.5979" lon="-2.36345">
        <ele>5.6</ele>
        <time>2017-08-15T08:35:23Z</time>
      </trkpt>
      <trkpt lat="48.59785" lon="-2.36311">
        <ele>2.2</ele>
        <time>2017-08-15T08:35:27Z</time>
      </trkpt>
      <trkpt lat="48.59794" lon="-2.36283">
        <ele>-0.4</ele>
        <time>2017-08-15T08:35:31Z</time>
      </trkpt>
      <trkpt lat="48.59809" lon="-2.36266">
        <ele>-1.2</ele>
        <time>2017-08-15T08:35:35Z</time>
      </trkpt>
      <trkpt lat="48.59825" lon="-2.3625">
        <ele>-2.2</ele>
        <time>2017-08-15T08:35:39Z</time>
      </trkpt>
      <trkpt lat="48.59841" lon="-2.36232">
        <ele>-4.2</ele>
        <time>2017-08-15T08:35:43Z</time>
      </trkpt>
      <trkpt lat="48.5986" lon="-2.36211">
        <ele>-5.6</ele>
        <time>2017-08-15T08:35:47Z</time>
      </trkpt>
      <trkpt lat="48.59878" lon="-2.3619">
        <ele>-6.6</ele>
        <time>2017-08-15T08:35:51Z</time>
      </trkpt>
      <trkpt lat="48.59888" lon="-2.36171">
        <ele>-7.6</ele>
        <time>2017-08-15T08:35:55Z</time>
      </trkpt>
      <trkpt lat="48.59892" lon="-2.36148">
        <ele>-7.8</ele>
        <time>2017-08-15T08:35:59Z</time>
      </trkpt>
      <trkpt lat="48.59895" lon="-2.36124">
        <ele>-8.4</ele>
        <time>2017-08-15T08:36:03Z</time>
      </trkpt>
      <trkpt lat="48.59886" lon="-2.36117">
        <ele>-7.8</ele>
        <time>2017-08-15T08:36:07Z</time>
      </trkpt>
      <trkpt lat="48.59874" lon="-2.36116">
        <ele>-7.8</ele>
        <time>2017-08-15T08:36:11Z</time>
      </trkpt>
      <trkpt lat="48.59862" lon="-2.36116">
        <ele>-7.6</ele>
        <time>2017-08-15T08:36:15Z</time>
      </trkpt>
      <trkpt lat="48.5985" lon="-2.36115">
        <ele>-7.4</ele>
        <time>2017-08-15T08:36:19Z</time>
      </trkpt>
      <trkpt lat="48.59838" lon="-2.36115">
        <ele>-7</ele>
        <time>2017-08-15T08:36:23Z</time>
      </trkpt>
      <trkpt lat="48.59827" lon="-2.36108">
        <ele>-6</ele>
        <time>2017-08-15T08:36:27Z</time>
      </trkpt>
      <trkpt lat="48.59818" lon="-2.36096">
        <ele>-5.8</ele>
        <time>2017-08-15T08:36:31Z</time>
      </trkpt>
      <trkpt lat="48.59808" lon="-2.36084">
        <ele>-5.8</ele>
        <time>2017-08-15T08:36:35Z</time>
      </trkpt>
      <trkpt lat="48.59799" lon="-2.36071">
        <ele>-5.6</ele>
        <time>2017-08-15T08:36:39Z</time>
      </trkpt>
      <trkpt lat="48.5979" lon="-2.36059">
        <ele>-5.6</ele>
        <time>2017-08-15T08:36:43Z</time>
      </trkpt>
      <trkpt lat="48.59779" lon="-2.36043">
        <ele>-5.6</ele>
        <time>2017-08-15T08:36:47Z</time>
      </trkpt>
      <trkpt lat="48.59766" lon="-2.36028">
        <ele>-6.4</ele>
        <time>2017-08-15T08:36:51Z</time>
      </trkpt>
      <trkpt lat="48.59752" lon="-2.36011">
        <ele>-6.6</ele>
        <time>2017-08-15T08:36:55Z</time>
      </trkpt>
      <trkpt lat="48.59739" lon="-2.35989">
        <ele>-6.6</ele>
        <time>2017-08-15T08:36:59Z</time>
      </trkpt>
      <trkpt lat="48.59727" lon="-2.35961">
        <ele>-8</ele>
        <time>2017-08-15T08:37:03Z</time>
      </trkpt>
      <trkpt lat="48.59711" lon="-2.35933">
        <ele>-9.6</ele>
        <time>2017-08-15T08:37:07Z</time>
      </trkpt>
      <trkpt lat="48.59688" lon="-2.35935">
        <ele>-10</ele>
        <time>2017-08-15T08:37:11Z</time>
      </trkpt>
      <trkpt lat="48.5967" lon="-2.35953">
        <ele>-10</ele>
        <time>2017-08-15T08:37:15Z</time>
      </trkpt>
      <trkpt lat="48.5965" lon="-2.35972">
        <ele>-9.8</ele>
        <time>2017-08-15T08:37:19Z</time>
      </trkpt>
      <trkpt lat="48.5963" lon="-2.35992">
        <ele>-9.4</ele>
        <time>2017-08-15T08:37:23Z</time>
      </trkpt>
      <trkpt lat="48.59612" lon="-2.3601">
        <ele>-9</ele>
        <time>2017-08-15T08:37:27Z</time>
      </trkpt>
      <trkpt lat="48.59596" lon="-2.36027">
        <ele>-8.6</ele>
        <time>2017-08-15T08:37:31Z</time>
      </trkpt>
      <trkpt lat="48.59578" lon="-2.36043">
        <ele>-9</ele>
        <time>2017-08-15T08:37:35Z</time>
      </trkpt>
      <trkpt lat="48.59559" lon="-2.36057">
        <ele>-9.4</ele>
        <time>2017-08-15T08:37:39Z</time>
      </trkpt>
      <trkpt lat="48.59541" lon="-2.36072">
        <ele>-9</ele>
        <time>2017-08-15T08:37:43Z</time>
      </trkpt>
      <trkpt lat="48.59525" lon="-2.36087">
        <ele>-9</ele>
        <time>2017-08-15T08:37:47Z</time>
      </trkpt>
      <trkpt lat="48.59507" lon="-2.36101">
        <ele>-8.8</ele>
        <time>2017-08-15T08:37:51Z</time>
      </trkpt>
      <trkpt lat="48.59489" lon="-2.3611">
        <ele>-9.4</ele>
        <time>2017-08-15T08:37:55Z</time>
      </trkpt>
      <trkpt lat="48.59472" lon="-2.36116">
        <ele>-9.2</ele>
        <time>2017-08-15T08:37:59Z</time>
      </trkpt>
      <trkpt lat="48.59457" lon="-2.3612">
        <ele>-9.2</ele>
        <time>2017-08-15T08:38:03Z</time>
      </trkpt>
      <trkpt lat="48.59438" lon="-2.3612">
        <ele>-9</ele>
        <time>2017-08-15T08:38:07Z</time>
      </trkpt>
      <trkpt lat="48.59419" lon="-2.36119">
        <ele>-8.8</ele>
        <time>2017-08-15T08:38:11Z</time>
      </trkpt>
      <trkpt lat="48.59404" lon="-2.36119">
        <ele>-8.2</ele>
        <time>2017-08-15T08:38:15Z</time>
      </trkpt>
      <trkpt lat="48.59387" lon="-2.3612">
        <ele>-7.4</ele>
        <time>2017-08-15T08:38:19Z</time>
      </trkpt>
      <trkpt lat="48.59373" lon="-2.36124">
        <ele>-7</ele>
        <time>2017-08-15T08:38:23Z</time>
      </trkpt>
      <trkpt lat="48.59361" lon="-2.36121">
        <ele>-6</ele>
        <time>2017-08-15T08:38:27Z</time>
      </trkpt>
      <trkpt lat="48.5936" lon="-2.36109">
        <ele>-6.6</ele>
        <time>2017-08-15T08:38:31Z</time>
      </trkpt>
      <trkpt lat="48.59368" lon="-2.36095">
        <ele>-7</ele>
        <time>2017-08-15T08:38:35Z</time>
      </trkpt>
      <trkpt lat="48.59375" lon="-2.36076">
        <ele>-7</ele>
        <time>2017-08-15T08:38:39Z</time>
      </trkpt>
      <trkpt lat="48.59384" lon="-2.36056">
        <ele>-7.2</ele>
        <time>2017-08-15T08:38:43Z</time>
      </trkpt>
      <trkpt lat="48.59392" lon="-2.36037">
        <ele>-7</ele>
        <time>2017-08-15T08:38:47Z</time>
      </trkpt>
      <trkpt lat="48.59398" lon="-2.3602">
        <ele>-7.2</ele>
        <time>2017-08-15T08:38:51Z</time>
      </trkpt>
      <trkpt lat="48.59403" lon="-2.36003">
        <ele>-7</ele>
        <time>2017-08-15T08:38:55Z</time>
      </trkpt>
      <trkpt lat="48.59405" lon="-2.35989">
        <ele>-6.8</ele>
        <time>2017-08-15T08:38:59Z</time>
      </trkpt>
      <trkpt lat="48.59413" lon="-2.35977">
        <ele>-6.2</ele>
        <time>2017-08-15T08:39:03Z</time>
      </trkpt>
      <trkpt lat="48.59421" lon="-2.35964">
        <ele>-6</ele>
        <time>2017-08-15T08:39:07Z</time>
      </trkpt>
      <trkpt lat="48.59428" lon="-2.35954">
        <ele>-4.2</ele>
        <time>2017-08-15T08:39:11Z</time>
      </trkpt>
      <trkpt lat="48.59433" lon="-2.35947">
        <ele>-2.6</ele>
        <time>2017-08-15T08:39:15Z</time>
      </trkpt>
      <trkpt lat="48.59437" lon="-2.35937">
        <ele>-0.4</ele>
        <time>2017-08-15T08:39:19Z</time>
      </trkpt>
      <trkpt lat="48.59441" lon="-2.35928">
        <ele>0.6</ele>
        <time>2017-08-15T08:39:23Z</time>
      </trkpt>
      <trkpt lat="48.59445" lon="-2.35917">
        <ele>1.8</ele>
        <time>2017-08-15T08:39:27Z</time>
      </trkpt>
      <trkpt lat="48.59449" lon="-2.3591">
        <ele>2.6</ele>
        <time>2017-08-15T08:39:31Z</time>
      </trkpt>
      <trkpt lat="48.59452" lon="-2.359">
        <ele>5</ele>
        <time>2017-08-15T08:39:35Z</time>
      </trkpt>
      <trkpt lat="48.59456" lon="-2.3589">
        <ele>6.2</ele>
        <time>2017-08-15T08:39:39Z</time>
      </trkpt>
      <trkpt lat="48.59459" lon="-2.3588">
        <ele>8</ele>
        <time>2017-08-15T08:39:43Z</time>
      </trkpt>
      <trkpt lat="48.59462" lon="-2.35872">
        <ele>9.2</ele>
        <time>2017-08-15T08:39:47Z</time>
      </trkpt>
      <trkpt lat="48.59465" lon="-2.35861">
        <ele>10.6</ele>
        <time>2017-08-15T08:39:51Z</time>
      </trkpt>
      <trkpt lat="48.59468" lon="-2.35852">
        <ele>12</ele>
        <time>2017-08-15T08:39:55Z</time>
      </trkpt>
      <trkpt lat="48.59472" lon="-2.35843">
        <ele>14.2</ele>
        <time>2017-08-15T08:39:59Z</time>
      </trkpt>
      <trkpt lat="48.59476" lon="-2.35835">
        <ele>14.4</ele>
        <time>2017-08-15T08:40:03Z</time>
      </trkpt>
      <trkpt lat="48.5948" lon="-2.35826">
        <ele>15.2</ele>
        <time>2017-08-15T08:40:07Z</time>
      </trkpt>
      <trkpt lat="48.59484" lon="-2.35817">
        <ele>16</ele>
        <time>2017-08-15T08:40:11Z</time>
      </trkpt>
      <trkpt lat="48.59489" lon="-2.35809">
        <ele>16.4</ele>
        <time>2017-08-15T08:40:15Z</time>
      </trkpt>
      <trkpt lat="48.59494" lon="-2.35801">
        <ele>17</ele>
        <time>2017-08-15T08:40:19Z</time>
      </trkpt>
      <trkpt lat="48.59497" lon="-2.35791">
        <ele>17.4</ele>
        <time>2017-08-15T08:40:23Z</time>
      </trkpt>
      <trkpt lat="48.59497" lon="-2.3578">
        <ele>17.6</ele>
        <time>2017-08-15T08:40:27Z</time>
      </trkpt>
      <trkpt lat="48.59496" lon="-2.35768">
        <ele>18</ele>
        <time>2017-08-15T08:40:31Z</time>
      </trkpt>
      <trkpt lat="48.59493" lon="-2.35757">
        <ele>18.2</ele>
        <time>2017-08-15T08:40:35Z</time>
      </trkpt>
      <trkpt lat="48.5949" lon="-2.35747">
        <ele>18.8</ele>
        <time>2017-08-15T08:40:39Z</time>
      </trkpt>
      <trkpt lat="48.59488" lon="-2.35736">
        <ele>19</ele>
        <time>2017-08-15T08:40:43Z</time>
      </trkpt>
      <trkpt lat="48.59486" lon="-2.35725">
        <ele>20</ele>
        <time>2017-08-15T08:40:47Z</time>
      </trkpt>
      <trkpt lat="48.59485" lon="-2.35714">
        <ele>20.4</ele>
        <time>2017-08-15T08:40:51Z</time>
      </trkpt>
      <trkpt lat="48.59483" lon="-2.35703">
        <ele>20.6</ele>
        <time>2017-08-15T08:40:55Z</time>
      </trkpt>
      <trkpt lat="48.59482" lon="-2.35692">
        <ele>20.8</ele>
        <time>2017-08-15T08:40:59Z</time>
      </trkpt>
      <trkpt lat="48.59481" lon="-2.35681">
        <ele>21.6</ele>
        <time>2017-08-15T08:41:03Z</time>
      </trkpt>
      <trkpt lat="48.5948" lon="-2.35669">
        <ele>22.2</ele>
        <time>2017-08-15T08:41:07Z</time>
      </trkpt>
      <trkpt lat="48.59479" lon="-2.35657">
        <ele>22.8</ele>
        <time>2017-08-15T08:41:11Z</time>
      </trkpt>
      <trkpt lat="48.59478" lon="-2.35646">
        <ele>23.8</ele>
        <time>2017-08-15T08:41:15Z</time>
      </trkpt>
      <trkpt lat="48.59477" lon="-2.35635">
        <ele>25</ele>
        <time>2017-08-15T08:41:19Z</time>
      </trkpt>
      <trkpt lat="48.59477" lon="-2.35624">
        <ele>26</ele>
        <time>2017-08-15T08:41:23Z</time>
      </trkpt>
      <trkpt lat="48.59474" lon="-2.35613">
        <ele>27.8</ele>
        <time>2017-08-15T08:41:27Z</time>
      </trkpt>
      <trkpt lat="48.59468" lon="-2.35606">
        <ele>28.6</ele>
        <time>2017-08-15T08:41:31Z</time>
      </trkpt>
      <trkpt lat="48.5946" lon="-2.35604">
        <ele>29.2</ele>
        <time>2017-08-15T08:41:35Z</time>
      </trkpt>
      <trkpt lat="48.59452" lon="-2.35601">
        <ele>29.2</ele>
        <time>2017-08-15T08:41:39Z</time>
      </trkpt>
      <trkpt lat="48.59443" lon="-2.35596">
        <ele>28.2</ele>
        <time>2017-08-15T08:41:43Z</time>
      </trkpt>
      <trkpt lat="48.5943" lon="-2.35588">
        <ele>27.6</ele>
        <time>2017-08-15T08:41:47Z</time>
      </trkpt>
      <trkpt lat="48.59414" lon="-2.35567">
        <ele>26.2</ele>
        <time>2017-08-15T08:41:51Z</time>
      </trkpt>
      <trkpt lat="48.594" lon="-2.35534">
        <ele>24.2</ele>
        <time>2017-08-15T08:41:55Z</time>
      </trkpt>
      <trkpt lat="48.59385" lon="-2.35497">
        <ele>24</ele>
        <time>2017-08-15T08:41:59Z</time>
      </trkpt>
      <trkpt lat="48.59368" lon="-2.35462">
        <ele>23.6</ele>
        <time>2017-08-15T08:42:03Z</time>
      </trkpt>
      <trkpt lat="48.59352" lon="-2.35439">
        <ele>22</ele>
        <time>2017-08-15T08:42:07Z</time>
      </trkpt>
      <trkpt lat="48.59334" lon="-2.35442">
        <ele>21.8</ele>
        <time>2017-08-15T08:42:11Z</time>
      </trkpt>
      <trkpt lat="48.59317" lon="-2.35467">
        <ele>20.2</ele>
        <time>2017-08-15T08:42:15Z</time>
      </trkpt>
      <trkpt lat="48.59299" lon="-2.35499">
        <ele>18.8</ele>
        <time>2017-08-15T08:42:19Z</time>
      </trkpt>
      <trkpt lat="48.59299" lon="-2.35548">
        <ele>17</ele>
        <time>2017-08-15T08:42:23Z</time>
      </trkpt>
      <trkpt lat="48.59297" lon="-2.35601">
        <ele>14.6</ele>
        <time>2017-08-15T08:42:27Z</time>
      </trkpt>
      <trkpt lat="48.59282" lon="-2.35652">
        <ele>13</ele>
        <time>2017-08-15T08:42:31Z</time>
      </trkpt>
      <trkpt lat="48.59267" lon="-2.35706">
        <ele>9.6</ele>
        <time>2017-08-15T08:42:35Z</time>
      </trkpt>
      <trkpt lat="48.59259" lon="-2.35766">
        <ele>8.6</ele>
        <time>2017-08-15T08:42:39Z</time>
      </trkpt>
      <trkpt lat="48.59264" lon="-2.35826">
        <ele>5.2</ele>
        <time>2017-08-15T08:42:43Z</time>
      </trkpt>
      <trkpt lat="48.59283" lon="-2.35869">
        <ele>3</ele>
        <time>2017-08-15T08:42:47Z</time>
      </trkpt>
      <trkpt lat="48.59318" lon="-2.35888">
        <ele>0.6</ele>
        <time>2017-08-15T08:42:51Z</time>
      </trkpt>
      <trkpt lat="48.59349" lon="-2.35919">
        <ele>-2.6</ele>
        <time>2017-08-15T08:42:55Z</time>
      </trkpt>
      <trkpt lat="48.59383" lon="-2.35945">
        <ele>-5</ele>
        <time>2017-08-15T08:42:59Z</time>
      </trkpt>
      <trkpt lat="48.59394" lon="-2.35991">
        <ele>-5.6</ele>
        <time>2017-08-15T08:43:03Z</time>
      </trkpt>
      <trkpt lat="48.59385" lon="-2.36033">
        <ele>-7.4</ele>
        <time>2017-08-15T08:43:07Z</time>
      </trkpt>
      <trkpt lat="48.59369" lon="-2.36062">
        <ele>-7.2</ele>
        <time>2017-08-15T08:43:11Z</time>
      </trkpt>
      <trkpt lat="48.59355" lon="-2.36089">
        <ele>-6.6</ele>
        <time>2017-08-15T08:43:15Z</time>
      </trkpt>
      <trkpt lat="48.59344" lon="-2.36107">
        <ele>-7</ele>
        <time>2017-08-15T08:43:19Z</time>
      </trkpt>
      <trkpt lat="48.59337" lon="-2.3612">
        <ele>-6.2</ele>
        <time>2017-08-15T08:43:23Z</time>
      </trkpt>
      <trkpt lat="48.59333" lon="-2.36134">
        <ele>-6</ele>
        <time>2017-08-15T08:43:27Z</time>
      </trkpt>
      <trkpt lat="48.59336" lon="-2.36149">
        <ele>-5</ele>
        <time>2017-08-15T08:43:31Z</time>
      </trkpt>
      <trkpt lat="48.59337" lon="-2.36162">
        <ele>-4.2</ele>
        <time>2017-08-15T08:43:35Z</time>
      </trkpt>
      <trkpt lat="48.59337" lon="-2.36172">
        <ele>-3</ele>
        <time>2017-08-15T08:43:39Z</time>
      </trkpt>
      <trkpt lat="48.59332" lon="-2.36189">
        <ele>-1.6</ele>
        <time>2017-08-15T08:43:43Z</time>
      </trkpt>
      <trkpt lat="48.59331" lon="-2.36201">
        <ele>-1.2</ele>
        <time>2017-08-15T08:43:47Z</time>
      </trkpt>
      <trkpt lat="48.59329" lon="-2.36216">
        <ele>0.6</ele>
        <time>2017-08-15T08:43:51Z</time>
      </trkpt>
      <trkpt lat="48.59331" lon="-2.36229">
        <ele>1.4</ele>
        <time>2017-08-15T08:43:55Z</time>
      </trkpt>
      <trkpt lat="48.5933" lon="-2.3624">
        <ele>2.4</ele>
        <time>2017-08-15T08:43:59Z</time>
      </trkpt>
      <trkpt lat="48.59331" lon="-2.36258">
        <ele>3.8</ele>
        <time>2017-08-15T08:44:03Z</time>
      </trkpt>
      <trkpt lat="48.59329" lon="-2.36273">
        <ele>4.8</ele>
        <time>2017-08-15T08:44:07Z</time>
      </trkpt>
      <trkpt lat="48.59331" lon="-2.36289">
        <ele>6</ele>
        <time>2017-08-15T08:44:11Z</time>
      </trkpt>
      <trkpt lat="48.59333" lon="-2.36305">
        <ele>7.2</ele>
        <time>2017-08-15T08:44:15Z</time>
      </trkpt>
      <trkpt lat="48.59334" lon="-2.36318">
        <ele>8.6</ele>
        <time>2017-08-15T08:44:19Z</time>
      </trkpt>
      <trkpt lat="48.59335" lon="-2.36331">
        <ele>9.6</ele>
        <time>2017-08-15T08:44:23Z</time>
      </trkpt>
      <trkpt lat="48.59336" lon="-2.36344">
        <ele>11</ele>
        <time>2017-08-15T08:44:27Z</time>
      </trkpt>
      <trkpt lat="48.59336" lon="-2.36358">
        <ele>11.4</ele>
        <time>2017-08-15T08:44:31Z</time>
      </trkpt>
      <trkpt lat="48.59336" lon="-2.36371">
        <ele>12.8</ele>
        <time>2017-08-15T08:44:35Z</time>
      </trkpt>
      <trkpt lat="48.59335" lon="-2.36384">
        <ele>13.4</ele>
        <time>2017-08-15T08:44:39Z</time>
      </trkpt>
      <trkpt lat="48.59333" lon="-2.36397">
        <ele>14</ele>
        <time>2017-08-15T08:44:43Z</time>
      </trkpt>
      <trkpt lat="48.59332" lon="-2.36411">
        <ele>14.8</ele>
        <time>2017-08-15T08:44:47Z</time>
      </trkpt>
      <trkpt lat="48.5933" lon="-2.36424">
        <ele>15.6</ele>
        <time>2017-08-15T08:44:51Z</time>
      </trkpt>
      <trkpt lat="48.59329" lon="-2.36436">
        <ele>16.4</ele>
        <time>2017-08-15T08:44:55Z</time>
      </trkpt>
      <trkpt lat="48.59327" lon="-2.36446">
        <ele>16.8</ele>
        <time>2017-08-15T08:44:59Z</time>
      </trkpt>
      <trkpt lat="48.59326" lon="-2.36455">
        <ele>17.6</ele>
        <time>2017-08-15T08:45:03Z</time>
      </trkpt>
      <trkpt lat="48.59324" lon="-2.36469">
        <ele>18.4</ele>
        <time>2017-08-15T08:45:07Z</time>
      </trkpt>
      <trkpt lat="48.59322" lon="-2.36483">
        <ele>19.6</ele>
        <time>2017-08-15T08:45:11Z</time>
      </trkpt>
      <trkpt lat="48.59322" lon="-2.36495">
        <ele>20.2</ele>
        <time>2017-08-15T08:45:15Z</time>
      </trkpt>
      <trkpt lat="48.59321" lon="-2.36507">
        <ele>20.4</ele>
        <time>2017-08-15T08:45:19Z</time>
      </trkpt>
      <trkpt lat="48.5932" lon="-2.36519">
        <ele>21</ele>
        <time>2017-08-15T08:45:23Z</time>
      </trkpt>
      <trkpt lat="48.5932" lon="-2.3653">
        <ele>22.2</ele>
        <time>2017-08-15T08:45:27Z</time>
      </trkpt>
      <trkpt lat="48.5932" lon="-2.36542">
        <ele>22.8</ele>
        <time>2017-08-15T08:45:31Z</time>
      </trkpt>
      <trkpt lat="48.5932" lon="-2.36556">
        <ele>23.6</ele>
        <time>2017-08-15T08:45:35Z</time>
      </trkpt>
      <trkpt lat="48.59318" lon="-2.36573">
        <ele>24.2</ele>
        <time>2017-08-15T08:45:39Z</time>
      </trkpt>
      <trkpt lat="48.59318" lon="-2.36585">
        <ele>24.8</ele>
        <time>2017-08-15T08:45:43Z</time>
      </trkpt>
      <trkpt lat="48.59318" lon="-2.36599">
        <ele>25.2</ele>
        <time>2017-08-15T08:45:47Z</time>
      </trkpt>
      <trkpt lat="48.59317" lon="-2.36612">
        <ele>26.2</ele>
        <time>2017-08-15T08:45:51Z</time>
      </trkpt>
      <trkpt lat="48.59318" lon="-2.36625">
        <ele>26.6</ele>
        <time>2017-08-15T08:45:55Z</time>
      </trkpt>
      <trkpt lat="48.59318" lon="-2.36638">
        <ele>28</ele>
        <time>2017-08-15T08:45:59Z</time>
      </trkpt>
      <trkpt lat="48.59317" lon="-2.36653">
        <ele>28.6</ele>
        <time>2017-08-15T08:46:03Z</time>
      </trkpt>
      <trkpt lat="48.59315" lon="-2.36666">
        <ele>29.6</ele>
        <time>2017-08-15T08:46:07Z</time>
      </trkpt>
      <trkpt lat="48.59314" lon="-2.36681">
        <ele>29.8</ele>
        <time>2017-08-15T08:46:11Z</time>
      </trkpt>
      <trkpt lat="48.59312" lon="-2.36694">
        <ele>31</ele>
        <time>2017-08-15T08:46:15Z</time>
      </trkpt>
      <trkpt lat="48.5931" lon="-2.36707">
        <ele>31.2</ele>
        <time>2017-08-15T08:46:19Z</time>
      </trkpt>
      <trkpt lat="48.59308" lon="-2.36719">
        <ele>32.2</ele>
        <time>2017-08-15T08:46:23Z</time>
      </trkpt>
      <trkpt lat="48.59306" lon="-2.36731">
        <ele>32.4</ele>
        <time>2017-08-15T08:46:27Z</time>
      </trkpt>
      <trkpt lat="48.59304" lon="-2.36743">
        <ele>32.6</ele>
        <time>2017-08-15T08:46:31Z</time>
      </trkpt>
      <trkpt lat="48.59302" lon="-2.36755">
        <ele>33.2</ele>
        <time>2017-08-15T08:46:35Z</time>
      </trkpt>
      <trkpt lat="48.59299" lon="-2.36766">
        <ele>33.8</ele>
        <time>2017-08-15T08:46:39Z</time>
      </trkpt>
      <trkpt lat="48.59297" lon="-2.36777">
        <ele>34.2</ele>
        <time>2017-08-15T08:46:43Z</time>
      </trkpt>
      <trkpt lat="48.59294" lon="-2.3679">
        <ele>34.8</ele>
        <time>2017-08-15T08:46:47Z</time>
      </trkpt>
      <trkpt lat="48.59292" lon="-2.36802">
        <ele>35.6</ele>
        <time>2017-08-15T08:46:51Z</time>
      </trkpt>
      <trkpt lat="48.5929" lon="-2.36814">
        <ele>36.4</ele>
        <time>2017-08-15T08:46:55Z</time>
      </trkpt>
      <trkpt lat="48.59289" lon="-2.36827">
        <ele>36.8</ele>
        <time>2017-08-15T08:46:59Z</time>
      </trkpt>
      <trkpt lat="48.59288" lon="-2.36841">
        <ele>37.6</ele>
        <time>2017-08-15T08:47:03Z</time>
      </trkpt>
      <trkpt lat="48.59286" lon="-2.36854">
        <ele>38.4</ele>
        <time>2017-08-15T08:47:07Z</time>
      </trkpt>
      <trkpt lat="48.59285" lon="-2.36866">
        <ele>38.6</ele>
        <time>2017-08-15T08:47:11Z</time>
      </trkpt>
      <trkpt lat="48.59284" lon="-2.36881">
        <ele>39</ele>
        <time>2017-08-15T08:47:15Z</time>
      </trkpt>
      <trkpt lat="48.59283" lon="-2.36896">
        <ele>40</ele>
        <time>2017-08-15T08:47:19Z</time>
      </trkpt>
      <trkpt lat="48.59285" lon="-2.36912">
        <ele>40</ele>
        <time>2017-08-15T08:47:23Z</time>
      </trkpt>
      <trkpt lat="48.59296" lon="-2.36921">
        <ele>40.8</ele>
        <time>2017-08-15T08:47:27Z</time>
      </trkpt>
      <trkpt lat="48.59305" lon="-2.36932">
        <ele>41</ele>
        <time>2017-08-15T08:47:31Z</time>
      </trkpt>
      <trkpt lat="48.59313" lon="-2.36944">
        <ele>41.2</ele>
        <time>2017-08-15T08:47:35Z</time>
      </trkpt>
      <trkpt lat="48.59321" lon="-2.36955">
        <ele>41.8</ele>
        <time>2017-08-15T08:47:39Z</time>
      </trkpt>
      <trkpt lat="48.5933" lon="-2.36966">
        <ele>42.2</ele>
        <time>2017-08-15T08:47:43Z</time>
      </trkpt>
      <trkpt lat="48.5934" lon="-2.36975">
        <ele>42.6</ele>
        <time>2017-08-15T08:47:47Z</time>
      </trkpt>
      <trkpt lat="48.5935" lon="-2.36984">
        <ele>43</ele>
        <time>2017-08-15T08:47:51Z</time>
      </trkpt>
      <trkpt lat="48.59359" lon="-2.36992">
        <ele>43.2</ele>
        <time>2017-08-15T08:47:55Z</time>
      </trkpt>
      <trkpt lat="48.59369" lon="-2.37">
        <ele>44.2</ele>
        <time>2017-08-15T08:47:59Z</time>
      </trkpt>
      <trkpt lat="48.59379" lon="-2.37007">
        <ele>44.6</ele>
        <time>2017-08-15T08:48:03Z</time>
      </trkpt>
      <trkpt lat="48.59388" lon="-2.37016">
        <ele>45</ele>
        <time>2017-08-15T08:48:07Z</time>
      </trkpt>
      <trkpt lat="48.59397" lon="-2.37024">
        <ele>45.6</ele>
        <time>2017-08-15T08:48:11Z</time>
      </trkpt>
      <trkpt lat="48.59405" lon="-2.37033">
        <ele>47</ele>
        <time>2017-08-15T08:48:15Z</time>
      </trkpt>
      <trkpt lat="48.59413" lon="-2.37041">
        <ele>48</ele>
        <time>2017-08-15T08:48:19Z</time>
      </trkpt>
      <trkpt lat="48.5942" lon="-2.37051">
        <ele>48.4</ele>
        <time>2017-08-15T08:48:23Z</time>
      </trkpt>
      <trkpt lat="48.59427" lon="-2.37061">
        <ele>49.6</ele>
        <time>2017-08-15T08:48:27Z</time>
      </trkpt>
      <trkpt lat="48.59434" lon="-2.3707">
        <ele>50.6</ele>
        <time>2017-08-15T08:48:31Z</time>
      </trkpt>
      <trkpt lat="48.59441" lon="-2.3708">
        <ele>51</ele>
        <time>2017-08-15T08:48:35Z</time>
      </trkpt>
      <trkpt lat="48.59446" lon="-2.37093">
        <ele>51.4</ele>
        <time>2017-08-15T08:48:39Z</time>
      </trkpt>
      <trkpt lat="48.59451" lon="-2.37104">
        <ele>52.2</ele>
        <time>2017-08-15T08:48:43Z</time>
      </trkpt>
      <trkpt lat="48.59455" lon="-2.37117">
        <ele>53</ele>
        <time>2017-08-15T08:48:47Z</time>
      </trkpt>
      <trkpt lat="48.59458" lon="-2.37129">
        <ele>54</ele>
        <time>2017-08-15T08:48:51Z</time>
      </trkpt>
      <trkpt lat="48.59462" lon="-2.37142">
        <ele>55</ele>
        <time>2017-08-15T08:48:55Z</time>
      </trkpt>
      <trkpt lat="48.59464" lon="-2.37155">
        <ele>55.4</ele>
        <time>2017-08-15T08:48:59Z</time>
      </trkpt>
      <trkpt lat="48.59467" lon="-2.37168">
        <ele>56.2</ele>
        <time>2017-08-15T08:49:03Z</time>
      </trkpt>
      <trkpt lat="48.59471" lon="-2.37179">
        <ele>56.2</ele>
        <time>2017-08-15T08:49:07Z</time>
      </trkpt>
      <trkpt lat="48.59475" lon="-2.3719">
        <ele>57.6</ele>
        <time>2017-08-15T08:49:11Z</time>
      </trkpt>
      <trkpt lat="48.5948" lon="-2.37199">
        <ele>57.8</ele>
        <time>2017-08-15T08:49:15Z</time>
      </trkpt>
      <trkpt lat="48.59487" lon="-2.37208">
        <ele>58.2</ele>
        <time>2017-08-15T08:49:19Z</time>
      </trkpt>
      <trkpt lat="48.59493" lon="-2.37217">
        <ele>58.6</ele>
        <time>2017-08-15T08:49:23Z</time>
      </trkpt>
      <trkpt lat="48.59499" lon="-2.37226">
        <ele>59.2</ele>
        <time>2017-08-15T08:49:27Z</time>
      </trkpt>
      <trkpt lat="48.59504" lon="-2.37235">
        <ele>60.2</ele>
        <time>2017-08-15T08:49:31Z</time>
      </trkpt>
      <trkpt lat="48.59507" lon="-2.37247">
        <ele>61</ele>
        <time>2017-08-15T08:49:35Z</time>
      </trkpt>
      <trkpt lat="48.59513" lon="-2.37258">
        <ele>61.8</ele>
        <time>2017-08-15T08:49:39Z</time>
      </trkpt>
      <trkpt lat="48.59515" lon="-2.37268">
        <ele>62.6</ele>
        <time>2017-08-15T08:49:43Z</time>
      </trkpt>
      <trkpt lat="48.5952" lon="-2.37277">
        <ele>62.8</ele>
        <time>2017-08-15T08:49:47Z</time>
      </trkpt>
      <trkpt lat="48.59524" lon="-2.37288">
        <ele>63.4</ele>
        <time>2017-08-15T08:49:51Z</time>
      </trkpt>
      <trkpt lat="48.59527" lon="-2.37298">
        <ele>63.6</ele>
        <time>2017-08-15T08:49:55Z</time>
      </trkpt>
      <trkpt lat="48.5953" lon="-2.37311">
        <ele>64</ele>
        <time>2017-08-15T08:49:59Z</time>
      </trkpt>
      <trkpt lat="48.59531" lon="-2.37321">
        <ele>64.2</ele>
        <time>2017-08-15T08:50:03Z</time>
      </trkpt>
      <trkpt lat="48.59536" lon="-2.37336">
        <ele>64</ele>
        <time>2017-08-15T08:50:07Z</time>
      </trkpt>
      <trkpt lat="48.59543" lon="-2.37344">
        <ele>64</ele>
        <time>2017-08-15T08:50:11Z</time>
      </trkpt>
      <trkpt lat="48.59552" lon="-2.37338">
        <ele>64.4</ele>
        <time>2017-08-15T08:50:15Z</time>
      </trkpt>
      <trkpt lat="48.59559" lon="-2.3733">
        <ele>64.2</ele>
        <time>2017-08-15T08:50:19Z</time>
      </trkpt>
      <trkpt lat="48.59566" lon="-2.3732">
        <ele>64.6</ele>
        <time>2017-08-15T08:50:23Z</time>
      </trkpt>
      <trkpt lat="48.59575" lon="-2.37307">
        <ele>64.8</ele>
        <time>2017-08-15T08:50:27Z</time>
      </trkpt>
      <trkpt lat="48.59585" lon="-2.37293">
        <ele>64.8</ele>
        <time>2017-08-15T08:50:31Z</time>
      </trkpt>
      <trkpt lat="48.59594" lon="-2.37278">
        <ele>65.6</ele>
        <time>2017-08-15T08:50:35Z</time>
      </trkpt>
      <trkpt lat="48.59604" lon="-2.37262">
        <ele>65.6</ele>
        <time>2017-08-15T08:50:39Z</time>
      </trkpt>
      <trkpt lat="48.59615" lon="-2.37249">
        <ele>65.8</ele>
        <time>2017-08-15T08:50:43Z</time>
      </trkpt>
      <trkpt lat="48.59627" lon="-2.37237">
        <ele>65.8</ele>
        <time>2017-08-15T08:50:47Z</time>
      </trkpt>
      <trkpt lat="48.5964" lon="-2.37224">
        <ele>65.8</ele>
        <time>2017-08-15T08:50:51Z</time>
      </trkpt>
      <trkpt lat="48.59652" lon="-2.37212">
        <ele>66.6</ele>
        <time>2017-08-15T08:50:55Z</time>
      </trkpt>
      <trkpt lat="48.59666" lon="-2.37198">
        <ele>66.6</ele>
        <time>2017-08-15T08:50:59Z</time>
      </trkpt>
      <trkpt lat="48.59681" lon="-2.37184">
        <ele>67.2</ele>
        <time>2017-08-15T08:51:03Z</time>
      </trkpt>
      <trkpt lat="48.59696" lon="-2.3717">
        <ele>65.4</ele>
        <time>2017-08-15T08:51:07Z</time>
      </trkpt>
      <trkpt lat="48.59712" lon="-2.37157">
        <ele>66</ele>
        <time>2017-08-15T08:51:11Z</time>
      </trkpt>
      <trkpt lat="48.59728" lon="-2.37144">
        <ele>66</ele>
        <time>2017-08-15T08:51:15Z</time>
      </trkpt>
      <trkpt lat="48.59743" lon="-2.37132">
        <ele>66.6</ele>
        <time>2017-08-15T08:51:19Z</time>
      </trkpt>
      <trkpt lat="48.59758" lon="-2.3712">
        <ele>66</ele>
        <time>2017-08-15T08:51:23Z</time>
      </trkpt>
      <trkpt lat="48.59771" lon="-2.37109">
        <ele>66.4</ele>
        <time>2017-08-15T08:51:27Z</time>
      </trkpt>
      <trkpt lat="48.59784" lon="-2.371">
        <ele>66.2</ele>
        <time>2017-08-15T08:51:31Z</time>
      </trkpt>
      <trkpt lat="48.59796" lon="-2.37091">
        <ele>66</ele>
        <time>2017-08-15T08:51:35Z</time>
      </trkpt>
      <trkpt lat="48.59808" lon="-2.37082">
        <ele>65.2</ele>
        <time>2017-08-15T08:51:39Z</time>
      </trkpt>
      <trkpt lat="48.59822" lon="-2.37072">
        <ele>65.6</ele>
        <time>2017-08-15T08:51:43Z</time>
      </trkpt>
      <trkpt lat="48.59836" lon="-2.37062">
        <ele>64.4</ele>
        <time>2017-08-15T08:51:47Z</time>
      </trkpt>
      <trkpt lat="48.59853" lon="-2.37052">
        <ele>64</ele>
        <time>2017-08-15T08:51:51Z</time>
      </trkpt>
      <trkpt lat="48.59871" lon="-2.37042">
        <ele>62</ele>
        <time>2017-08-15T08:51:55Z</time>
      </trkpt>
      <trkpt lat="48.59885" lon="-2.37025">
        <ele>60.8</ele>
        <time>2017-08-15T08:51:59Z</time>
      </trkpt>
      <trkpt lat="48.59882" lon="-2.36997">
        <ele>60.2</ele>
        <time>2017-08-15T08:52:03Z</time>
      </trkpt>
      <trkpt lat="48.59878" lon="-2.36969">
        <ele>60.2</ele>
        <time>2017-08-15T08:52:07Z</time>
      </trkpt>
      <trkpt lat="48.59876" lon="-2.36941">
        <ele>60.2</ele>
        <time>2017-08-15T08:52:11Z</time>
      </trkpt>
      <trkpt lat="48.59873" lon="-2.36914">
        <ele>59.6</ele>
        <time>2017-08-15T08:52:15Z</time>
      </trkpt>
      <trkpt lat="48.5987" lon="-2.36885">
        <ele>59.2</ele>
        <time>2017-08-15T08:52:19Z</time>
      </trkpt>
      <trkpt lat="48.59867" lon="-2.36852">
        <ele>57.2</ele>
        <time>2017-08-15T08:52:23Z</time>
      </trkpt>
      <trkpt lat="48.59862" lon="-2.3681">
        <ele>56.2</ele>
        <time>2017-08-15T08:52:27Z</time>
      </trkpt>
      <trkpt lat="48.59858" lon="-2.36762">
        <ele>55.8</ele>
        <time>2017-08-15T08:52:31Z</time>
      </trkpt>
      <trkpt lat="48.59853" lon="-2.36717">
        <ele>51.2</ele>
        <time>2017-08-15T08:52:35Z</time>
      </trkpt>
      <trkpt lat="48.59849" lon="-2.36681">
        <ele>49.2</ele>
        <time>2017-08-15T08:52:39Z</time>
      </trkpt>
      <trkpt lat="48.59846" lon="-2.36651">
        <ele>47.6</ele>
        <time>2017-08-15T08:52:43Z</time>
      </trkpt>
      <trkpt lat="48.59842" lon="-2.36614">
        <ele>46</ele>
        <time>2017-08-15T08:52:47Z</time>
      </trkpt>
      <trkpt lat="48.59838" lon="-2.36575">
        <ele>42.2</ele>
        <time>2017-08-15T08:52:51Z</time>
      </trkpt>
      <trkpt lat="48.5983" lon="-2.36554">
        <ele>40</ele>
        <time>2017-08-15T08:52:55Z</time>
      </trkpt>
      <trkpt lat="48.59819" lon="-2.36554">
        <ele>40</ele>
        <time>2017-08-15T08:52:59Z</time>
      </trkpt>
      <trkpt lat="48.59811" lon="-2.36559">
        <ele>39.4</ele>
        <time>2017-08-15T08:53:03Z</time>
      </trkpt>
      <trkpt lat="48.59803" lon="-2.36563">
        <ele>39.2</ele>
        <time>2017-08-15T08:53:07Z</time>
      </trkpt>
      <trkpt lat="48.59796" lon="-2.36549">
        <ele>34</ele>
        <time>2017-08-15T08:53:11Z</time>
      </trkpt>
      <trkpt lat="48.59794" lon="-2.36533">
        <ele>32.2</ele>
        <time>2017-08-15T08:53:15Z</time>
      </trkpt>
      <trkpt lat="48.59804" lon="-2.36522">
        <ele>30.2</ele>
        <time>2017-08-15T08:53:19Z</time>
      </trkpt>
      <trkpt lat="48.59811" lon="-2.36512">
        <ele>27.6</ele>
        <time>2017-08-15T08:53:23Z</time>
      </trkpt>
      <trkpt lat="48.59812" lon="-2.36494">
        <ele>23.8</ele>
        <time>2017-08-15T08:53:27Z</time>
      </trkpt>
      <trkpt lat="48.5981" lon="-2.36472">
        <ele>19.2</ele>
        <time>2017-08-15T08:53:31Z</time>
      </trkpt>
      <trkpt lat="48.59809" lon="-2.36451">
        <ele>16.4</ele>
        <time>2017-08-15T08:53:35Z</time>
      </trkpt>
      <trkpt lat="48.59809" lon="-2.36434">
        <ele>13.4</ele>
        <time>2017-08-15T08:53:39Z</time>
      </trkpt>
      <trkpt lat="48.59804" lon="-2.36417">
        <ele>10.2</ele>
        <time>2017-08-15T08:53:43Z</time>
      </trkpt>
      <trkpt lat="48.59802" lon="-2.36395">
        <ele>8</ele>
        <time>2017-08-15T08:53:47Z</time>
      </trkpt>
      <trkpt lat="48.59804" lon="-2.36369">
        <ele>6.6</ele>
        <time>2017-08-15T08:53:51Z</time>
      </trkpt>
      <trkpt lat="48.5981" lon="-2.36363">
        <ele>8.4</ele>
        <time>2017-08-15T08:53:55Z</time>
      </trkpt>
      <trkpt lat="48.59817" lon="-2.36359">
        <ele>9.2</ele>
        <time>2017-08-15T08:53:59Z</time>
      </trkpt>
      <trkpt lat="48.59824" lon="-2.36355">
        <ele>10</ele>
        <time>2017-08-15T08:54:03Z</time>
      </trkpt>
      <trkpt lat="48.59831" lon="-2.36351">
        <ele>11.2</ele>
        <time>2017-08-15T08:54:07Z</time>
      </trkpt>
      <trkpt lat="48.59837" lon="-2.36345">
        <ele>12</ele>
        <time>2017-08-15T08:54:11Z</time>
      </trkpt>
      <trkpt lat="48.59844" lon="-2.36342">
        <ele>12.8</ele>
        <time>2017-08-15T08:54:15Z</time>
      </trkpt>
      <trkpt lat="48.59851" lon="-2.36336">
        <ele>13.8</ele>
        <time>2017-08-15T08:54:19Z</time>
      </trkpt>
      <trkpt lat="48.59858" lon="-2.36333">
        <ele>14</ele>
        <time>2017-08-15T08:54:23Z</time>
      </trkpt>
      <trkpt lat="48.59864" lon="-2.36333">
        <ele>14.8</ele>
        <time>2017-08-15T08:54:27Z</time>
      </trkpt>
      <trkpt lat="48.59869" lon="-2.36335">
        <ele>16.4</ele>
        <time>2017-08-15T08:54:31Z</time>
      </trkpt>
      <trkpt lat="48.59876" lon="-2.3634">
        <ele>16.8</ele>
        <time>2017-08-15T08:54:35Z</time>
      </trkpt>
      <trkpt lat="48.5988" lon="-2.36344">
        <ele>18.8</ele>
        <time>2017-08-15T08:54:39Z</time>
      </trkpt>
      <trkpt lat="48.59886" lon="-2.3635">
        <ele>19.8</ele>
        <time>2017-08-15T08:54:43Z</time>
      </trkpt>
      <trkpt lat="48.59893" lon="-2.36357">
        <ele>20.8</ele>
        <time>2017-08-15T08:54:47Z</time>
      </trkpt>
      <trkpt lat="48.59899" lon="-2.36364">
        <ele>22.8</ele>
        <time>2017-08-15T08:54:51Z</time>
      </trkpt>
      <trkpt lat="48.59903" lon="-2.36369">
        <ele>23.6</ele>
        <time>2017-08-15T08:54:55Z</time>
      </trkpt>
      <trkpt lat="48.59909" lon="-2.36373">
        <ele>25.6</ele>
        <time>2017-08-15T08:54:59Z</time>
      </trkpt>
      <trkpt lat="48.59914" lon="-2.36376">
        <ele>27.4</ele>
        <time>2017-08-15T08:55:03Z</time>
      </trkpt>
      <trkpt lat="48.5992" lon="-2.36377">
        <ele>29</ele>
        <time>2017-08-15T08:55:07Z</time>
      </trkpt>
      <trkpt lat="48.59927" lon="-2.36379">
        <ele>29.8</ele>
        <time>2017-08-15T08:55:11Z</time>
      </trkpt>
      <trkpt lat="48.59936" lon="-2.36383">
        <ele>31</ele>
        <time>2017-08-15T08:55:15Z</time>
      </trkpt>
      <trkpt lat="48.59945" lon="-2.36386">
        <ele>32</ele>
        <time>2017-08-15T08:55:19Z</time>
      </trkpt>
      <trkpt lat="48.59954" lon="-2.36388">
        <ele>33.2</ele>
        <time>2017-08-15T08:55:23Z</time>
      </trkpt>
      <trkpt lat="48.5996" lon="-2.3639">
        <ele>34</ele>
        <time>2017-08-15T08:55:27Z</time>
      </trkpt>
      <trkpt lat="48.59968" lon="-2.3639">
        <ele>35.2</ele>
        <time>2017-08-15T08:55:31Z</time>
      </trkpt>
      <trkpt lat="48.59975" lon="-2.36392">
        <ele>36</ele>
        <time>2017-08-15T08:55:35Z</time>
      </trkpt>
      <trkpt lat="48.5998" lon="-2.36391">
        <ele>36.8</ele>
        <time>2017-08-15T08:55:39Z</time>
      </trkpt>
      <trkpt lat="48.59986" lon="-2.36393">
        <ele>37.8</ele>
        <time>2017-08-15T08:55:43Z</time>
      </trkpt>
      <trkpt lat="48.59993" lon="-2.36395">
        <ele>38.6</ele>
        <time>2017-08-15T08:55:47Z</time>
      </trkpt>
      <trkpt lat="48.59998" lon="-2.36397">
        <ele>39.4</ele>
        <time>2017-08-15T08:55:51Z</time>
      </trkpt>
      <trkpt lat="48.60005" lon="-2.36387">
        <ele>37.6</ele>
        <time>2017-08-15T08:55:55Z</time>
      </trkpt>
      <trkpt lat="48.60006" lon="-2.36375">
        <ele>35.8</ele>
        <time>2017-08-15T08:55:59Z</time>
      </trkpt>
      <trkpt lat="48.60009" lon="-2.36364">
        <ele>34.8</ele>
        <time>2017-08-15T08:56:03Z</time>
      </trkpt>
      <trkpt lat="48.60012" lon="-2.36355">
        <ele>32.6</ele>
        <time>2017-08-15T08:56:07Z</time>
      </trkpt>
      <trkpt lat="48.60019" lon="-2.36347">
        <ele>32.6</ele>
        <time>2017-08-15T08:56:11Z</time>
      </trkpt>
      <trkpt lat="48.60023" lon="-2.36342">
        <ele>32.6</ele>
        <time>2017-08-15T08:56:15Z</time>
      </trkpt>
      <trkpt lat="48.60031" lon="-2.36339">
        <ele>32.2</ele>
        <time>2017-08-15T08:56:19Z</time>
      </trkpt>
      <trkpt lat="48.60035" lon="-2.36333">
        <ele>31.2</ele>
        <time>2017-08-15T08:56:23Z</time>
      </trkpt>
      <trkpt lat="48.60043" lon="-2.3633">
        <ele>31.8</ele>
        <time>2017-08-15T08:56:27Z</time>
      </trkpt>
      <trkpt lat="48.6005" lon="-2.36326">
        <ele>31.6</ele>
        <time>2017-08-15T08:56:31Z</time>
      </trkpt>
      <trkpt lat="48.60059" lon="-2.36318">
        <ele>30.8</ele>
        <time>2017-08-15T08:56:35Z</time>
      </trkpt>
      <trkpt lat="48.60067" lon="-2.3631">
        <ele>31.2</ele>
        <time>2017-08-15T08:56:39Z</time>
      </trkpt>
      <trkpt lat="48.60075" lon="-2.36308">
        <ele>32</ele>
        <time>2017-08-15T08:56:43Z</time>
      </trkpt>
      <trkpt lat="48.60081" lon="-2.36297">
        <ele>29.6</ele>
        <time>2017-08-15T08:56:47Z</time>
      </trkpt>
      <trkpt lat="48.60088" lon="-2.36289">
        <ele>29.4</ele>
        <time>2017-08-15T08:56:51Z</time>
      </trkpt>
      <trkpt lat="48.60096" lon="-2.3629">
        <ele>30.6</ele>
        <time>2017-08-15T08:56:55Z</time>
      </trkpt>
      <trkpt lat="48.60104" lon="-2.36287">
        <ele>30.4</ele>
        <time>2017-08-15T08:56:59Z</time>
      </trkpt>
      <trkpt lat="48.60109" lon="-2.3629">
        <ele>31.6</ele>
        <time>2017-08-15T08:57:03Z</time>
      </trkpt>
      <trkpt lat="48.60115" lon="-2.3629">
        <ele>31.6</ele>
        <time>2017-08-15T08:57:07Z</time>
      </trkpt>
      <trkpt lat="48.60123" lon="-2.36289">
        <ele>29</ele>
        <time>2017-08-15T08:57:11Z</time>
      </trkpt>
      <trkpt lat="48.60136" lon="-2.36288">
        <ele>25.6</ele>
        <time>2017-08-15T08:57:15Z</time>
      </trkpt>
      <trkpt lat="48.60146" lon="-2.36288">
        <ele>23.8</ele>
        <time>2017-08-15T08:57:19Z</time>
      </trkpt>
      <trkpt lat="48.60157" lon="-2.36285">
        <ele>22.8</ele>
        <time>2017-08-15T08:57:23Z</time>
      </trkpt>
      <trkpt lat="48.60168" lon="-2.36277">
        <ele>22.4</ele>
        <time>2017-08-15T08:57:27Z</time>
      </trkpt>
      <trkpt lat="48.60179" lon="-2.3627">
        <ele>22.2</ele>
        <time>2017-08-15T08:57:31Z</time>
      </trkpt>
      <trkpt lat="48.60186" lon="-2.3627">
        <ele>24</ele>
        <time>2017-08-15T08:57:35Z</time>
      </trkpt>
      <trkpt lat="48.60193" lon="-2.36277">
        <ele>25.8</ele>
        <time>2017-08-15T08:57:39Z</time>
      </trkpt>
      <trkpt lat="48.60199" lon="-2.36283">
        <ele>25.8</ele>
        <time>2017-08-15T08:57:43Z</time>
      </trkpt>
      <trkpt lat="48.60206" lon="-2.36287">
        <ele>28</ele>
        <time>2017-08-15T08:57:47Z</time>
      </trkpt>
      <trkpt lat="48.6021" lon="-2.36296">
        <ele>29.8</ele>
        <time>2017-08-15T08:57:51Z</time>
      </trkpt>
      <trkpt lat="48.60214" lon="-2.36306">
        <ele>31.6</ele>
        <time>2017-08-15T08:57:55Z</time>
      </trkpt>
      <trkpt lat="48.60215" lon="-2.36311">
        <ele>33</ele>
        <time>2017-08-15T08:57:59Z</time>
      </trkpt>
      <trkpt lat="48.60218" lon="-2.36314">
        <ele>33</ele>
        <time>2017-08-15T08:58:23Z</time>
      </trkpt>
      <trkpt lat="48.6022" lon="-2.3632">
        <ele>33.8</ele>
        <time>2017-08-15T08:58:27Z</time>
      </trkpt>
      <trkpt lat="48.60224" lon="-2.36328">
        <ele>34.8</ele>
        <time>2017-08-15T08:58:31Z</time>
      </trkpt>
      <trkpt lat="48.60229" lon="-2.36334">
        <ele>35.8</ele>
        <time>2017-08-15T08:58:35Z</time>
      </trkpt>
      <trkpt lat="48.60233" lon="-2.36341">
        <ele>37</ele>
        <time>2017-08-15T08:58:39Z</time>
      </trkpt>
      <trkpt lat="48.60236" lon="-2.36349">
        <ele>37.4</ele>
        <time>2017-08-15T08:58:43Z</time>
      </trkpt>
      <trkpt lat="48.6024" lon="-2.36357">
        <ele>38</ele>
        <time>2017-08-15T08:58:47Z</time>
      </trkpt>
      <trkpt lat="48.60246" lon="-2.3636">
        <ele>38.6</ele>
        <time>2017-08-15T08:58:51Z</time>
      </trkpt>
      <trkpt lat="48.60252" lon="-2.36357">
        <ele>39.2</ele>
        <time>2017-08-15T08:58:55Z</time>
      </trkpt>
      <trkpt lat="48.60257" lon="-2.36361">
        <ele>39.6</ele>
        <time>2017-08-15T08:58:59Z</time>
      </trkpt>
      <trkpt lat="48.60259" lon="-2.36372">
        <ele>39.6</ele>
        <time>2017-08-15T08:59:03Z</time>
      </trkpt>
      <trkpt lat="48.60263" lon="-2.36384">
        <ele>39.8</ele>
        <time>2017-08-15T08:59:07Z</time>
      </trkpt>
      <trkpt lat="48.60266" lon="-2.36396">
        <ele>39.4</ele>
        <time>2017-08-15T08:59:11Z</time>
      </trkpt>
      <trkpt lat="48.60268" lon="-2.36406">
        <ele>39</ele>
        <time>2017-08-15T08:59:15Z</time>
      </trkpt>
      <trkpt lat="48.60271" lon="-2.36419">
        <ele>38.6</ele>
        <time>2017-08-15T08:59:19Z</time>
      </trkpt>
      <trkpt lat="48.60274" lon="-2.36433">
        <ele>39</ele>
        <time>2017-08-15T08:59:23Z</time>
      </trkpt>
      <trkpt lat="48.60276" lon="-2.36448">
        <ele>38.2</ele>
        <time>2017-08-15T08:59:27Z</time>
      </trkpt>
      <trkpt lat="48.60279" lon="-2.36464">
        <ele>38.4</ele>
        <time>2017-08-15T08:59:31Z</time>
      </trkpt>
      <trkpt lat="48.60282" lon="-2.36482">
        <ele>37.4</ele>
        <time>2017-08-15T08:59:35Z</time>
      </trkpt>
      <trkpt lat="48.60281" lon="-2.36497">
        <ele>36.8</ele>
        <time>2017-08-15T08:59:39Z</time>
      </trkpt>
      <trkpt lat="48.60284" lon="-2.36505">
        <ele>35</ele>
        <time>2017-08-15T08:59:43Z</time>
      </trkpt>
      <trkpt lat="48.60291" lon="-2.36511">
        <ele>32.4</ele>
        <time>2017-08-15T08:59:47Z</time>
      </trkpt>
      <trkpt lat="48.60295" lon="-2.36513">
        <ele>28.2</ele>
        <time>2017-08-15T08:59:55Z</time>
      </trkpt>
      <trkpt lat="48.60299" lon="-2.36514">
        <ele>26.6</ele>
        <time>2017-08-15T08:59:59Z</time>
      </trkpt>
      <trkpt lat="48.60304" lon="-2.36519">
        <ele>25.8</ele>
        <time>2017-08-15T09:00:07Z</time>
      </trkpt>
      <trkpt lat="48.60308" lon="-2.36521">
        <ele>24.2</ele>
        <time>2017-08-15T09:00:11Z</time>
      </trkpt>
      <trkpt lat="48.60312" lon="-2.36522">
        <ele>22.4</ele>
        <time>2017-08-15T09:00:15Z</time>
      </trkpt>
      <trkpt lat="48.60317" lon="-2.36522">
        <ele>20.4</ele>
        <time>2017-08-15T09:00:23Z</time>
      </trkpt>
      <trkpt lat="48.60322" lon="-2.36523">
        <ele>20</ele>
        <time>2017-08-15T09:00:27Z</time>
      </trkpt>
      <trkpt lat="48.60325" lon="-2.36517">
        <ele>21.2</ele>
        <time>2017-08-15T09:00:31Z</time>
      </trkpt>
      <trkpt lat="48.60327" lon="-2.36514">
        <ele>20</ele>
        <time>2017-08-15T09:00:35Z</time>
      </trkpt>
      <trkpt lat="48.60331" lon="-2.36524">
        <ele>18.4</ele>
        <time>2017-08-15T09:00:39Z</time>
      </trkpt>
      <trkpt lat="48.6034" lon="-2.36529">
        <ele>17.8</ele>
        <time>2017-08-15T09:00:43Z</time>
      </trkpt>
      <trkpt lat="48.6035" lon="-2.36523">
        <ele>17.8</ele>
        <time>2017-08-15T09:00:47Z</time>
      </trkpt>
      <trkpt lat="48.60359" lon="-2.36517">
        <ele>18.4</ele>
        <time>2017-08-15T09:00:51Z</time>
      </trkpt>
      <trkpt lat="48.60369" lon="-2.36511">
        <ele>19</ele>
        <time>2017-08-15T09:00:55Z</time>
      </trkpt>
      <trkpt lat="48.60379" lon="-2.3651">
        <ele>19.2</ele>
        <time>2017-08-15T09:00:59Z</time>
      </trkpt>
      <trkpt lat="48.60389" lon="-2.36513">
        <ele>19</ele>
        <time>2017-08-15T09:01:03Z</time>
      </trkpt>
      <trkpt lat="48.604" lon="-2.36516">
        <ele>19.8</ele>
        <time>2017-08-15T09:01:07Z</time>
      </trkpt>
      <trkpt lat="48.6041" lon="-2.36519">
        <ele>20.2</ele>
        <time>2017-08-15T09:01:11Z</time>
      </trkpt>
      <trkpt lat="48.6042" lon="-2.36521">
        <ele>20.2</ele>
        <time>2017-08-15T09:01:15Z</time>
      </trkpt>
      <trkpt lat="48.60428" lon="-2.36524">
        <ele>19.8</ele>
        <time>2017-08-15T09:01:19Z</time>
      </trkpt>
      <trkpt lat="48.60431" lon="-2.3653">
        <ele>17.4</ele>
        <time>2017-08-15T09:01:23Z</time>
      </trkpt>
      <trkpt lat="48.60436" lon="-2.36535">
        <ele>15.4</ele>
        <time>2017-08-15T09:01:27Z</time>
      </trkpt>
      <trkpt lat="48.60439" lon="-2.36547">
        <ele>13.4</ele>
        <time>2017-08-15T09:01:31Z</time>
      </trkpt>
      <trkpt lat="48.60444" lon="-2.36551">
        <ele>13.8</ele>
        <time>2017-08-15T09:01:35Z</time>
      </trkpt>
      <trkpt lat="48.60451" lon="-2.36552">
        <ele>12.8</ele>
        <time>2017-08-15T09:01:39Z</time>
      </trkpt>
      <trkpt lat="48.60457" lon="-2.36556">
        <ele>13.6</ele>
        <time>2017-08-15T09:01:43Z</time>
      </trkpt>
      <trkpt lat="48.60466" lon="-2.36565">
        <ele>12</ele>
        <time>2017-08-15T09:01:47Z</time>
      </trkpt>
      <trkpt lat="48.60477" lon="-2.36571">
        <ele>11.6</ele>
        <time>2017-08-15T09:01:51Z</time>
      </trkpt>
      <trkpt lat="48.60483" lon="-2.36574">
        <ele>11.4</ele>
        <time>2017-08-15T09:01:55Z</time>
      </trkpt>
      <trkpt lat="48.60492" lon="-2.36574">
        <ele>11.4</ele>
        <time>2017-08-15T09:01:59Z</time>
      </trkpt>
      <trkpt lat="48.60494" lon="-2.3658">
        <ele>11.2</ele>
        <time>2017-08-15T09:02:03Z</time>
      </trkpt>
      <trkpt lat="48.60497" lon="-2.36588">
        <ele>10.6</ele>
        <time>2017-08-15T09:02:07Z</time>
      </trkpt>
      <trkpt lat="48.60498" lon="-2.36595">
        <ele>10.4</ele>
        <time>2017-08-15T09:02:11Z</time>
      </trkpt>
      <trkpt lat="48.60498" lon="-2.36601">
        <ele>10.4</ele>
        <time>2017-08-15T09:02:15Z</time>
      </trkpt>
      <trkpt lat="48.60501" lon="-2.36604">
        <ele>10.2</ele>
        <time>2017-08-15T09:02:23Z</time>
      </trkpt>
      <trkpt lat="48.60507" lon="-2.36606">
        <ele>11.8</ele>
        <time>2017-08-15T09:02:27Z</time>
      </trkpt>
      <trkpt lat="48.60509" lon="-2.36613">
        <ele>12.4</ele>
        <time>2017-08-15T09:02:31Z</time>
      </trkpt>
      <trkpt lat="48.60512" lon="-2.36625">
        <ele>12.6</ele>
        <time>2017-08-15T09:02:35Z</time>
      </trkpt>
      <trkpt lat="48.60517" lon="-2.36629">
        <ele>13.2</ele>
        <time>2017-08-15T09:02:39Z</time>
      </trkpt>
      <trkpt lat="48.60521" lon="-2.3664">
        <ele>13.8</ele>
        <time>2017-08-15T09:02:43Z</time>
      </trkpt>
      <trkpt lat="48.60525" lon="-2.36652">
        <ele>14.4</ele>
        <time>2017-08-15T09:02:47Z</time>
      </trkpt>
      <trkpt lat="48.60534" lon="-2.36656">
        <ele>14.4</ele>
        <time>2017-08-15T09:02:51Z</time>
      </trkpt>
      <trkpt lat="48.60541" lon="-2.36654">
        <ele>14.6</ele>
        <time>2017-08-15T09:02:55Z</time>
      </trkpt>
      <trkpt lat="48.60551" lon="-2.36649">
        <ele>14.6</ele>
        <time>2017-08-15T09:02:59Z</time>
      </trkpt>
      <trkpt lat="48.60564" lon="-2.36641">
        <ele>14.2</ele>
        <time>2017-08-15T09:03:07Z</time>
      </trkpt>
      <trkpt lat="48.60571" lon="-2.36646">
        <ele>14</ele>
        <time>2017-08-15T09:03:11Z</time>
      </trkpt>
      <trkpt lat="48.60577" lon="-2.36655">
        <ele>15</ele>
        <time>2017-08-15T09:03:15Z</time>
      </trkpt>
      <trkpt lat="48.60584" lon="-2.36661">
        <ele>13.8</ele>
        <time>2017-08-15T09:03:19Z</time>
      </trkpt>
      <trkpt lat="48.6059" lon="-2.36658">
        <ele>13.8</ele>
        <time>2017-08-15T09:03:23Z</time>
      </trkpt>
      <trkpt lat="48.60597" lon="-2.36651">
        <ele>13.8</ele>
        <time>2017-08-15T09:03:27Z</time>
      </trkpt>
      <trkpt lat="48.60605" lon="-2.36649">
        <ele>13.4</ele>
        <time>2017-08-15T09:03:31Z</time>
      </trkpt>
      <trkpt lat="48.6061" lon="-2.36659">
        <ele>13.2</ele>
        <time>2017-08-15T09:03:35Z</time>
      </trkpt>
      <trkpt lat="48.60613" lon="-2.36664">
        <ele>13.8</ele>
        <time>2017-08-15T09:03:39Z</time>
      </trkpt>
      <trkpt lat="48.6062" lon="-2.36667">
        <ele>13.6</ele>
        <time>2017-08-15T09:03:43Z</time>
      </trkpt>
      <trkpt lat="48.60626" lon="-2.36671">
        <ele>13.2</ele>
        <time>2017-08-15T09:03:47Z</time>
      </trkpt>
      <trkpt lat="48.60632" lon="-2.36683">
        <ele>11.2</ele>
        <time>2017-08-15T09:03:51Z</time>
      </trkpt>
      <trkpt lat="48.60629" lon="-2.36692">
        <ele>12.8</ele>
        <time>2017-08-15T09:03:55Z</time>
      </trkpt>
      <trkpt lat="48.6063" lon="-2.36698">
        <ele>12.8</ele>
        <time>2017-08-15T09:03:59Z</time>
      </trkpt>
      <trkpt lat="48.6063" lon="-2.36713">
        <ele>11.8</ele>
        <time>2017-08-15T09:04:03Z</time>
      </trkpt>
      <trkpt lat="48.60632" lon="-2.36732">
        <ele>12</ele>
        <time>2017-08-15T09:04:07Z</time>
      </trkpt>
      <trkpt lat="48.60631" lon="-2.36742">
        <ele>12.6</ele>
        <time>2017-08-15T09:04:11Z</time>
      </trkpt>
      <trkpt lat="48.60629" lon="-2.3675">
        <ele>14</ele>
        <time>2017-08-15T09:04:15Z</time>
      </trkpt>
      <trkpt lat="48.60635" lon="-2.36765">
        <ele>14.8</ele>
        <time>2017-08-15T09:04:19Z</time>
      </trkpt>
      <trkpt lat="48.60638" lon="-2.36778">
        <ele>14.4</ele>
        <time>2017-08-15T09:04:23Z</time>
      </trkpt>
      <trkpt lat="48.60641" lon="-2.3679">
        <ele>14.4</ele>
        <time>2017-08-15T09:04:27Z</time>
      </trkpt>
      <trkpt lat="48.60643" lon="-2.368">
        <ele>14.6</ele>
        <time>2017-08-15T09:04:31Z</time>
      </trkpt>
      <trkpt lat="48.60648" lon="-2.36803">
        <ele>13.6</ele>
        <time>2017-08-15T09:04:35Z</time>
      </trkpt>
      <trkpt lat="48.60656" lon="-2.36812">
        <ele>11.4</ele>
        <time>2017-08-15T09:04:39Z</time>
      </trkpt>
      <trkpt lat="48.60669" lon="-2.36831">
        <ele>10.8</ele>
        <time>2017-08-15T09:04:43Z</time>
      </trkpt>
      <trkpt lat="48.60678" lon="-2.36839">
        <ele>10.6</ele>
        <time>2017-08-15T09:04:47Z</time>
      </trkpt>
      <trkpt lat="48.60687" lon="-2.3684">
        <ele>10.8</ele>
        <time>2017-08-15T09:04:51Z</time>
      </trkpt>
      <trkpt lat="48.60691" lon="-2.36839">
        <ele>11.6</ele>
        <time>2017-08-15T09:04:55Z</time>
      </trkpt>
      <trkpt lat="48.6069" lon="-2.3683">
        <ele>11.6</ele>
        <time>2017-08-15T09:04:59Z</time>
      </trkpt>
      <trkpt lat="48.60693" lon="-2.36819">
        <ele>11.6</ele>
        <time>2017-08-15T09:05:03Z</time>
      </trkpt>
      <trkpt lat="48.60691" lon="-2.36813">
        <ele>12</ele>
        <time>2017-08-15T09:05:07Z</time>
      </trkpt>
      <trkpt lat="48.60686" lon="-2.36799">
        <ele>10.8</ele>
        <time>2017-08-15T09:05:11Z</time>
      </trkpt>
      <trkpt lat="48.60688" lon="-2.3679">
        <ele>12</ele>
        <time>2017-08-15T09:05:15Z</time>
      </trkpt>
      <trkpt lat="48.60691" lon="-2.36776">
        <ele>11.8</ele>
        <time>2017-08-15T09:05:23Z</time>
      </trkpt>
      <trkpt lat="48.60694" lon="-2.36771">
        <ele>12.8</ele>
        <time>2017-08-15T09:05:27Z</time>
      </trkpt>
      <trkpt lat="48.60695" lon="-2.36769">
        <ele>13.4</ele>
        <time>2017-08-15T09:05:31Z</time>
      </trkpt>
      <trkpt lat="48.60696" lon="-2.36762">
        <ele>14.8</ele>
        <time>2017-08-15T09:05:35Z</time>
      </trkpt>
      <trkpt lat="48.60697" lon="-2.36756">
        <ele>15.2</ele>
        <time>2017-08-15T09:05:39Z</time>
      </trkpt>
      <trkpt lat="48.60697" lon="-2.36747">
        <ele>14.8</ele>
        <time>2017-08-15T09:05:43Z</time>
      </trkpt>
      <trkpt lat="48.60697" lon="-2.36737">
        <ele>15.8</ele>
        <time>2017-08-15T09:05:47Z</time>
      </trkpt>
      <trkpt lat="48.60699" lon="-2.36719">
        <ele>15.8</ele>
        <time>2017-08-15T09:05:55Z</time>
      </trkpt>
      <trkpt lat="48.60704" lon="-2.3671">
        <ele>13.6</ele>
        <time>2017-08-15T09:05:59Z</time>
      </trkpt>
      <trkpt lat="48.60705" lon="-2.36694">
        <ele>13.6</ele>
        <time>2017-08-15T09:06:03Z</time>
      </trkpt>
      <trkpt lat="48.60707" lon="-2.3667">
        <ele>11.4</ele>
        <time>2017-08-15T09:06:07Z</time>
      </trkpt>
      <trkpt lat="48.6071" lon="-2.36645">
        <ele>11.4</ele>
        <time>2017-08-15T09:06:11Z</time>
      </trkpt>
      <trkpt lat="48.60712" lon="-2.36629">
        <ele>12</ele>
        <time>2017-08-15T09:06:15Z</time>
      </trkpt>
      <trkpt lat="48.60714" lon="-2.36608">
        <ele>12</ele>
        <time>2017-08-15T09:06:19Z</time>
      </trkpt>
      <trkpt lat="48.60718" lon="-2.36587">
        <ele>12</ele>
        <time>2017-08-15T09:06:23Z</time>
      </trkpt>
      <trkpt lat="48.60724" lon="-2.36568">
        <ele>11.6</ele>
        <time>2017-08-15T09:06:27Z</time>
      </trkpt>
      <trkpt lat="48.60728" lon="-2.3655">
        <ele>11.8</ele>
        <time>2017-08-15T09:06:31Z</time>
      </trkpt>
      <trkpt lat="48.60733" lon="-2.36532">
        <ele>11.4</ele>
        <time>2017-08-15T09:06:35Z</time>
      </trkpt>
      <trkpt lat="48.60738" lon="-2.36513">
        <ele>11.2</ele>
        <time>2017-08-15T09:06:39Z</time>
      </trkpt>
      <trkpt lat="48.60736" lon="-2.36499">
        <ele>11.4</ele>
        <time>2017-08-15T09:06:43Z</time>
      </trkpt>
      <trkpt lat="48.60732" lon="-2.36488">
        <ele>10.4</ele>
        <time>2017-08-15T09:06:47Z</time>
      </trkpt>
      <trkpt lat="48.60729" lon="-2.36474">
        <ele>10</ele>
        <time>2017-08-15T09:06:51Z</time>
      </trkpt>
      <trkpt lat="48.6073" lon="-2.36459">
        <ele>10.4</ele>
        <time>2017-08-15T09:06:55Z</time>
      </trkpt>
      <trkpt lat="48.60731" lon="-2.3645">
        <ele>9.4</ele>
        <time>2017-08-15T09:07:03Z</time>
      </trkpt>
      <trkpt lat="48.60715" lon="-2.36432">
        <ele>5.4</ele>
        <time>2017-08-15T09:07:07Z</time>
      </trkpt>
      <trkpt lat="48.60695" lon="-2.36421">
        <ele>1.6</ele>
        <time>2017-08-15T09:07:11Z</time>
      </trkpt>
      <trkpt lat="48.6068" lon="-2.36407">
        <ele>-0.8</ele>
        <time>2017-08-15T09:07:15Z</time>
      </trkpt>
      <trkpt lat="48.60675" lon="-2.36404">
        <ele>-0.4</ele>
        <time>2017-08-15T09:07:19Z</time>
      </trkpt>
      <trkpt lat="48.6067" lon="-2.36393">
        <ele>-1</ele>
        <time>2017-08-15T09:07:23Z</time>
      </trkpt>
      <trkpt lat="48.60667" lon="-2.36374">
        <ele>-1</ele>
        <time>2017-08-15T09:07:27Z</time>
      </trkpt>
      <trkpt lat="48.60666" lon="-2.36352">
        <ele>-2.4</ele>
        <time>2017-08-15T09:07:31Z</time>
      </trkpt>
      <trkpt lat="48.60666" lon="-2.36326">
        <ele>-3</ele>
        <time>2017-08-15T09:07:35Z</time>
      </trkpt>
      <trkpt lat="48.60671" lon="-2.363">
        <ele>-3.4</ele>
        <time>2017-08-15T09:07:39Z</time>
      </trkpt>
      <trkpt lat="48.60667" lon="-2.36273">
        <ele>-3.8</ele>
        <time>2017-08-15T09:07:43Z</time>
      </trkpt>
      <trkpt lat="48.60655" lon="-2.36261">
        <ele>-4.2</ele>
        <time>2017-08-15T09:07:47Z</time>
      </trkpt>
      <trkpt lat="48.60645" lon="-2.36254">
        <ele>-5</ele>
        <time>2017-08-15T09:07:51Z</time>
      </trkpt>
      <trkpt lat="48.60638" lon="-2.36243">
        <ele>-4.8</ele>
        <time>2017-08-15T09:07:55Z</time>
      </trkpt>
      <trkpt lat="48.60634" lon="-2.3623">
        <ele>-5.2</ele>
        <time>2017-08-15T09:07:59Z</time>
      </trkpt>
      <trkpt lat="48.60621" lon="-2.36219">
        <ele>-5.6</ele>
        <time>2017-08-15T09:08:03Z</time>
      </trkpt>
      <trkpt lat="48.60613" lon="-2.36205">
        <ele>-6.4</ele>
        <time>2017-08-15T09:08:07Z</time>
      </trkpt>
      <trkpt lat="48.60606" lon="-2.36196">
        <ele>-6</ele>
        <time>2017-08-15T09:08:11Z</time>
      </trkpt>
      <trkpt lat="48.60597" lon="-2.36183">
        <ele>-5.6</ele>
        <time>2017-08-15T09:08:15Z</time>
      </trkpt>
      <trkpt lat="48.6059" lon="-2.36166">
        <ele>-5.8</ele>
        <time>2017-08-15T09:08:19Z</time>
      </trkpt>
      <trkpt lat="48.60581" lon="-2.36153">
        <ele>-6</ele>
        <time>2017-08-15T09:08:23Z</time>
      </trkpt>
      <trkpt lat="48.60573" lon="-2.3614">
        <ele>-6.4</ele>
        <time>2017-08-15T09:08:27Z</time>
      </trkpt>
      <trkpt lat="48.60565" lon="-2.36121">
        <ele>-6</ele>
        <time>2017-08-15T09:08:31Z</time>
      </trkpt>
      <trkpt lat="48.60558" lon="-2.36107">
        <ele>-5.4</ele>
        <time>2017-08-15T09:08:35Z</time>
      </trkpt>
      <trkpt lat="48.60553" lon="-2.3609">
        <ele>-5</ele>
        <time>2017-08-15T09:08:39Z</time>
      </trkpt>
      <trkpt lat="48.60548" lon="-2.36076">
        <ele>-4.6</ele>
        <time>2017-08-15T09:08:43Z</time>
      </trkpt>
      <trkpt lat="48.60546" lon="-2.36056">
        <ele>-5</ele>
        <time>2017-08-15T09:08:47Z</time>
      </trkpt>
      <trkpt lat="48.60544" lon="-2.36038">
        <ele>-4.8</ele>
        <time>2017-08-15T09:08:51Z</time>
      </trkpt>
      <trkpt lat="48.60548" lon="-2.36013">
        <ele>-7.6</ele>
        <time>2017-08-15T09:08:55Z</time>
      </trkpt>
      <trkpt lat="48.60555" lon="-2.35983">
        <ele>-11.2</ele>
        <time>2017-08-15T09:08:59Z</time>
      </trkpt>
      <trkpt lat="48.60565" lon="-2.35972">
        <ele>-11</ele>
        <time>2017-08-15T09:09:03Z</time>
      </trkpt>
      <trkpt lat="48.6057" lon="-2.35981">
        <ele>-10.2</ele>
        <time>2017-08-15T09:09:07Z</time>
      </trkpt>
      <trkpt lat="48.60574" lon="-2.35993">
        <ele>-9.6</ele>
        <time>2017-08-15T09:09:11Z</time>
      </trkpt>
      <trkpt lat="48.60579" lon="-2.36007">
        <ele>-8.8</ele>
        <time>2017-08-15T09:09:15Z</time>
      </trkpt>
      <trkpt lat="48.60584" lon="-2.3602">
        <ele>-8</ele>
        <time>2017-08-15T09:09:19Z</time>
      </trkpt>
      <trkpt lat="48.60589" lon="-2.36035">
        <ele>-7</ele>
        <time>2017-08-15T09:09:23Z</time>
      </trkpt>
      <trkpt lat="48.60594" lon="-2.36049">
        <ele>-6</ele>
        <time>2017-08-15T09:09:27Z</time>
      </trkpt>
      <trkpt lat="48.606" lon="-2.36061">
        <ele>-5.8</ele>
        <time>2017-08-15T09:09:31Z</time>
      </trkpt>
      <trkpt lat="48.60608" lon="-2.36069">
        <ele>-5.2</ele>
        <time>2017-08-15T09:09:35Z</time>
      </trkpt>
      <trkpt lat="48.60615" lon="-2.3608">
        <ele>-4.6</ele>
        <time>2017-08-15T09:09:39Z</time>
      </trkpt>
      <trkpt lat="48.60624" lon="-2.36087">
        <ele>-4.4</ele>
        <time>2017-08-15T09:09:43Z</time>
      </trkpt>
      <trkpt lat="48.60636" lon="-2.36093">
        <ele>-4.2</ele>
        <time>2017-08-15T09:09:47Z</time>
      </trkpt>
      <trkpt lat="48.60645" lon="-2.36102">
        <ele>-4</ele>
        <time>2017-08-15T09:09:51Z</time>
      </trkpt>
      <trkpt lat="48.60652" lon="-2.36109">
        <ele>-4.4</ele>
        <time>2017-08-15T09:09:55Z</time>
      </trkpt>
      <trkpt lat="48.60659" lon="-2.36118">
        <ele>-4.4</ele>
        <time>2017-08-15T09:09:59Z</time>
      </trkpt>
      <trkpt lat="48.60669" lon="-2.36115">
        <ele>-3.8</ele>
        <time>2017-08-15T09:10:03Z</time>
      </trkpt>
      <trkpt lat="48.60676" lon="-2.36107">
        <ele>-3</ele>
        <time>2017-08-15T09:10:07Z</time>
      </trkpt>
      <trkpt lat="48.60683" lon="-2.36105">
        <ele>-1.4</ele>
        <time>2017-08-15T09:10:11Z</time>
      </trkpt>
      <trkpt lat="48.6069" lon="-2.36101">
        <ele>-0.2</ele>
        <time>2017-08-15T09:10:15Z</time>
      </trkpt>
      <trkpt lat="48.60698" lon="-2.36095">
        <ele>24</ele>
        <time>2017-08-15T09:10:19Z</time>
      </trkpt>
      <trkpt lat="48.60703" lon="-2.36091">
        <ele>0.6</ele>
        <time>2017-08-15T09:10:23Z</time>
      </trkpt>
      <trkpt lat="48.60708" lon="-2.36085">
        <ele>0.8</ele>
        <time>2017-08-15T09:10:27Z</time>
      </trkpt>
      <trkpt lat="48.60713" lon="-2.36078">
        <ele>1.2</ele>
        <time>2017-08-15T09:10:31Z</time>
      </trkpt>
      <trkpt lat="48.60718" lon="-2.36069">
        <ele>2.2</ele>
        <time>2017-08-15T09:10:35Z</time>
      </trkpt>
      <trkpt lat="48.60721" lon="-2.36058">
        <ele>2.4</ele>
        <time>2017-08-15T09:10:39Z</time>
      </trkpt>
      <trkpt lat="48.60724" lon="-2.36051">
        <ele>2.8</ele>
        <time>2017-08-15T09:10:43Z</time>
      </trkpt>
      <trkpt lat="48.60726" lon="-2.36044">
        <ele>3.2</ele>
        <time>2017-08-15T09:10:47Z</time>
      </trkpt>
      <trkpt lat="48.60732" lon="-2.36037">
        <ele>3.6</ele>
        <time>2017-08-15T09:10:51Z</time>
      </trkpt>
      <trkpt lat="48.60735" lon="-2.3603">
        <ele>4.2</ele>
        <time>2017-08-15T09:10:55Z</time>
      </trkpt>
      <trkpt lat="48.6074" lon="-2.36017">
        <ele>4.2</ele>
        <time>2017-08-15T09:10:59Z</time>
      </trkpt>
      <trkpt lat="48.60744" lon="-2.36007">
        <ele>4.8</ele>
        <time>2017-08-15T09:11:03Z</time>
      </trkpt>
      <trkpt lat="48.60749" lon="-2.35996">
        <ele>5.4</ele>
        <time>2017-08-15T09:11:07Z</time>
      </trkpt>
      <trkpt lat="48.60747" lon="-2.35998">
        <ele>6.4</ele>
        <time>2017-08-15T09:11:11Z</time>
      </trkpt>
      <trkpt lat="48.60742" lon="-2.35996">
        <ele>8</ele>
        <time>2017-08-15T09:11:15Z</time>
      </trkpt>
      <trkpt lat="48.60741" lon="-2.35992">
        <ele>9.4</ele>
        <time>2017-08-15T09:11:19Z</time>
      </trkpt>
      <trkpt lat="48.60744" lon="-2.35985">
        <ele>10.4</ele>
        <time>2017-08-15T09:11:23Z</time>
      </trkpt>
      <trkpt lat="48.60746" lon="-2.35979">
        <ele>11.6</ele>
        <time>2017-08-15T09:11:27Z</time>
      </trkpt>
      <trkpt lat="48.60748" lon="-2.35972">
        <ele>13.4</ele>
        <time>2017-08-15T09:11:31Z</time>
      </trkpt>
      <trkpt lat="48.60749" lon="-2.3596">
        <ele>14.8</ele>
        <time>2017-08-15T09:11:35Z</time>
      </trkpt>
      <trkpt lat="48.60752" lon="-2.3595">
        <ele>15.4</ele>
        <time>2017-08-15T09:11:39Z</time>
      </trkpt>
      <trkpt lat="48.60754" lon="-2.35942">
        <ele>16.4</ele>
        <time>2017-08-15T09:11:43Z</time>
      </trkpt>
      <trkpt lat="48.60757" lon="-2.35933">
        <ele>17.4</ele>
        <time>2017-08-15T09:11:47Z</time>
      </trkpt>
      <trkpt lat="48.6076" lon="-2.35924">
        <ele>18.4</ele>
        <time>2017-08-15T09:11:51Z</time>
      </trkpt>
      <trkpt lat="48.60763" lon="-2.35916">
        <ele>19.4</ele>
        <time>2017-08-15T09:11:55Z</time>
      </trkpt>
      <trkpt lat="48.60765" lon="-2.35908">
        <ele>21.2</ele>
        <time>2017-08-15T09:11:59Z</time>
      </trkpt>
      <trkpt lat="48.60767" lon="-2.35899">
        <ele>22</ele>
        <time>2017-08-15T09:12:03Z</time>
      </trkpt>
      <trkpt lat="48.6077" lon="-2.3589">
        <ele>23.2</ele>
        <time>2017-08-15T09:12:07Z</time>
      </trkpt>
      <trkpt lat="48.60774" lon="-2.3588">
        <ele>24.6</ele>
        <time>2017-08-15T09:12:11Z</time>
      </trkpt>
      <trkpt lat="48.60777" lon="-2.35872">
        <ele>26.2</ele>
        <time>2017-08-15T09:12:15Z</time>
      </trkpt>
      <trkpt lat="48.60779" lon="-2.35863">
        <ele>27.4</ele>
        <time>2017-08-15T09:12:19Z</time>
      </trkpt>
      <trkpt lat="48.60781" lon="-2.35855">
        <ele>29</ele>
        <time>2017-08-15T09:12:23Z</time>
      </trkpt>
      <trkpt lat="48.60781" lon="-2.35847">
        <ele>29.6</ele>
        <time>2017-08-15T09:12:27Z</time>
      </trkpt>
      <trkpt lat="48.60776" lon="-2.3585">
        <ele>30.4</ele>
        <time>2017-08-15T09:12:31Z</time>
      </trkpt>
      <trkpt lat="48.60773" lon="-2.35854">
        <ele>30</ele>
        <time>2017-08-15T09:12:35Z</time>
      </trkpt>
      <trkpt lat="48.60768" lon="-2.3586">
        <ele>29.6</ele>
        <time>2017-08-15T09:12:39Z</time>
      </trkpt>
      <trkpt lat="48.60763" lon="-2.35866">
        <ele>29.8</ele>
        <time>2017-08-15T09:12:43Z</time>
      </trkpt>
      <trkpt lat="48.6076" lon="-2.35877">
        <ele>29.4</ele>
        <time>2017-08-15T09:12:47Z</time>
      </trkpt>
      <trkpt lat="48.60755" lon="-2.35885">
        <ele>30</ele>
        <time>2017-08-15T09:12:51Z</time>
      </trkpt>
      <trkpt lat="48.60751" lon="-2.35892">
        <ele>29.8</ele>
        <time>2017-08-15T09:12:55Z</time>
      </trkpt>
      <trkpt lat="48.60749" lon="-2.35892">
        <ele>30.2</ele>
        <time>2017-08-15T09:12:59Z</time>
      </trkpt>
      <trkpt lat="48.60745" lon="-2.35898">
        <ele>30.4</ele>
        <time>2017-08-15T09:13:03Z</time>
      </trkpt>
      <trkpt lat="48.6074" lon="-2.35905">
        <ele>30.6</ele>
        <time>2017-08-15T09:13:07Z</time>
      </trkpt>
      <trkpt lat="48.60735" lon="-2.35913">
        <ele>29.2</ele>
        <time>2017-08-15T09:13:11Z</time>
      </trkpt>
      <trkpt lat="48.60728" lon="-2.35926">
        <ele>29.8</ele>
        <time>2017-08-15T09:13:15Z</time>
      </trkpt>
      <trkpt lat="48.60722" lon="-2.35936">
        <ele>29.2</ele>
        <time>2017-08-15T09:13:19Z</time>
      </trkpt>
      <trkpt lat="48.60717" lon="-2.35948">
        <ele>27.8</ele>
        <time>2017-08-15T09:13:23Z</time>
      </trkpt>
      <trkpt lat="48.60714" lon="-2.35959">
        <ele>25.8</ele>
        <time>2017-08-15T09:13:27Z</time>
      </trkpt>
      <trkpt lat="48.60705" lon="-2.35974">
        <ele>24.4</ele>
        <time>2017-08-15T09:13:31Z</time>
      </trkpt>
      <trkpt lat="48.60696" lon="-2.35988">
        <ele>23.6</ele>
        <time>2017-08-15T09:13:35Z</time>
      </trkpt>
      <trkpt lat="48.60688" lon="-2.35998">
        <ele>23.2</ele>
        <time>2017-08-15T09:13:39Z</time>
      </trkpt>
      <trkpt lat="48.60672" lon="-2.36003">
        <ele>22.8</ele>
        <time>2017-08-15T09:13:43Z</time>
      </trkpt>
      <trkpt lat="48.6066" lon="-2.36004">
        <ele>21.8</ele>
        <time>2017-08-15T09:13:47Z</time>
      </trkpt>
      <trkpt lat="48.60649" lon="-2.36001">
        <ele>21.4</ele>
        <time>2017-08-15T09:13:51Z</time>
      </trkpt>
      <trkpt lat="48.60646" lon="-2.35996">
        <ele>21</ele>
        <time>2017-08-15T09:13:55Z</time>
      </trkpt>
      <trkpt lat="48.60646" lon="-2.35994">
        <ele>21.2</ele>
        <time>2017-08-15T09:13:59Z</time>
      </trkpt>
      <trkpt lat="48.60645" lon="-2.35987">
        <ele>21.2</ele>
        <time>2017-08-15T09:14:03Z</time>
      </trkpt>
      <trkpt lat="48.60644" lon="-2.35977">
        <ele>21</ele>
        <time>2017-08-15T09:14:07Z</time>
      </trkpt>
      <trkpt lat="48.60644" lon="-2.35966">
        <ele>22.2</ele>
        <time>2017-08-15T09:14:11Z</time>
      </trkpt>
      <trkpt lat="48.60645" lon="-2.35953">
        <ele>22.2</ele>
        <time>2017-08-15T09:14:15Z</time>
      </trkpt>
      <trkpt lat="48.60643" lon="-2.3594">
        <ele>22.8</ele>
        <time>2017-08-15T09:14:19Z</time>
      </trkpt>
      <trkpt lat="48.60645" lon="-2.35928">
        <ele>23</ele>
        <time>2017-08-15T09:14:23Z</time>
      </trkpt>
      <trkpt lat="48.60647" lon="-2.35918">
        <ele>24</ele>
        <time>2017-08-15T09:14:27Z</time>
      </trkpt>
      <trkpt lat="48.6065" lon="-2.3591">
        <ele>23.6</ele>
        <time>2017-08-15T09:14:31Z</time>
      </trkpt>
      <trkpt lat="48.60653" lon="-2.35903">
        <ele>24</ele>
        <time>2017-08-15T09:14:35Z</time>
      </trkpt>
      <trkpt lat="48.60655" lon="-2.35891">
        <ele>22.8</ele>
        <time>2017-08-15T09:14:39Z</time>
      </trkpt>
      <trkpt lat="48.60653" lon="-2.35871">
        <ele>20.2</ele>
        <time>2017-08-15T09:14:43Z</time>
      </trkpt>
      <trkpt lat="48.60642" lon="-2.35862">
        <ele>15.8</ele>
        <time>2017-08-15T09:14:47Z</time>
      </trkpt>
      <trkpt lat="48.60632" lon="-2.35857">
        <ele>12.6</ele>
        <time>2017-08-15T09:14:51Z</time>
      </trkpt>
      <trkpt lat="48.60627" lon="-2.35846">
        <ele>8.6</ele>
        <time>2017-08-15T09:14:55Z</time>
      </trkpt>
      <trkpt lat="48.60619" lon="-2.35841">
        <ele>5.6</ele>
        <time>2017-08-15T09:14:59Z</time>
      </trkpt>
      <trkpt lat="48.6062" lon="-2.35831">
        <ele>2.6</ele>
        <time>2017-08-15T09:15:03Z</time>
      </trkpt>
      <trkpt lat="48.60626" lon="-2.35819">
        <ele>-0.2</ele>
        <time>2017-08-15T09:15:07Z</time>
      </trkpt>
      <trkpt lat="48.60632" lon="-2.35809">
        <ele>-2.4</ele>
        <time>2017-08-15T09:15:11Z</time>
      </trkpt>
      <trkpt lat="48.6064" lon="-2.3579">
        <ele>-6.2</ele>
        <time>2017-08-15T09:15:15Z</time>
      </trkpt>
      <trkpt lat="48.60647" lon="-2.35771">
        <ele>-9</ele>
        <time>2017-08-15T09:15:19Z</time>
      </trkpt>
      <trkpt lat="48.60653" lon="-2.35762">
        <ele>-8.8</ele>
        <time>2017-08-15T09:15:23Z</time>
      </trkpt>
      <trkpt lat="48.60659" lon="-2.35754">
        <ele>-8</ele>
        <time>2017-08-15T09:15:27Z</time>
      </trkpt>
      <trkpt lat="48.60666" lon="-2.35743">
        <ele>-8</ele>
        <time>2017-08-15T09:15:31Z</time>
      </trkpt>
      <trkpt lat="48.60672" lon="-2.35725">
        <ele>-8.2</ele>
        <time>2017-08-15T09:15:35Z</time>
      </trkpt>
      <trkpt lat="48.60668" lon="-2.35717">
        <ele>-10</ele>
        <time>2017-08-15T09:15:39Z</time>
      </trkpt>
      <trkpt lat="48.60664" lon="-2.35706">
        <ele>-14</ele>
        <time>2017-08-15T09:15:43Z</time>
      </trkpt>
      <trkpt lat="48.60667" lon="-2.35687">
        <ele>-14.2</ele>
        <time>2017-08-15T09:15:47Z</time>
      </trkpt>
      <trkpt lat="48.60673" lon="-2.35665">
        <ele>-14.8</ele>
        <time>2017-08-15T09:15:51Z</time>
      </trkpt>
      <trkpt lat="48.60677" lon="-2.35644">
        <ele>-14.8</ele>
        <time>2017-08-15T09:15:55Z</time>
      </trkpt>
      <trkpt lat="48.60685" lon="-2.35626">
        <ele>-15</ele>
        <time>2017-08-15T09:15:59Z</time>
      </trkpt>
      <trkpt lat="48.60686" lon="-2.35604">
        <ele>-14.8</ele>
        <time>2017-08-15T09:16:03Z</time>
      </trkpt>
      <trkpt lat="48.60688" lon="-2.35581">
        <ele>-14.8</ele>
        <time>2017-08-15T09:16:07Z</time>
      </trkpt>
      <trkpt lat="48.60691" lon="-2.35558">
        <ele>-14.8</ele>
        <time>2017-08-15T09:16:11Z</time>
      </trkpt>
      <trkpt lat="48.60693" lon="-2.35531">
        <ele>-16.2</ele>
        <time>2017-08-15T09:16:15Z</time>
      </trkpt>
      <trkpt lat="48.60694" lon="-2.35503">
        <ele>-16.2</ele>
        <time>2017-08-15T09:16:19Z</time>
      </trkpt>
      <trkpt lat="48.60694" lon="-2.35478">
        <ele>-16.4</ele>
        <time>2017-08-15T09:16:23Z</time>
      </trkpt>
      <trkpt lat="48.60694" lon="-2.35457">
        <ele>-16.4</ele>
        <time>2017-08-15T09:16:27Z</time>
      </trkpt>
      <trkpt lat="48.60683" lon="-2.35439">
        <ele>-16.4</ele>
        <time>2017-08-15T09:16:31Z</time>
      </trkpt>
      <trkpt lat="48.60683" lon="-2.35417">
        <ele>-16.4</ele>
        <time>2017-08-15T09:16:35Z</time>
      </trkpt>
      <trkpt lat="48.60693" lon="-2.35411">
        <ele>-16.4</ele>
        <time>2017-08-15T09:16:39Z</time>
      </trkpt>
      <trkpt lat="48.607" lon="-2.354">
        <ele>-16.6</ele>
        <time>2017-08-15T09:16:43Z</time>
      </trkpt>
      <trkpt lat="48.60702" lon="-2.3538">
        <ele>-16</ele>
        <time>2017-08-15T09:16:47Z</time>
      </trkpt>
      <trkpt lat="48.60707" lon="-2.35359">
        <ele>-15.8</ele>
        <time>2017-08-15T09:16:51Z</time>
      </trkpt>
      <trkpt lat="48.60716" lon="-2.35339">
        <ele>-15.8</ele>
        <time>2017-08-15T09:16:55Z</time>
      </trkpt>
      <trkpt lat="48.60722" lon="-2.35314">
        <ele>-16.4</ele>
        <time>2017-08-15T09:16:59Z</time>
      </trkpt>
      <trkpt lat="48.60725" lon="-2.35291">
        <ele>-16.6</ele>
        <time>2017-08-15T09:17:03Z</time>
      </trkpt>
      <trkpt lat="48.60729" lon="-2.35271">
        <ele>-16.2</ele>
        <time>2017-08-15T09:17:07Z</time>
      </trkpt>
      <trkpt lat="48.60738" lon="-2.35253">
        <ele>-15.8</ele>
        <time>2017-08-15T09:17:11Z</time>
      </trkpt>
      <trkpt lat="48.60744" lon="-2.35231">
        <ele>-16.4</ele>
        <time>2017-08-15T09:17:15Z</time>
      </trkpt>
      <trkpt lat="48.60754" lon="-2.35212">
        <ele>-15.8</ele>
        <time>2017-08-15T09:17:19Z</time>
      </trkpt>
      <trkpt lat="48.60766" lon="-2.35194">
        <ele>-16.6</ele>
        <time>2017-08-15T09:17:23Z</time>
      </trkpt>
      <trkpt lat="48.60772" lon="-2.35165">
        <ele>-16.2</ele>
        <time>2017-08-15T09:17:27Z</time>
      </trkpt>
      <trkpt lat="48.60767" lon="-2.35149">
        <ele>-15.6</ele>
        <time>2017-08-15T09:17:31Z</time>
      </trkpt>
      <trkpt lat="48.60755" lon="-2.35154">
        <ele>-15.2</ele>
        <time>2017-08-15T09:17:35Z</time>
      </trkpt>
      <trkpt lat="48.60742" lon="-2.35162">
        <ele>-15.6</ele>
        <time>2017-08-15T09:17:39Z</time>
      </trkpt>
      <trkpt lat="48.6073" lon="-2.3517">
        <ele>-15.8</ele>
        <time>2017-08-15T09:17:43Z</time>
      </trkpt>
      <trkpt lat="48.60714" lon="-2.35177">
        <ele>-16</ele>
        <time>2017-08-15T09:17:47Z</time>
      </trkpt>
      <trkpt lat="48.60701" lon="-2.35185">
        <ele>-15.8</ele>
        <time>2017-08-15T09:17:51Z</time>
      </trkpt>
      <trkpt lat="48.60687" lon="-2.35192">
        <ele>-16</ele>
        <time>2017-08-15T09:17:55Z</time>
      </trkpt>
      <trkpt lat="48.60674" lon="-2.35199">
        <ele>-16</ele>
        <time>2017-08-15T09:17:59Z</time>
      </trkpt>
      <trkpt lat="48.60661" lon="-2.35205">
        <ele>-15.8</ele>
        <time>2017-08-15T09:18:03Z</time>
      </trkpt>
      <trkpt lat="48.60648" lon="-2.35208">
        <ele>-16.2</ele>
        <time>2017-08-15T09:18:07Z</time>
      </trkpt>
      <trkpt lat="48.60633" lon="-2.35206">
        <ele>-16.4</ele>
        <time>2017-08-15T09:18:11Z</time>
      </trkpt>
      <trkpt lat="48.60619" lon="-2.35198">
        <ele>-16.2</ele>
        <time>2017-08-15T09:18:15Z</time>
      </trkpt>
      <trkpt lat="48.60613" lon="-2.35178">
        <ele>-16.2</ele>
        <time>2017-08-15T09:18:19Z</time>
      </trkpt>
      <trkpt lat="48.60611" lon="-2.3516">
        <ele>-16</ele>
        <time>2017-08-15T09:18:23Z</time>
      </trkpt>
      <trkpt lat="48.6061" lon="-2.35144">
        <ele>-15.2</ele>
        <time>2017-08-15T09:18:27Z</time>
      </trkpt>
      <trkpt lat="48.60609" lon="-2.3513">
        <ele>-14.4</ele>
        <time>2017-08-15T09:18:31Z</time>
      </trkpt>
      <trkpt lat="48.60608" lon="-2.35117">
        <ele>-13.6</ele>
        <time>2017-08-15T09:18:35Z</time>
      </trkpt>
      <trkpt lat="48.6061" lon="-2.35106">
        <ele>-12.8</ele>
        <time>2017-08-15T09:18:39Z</time>
      </trkpt>
      <trkpt lat="48.60619" lon="-2.35099">
        <ele>-13.4</ele>
        <time>2017-08-15T09:18:43Z</time>
      </trkpt>
      <trkpt lat="48.60628" lon="-2.35094">
        <ele>-13.8</ele>
        <time>2017-08-15T09:18:47Z</time>
      </trkpt>
      <trkpt lat="48.60646" lon="-2.35091">
        <ele>-15.2</ele>
        <time>2017-08-15T09:18:51Z</time>
      </trkpt>
      <trkpt lat="48.60664" lon="-2.35088">
        <ele>-15.4</ele>
        <time>2017-08-15T09:18:55Z</time>
      </trkpt>
      <trkpt lat="48.60681" lon="-2.35082">
        <ele>-15.6</ele>
        <time>2017-08-15T09:18:59Z</time>
      </trkpt>
      <trkpt lat="48.60697" lon="-2.35073">
        <ele>-16.6</ele>
        <time>2017-08-15T09:19:03Z</time>
      </trkpt>
      <trkpt lat="48.60706" lon="-2.35054">
        <ele>-16.6</ele>
        <time>2017-08-15T09:19:07Z</time>
      </trkpt>
      <trkpt lat="48.60714" lon="-2.3503">
        <ele>-17.8</ele>
        <time>2017-08-15T09:19:11Z</time>
      </trkpt>
      <trkpt lat="48.60718" lon="-2.35015">
        <ele>-17.4</ele>
        <time>2017-08-15T09:19:15Z</time>
      </trkpt>
      <trkpt lat="48.60728" lon="-2.35003">
        <ele>-18.2</ele>
        <time>2017-08-15T09:19:19Z</time>
      </trkpt>
      <trkpt lat="48.60732" lon="-2.34994">
        <ele>-17.6</ele>
        <time>2017-08-15T09:19:23Z</time>
      </trkpt>
      <trkpt lat="48.60736" lon="-2.34983">
        <ele>-16.8</ele>
        <time>2017-08-15T09:19:27Z</time>
      </trkpt>
      <trkpt lat="48.60741" lon="-2.3497">
        <ele>-15.6</ele>
        <time>2017-08-15T09:19:31Z</time>
      </trkpt>
      <trkpt lat="48.60747" lon="-2.34959">
        <ele>-13.8</ele>
        <time>2017-08-15T09:19:35Z</time>
      </trkpt>
      <trkpt lat="48.60751" lon="-2.34953">
        <ele>-12.6</ele>
        <time>2017-08-15T09:19:39Z</time>
      </trkpt>
      <trkpt lat="48.60754" lon="-2.34946">
        <ele>-12.4</ele>
        <time>2017-08-15T09:19:43Z</time>
      </trkpt>
      <trkpt lat="48.60761" lon="-2.34938">
        <ele>-13</ele>
        <time>2017-08-15T09:19:47Z</time>
      </trkpt>
      <trkpt lat="48.60762" lon="-2.34929">
        <ele>-12.6</ele>
        <time>2017-08-15T09:19:51Z</time>
      </trkpt>
      <trkpt lat="48.60768" lon="-2.34908">
        <ele>-9.6</ele>
        <time>2017-08-15T09:19:55Z</time>
      </trkpt>
      <trkpt lat="48.6077" lon="-2.34896">
        <ele>-7.6</ele>
        <time>2017-08-15T09:19:59Z</time>
      </trkpt>
      <trkpt lat="48.60775" lon="-2.34885">
        <ele>-6.8</ele>
        <time>2017-08-15T09:20:07Z</time>
      </trkpt>
      <trkpt lat="48.6078" lon="-2.34873">
        <ele>-5.4</ele>
        <time>2017-08-15T09:20:19Z</time>
      </trkpt>
      <trkpt lat="48.60782" lon="-2.34867">
        <ele>-5.6</ele>
        <time>2017-08-15T09:20:23Z</time>
      </trkpt>
      <trkpt lat="48.60786" lon="-2.34858">
        <ele>-4.6</ele>
        <time>2017-08-15T09:20:27Z</time>
      </trkpt>
      <trkpt lat="48.60789" lon="-2.34851">
        <ele>-4.4</ele>
        <time>2017-08-15T09:20:31Z</time>
      </trkpt>
      <trkpt lat="48.60792" lon="-2.34842">
        <ele>-3.4</ele>
        <time>2017-08-15T09:20:35Z</time>
      </trkpt>
      <trkpt lat="48.60795" lon="-2.34833">
        <ele>-2.6</ele>
        <time>2017-08-15T09:20:39Z</time>
      </trkpt>
      <trkpt lat="48.60801" lon="-2.34828">
        <ele>-2.2</ele>
        <time>2017-08-15T09:20:43Z</time>
      </trkpt>
      <trkpt lat="48.60805" lon="-2.34822">
        <ele>-1.8</ele>
        <time>2017-08-15T09:20:51Z</time>
      </trkpt>
      <trkpt lat="48.60812" lon="-2.34815">
        <ele>-1.4</ele>
        <time>2017-08-15T09:20:55Z</time>
      </trkpt>
      <trkpt lat="48.60819" lon="-2.34803">
        <ele>-1.2</ele>
        <time>2017-08-15T09:20:59Z</time>
      </trkpt>
      <trkpt lat="48.60823" lon="-2.34791">
        <ele>-2</ele>
        <time>2017-08-15T09:21:03Z</time>
      </trkpt>
      <trkpt lat="48.60828" lon="-2.34783">
        <ele>-3.2</ele>
        <time>2017-08-15T09:21:07Z</time>
      </trkpt>
      <trkpt lat="48.60835" lon="-2.34782">
        <ele>-5.6</ele>
        <time>2017-08-15T09:21:11Z</time>
      </trkpt>
      <trkpt lat="48.60841" lon="-2.34766">
        <ele>-6</ele>
        <time>2017-08-15T09:21:15Z</time>
      </trkpt>
      <trkpt lat="48.60848" lon="-2.34755">
        <ele>-4.8</ele>
        <time>2017-08-15T09:21:19Z</time>
      </trkpt>
      <trkpt lat="48.6085" lon="-2.34743">
        <ele>-4.2</ele>
        <time>2017-08-15T09:21:23Z</time>
      </trkpt>
      <trkpt lat="48.60853" lon="-2.34736">
        <ele>-4.6</ele>
        <time>2017-08-15T09:21:27Z</time>
      </trkpt>
      <trkpt lat="48.60854" lon="-2.34724">
        <ele>-3.8</ele>
        <time>2017-08-15T09:21:31Z</time>
      </trkpt>
      <trkpt lat="48.60854" lon="-2.34715">
        <ele>-2.2</ele>
        <time>2017-08-15T09:21:35Z</time>
      </trkpt>
      <trkpt lat="48.60852" lon="-2.34707">
        <ele>-0.2</ele>
        <time>2017-08-15T09:21:39Z</time>
      </trkpt>
      <trkpt lat="48.60849" lon="-2.34699">
        <ele>1.8</ele>
        <time>2017-08-15T09:21:43Z</time>
      </trkpt>
      <trkpt lat="48.60851" lon="-2.34692">
        <ele>2.8</ele>
        <time>2017-08-15T09:21:47Z</time>
      </trkpt>
      <trkpt lat="48.60852" lon="-2.34687">
        <ele>3.8</ele>
        <time>2017-08-15T09:21:51Z</time>
      </trkpt>
      <trkpt lat="48.60858" lon="-2.34679">
        <ele>5</ele>
        <time>2017-08-15T09:21:55Z</time>
      </trkpt>
      <trkpt lat="48.60862" lon="-2.34672">
        <ele>6</ele>
        <time>2017-08-15T09:21:59Z</time>
      </trkpt>
      <trkpt lat="48.60871" lon="-2.34663">
        <ele>7.6</ele>
        <time>2017-08-15T09:22:03Z</time>
      </trkpt>
      <trkpt lat="48.60877" lon="-2.34653">
        <ele>8.6</ele>
        <time>2017-08-15T09:22:07Z</time>
      </trkpt>
      <trkpt lat="48.60883" lon="-2.34644">
        <ele>9.4</ele>
        <time>2017-08-15T09:22:11Z</time>
      </trkpt>
      <trkpt lat="48.60884" lon="-2.34633">
        <ele>10.8</ele>
        <time>2017-08-15T09:22:15Z</time>
      </trkpt>
      <trkpt lat="48.60882" lon="-2.34623">
        <ele>11.4</ele>
        <time>2017-08-15T09:22:19Z</time>
      </trkpt>
      <trkpt lat="48.6088" lon="-2.34614">
        <ele>12.4</ele>
        <time>2017-08-15T09:22:23Z</time>
      </trkpt>
      <trkpt lat="48.60878" lon="-2.34604">
        <ele>12.8</ele>
        <time>2017-08-15T09:22:27Z</time>
      </trkpt>
      <trkpt lat="48.60878" lon="-2.34595">
        <ele>14.2</ele>
        <time>2017-08-15T09:22:31Z</time>
      </trkpt>
      <trkpt lat="48.60883" lon="-2.34587">
        <ele>14.8</ele>
        <time>2017-08-15T09:22:35Z</time>
      </trkpt>
      <trkpt lat="48.60888" lon="-2.34582">
        <ele>14</ele>
        <time>2017-08-15T09:22:39Z</time>
      </trkpt>
      <trkpt lat="48.60893" lon="-2.34579">
        <ele>13.8</ele>
        <time>2017-08-15T09:22:43Z</time>
      </trkpt>
      <trkpt lat="48.60899" lon="-2.34575">
        <ele>14</ele>
        <time>2017-08-15T09:22:47Z</time>
      </trkpt>
      <trkpt lat="48.60906" lon="-2.34572">
        <ele>14.2</ele>
        <time>2017-08-15T09:22:51Z</time>
      </trkpt>
      <trkpt lat="48.60913" lon="-2.34565">
        <ele>14.2</ele>
        <time>2017-08-15T09:22:55Z</time>
      </trkpt>
      <trkpt lat="48.6092" lon="-2.34557">
        <ele>14.8</ele>
        <time>2017-08-15T09:22:59Z</time>
      </trkpt>
      <trkpt lat="48.60925" lon="-2.34548">
        <ele>14.4</ele>
        <time>2017-08-15T09:23:03Z</time>
      </trkpt>
      <trkpt lat="48.60929" lon="-2.34535">
        <ele>14.6</ele>
        <time>2017-08-15T09:23:07Z</time>
      </trkpt>
      <trkpt lat="48.60932" lon="-2.34522">
        <ele>15.2</ele>
        <time>2017-08-15T09:23:11Z</time>
      </trkpt>
      <trkpt lat="48.60938" lon="-2.34511">
        <ele>14.4</ele>
        <time>2017-08-15T09:23:15Z</time>
      </trkpt>
      <trkpt lat="48.60947" lon="-2.34504">
        <ele>14.4</ele>
        <time>2017-08-15T09:23:19Z</time>
      </trkpt>
      <trkpt lat="48.60957" lon="-2.34497">
        <ele>13.8</ele>
        <time>2017-08-15T09:23:23Z</time>
      </trkpt>
      <trkpt lat="48.60965" lon="-2.34486">
        <ele>14</ele>
        <time>2017-08-15T09:23:27Z</time>
      </trkpt>
      <trkpt lat="48.6097" lon="-2.34468">
        <ele>14.4</ele>
        <time>2017-08-15T09:23:31Z</time>
      </trkpt>
      <trkpt lat="48.60978" lon="-2.34451">
        <ele>14.4</ele>
        <time>2017-08-15T09:23:35Z</time>
      </trkpt>
      <trkpt lat="48.60989" lon="-2.34442">
        <ele>14.2</ele>
        <time>2017-08-15T09:23:39Z</time>
      </trkpt>
      <trkpt lat="48.61003" lon="-2.34432">
        <ele>13.4</ele>
        <time>2017-08-15T09:23:43Z</time>
      </trkpt>
      <trkpt lat="48.61011" lon="-2.34412">
        <ele>13.8</ele>
        <time>2017-08-15T09:23:47Z</time>
      </trkpt>
      <trkpt lat="48.61003" lon="-2.34397">
        <ele>15.8</ele>
        <time>2017-08-15T09:23:51Z</time>
      </trkpt>
      <trkpt lat="48.60995" lon="-2.34383">
        <ele>16</ele>
        <time>2017-08-15T09:23:55Z</time>
      </trkpt>
      <trkpt lat="48.6099" lon="-2.34372">
        <ele>15.6</ele>
        <time>2017-08-15T09:23:59Z</time>
      </trkpt>
      <trkpt lat="48.60985" lon="-2.34357">
        <ele>15.8</ele>
        <time>2017-08-15T09:24:03Z</time>
      </trkpt>
      <trkpt lat="48.60979" lon="-2.34339">
        <ele>15.6</ele>
        <time>2017-08-15T09:24:07Z</time>
      </trkpt>
      <trkpt lat="48.60972" lon="-2.34321">
        <ele>16.6</ele>
        <time>2017-08-15T09:24:11Z</time>
      </trkpt>
      <trkpt lat="48.60966" lon="-2.34303">
        <ele>17.4</ele>
        <time>2017-08-15T09:24:15Z</time>
      </trkpt>
      <trkpt lat="48.6096" lon="-2.34285">
        <ele>17.8</ele>
        <time>2017-08-15T09:24:19Z</time>
      </trkpt>
      <trkpt lat="48.60954" lon="-2.34267">
        <ele>19</ele>
        <time>2017-08-15T09:24:23Z</time>
      </trkpt>
      <trkpt lat="48.6095" lon="-2.34249">
        <ele>20</ele>
        <time>2017-08-15T09:24:27Z</time>
      </trkpt>
      <trkpt lat="48.60945" lon="-2.34231">
        <ele>20.6</ele>
        <time>2017-08-15T09:24:31Z</time>
      </trkpt>
      <trkpt lat="48.6094" lon="-2.34212">
        <ele>21.4</ele>
        <time>2017-08-15T09:24:35Z</time>
      </trkpt>
      <trkpt lat="48.60934" lon="-2.34194">
        <ele>22.2</ele>
        <time>2017-08-15T09:24:39Z</time>
      </trkpt>
      <trkpt lat="48.60929" lon="-2.34176">
        <ele>22.6</ele>
        <time>2017-08-15T09:24:43Z</time>
      </trkpt>
      <trkpt lat="48.60925" lon="-2.34159">
        <ele>23.6</ele>
        <time>2017-08-15T09:24:47Z</time>
      </trkpt>
      <trkpt lat="48.60921" lon="-2.34142">
        <ele>24.2</ele>
        <time>2017-08-15T09:24:51Z</time>
      </trkpt>
      <trkpt lat="48.60917" lon="-2.34124">
        <ele>24.2</ele>
        <time>2017-08-15T09:24:55Z</time>
      </trkpt>
      <trkpt lat="48.60913" lon="-2.34104">
        <ele>25</ele>
        <time>2017-08-15T09:24:59Z</time>
      </trkpt>
      <trkpt lat="48.60911" lon="-2.34083">
        <ele>24.6</ele>
        <time>2017-08-15T09:25:03Z</time>
      </trkpt>
      <trkpt lat="48.60909" lon="-2.3406">
        <ele>24.4</ele>
        <time>2017-08-15T09:25:07Z</time>
      </trkpt>
      <trkpt lat="48.60907" lon="-2.34037">
        <ele>25.2</ele>
        <time>2017-08-15T09:25:11Z</time>
      </trkpt>
      <trkpt lat="48.60905" lon="-2.34013">
        <ele>25.4</ele>
        <time>2017-08-15T09:25:15Z</time>
      </trkpt>
      <trkpt lat="48.60904" lon="-2.33989">
        <ele>25.2</ele>
        <time>2017-08-15T09:25:19Z</time>
      </trkpt>
      <trkpt lat="48.60903" lon="-2.33964">
        <ele>25</ele>
        <time>2017-08-15T09:25:23Z</time>
      </trkpt>
      <trkpt lat="48.60903" lon="-2.33934">
        <ele>24.2</ele>
        <time>2017-08-15T09:25:27Z</time>
      </trkpt>
      <trkpt lat="48.60903" lon="-2.33898">
        <ele>23</ele>
        <time>2017-08-15T09:25:31Z</time>
      </trkpt>
      <trkpt lat="48.60902" lon="-2.33859">
        <ele>21.8</ele>
        <time>2017-08-15T09:25:35Z</time>
      </trkpt>
      <trkpt lat="48.60905" lon="-2.33827">
        <ele>21.6</ele>
        <time>2017-08-15T09:25:39Z</time>
      </trkpt>
      <trkpt lat="48.60907" lon="-2.33797">
        <ele>19.8</ele>
        <time>2017-08-15T09:25:43Z</time>
      </trkpt>
      <trkpt lat="48.60906" lon="-2.3378">
        <ele>18.6</ele>
        <time>2017-08-15T09:25:47Z</time>
      </trkpt>
      <trkpt lat="48.60896" lon="-2.33776">
        <ele>18.8</ele>
        <time>2017-08-15T09:25:51Z</time>
      </trkpt>
      <trkpt lat="48.60882" lon="-2.33769">
        <ele>17.4</ele>
        <time>2017-08-15T09:25:55Z</time>
      </trkpt>
      <trkpt lat="48.60875" lon="-2.33736">
        <ele>16.2</ele>
        <time>2017-08-15T09:25:59Z</time>
      </trkpt>
      <trkpt lat="48.60886" lon="-2.33692">
        <ele>14.8</ele>
        <time>2017-08-15T09:26:03Z</time>
      </trkpt>
      <trkpt lat="48.60901" lon="-2.33649">
        <ele>13.4</ele>
        <time>2017-08-15T09:26:07Z</time>
      </trkpt>
      <trkpt lat="48.60914" lon="-2.33597">
        <ele>10.4</ele>
        <time>2017-08-15T09:26:11Z</time>
      </trkpt>
      <trkpt lat="48.60929" lon="-2.33542">
        <ele>8.8</ele>
        <time>2017-08-15T09:26:15Z</time>
      </trkpt>
      <trkpt lat="48.60946" lon="-2.33486">
        <ele>7</ele>
        <time>2017-08-15T09:26:19Z</time>
      </trkpt>
      <trkpt lat="48.60964" lon="-2.33435">
        <ele>5.8</ele>
        <time>2017-08-15T09:26:23Z</time>
      </trkpt>
      <trkpt lat="48.60997" lon="-2.33378">
        <ele>26.6</ele>
        <time>2017-08-15T05:34:55Z</time>
      </trkpt>
      <trkpt lat="48.61005" lon="-2.33365">
        <ele>26.6</ele>
        <time>2017-08-15T05:35:07Z</time>
      </trkpt>
      <trkpt lat="48.61018" lon="-2.33349">
        <ele>25.6</ele>
        <time>2017-08-15T05:35:11Z</time>
      </trkpt>
      <trkpt lat="48.61031" lon="-2.3333">
        <ele>25.6</ele>
        <time>2017-08-15T05:35:15Z</time>
      </trkpt>
      <trkpt lat="48.61037" lon="-2.33312">
        <ele>27.2</ele>
        <time>2017-08-15T05:35:19Z</time>
      </trkpt>
      <trkpt lat="48.61043" lon="-2.33299">
        <ele>26.6</ele>
        <time>2017-08-15T05:35:23Z</time>
      </trkpt>
      <trkpt lat="48.6105" lon="-2.33284">
        <ele>26.8</ele>
        <time>2017-08-15T05:35:27Z</time>
      </trkpt>
      <trkpt lat="48.61058" lon="-2.33269">
        <ele>27.6</ele>
        <time>2017-08-15T05:35:31Z</time>
      </trkpt>
      <trkpt lat="48.61067" lon="-2.33255">
        <ele>28.2</ele>
        <time>2017-08-15T05:35:35Z</time>
      </trkpt>
      <trkpt lat="48.61074" lon="-2.33241">
        <ele>28.6</ele>
        <time>2017-08-15T05:35:39Z</time>
      </trkpt>
      <trkpt lat="48.61082" lon="-2.3323">
        <ele>29.4</ele>
        <time>2017-08-15T05:35:43Z</time>
      </trkpt>
      <trkpt lat="48.61088" lon="-2.33219">
        <ele>30.6</ele>
        <time>2017-08-15T05:35:47Z</time>
      </trkpt>
      <trkpt lat="48.61094" lon="-2.33208">
        <ele>30.4</ele>
        <time>2017-08-15T05:35:51Z</time>
      </trkpt>
      <trkpt lat="48.61101" lon="-2.33199">
        <ele>30.6</ele>
        <time>2017-08-15T05:35:55Z</time>
      </trkpt>
      <trkpt lat="48.61106" lon="-2.3319">
        <ele>31</ele>
        <time>2017-08-15T05:35:59Z</time>
      </trkpt>
      <trkpt lat="48.61112" lon="-2.3318">
        <ele>31.8</ele>
        <time>2017-08-15T05:36:03Z</time>
      </trkpt>
      <trkpt lat="48.61119" lon="-2.33168">
        <ele>31</ele>
        <time>2017-08-15T05:36:07Z</time>
      </trkpt>
      <trkpt lat="48.61128" lon="-2.33153">
        <ele>30.6</ele>
        <time>2017-08-15T05:36:11Z</time>
      </trkpt>
      <trkpt lat="48.61138" lon="-2.33136">
        <ele>30.4</ele>
        <time>2017-08-15T05:36:15Z</time>
      </trkpt>
      <trkpt lat="48.6115" lon="-2.33115">
        <ele>30</ele>
        <time>2017-08-15T05:36:19Z</time>
      </trkpt>
      <trkpt lat="48.61162" lon="-2.33089">
        <ele>28.8</ele>
        <time>2017-08-15T05:36:23Z</time>
      </trkpt>
      <trkpt lat="48.61174" lon="-2.33057">
        <ele>28</ele>
        <time>2017-08-15T05:36:27Z</time>
      </trkpt>
      <trkpt lat="48.61188" lon="-2.33018">
        <ele>27.2</ele>
        <time>2017-08-15T05:36:31Z</time>
      </trkpt>
      <trkpt lat="48.61205" lon="-2.32975">
        <ele>25.4</ele>
        <time>2017-08-15T05:36:35Z</time>
      </trkpt>
      <trkpt lat="48.61229" lon="-2.32936">
        <ele>24.4</ele>
        <time>2017-08-15T05:36:39Z</time>
      </trkpt>
      <trkpt lat="48.61245" lon="-2.32883">
        <ele>21.2</ele>
        <time>2017-08-15T05:36:43Z</time>
      </trkpt>
      <trkpt lat="48.61247" lon="-2.32818">
        <ele>18.6</ele>
        <time>2017-08-15T05:36:47Z</time>
      </trkpt>
      <trkpt lat="48.61244" lon="-2.32746">
        <ele>14.8</ele>
        <time>2017-08-15T05:36:51Z</time>
      </trkpt>
      <trkpt lat="48.61235" lon="-2.3267">
        <ele>11.6</ele>
        <time>2017-08-15T05:36:55Z</time>
      </trkpt>
      <trkpt lat="48.61211" lon="-2.3261">
        <ele>8.4</ele>
        <time>2017-08-15T05:36:59Z</time>
      </trkpt>
      <trkpt lat="48.61183" lon="-2.32563">
        <ele>7.6</ele>
        <time>2017-08-15T05:37:03Z</time>
      </trkpt>
      <trkpt lat="48.61157" lon="-2.32525">
        <ele>7.2</ele>
        <time>2017-08-15T05:37:07Z</time>
      </trkpt>
      <trkpt lat="48.61128" lon="-2.32513">
        <ele>7</ele>
        <time>2017-08-15T05:37:11Z</time>
      </trkpt>
      <trkpt lat="48.61105" lon="-2.32507">
        <ele>6.4</ele>
        <time>2017-08-15T05:37:15Z</time>
      </trkpt>
      <trkpt lat="48.61103" lon="-2.32487">
        <ele>6.2</ele>
        <time>2017-08-15T05:37:19Z</time>
      </trkpt>
      <trkpt lat="48.61104" lon="-2.32465">
        <ele>6.4</ele>
        <time>2017-08-15T05:37:23Z</time>
      </trkpt>
      <trkpt lat="48.61107" lon="-2.32441">
        <ele>6.2</ele>
        <time>2017-08-15T05:37:27Z</time>
      </trkpt>
      <trkpt lat="48.6111" lon="-2.32416">
        <ele>6.2</ele>
        <time>2017-08-15T05:37:31Z</time>
      </trkpt>
      <trkpt lat="48.6111" lon="-2.3239">
        <ele>5.6</ele>
        <time>2017-08-15T05:37:35Z</time>
      </trkpt>
      <trkpt lat="48.61108" lon="-2.32367">
        <ele>5.4</ele>
        <time>2017-08-15T05:37:39Z</time>
      </trkpt>
      <trkpt lat="48.61114" lon="-2.32345">
        <ele>5.4</ele>
        <time>2017-08-15T05:37:43Z</time>
      </trkpt>
      <trkpt lat="48.61113" lon="-2.3232">
        <ele>5.8</ele>
        <time>2017-08-15T05:37:47Z</time>
      </trkpt>
      <trkpt lat="48.6111" lon="-2.32296">
        <ele>5.4</ele>
        <time>2017-08-15T05:37:51Z</time>
      </trkpt>
      <trkpt lat="48.61108" lon="-2.32276">
        <ele>6.2</ele>
        <time>2017-08-15T05:37:55Z</time>
      </trkpt>
      <trkpt lat="48.61104" lon="-2.32258">
        <ele>5.8</ele>
        <time>2017-08-15T05:37:59Z</time>
      </trkpt>
      <trkpt lat="48.61099" lon="-2.32238">
        <ele>6</ele>
        <time>2017-08-15T05:38:03Z</time>
      </trkpt>
      <trkpt lat="48.61098" lon="-2.32217">
        <ele>6</ele>
        <time>2017-08-15T05:38:07Z</time>
      </trkpt>
      <trkpt lat="48.6109" lon="-2.3219">
        <ele>5</ele>
        <time>2017-08-15T05:38:11Z</time>
      </trkpt>
      <trkpt lat="48.61085" lon="-2.32164">
        <ele>4.8</ele>
        <time>2017-08-15T05:38:15Z</time>
      </trkpt>
      <trkpt lat="48.61081" lon="-2.32137">
        <ele>4.8</ele>
        <time>2017-08-15T05:38:19Z</time>
      </trkpt>
      <trkpt lat="48.61078" lon="-2.32116">
        <ele>4.6</ele>
        <time>2017-08-15T05:38:23Z</time>
      </trkpt>
      <trkpt lat="48.61075" lon="-2.32092">
        <ele>4.8</ele>
        <time>2017-08-15T05:38:27Z</time>
      </trkpt>
      <trkpt lat="48.6107" lon="-2.32069">
        <ele>4.6</ele>
        <time>2017-08-15T05:38:31Z</time>
      </trkpt>
      <trkpt lat="48.61065" lon="-2.32036">
        <ele>4.8</ele>
        <time>2017-08-15T05:38:35Z</time>
      </trkpt>
      <trkpt lat="48.61061" lon="-2.32012">
        <ele>5</ele>
        <time>2017-08-15T05:38:39Z</time>
      </trkpt>
      <trkpt lat="48.61062" lon="-2.31992">
        <ele>4.4</ele>
        <time>2017-08-15T05:38:43Z</time>
      </trkpt>
      <trkpt lat="48.61058" lon="-2.31974">
        <ele>4.6</ele>
        <time>2017-08-15T05:38:47Z</time>
      </trkpt>
      <trkpt lat="48.61054" lon="-2.31957">
        <ele>4.4</ele>
        <time>2017-08-15T05:38:51Z</time>
      </trkpt>
      <trkpt lat="48.61049" lon="-2.31933">
        <ele>4.2</ele>
        <time>2017-08-15T05:38:55Z</time>
      </trkpt>
      <trkpt lat="48.61044" lon="-2.31909">
        <ele>4.2</ele>
        <time>2017-08-15T05:38:59Z</time>
      </trkpt>
      <trkpt lat="48.6104" lon="-2.31885">
        <ele>4.6</ele>
        <time>2017-08-15T05:39:03Z</time>
      </trkpt>
      <trkpt lat="48.61036" lon="-2.31862">
        <ele>4.6</ele>
        <time>2017-08-15T05:39:07Z</time>
      </trkpt>
      <trkpt lat="48.61036" lon="-2.31839">
        <ele>4.2</ele>
        <time>2017-08-15T05:39:11Z</time>
      </trkpt>
      <trkpt lat="48.6104" lon="-2.31819">
        <ele>4.4</ele>
        <time>2017-08-15T05:39:15Z</time>
      </trkpt>
      <trkpt lat="48.61038" lon="-2.318">
        <ele>4.2</ele>
        <time>2017-08-15T05:39:19Z</time>
      </trkpt>
      <trkpt lat="48.61038" lon="-2.31779">
        <ele>4</ele>
        <time>2017-08-15T05:39:23Z</time>
      </trkpt>
      <trkpt lat="48.61035" lon="-2.3176">
        <ele>3.8</ele>
        <time>2017-08-15T05:39:27Z</time>
      </trkpt>
      <trkpt lat="48.61032" lon="-2.3174">
        <ele>4.2</ele>
        <time>2017-08-15T05:39:31Z</time>
      </trkpt>
      <trkpt lat="48.6103" lon="-2.3171">
        <ele>4.4</ele>
        <time>2017-08-15T05:39:35Z</time>
      </trkpt>
      <trkpt lat="48.61026" lon="-2.31691">
        <ele>5.2</ele>
        <time>2017-08-15T05:39:39Z</time>
      </trkpt>
      <trkpt lat="48.61024" lon="-2.31672">
        <ele>6.4</ele>
        <time>2017-08-15T05:39:43Z</time>
      </trkpt>
      <trkpt lat="48.61013" lon="-2.31653">
        <ele>7.2</ele>
        <time>2017-08-15T05:39:47Z</time>
      </trkpt>
      <trkpt lat="48.61005" lon="-2.31636">
        <ele>8</ele>
        <time>2017-08-15T05:39:51Z</time>
      </trkpt>
      <trkpt lat="48.60998" lon="-2.31623">
        <ele>8.6</ele>
        <time>2017-08-15T05:39:55Z</time>
      </trkpt>
      <trkpt lat="48.60991" lon="-2.3161">
        <ele>8.4</ele>
        <time>2017-08-15T05:39:59Z</time>
      </trkpt>
      <trkpt lat="48.60982" lon="-2.31594">
        <ele>8.4</ele>
        <time>2017-08-15T05:40:03Z</time>
      </trkpt>
      <trkpt lat="48.60971" lon="-2.31575">
        <ele>7.8</ele>
        <time>2017-08-15T05:40:07Z</time>
      </trkpt>
      <trkpt lat="48.6096" lon="-2.31559">
        <ele>7.6</ele>
        <time>2017-08-15T05:40:11Z</time>
      </trkpt>
      <trkpt lat="48.60947" lon="-2.31549">
        <ele>7.6</ele>
        <time>2017-08-15T05:40:15Z</time>
      </trkpt>
      <trkpt lat="48.60934" lon="-2.3154">
        <ele>8.2</ele>
        <time>2017-08-15T05:40:19Z</time>
      </trkpt>
      <trkpt lat="48.60923" lon="-2.31526">
        <ele>8.4</ele>
        <time>2017-08-15T05:40:23Z</time>
      </trkpt>
      <trkpt lat="48.60911" lon="-2.31514">
        <ele>9</ele>
        <time>2017-08-15T05:40:27Z</time>
      </trkpt>
      <trkpt lat="48.609" lon="-2.31503">
        <ele>9.2</ele>
        <time>2017-08-15T05:40:31Z</time>
      </trkpt>
      <trkpt lat="48.60889" lon="-2.31495">
        <ele>10.4</ele>
        <time>2017-08-15T05:40:35Z</time>
      </trkpt>
      <trkpt lat="48.60877" lon="-2.31489">
        <ele>11.4</ele>
        <time>2017-08-15T05:40:39Z</time>
      </trkpt>
      <trkpt lat="48.60865" lon="-2.31483">
        <ele>11.4</ele>
        <time>2017-08-15T05:40:43Z</time>
      </trkpt>
      <trkpt lat="48.60854" lon="-2.31479">
        <ele>11.6</ele>
        <time>2017-08-15T05:40:47Z</time>
      </trkpt>
      <trkpt lat="48.60841" lon="-2.31481">
        <ele>12</ele>
        <time>2017-08-15T05:40:51Z</time>
      </trkpt>
      <trkpt lat="48.60833" lon="-2.31483">
        <ele>13</ele>
        <time>2017-08-15T05:40:55Z</time>
      </trkpt>
      <trkpt lat="48.60826" lon="-2.31483">
        <ele>13.8</ele>
        <time>2017-08-15T05:40:59Z</time>
      </trkpt>
      <trkpt lat="48.60817" lon="-2.31487">
        <ele>14.2</ele>
        <time>2017-08-15T05:41:03Z</time>
      </trkpt>
      <trkpt lat="48.60809" lon="-2.31489">
        <ele>15.4</ele>
        <time>2017-08-15T05:41:07Z</time>
      </trkpt>
      <trkpt lat="48.60801" lon="-2.31491">
        <ele>15.8</ele>
        <time>2017-08-15T05:41:11Z</time>
      </trkpt>
      <trkpt lat="48.60793" lon="-2.31494">
        <ele>17</ele>
        <time>2017-08-15T05:41:15Z</time>
      </trkpt>
      <trkpt lat="48.60783" lon="-2.31495">
        <ele>17</ele>
        <time>2017-08-15T05:41:19Z</time>
      </trkpt>
      <trkpt lat="48.60772" lon="-2.31492">
        <ele>18.4</ele>
        <time>2017-08-15T05:41:23Z</time>
      </trkpt>
      <trkpt lat="48.60761" lon="-2.31486">
        <ele>19.2</ele>
        <time>2017-08-15T05:41:27Z</time>
      </trkpt>
      <trkpt lat="48.6075" lon="-2.31482">
        <ele>20.2</ele>
        <time>2017-08-15T05:41:31Z</time>
      </trkpt>
      <trkpt lat="48.60741" lon="-2.31476">
        <ele>20.6</ele>
        <time>2017-08-15T05:41:35Z</time>
      </trkpt>
      <trkpt lat="48.60732" lon="-2.31471">
        <ele>21.6</ele>
        <time>2017-08-15T05:41:39Z</time>
      </trkpt>
      <trkpt lat="48.60723" lon="-2.31466">
        <ele>22</ele>
        <time>2017-08-15T05:41:43Z</time>
      </trkpt>
      <trkpt lat="48.60715" lon="-2.31461">
        <ele>22.2</ele>
        <time>2017-08-15T05:41:47Z</time>
      </trkpt>
      <trkpt lat="48.60706" lon="-2.31455">
        <ele>22.6</ele>
        <time>2017-08-15T05:41:51Z</time>
      </trkpt>
      <trkpt lat="48.60699" lon="-2.31448">
        <ele>22.8</ele>
        <time>2017-08-15T05:41:55Z</time>
      </trkpt>
      <trkpt lat="48.60691" lon="-2.31441">
        <ele>23.4</ele>
        <time>2017-08-15T05:41:59Z</time>
      </trkpt>
      <trkpt lat="48.60683" lon="-2.31433">
        <ele>24.2</ele>
        <time>2017-08-15T05:42:03Z</time>
      </trkpt>
      <trkpt lat="48.60677" lon="-2.31426">
        <ele>24.8</ele>
        <time>2017-08-15T05:42:07Z</time>
      </trkpt>
      <trkpt lat="48.60671" lon="-2.31418">
        <ele>25.2</ele>
        <time>2017-08-15T05:42:11Z</time>
      </trkpt>
      <trkpt lat="48.60665" lon="-2.3141">
        <ele>25.4</ele>
        <time>2017-08-15T05:42:15Z</time>
      </trkpt>
      <trkpt lat="48.6066" lon="-2.31401">
        <ele>25.8</ele>
        <time>2017-08-15T05:42:19Z</time>
      </trkpt>
      <trkpt lat="48.60653" lon="-2.31394">
        <ele>26.2</ele>
        <time>2017-08-15T05:42:23Z</time>
      </trkpt>
      <trkpt lat="48.60648" lon="-2.31384">
        <ele>27.2</ele>
        <time>2017-08-15T05:42:27Z</time>
      </trkpt>
      <trkpt lat="48.60643" lon="-2.31376">
        <ele>27.8</ele>
        <time>2017-08-15T05:42:31Z</time>
      </trkpt>
      <trkpt lat="48.60639" lon="-2.31371">
        <ele>27.8</ele>
        <time>2017-08-15T05:42:35Z</time>
      </trkpt>
      <trkpt lat="48.60631" lon="-2.31363">
        <ele>28.8</ele>
        <time>2017-08-15T05:42:39Z</time>
      </trkpt>
      <trkpt lat="48.60624" lon="-2.31353">
        <ele>28.8</ele>
        <time>2017-08-15T05:42:43Z</time>
      </trkpt>
      <trkpt lat="48.60611" lon="-2.31344">
        <ele>29.4</ele>
        <time>2017-08-15T05:42:47Z</time>
      </trkpt>
      <trkpt lat="48.60604" lon="-2.31337">
        <ele>29.8</ele>
        <time>2017-08-15T05:42:51Z</time>
      </trkpt>
      <trkpt lat="48.60596" lon="-2.3133">
        <ele>30.8</ele>
        <time>2017-08-15T05:42:55Z</time>
      </trkpt>
      <trkpt lat="48.60588" lon="-2.31327">
        <ele>30.8</ele>
        <time>2017-08-15T05:42:59Z</time>
      </trkpt>
      <trkpt lat="48.60579" lon="-2.31322">
        <ele>31.2</ele>
        <time>2017-08-15T05:43:03Z</time>
      </trkpt>
      <trkpt lat="48.60569" lon="-2.31317">
        <ele>31.6</ele>
        <time>2017-08-15T05:43:07Z</time>
      </trkpt>
      <trkpt lat="48.60557" lon="-2.31312">
        <ele>32</ele>
        <time>2017-08-15T05:43:11Z</time>
      </trkpt>
      <trkpt lat="48.60548" lon="-2.31305">
        <ele>32.6</ele>
        <time>2017-08-15T05:43:15Z</time>
      </trkpt>
      <trkpt lat="48.60539" lon="-2.31297">
        <ele>33.6</ele>
        <time>2017-08-15T05:43:19Z</time>
      </trkpt>
      <trkpt lat="48.60532" lon="-2.31287">
        <ele>34.2</ele>
        <time>2017-08-15T05:43:23Z</time>
      </trkpt>
      <trkpt lat="48.60524" lon="-2.31277">
        <ele>34.8</ele>
        <time>2017-08-15T05:43:27Z</time>
      </trkpt>
      <trkpt lat="48.60516" lon="-2.31267">
        <ele>35.6</ele>
        <time>2017-08-15T05:43:31Z</time>
      </trkpt>
      <trkpt lat="48.60508" lon="-2.31257">
        <ele>36</ele>
        <time>2017-08-15T05:43:35Z</time>
      </trkpt>
      <trkpt lat="48.60501" lon="-2.31247">
        <ele>36</ele>
        <time>2017-08-15T05:43:39Z</time>
      </trkpt>
      <trkpt lat="48.60494" lon="-2.31238">
        <ele>36.6</ele>
        <time>2017-08-15T05:43:43Z</time>
      </trkpt>
      <trkpt lat="48.60487" lon="-2.31228">
        <ele>36.8</ele>
        <time>2017-08-15T05:43:47Z</time>
      </trkpt>
      <trkpt lat="48.60481" lon="-2.31219">
        <ele>37</ele>
        <time>2017-08-15T05:43:51Z</time>
      </trkpt>
      <trkpt lat="48.60474" lon="-2.31209">
        <ele>37.4</ele>
        <time>2017-08-15T05:43:55Z</time>
      </trkpt>
      <trkpt lat="48.60467" lon="-2.312">
        <ele>38.2</ele>
        <time>2017-08-15T05:43:59Z</time>
      </trkpt>
      <trkpt lat="48.60461" lon="-2.31191">
        <ele>38.6</ele>
        <time>2017-08-15T05:44:03Z</time>
      </trkpt>
      <trkpt lat="48.60454" lon="-2.31182">
        <ele>39.2</ele>
        <time>2017-08-15T05:44:07Z</time>
      </trkpt>
      <trkpt lat="48.60447" lon="-2.31174">
        <ele>39.6</ele>
        <time>2017-08-15T05:44:11Z</time>
      </trkpt>
      <trkpt lat="48.60439" lon="-2.31165">
        <ele>40</ele>
        <time>2017-08-15T05:44:15Z</time>
      </trkpt>
      <trkpt lat="48.60432" lon="-2.31156">
        <ele>40.2</ele>
        <time>2017-08-15T05:44:19Z</time>
      </trkpt>
      <trkpt lat="48.60425" lon="-2.31147">
        <ele>41</ele>
        <time>2017-08-15T05:44:23Z</time>
      </trkpt>
      <trkpt lat="48.60419" lon="-2.31137">
        <ele>41.4</ele>
        <time>2017-08-15T05:44:27Z</time>
      </trkpt>
      <trkpt lat="48.60413" lon="-2.31127">
        <ele>42</ele>
        <time>2017-08-15T05:44:31Z</time>
      </trkpt>
      <trkpt lat="48.60408" lon="-2.31116">
        <ele>42</ele>
        <time>2017-08-15T05:44:35Z</time>
      </trkpt>
      <trkpt lat="48.60404" lon="-2.31105">
        <ele>42.4</ele>
        <time>2017-08-15T05:44:39Z</time>
      </trkpt>
      <trkpt lat="48.60399" lon="-2.31095">
        <ele>42.4</ele>
        <time>2017-08-15T05:44:43Z</time>
      </trkpt>
      <trkpt lat="48.60394" lon="-2.31085">
        <ele>42.6</ele>
        <time>2017-08-15T05:44:47Z</time>
      </trkpt>
      <trkpt lat="48.60386" lon="-2.31074">
        <ele>43</ele>
        <time>2017-08-15T05:44:51Z</time>
      </trkpt>
      <trkpt lat="48.60378" lon="-2.31062">
        <ele>42.6</ele>
        <time>2017-08-15T05:44:55Z</time>
      </trkpt>
      <trkpt lat="48.60371" lon="-2.31046">
        <ele>43.2</ele>
        <time>2017-08-15T05:44:59Z</time>
      </trkpt>
      <trkpt lat="48.60368" lon="-2.31027">
        <ele>43.8</ele>
        <time>2017-08-15T05:45:03Z</time>
      </trkpt>
      <trkpt lat="48.60368" lon="-2.31008">
        <ele>43.8</ele>
        <time>2017-08-15T05:45:07Z</time>
      </trkpt>
      <trkpt lat="48.60368" lon="-2.30989">
        <ele>44.2</ele>
        <time>2017-08-15T05:45:11Z</time>
      </trkpt>
      <trkpt lat="48.60367" lon="-2.3097">
        <ele>44</ele>
        <time>2017-08-15T05:45:15Z</time>
      </trkpt>
      <trkpt lat="48.60367" lon="-2.30952">
        <ele>44.2</ele>
        <time>2017-08-15T05:45:19Z</time>
      </trkpt>
      <trkpt lat="48.60366" lon="-2.30932">
        <ele>45</ele>
        <time>2017-08-15T05:45:23Z</time>
      </trkpt>
      <trkpt lat="48.60367" lon="-2.30915">
        <ele>45</ele>
        <time>2017-08-15T05:45:27Z</time>
      </trkpt>
      <trkpt lat="48.60367" lon="-2.309">
        <ele>46</ele>
        <time>2017-08-15T05:45:31Z</time>
      </trkpt>
      <trkpt lat="48.60369" lon="-2.30879">
        <ele>46</ele>
        <time>2017-08-15T05:45:35Z</time>
      </trkpt>
      <trkpt lat="48.60371" lon="-2.30857">
        <ele>45.6</ele>
        <time>2017-08-15T05:45:39Z</time>
      </trkpt>
      <trkpt lat="48.60372" lon="-2.30839">
        <ele>46.4</ele>
        <time>2017-08-15T05:45:43Z</time>
      </trkpt>
      <trkpt lat="48.60372" lon="-2.30821">
        <ele>46.4</ele>
        <time>2017-08-15T05:45:47Z</time>
      </trkpt>
      <trkpt lat="48.60377" lon="-2.30803">
        <ele>47</ele>
        <time>2017-08-15T05:45:51Z</time>
      </trkpt>
      <trkpt lat="48.60387" lon="-2.30797">
        <ele>47</ele>
        <time>2017-08-15T05:45:55Z</time>
      </trkpt>
      <trkpt lat="48.60396" lon="-2.30798">
        <ele>47</ele>
        <time>2017-08-15T05:45:59Z</time>
      </trkpt>
      <trkpt lat="48.60406" lon="-2.30797">
        <ele>46.8</ele>
        <time>2017-08-15T05:46:03Z</time>
      </trkpt>
      <trkpt lat="48.60419" lon="-2.30792">
        <ele>47</ele>
        <time>2017-08-15T05:46:07Z</time>
      </trkpt>
      <trkpt lat="48.60429" lon="-2.30784">
        <ele>47.8</ele>
        <time>2017-08-15T05:46:11Z</time>
      </trkpt>
      <trkpt lat="48.60439" lon="-2.30774">
        <ele>47.8</ele>
        <time>2017-08-15T05:46:15Z</time>
      </trkpt>
      <trkpt lat="48.6045" lon="-2.30762">
        <ele>48.4</ele>
        <time>2017-08-15T05:46:19Z</time>
      </trkpt>
      <trkpt lat="48.6046" lon="-2.30751">
        <ele>48.6</ele>
        <time>2017-08-15T05:46:23Z</time>
      </trkpt>
      <trkpt lat="48.60468" lon="-2.30742">
        <ele>48.6</ele>
        <time>2017-08-15T05:46:27Z</time>
      </trkpt>
      <trkpt lat="48.60478" lon="-2.30735">
        <ele>48.8</ele>
        <time>2017-08-15T05:46:31Z</time>
      </trkpt>
      <trkpt lat="48.60489" lon="-2.30726">
        <ele>49.2</ele>
        <time>2017-08-15T05:46:35Z</time>
      </trkpt>
      <trkpt lat="48.60501" lon="-2.30715">
        <ele>49</ele>
        <time>2017-08-15T05:46:39Z</time>
      </trkpt>
      <trkpt lat="48.60512" lon="-2.30705">
        <ele>49.4</ele>
        <time>2017-08-15T05:46:43Z</time>
      </trkpt>
      <trkpt lat="48.60523" lon="-2.30694">
        <ele>49.8</ele>
        <time>2017-08-15T05:46:47Z</time>
      </trkpt>
      <trkpt lat="48.60537" lon="-2.30683">
        <ele>49.8</ele>
        <time>2017-08-15T05:46:51Z</time>
      </trkpt>
      <trkpt lat="48.6055" lon="-2.30669">
        <ele>49.8</ele>
        <time>2017-08-15T05:46:55Z</time>
      </trkpt>
      <trkpt lat="48.60567" lon="-2.30656">
        <ele>50</ele>
        <time>2017-08-15T05:46:59Z</time>
      </trkpt>
      <trkpt lat="48.60589" lon="-2.30636">
        <ele>49.4</ele>
        <time>2017-08-15T05:47:03Z</time>
      </trkpt>
      <trkpt lat="48.60608" lon="-2.30622">
        <ele>49.8</ele>
        <time>2017-08-15T05:47:07Z</time>
      </trkpt>
      <trkpt lat="48.60625" lon="-2.30604">
        <ele>49.4</ele>
        <time>2017-08-15T05:47:11Z</time>
      </trkpt>
      <trkpt lat="48.60641" lon="-2.30584">
        <ele>48.8</ele>
        <time>2017-08-15T05:47:15Z</time>
      </trkpt>
      <trkpt lat="48.60656" lon="-2.30566">
        <ele>49</ele>
        <time>2017-08-15T05:47:19Z</time>
      </trkpt>
      <trkpt lat="48.6067" lon="-2.30551">
        <ele>48.8</ele>
        <time>2017-08-15T05:47:23Z</time>
      </trkpt>
      <trkpt lat="48.60681" lon="-2.30541">
        <ele>48.4</ele>
        <time>2017-08-15T05:47:27Z</time>
      </trkpt>
      <trkpt lat="48.60687" lon="-2.30536">
        <ele>49</ele>
        <time>2017-08-15T05:47:31Z</time>
      </trkpt>
      <trkpt lat="48.60702" lon="-2.30531">
        <ele>48.6</ele>
        <time>2017-08-15T05:47:35Z</time>
      </trkpt>
      <trkpt lat="48.60721" lon="-2.30525">
        <ele>48.4</ele>
        <time>2017-08-15T05:47:39Z</time>
      </trkpt>
      <trkpt lat="48.60741" lon="-2.30521">
        <ele>48.2</ele>
        <time>2017-08-15T05:47:43Z</time>
      </trkpt>
      <trkpt lat="48.60762" lon="-2.30513">
        <ele>47.8</ele>
        <time>2017-08-15T05:47:47Z</time>
      </trkpt>
      <trkpt lat="48.60783" lon="-2.30503">
        <ele>47.4</ele>
        <time>2017-08-15T05:47:51Z</time>
      </trkpt>
      <trkpt lat="48.60803" lon="-2.30491">
        <ele>47</ele>
        <time>2017-08-15T05:47:55Z</time>
      </trkpt>
      <trkpt lat="48.60822" lon="-2.30481">
        <ele>46.2</ele>
        <time>2017-08-15T05:47:59Z</time>
      </trkpt>
      <trkpt lat="48.6084" lon="-2.30472">
        <ele>46.6</ele>
        <time>2017-08-15T05:48:03Z</time>
      </trkpt>
      <trkpt lat="48.60857" lon="-2.30462">
        <ele>45.8</ele>
        <time>2017-08-15T05:48:07Z</time>
      </trkpt>
      <trkpt lat="48.60876" lon="-2.30451">
        <ele>45.8</ele>
        <time>2017-08-15T05:48:11Z</time>
      </trkpt>
      <trkpt lat="48.60894" lon="-2.3044">
        <ele>46.2</ele>
        <time>2017-08-15T05:48:15Z</time>
      </trkpt>
      <trkpt lat="48.6091" lon="-2.30425">
        <ele>46.2</ele>
        <time>2017-08-15T05:48:19Z</time>
      </trkpt>
      <trkpt lat="48.60927" lon="-2.30416">
        <ele>46.6</ele>
        <time>2017-08-15T05:48:23Z</time>
      </trkpt>
      <trkpt lat="48.60943" lon="-2.30411">
        <ele>47.2</ele>
        <time>2017-08-15T05:48:27Z</time>
      </trkpt>
      <trkpt lat="48.6096" lon="-2.30408">
        <ele>48.2</ele>
        <time>2017-08-15T05:48:31Z</time>
      </trkpt>
      <trkpt lat="48.60973" lon="-2.30399">
        <ele>48.4</ele>
        <time>2017-08-15T05:48:35Z</time>
      </trkpt>
      <trkpt lat="48.60984" lon="-2.30383">
        <ele>48.2</ele>
        <time>2017-08-15T05:48:39Z</time>
      </trkpt>
      <trkpt lat="48.60992" lon="-2.30366">
        <ele>48.4</ele>
        <time>2017-08-15T05:48:43Z</time>
      </trkpt>
      <trkpt lat="48.60998" lon="-2.30343">
        <ele>47.2</ele>
        <time>2017-08-15T05:48:47Z</time>
      </trkpt>
      <trkpt lat="48.61002" lon="-2.30319">
        <ele>46.4</ele>
        <time>2017-08-15T05:48:51Z</time>
      </trkpt>
      <trkpt lat="48.61005" lon="-2.30287">
        <ele>45</ele>
        <time>2017-08-15T05:48:55Z</time>
      </trkpt>
      <trkpt lat="48.61006" lon="-2.3025">
        <ele>43.8</ele>
        <time>2017-08-15T05:48:59Z</time>
      </trkpt>
      <trkpt lat="48.61009" lon="-2.30216">
        <ele>42</ele>
        <time>2017-08-15T05:49:03Z</time>
      </trkpt>
      <trkpt lat="48.61012" lon="-2.30184">
        <ele>41.6</ele>
        <time>2017-08-15T05:49:07Z</time>
      </trkpt>
      <trkpt lat="48.61013" lon="-2.30157">
        <ele>40.4</ele>
        <time>2017-08-15T05:49:11Z</time>
      </trkpt>
      <trkpt lat="48.61014" lon="-2.30124">
        <ele>39</ele>
        <time>2017-08-15T05:49:15Z</time>
      </trkpt>
      <trkpt lat="48.6101" lon="-2.3009">
        <ele>37.2</ele>
        <time>2017-08-15T05:49:19Z</time>
      </trkpt>
      <trkpt lat="48.61009" lon="-2.30059">
        <ele>35.6</ele>
        <time>2017-08-15T05:49:23Z</time>
      </trkpt>
      <trkpt lat="48.61011" lon="-2.30026">
        <ele>35</ele>
        <time>2017-08-15T05:49:27Z</time>
      </trkpt>
      <trkpt lat="48.6101" lon="-2.29991">
        <ele>35</ele>
        <time>2017-08-15T05:49:31Z</time>
      </trkpt>
      <trkpt lat="48.61009" lon="-2.29962">
        <ele>33.8</ele>
        <time>2017-08-15T05:49:35Z</time>
      </trkpt>
      <trkpt lat="48.61008" lon="-2.29934">
        <ele>32.4</ele>
        <time>2017-08-15T05:49:39Z</time>
      </trkpt>
      <trkpt lat="48.60998" lon="-2.29901">
        <ele>31</ele>
        <time>2017-08-15T05:49:43Z</time>
      </trkpt>
      <trkpt lat="48.60993" lon="-2.29869">
        <ele>29.2</ele>
        <time>2017-08-15T05:49:47Z</time>
      </trkpt>
      <trkpt lat="48.60992" lon="-2.29838">
        <ele>29</ele>
        <time>2017-08-15T05:49:51Z</time>
      </trkpt>
      <trkpt lat="48.60991" lon="-2.29801">
        <ele>27.8</ele>
        <time>2017-08-15T05:49:55Z</time>
      </trkpt>
      <trkpt lat="48.60991" lon="-2.29757">
        <ele>25.6</ele>
        <time>2017-08-15T05:49:59Z</time>
      </trkpt>
      <trkpt lat="48.6099" lon="-2.2972">
        <ele>24.6</ele>
        <time>2017-08-15T05:50:03Z</time>
      </trkpt>
      <trkpt lat="48.60996" lon="-2.29707">
        <ele>24.6</ele>
        <time>2017-08-15T05:50:07Z</time>
      </trkpt>
      <trkpt lat="48.61005" lon="-2.29706">
        <ele>24.8</ele>
        <time>2017-08-15T05:50:11Z</time>
      </trkpt>
      <trkpt lat="48.61016" lon="-2.29705">
        <ele>25.2</ele>
        <time>2017-08-15T05:50:15Z</time>
      </trkpt>
      <trkpt lat="48.61028" lon="-2.29705">
        <ele>25.8</ele>
        <time>2017-08-15T05:50:19Z</time>
      </trkpt>
      <trkpt lat="48.6104" lon="-2.29704">
        <ele>26.2</ele>
        <time>2017-08-15T05:50:23Z</time>
      </trkpt>
      <trkpt lat="48.61053" lon="-2.29703">
        <ele>26.6</ele>
        <time>2017-08-15T05:50:27Z</time>
      </trkpt>
      <trkpt lat="48.61063" lon="-2.29702">
        <ele>27.4</ele>
        <time>2017-08-15T05:50:31Z</time>
      </trkpt>
      <trkpt lat="48.61077" lon="-2.29702">
        <ele>27.6</ele>
        <time>2017-08-15T05:50:35Z</time>
      </trkpt>
      <trkpt lat="48.61085" lon="-2.29702">
        <ele>28.6</ele>
        <time>2017-08-15T05:50:39Z</time>
      </trkpt>
      <trkpt lat="48.61097" lon="-2.29701">
        <ele>28.6</ele>
        <time>2017-08-15T05:50:43Z</time>
      </trkpt>
      <trkpt lat="48.61109" lon="-2.29701">
        <ele>29.4</ele>
        <time>2017-08-15T05:50:47Z</time>
      </trkpt>
      <trkpt lat="48.61124" lon="-2.29706">
        <ele>30.2</ele>
        <time>2017-08-15T05:50:51Z</time>
      </trkpt>
      <trkpt lat="48.61137" lon="-2.29715">
        <ele>31.4</ele>
        <time>2017-08-15T05:50:55Z</time>
      </trkpt>
      <trkpt lat="48.61146" lon="-2.29726">
        <ele>31.6</ele>
        <time>2017-08-15T05:50:59Z</time>
      </trkpt>
      <trkpt lat="48.61153" lon="-2.29738">
        <ele>32</ele>
        <time>2017-08-15T05:51:03Z</time>
      </trkpt>
      <trkpt lat="48.61159" lon="-2.29749">
        <ele>32.6</ele>
        <time>2017-08-15T05:51:07Z</time>
      </trkpt>
      <trkpt lat="48.61167" lon="-2.2976">
        <ele>33.6</ele>
        <time>2017-08-15T05:51:11Z</time>
      </trkpt>
      <trkpt lat="48.61176" lon="-2.29768">
        <ele>33.8</ele>
        <time>2017-08-15T05:51:15Z</time>
      </trkpt>
      <trkpt lat="48.61184" lon="-2.29776">
        <ele>34.4</ele>
        <time>2017-08-15T05:51:19Z</time>
      </trkpt>
      <trkpt lat="48.61192" lon="-2.29782">
        <ele>35.6</ele>
        <time>2017-08-15T05:51:23Z</time>
      </trkpt>
      <trkpt lat="48.61201" lon="-2.29791">
        <ele>36.4</ele>
        <time>2017-08-15T05:51:27Z</time>
      </trkpt>
      <trkpt lat="48.61208" lon="-2.29797">
        <ele>37.6</ele>
        <time>2017-08-15T05:51:31Z</time>
      </trkpt>
      <trkpt lat="48.61217" lon="-2.29808">
        <ele>38.2</ele>
        <time>2017-08-15T05:51:35Z</time>
      </trkpt>
      <trkpt lat="48.61227" lon="-2.29819">
        <ele>38.8</ele>
        <time>2017-08-15T05:51:39Z</time>
      </trkpt>
      <trkpt lat="48.61239" lon="-2.2983">
        <ele>40.2</ele>
        <time>2017-08-15T05:51:43Z</time>
      </trkpt>
      <trkpt lat="48.61249" lon="-2.29842">
        <ele>41.2</ele>
        <time>2017-08-15T05:51:47Z</time>
      </trkpt>
      <trkpt lat="48.61259" lon="-2.29849">
        <ele>42.2</ele>
        <time>2017-08-15T05:51:51Z</time>
      </trkpt>
      <trkpt lat="48.61269" lon="-2.29854">
        <ele>43</ele>
        <time>2017-08-15T05:51:55Z</time>
      </trkpt>
      <trkpt lat="48.61278" lon="-2.29858">
        <ele>43.6</ele>
        <time>2017-08-15T05:51:59Z</time>
      </trkpt>
      <trkpt lat="48.61282" lon="-2.29872">
        <ele>44</ele>
        <time>2017-08-15T05:52:03Z</time>
      </trkpt>
      <trkpt lat="48.61281" lon="-2.29884">
        <ele>45.8</ele>
        <time>2017-08-15T05:52:07Z</time>
      </trkpt>
      <trkpt lat="48.6128" lon="-2.29893">
        <ele>46.8</ele>
        <time>2017-08-15T05:52:11Z</time>
      </trkpt>
      <trkpt lat="48.61278" lon="-2.29908">
        <ele>47</ele>
        <time>2017-08-15T05:52:15Z</time>
      </trkpt>
      <trkpt lat="48.61278" lon="-2.29922">
        <ele>47</ele>
        <time>2017-08-15T05:52:19Z</time>
      </trkpt>
      <trkpt lat="48.61277" lon="-2.29937">
        <ele>48.2</ele>
        <time>2017-08-15T05:52:23Z</time>
      </trkpt>
      <trkpt lat="48.61274" lon="-2.29951">
        <ele>47.8</ele>
        <time>2017-08-15T05:52:27Z</time>
      </trkpt>
      <trkpt lat="48.61273" lon="-2.29967">
        <ele>48.4</ele>
        <time>2017-08-15T05:52:31Z</time>
      </trkpt>
      <trkpt lat="48.61271" lon="-2.29987">
        <ele>48.8</ele>
        <time>2017-08-15T05:52:35Z</time>
      </trkpt>
      <trkpt lat="48.61268" lon="-2.30006">
        <ele>49</ele>
        <time>2017-08-15T05:52:39Z</time>
      </trkpt>
      <trkpt lat="48.61267" lon="-2.30028">
        <ele>49</ele>
        <time>2017-08-15T05:52:43Z</time>
      </trkpt>
      <trkpt lat="48.61265" lon="-2.30052">
        <ele>49.4</ele>
        <time>2017-08-15T05:52:47Z</time>
      </trkpt>
      <trkpt lat="48.61263" lon="-2.30072">
        <ele>49</ele>
        <time>2017-08-15T05:52:51Z</time>
      </trkpt>
      <trkpt lat="48.61263" lon="-2.3009">
        <ele>50</ele>
        <time>2017-08-15T05:52:55Z</time>
      </trkpt>
      <trkpt lat="48.61261" lon="-2.30113">
        <ele>50</ele>
        <time>2017-08-15T05:52:59Z</time>
      </trkpt>
      <trkpt lat="48.61259" lon="-2.30143">
        <ele>49.4</ele>
        <time>2017-08-15T05:53:03Z</time>
      </trkpt>
      <trkpt lat="48.61256" lon="-2.30166">
        <ele>49.6</ele>
        <time>2017-08-15T05:53:07Z</time>
      </trkpt>
      <trkpt lat="48.61254" lon="-2.30186">
        <ele>48.8</ele>
        <time>2017-08-15T05:53:11Z</time>
      </trkpt>
      <trkpt lat="48.61252" lon="-2.30209">
        <ele>49.2</ele>
        <time>2017-08-15T05:53:15Z</time>
      </trkpt>
      <trkpt lat="48.6125" lon="-2.30236">
        <ele>49.2</ele>
        <time>2017-08-15T05:53:19Z</time>
      </trkpt>
      <trkpt lat="48.61246" lon="-2.30264">
        <ele>49</ele>
        <time>2017-08-15T05:53:23Z</time>
      </trkpt>
      <trkpt lat="48.61245" lon="-2.30289">
        <ele>49</ele>
        <time>2017-08-15T05:53:27Z</time>
      </trkpt>
      <trkpt lat="48.61244" lon="-2.30315">
        <ele>49</ele>
        <time>2017-08-15T05:53:31Z</time>
      </trkpt>
      <trkpt lat="48.61241" lon="-2.30339">
        <ele>48.4</ele>
        <time>2017-08-15T05:53:35Z</time>
      </trkpt>
      <trkpt lat="48.61237" lon="-2.30363">
        <ele>49.2</ele>
        <time>2017-08-15T05:53:39Z</time>
      </trkpt>
      <trkpt lat="48.61237" lon="-2.30389">
        <ele>49</ele>
        <time>2017-08-15T05:53:43Z</time>
      </trkpt>
      <trkpt lat="48.6125" lon="-2.30396">
        <ele>48.8</ele>
        <time>2017-08-15T05:53:47Z</time>
      </trkpt>
      <trkpt lat="48.61259" lon="-2.30414">
        <ele>48.8</ele>
        <time>2017-08-15T05:53:51Z</time>
      </trkpt>
      <trkpt lat="48.61258" lon="-2.30441">
        <ele>48.4</ele>
        <time>2017-08-15T05:53:55Z</time>
      </trkpt>
      <trkpt lat="48.61258" lon="-2.30471">
        <ele>48.4</ele>
        <time>2017-08-15T05:53:59Z</time>
      </trkpt>
      <trkpt lat="48.61258" lon="-2.30502">
        <ele>48</ele>
        <time>2017-08-15T05:54:03Z</time>
      </trkpt>
      <trkpt lat="48.61258" lon="-2.3053">
        <ele>48.2</ele>
        <time>2017-08-15T05:54:07Z</time>
      </trkpt>
      <trkpt lat="48.61254" lon="-2.30554">
        <ele>48.4</ele>
        <time>2017-08-15T05:54:11Z</time>
      </trkpt>
      <trkpt lat="48.6124" lon="-2.30574">
        <ele>48.2</ele>
        <time>2017-08-15T05:54:15Z</time>
      </trkpt>
      <trkpt lat="48.61226" lon="-2.30595">
        <ele>46.8</ele>
        <time>2017-08-15T05:54:19Z</time>
      </trkpt>
      <trkpt lat="48.61216" lon="-2.30619">
        <ele>46.8</ele>
        <time>2017-08-15T05:54:23Z</time>
      </trkpt>
      <trkpt lat="48.61207" lon="-2.30645">
        <ele>46.4</ele>
        <time>2017-08-15T05:54:27Z</time>
      </trkpt>
      <trkpt lat="48.61199" lon="-2.30675">
        <ele>45.4</ele>
        <time>2017-08-15T05:54:31Z</time>
      </trkpt>
      <trkpt lat="48.61193" lon="-2.30705">
        <ele>44.8</ele>
        <time>2017-08-15T05:54:35Z</time>
      </trkpt>
      <trkpt lat="48.61198" lon="-2.30718">
        <ele>43.2</ele>
        <time>2017-08-15T05:54:39Z</time>
      </trkpt>
      <trkpt lat="48.61205" lon="-2.30728">
        <ele>45.4</ele>
        <time>2017-08-15T05:54:43Z</time>
      </trkpt>
      <trkpt lat="48.61202" lon="-2.30741">
        <ele>44</ele>
        <time>2017-08-15T05:54:47Z</time>
      </trkpt>
      <trkpt lat="48.61196" lon="-2.3076">
        <ele>43.6</ele>
        <time>2017-08-15T05:54:51Z</time>
      </trkpt>
      <trkpt lat="48.61189" lon="-2.3079">
        <ele>41.8</ele>
        <time>2017-08-15T05:54:55Z</time>
      </trkpt>
      <trkpt lat="48.61184" lon="-2.30816">
        <ele>41.2</ele>
        <time>2017-08-15T05:54:59Z</time>
      </trkpt>
      <trkpt lat="48.61176" lon="-2.30857">
        <ele>36.8</ele>
        <time>2017-08-15T05:55:03Z</time>
      </trkpt>
      <trkpt lat="48.61165" lon="-2.30895">
        <ele>34</ele>
        <time>2017-08-15T05:55:07Z</time>
      </trkpt>
      <trkpt lat="48.61149" lon="-2.30903">
        <ele>32</ele>
        <time>2017-08-15T05:55:11Z</time>
      </trkpt>
      <trkpt lat="48.61132" lon="-2.30899">
        <ele>31.8</ele>
        <time>2017-08-15T05:55:15Z</time>
      </trkpt>
      <trkpt lat="48.61124" lon="-2.3091">
        <ele>32.2</ele>
        <time>2017-08-15T05:55:19Z</time>
      </trkpt>
      <trkpt lat="48.61123" lon="-2.30929">
        <ele>32.2</ele>
        <time>2017-08-15T05:55:23Z</time>
      </trkpt>
      <trkpt lat="48.61123" lon="-2.30952">
        <ele>31.8</ele>
        <time>2017-08-15T05:55:27Z</time>
      </trkpt>
      <trkpt lat="48.61124" lon="-2.30986">
        <ele>30.4</ele>
        <time>2017-08-15T05:55:31Z</time>
      </trkpt>
      <trkpt lat="48.61126" lon="-2.3102">
        <ele>28.2</ele>
        <time>2017-08-15T05:55:35Z</time>
      </trkpt>
      <trkpt lat="48.61137" lon="-2.31042">
        <ele>25.6</ele>
        <time>2017-08-15T05:55:39Z</time>
      </trkpt>
      <trkpt lat="48.6114" lon="-2.3108">
        <ele>23.4</ele>
        <time>2017-08-15T05:55:43Z</time>
      </trkpt>
      <trkpt lat="48.61143" lon="-2.31124">
        <ele>19.6</ele>
        <time>2017-08-15T05:55:47Z</time>
      </trkpt>
      <trkpt lat="48.61146" lon="-2.31151">
        <ele>16.8</ele>
        <time>2017-08-15T05:55:51Z</time>
      </trkpt>
      <trkpt lat="48.61163" lon="-2.31153">
        <ele>14.6</ele>
        <time>2017-08-15T05:55:55Z</time>
      </trkpt>
      <trkpt lat="48.6118" lon="-2.31132">
        <ele>14.8</ele>
        <time>2017-08-15T05:55:59Z</time>
      </trkpt>
      <trkpt lat="48.61188" lon="-2.31127">
        <ele>16.6</ele>
        <time>2017-08-15T05:56:03Z</time>
      </trkpt>
      <trkpt lat="48.61197" lon="-2.31127">
        <ele>17</ele>
        <time>2017-08-15T05:56:07Z</time>
      </trkpt>
      <trkpt lat="48.6121" lon="-2.31131">
        <ele>15.8</ele>
        <time>2017-08-15T05:56:11Z</time>
      </trkpt>
      <trkpt lat="48.61225" lon="-2.31123">
        <ele>15.8</ele>
        <time>2017-08-15T05:56:15Z</time>
      </trkpt>
      <trkpt lat="48.61234" lon="-2.31112">
        <ele>16.6</ele>
        <time>2017-08-15T05:56:19Z</time>
      </trkpt>
      <trkpt lat="48.61244" lon="-2.31105">
        <ele>17</ele>
        <time>2017-08-15T05:56:23Z</time>
      </trkpt>
      <trkpt lat="48.61254" lon="-2.31101">
        <ele>17.4</ele>
        <time>2017-08-15T05:56:27Z</time>
      </trkpt>
      <trkpt lat="48.61265" lon="-2.311">
        <ele>18.4</ele>
        <time>2017-08-15T05:56:31Z</time>
      </trkpt>
      <trkpt lat="48.61275" lon="-2.311">
        <ele>18.8</ele>
        <time>2017-08-15T05:56:35Z</time>
      </trkpt>
      <trkpt lat="48.61284" lon="-2.31102">
        <ele>20.6</ele>
        <time>2017-08-15T05:56:39Z</time>
      </trkpt>
      <trkpt lat="48.61292" lon="-2.31102">
        <ele>20.8</ele>
        <time>2017-08-15T05:56:43Z</time>
      </trkpt>
      <trkpt lat="48.61298" lon="-2.31099">
        <ele>22</ele>
        <time>2017-08-15T05:56:47Z</time>
      </trkpt>
      <trkpt lat="48.61304" lon="-2.31096">
        <ele>22.6</ele>
        <time>2017-08-15T05:56:51Z</time>
      </trkpt>
      <trkpt lat="48.61309" lon="-2.31089">
        <ele>23.4</ele>
        <time>2017-08-15T05:56:55Z</time>
      </trkpt>
      <trkpt lat="48.61314" lon="-2.31083">
        <ele>25.2</ele>
        <time>2017-08-15T05:56:59Z</time>
      </trkpt>
      <trkpt lat="48.6132" lon="-2.31078">
        <ele>26</ele>
        <time>2017-08-15T05:57:03Z</time>
      </trkpt>
      <trkpt lat="48.61326" lon="-2.31076">
        <ele>26.6</ele>
        <time>2017-08-15T05:57:07Z</time>
      </trkpt>
      <trkpt lat="48.61335" lon="-2.31074">
        <ele>26.2</ele>
        <time>2017-08-15T05:57:11Z</time>
      </trkpt>
      <trkpt lat="48.61342" lon="-2.31069">
        <ele>26.6</ele>
        <time>2017-08-15T05:57:15Z</time>
      </trkpt>
      <trkpt lat="48.61349" lon="-2.31066">
        <ele>26.6</ele>
        <time>2017-08-15T05:57:19Z</time>
      </trkpt>
      <trkpt lat="48.61357" lon="-2.31058">
        <ele>26.4</ele>
        <time>2017-08-15T05:57:23Z</time>
      </trkpt>
      <trkpt lat="48.61365" lon="-2.31051">
        <ele>27.2</ele>
        <time>2017-08-15T05:57:27Z</time>
      </trkpt>
      <trkpt lat="48.6137" lon="-2.31044">
        <ele>28.2</ele>
        <time>2017-08-15T05:57:31Z</time>
      </trkpt>
      <trkpt lat="48.61376" lon="-2.31039">
        <ele>28</ele>
        <time>2017-08-15T05:57:35Z</time>
      </trkpt>
      <trkpt lat="48.61386" lon="-2.31034">
        <ele>27.4</ele>
        <time>2017-08-15T05:57:39Z</time>
      </trkpt>
      <trkpt lat="48.61396" lon="-2.31025">
        <ele>27.4</ele>
        <time>2017-08-15T05:57:43Z</time>
      </trkpt>
      <trkpt lat="48.61407" lon="-2.31012">
        <ele>27.2</ele>
        <time>2017-08-15T05:57:47Z</time>
      </trkpt>
      <trkpt lat="48.61411" lon="-2.31003">
        <ele>26.4</ele>
        <time>2017-08-15T05:57:51Z</time>
      </trkpt>
      <trkpt lat="48.6142" lon="-2.30986">
        <ele>25.6</ele>
        <time>2017-08-15T05:57:55Z</time>
      </trkpt>
      <trkpt lat="48.61429" lon="-2.30974">
        <ele>23</ele>
        <time>2017-08-15T05:57:59Z</time>
      </trkpt>
      <trkpt lat="48.61433" lon="-2.30961">
        <ele>20.8</ele>
        <time>2017-08-15T05:58:03Z</time>
      </trkpt>
      <trkpt lat="48.61436" lon="-2.30951">
        <ele>19.8</ele>
        <time>2017-08-15T05:58:07Z</time>
      </trkpt>
      <trkpt lat="48.61436" lon="-2.30943">
        <ele>21.2</ele>
        <time>2017-08-15T05:58:11Z</time>
      </trkpt>
      <trkpt lat="48.61435" lon="-2.30935">
        <ele>22.6</ele>
        <time>2017-08-15T05:58:15Z</time>
      </trkpt>
      <trkpt lat="48.61438" lon="-2.30925">
        <ele>25.6</ele>
        <time>2017-08-15T05:58:23Z</time>
      </trkpt>
      <trkpt lat="48.61442" lon="-2.30912">
        <ele>27.6</ele>
        <time>2017-08-15T05:58:27Z</time>
      </trkpt>
      <trkpt lat="48.61443" lon="-2.30901">
        <ele>29</ele>
        <time>2017-08-15T05:58:31Z</time>
      </trkpt>
      <trkpt lat="48.61445" lon="-2.3089">
        <ele>30.2</ele>
        <time>2017-08-15T05:58:35Z</time>
      </trkpt>
      <trkpt lat="48.6145" lon="-2.30878">
        <ele>31.8</ele>
        <time>2017-08-15T05:58:39Z</time>
      </trkpt>
      <trkpt lat="48.61453" lon="-2.30867">
        <ele>32.6</ele>
        <time>2017-08-15T05:58:43Z</time>
      </trkpt>
      <trkpt lat="48.61457" lon="-2.30855">
        <ele>34</ele>
        <time>2017-08-15T05:58:47Z</time>
      </trkpt>
      <trkpt lat="48.61461" lon="-2.30845">
        <ele>35</ele>
        <time>2017-08-15T05:58:51Z</time>
      </trkpt>
      <trkpt lat="48.61463" lon="-2.30843">
        <ele>36.6</ele>
        <time>2017-08-15T05:58:55Z</time>
      </trkpt>
      <trkpt lat="48.61466" lon="-2.30847">
        <ele>37.2</ele>
        <time>2017-08-15T05:58:59Z</time>
      </trkpt>
      <trkpt lat="48.61471" lon="-2.30853">
        <ele>37.8</ele>
        <time>2017-08-15T05:59:03Z</time>
      </trkpt>
      <trkpt lat="48.61476" lon="-2.30859">
        <ele>37.6</ele>
        <time>2017-08-15T05:59:07Z</time>
      </trkpt>
      <trkpt lat="48.61485" lon="-2.30869">
        <ele>37.6</ele>
        <time>2017-08-15T05:59:11Z</time>
      </trkpt>
      <trkpt lat="48.61497" lon="-2.30865">
        <ele>37.6</ele>
        <time>2017-08-15T05:59:15Z</time>
      </trkpt>
      <trkpt lat="48.61505" lon="-2.30856">
        <ele>38</ele>
        <time>2017-08-15T05:59:19Z</time>
      </trkpt>
      <trkpt lat="48.61513" lon="-2.30849">
        <ele>38.4</ele>
        <time>2017-08-15T05:59:23Z</time>
      </trkpt>
      <trkpt lat="48.61521" lon="-2.30842">
        <ele>38.6</ele>
        <time>2017-08-15T05:59:27Z</time>
      </trkpt>
      <trkpt lat="48.61529" lon="-2.30834">
        <ele>39.2</ele>
        <time>2017-08-15T05:59:31Z</time>
      </trkpt>
      <trkpt lat="48.61537" lon="-2.30828">
        <ele>39</ele>
        <time>2017-08-15T05:59:35Z</time>
      </trkpt>
      <trkpt lat="48.61551" lon="-2.3082">
        <ele>38</ele>
        <time>2017-08-15T05:59:39Z</time>
      </trkpt>
      <trkpt lat="48.61562" lon="-2.30801">
        <ele>38</ele>
        <time>2017-08-15T05:59:43Z</time>
      </trkpt>
      <trkpt lat="48.61569" lon="-2.30787">
        <ele>38.4</ele>
        <time>2017-08-15T05:59:47Z</time>
      </trkpt>
      <trkpt lat="48.61576" lon="-2.30774">
        <ele>39</ele>
        <time>2017-08-15T05:59:51Z</time>
      </trkpt>
      <trkpt lat="48.61579" lon="-2.30758">
        <ele>41</ele>
        <time>2017-08-15T05:59:55Z</time>
      </trkpt>
      <trkpt lat="48.61583" lon="-2.30744">
        <ele>41.4</ele>
        <time>2017-08-15T05:59:59Z</time>
      </trkpt>
      <trkpt lat="48.6159" lon="-2.30734">
        <ele>42</ele>
        <time>2017-08-15T06:00:03Z</time>
      </trkpt>
      <trkpt lat="48.61601" lon="-2.30727">
        <ele>41.6</ele>
        <time>2017-08-15T06:00:07Z</time>
      </trkpt>
      <trkpt lat="48.61611" lon="-2.3072">
        <ele>42</ele>
        <time>2017-08-15T06:00:11Z</time>
      </trkpt>
      <trkpt lat="48.6162" lon="-2.3071">
        <ele>41.8</ele>
        <time>2017-08-15T06:00:15Z</time>
      </trkpt>
      <trkpt lat="48.61628" lon="-2.30698">
        <ele>42.4</ele>
        <time>2017-08-15T06:00:19Z</time>
      </trkpt>
      <trkpt lat="48.61637" lon="-2.30689">
        <ele>42</ele>
        <time>2017-08-15T06:00:23Z</time>
      </trkpt>
      <trkpt lat="48.61647" lon="-2.30678">
        <ele>42.4</ele>
        <time>2017-08-15T06:00:27Z</time>
      </trkpt>
      <trkpt lat="48.61653" lon="-2.30664">
        <ele>42.2</ele>
        <time>2017-08-15T06:00:31Z</time>
      </trkpt>
      <trkpt lat="48.6166" lon="-2.30648">
        <ele>41.8</ele>
        <time>2017-08-15T06:00:35Z</time>
      </trkpt>
      <trkpt lat="48.6167" lon="-2.30632">
        <ele>41.6</ele>
        <time>2017-08-15T06:00:39Z</time>
      </trkpt>
      <trkpt lat="48.61681" lon="-2.30617">
        <ele>40.8</ele>
        <time>2017-08-15T06:00:43Z</time>
      </trkpt>
      <trkpt lat="48.61695" lon="-2.30602">
        <ele>38.6</ele>
        <time>2017-08-15T06:00:47Z</time>
      </trkpt>
      <trkpt lat="48.61719" lon="-2.30588">
        <ele>35.6</ele>
        <time>2017-08-15T06:00:51Z</time>
      </trkpt>
      <trkpt lat="48.61742" lon="-2.30572">
        <ele>34.8</ele>
        <time>2017-08-15T06:00:55Z</time>
      </trkpt>
      <trkpt lat="48.61758" lon="-2.30569">
        <ele>32.8</ele>
        <time>2017-08-15T06:00:59Z</time>
      </trkpt>
      <trkpt lat="48.61772" lon="-2.30582">
        <ele>30.6</ele>
        <time>2017-08-15T06:01:03Z</time>
      </trkpt>
      <trkpt lat="48.61782" lon="-2.30576">
        <ele>31.4</ele>
        <time>2017-08-15T06:01:07Z</time>
      </trkpt>
      <trkpt lat="48.61791" lon="-2.30566">
        <ele>32.4</ele>
        <time>2017-08-15T06:01:11Z</time>
      </trkpt>
      <trkpt lat="48.61799" lon="-2.30555">
        <ele>33.4</ele>
        <time>2017-08-15T06:01:15Z</time>
      </trkpt>
      <trkpt lat="48.61807" lon="-2.30543">
        <ele>33.4</ele>
        <time>2017-08-15T06:01:19Z</time>
      </trkpt>
      <trkpt lat="48.61816" lon="-2.30533">
        <ele>34.4</ele>
        <time>2017-08-15T06:01:23Z</time>
      </trkpt>
      <trkpt lat="48.61825" lon="-2.30522">
        <ele>34.8</ele>
        <time>2017-08-15T06:01:27Z</time>
      </trkpt>
      <trkpt lat="48.61834" lon="-2.30513">
        <ele>35.2</ele>
        <time>2017-08-15T06:01:31Z</time>
      </trkpt>
      <trkpt lat="48.61843" lon="-2.30502">
        <ele>34.8</ele>
        <time>2017-08-15T06:01:35Z</time>
      </trkpt>
      <trkpt lat="48.61852" lon="-2.30491">
        <ele>34.6</ele>
        <time>2017-08-15T06:01:39Z</time>
      </trkpt>
      <trkpt lat="48.61863" lon="-2.30481">
        <ele>34.6</ele>
        <time>2017-08-15T06:01:43Z</time>
      </trkpt>
      <trkpt lat="48.61874" lon="-2.30472">
        <ele>34.6</ele>
        <time>2017-08-15T06:01:47Z</time>
      </trkpt>
      <trkpt lat="48.61885" lon="-2.30457">
        <ele>33.4</ele>
        <time>2017-08-15T06:01:51Z</time>
      </trkpt>
      <trkpt lat="48.61892" lon="-2.3043">
        <ele>31.2</ele>
        <time>2017-08-15T06:01:55Z</time>
      </trkpt>
      <trkpt lat="48.61902" lon="-2.30415">
        <ele>31.2</ele>
        <time>2017-08-15T06:01:59Z</time>
      </trkpt>
      <trkpt lat="48.61913" lon="-2.30411">
        <ele>32</ele>
        <time>2017-08-15T06:02:03Z</time>
      </trkpt>
      <trkpt lat="48.61925" lon="-2.30407">
        <ele>32.4</ele>
        <time>2017-08-15T06:02:07Z</time>
      </trkpt>
      <trkpt lat="48.61937" lon="-2.30401">
        <ele>31.6</ele>
        <time>2017-08-15T06:02:11Z</time>
      </trkpt>
      <trkpt lat="48.61951" lon="-2.30384">
        <ele>30.6</ele>
        <time>2017-08-15T06:02:15Z</time>
      </trkpt>
      <trkpt lat="48.6196" lon="-2.30363">
        <ele>27.4</ele>
        <time>2017-08-15T06:02:19Z</time>
      </trkpt>
      <trkpt lat="48.61971" lon="-2.30348">
        <ele>22.8</ele>
        <time>2017-08-15T06:02:23Z</time>
      </trkpt>
      <trkpt lat="48.61987" lon="-2.30333">
        <ele>18.8</ele>
        <time>2017-08-15T06:02:27Z</time>
      </trkpt>
      <trkpt lat="48.62003" lon="-2.30313">
        <ele>19.8</ele>
        <time>2017-08-15T06:02:31Z</time>
      </trkpt>
      <trkpt lat="48.62012" lon="-2.30296">
        <ele>19.8</ele>
        <time>2017-08-15T06:02:35Z</time>
      </trkpt>
      <trkpt lat="48.62019" lon="-2.30288">
        <ele>21.8</ele>
        <time>2017-08-15T06:02:39Z</time>
      </trkpt>
      <trkpt lat="48.62027" lon="-2.30283">
        <ele>22.4</ele>
        <time>2017-08-15T06:02:43Z</time>
      </trkpt>
      <trkpt lat="48.62036" lon="-2.3028">
        <ele>22.8</ele>
        <time>2017-08-15T06:02:47Z</time>
      </trkpt>
      <trkpt lat="48.62044" lon="-2.30275">
        <ele>25</ele>
        <time>2017-08-15T06:02:51Z</time>
      </trkpt>
      <trkpt lat="48.62049" lon="-2.30267">
        <ele>26.8</ele>
        <time>2017-08-15T06:02:55Z</time>
      </trkpt>
      <trkpt lat="48.62054" lon="-2.30258">
        <ele>27.6</ele>
        <time>2017-08-15T06:02:59Z</time>
      </trkpt>
      <trkpt lat="48.6206" lon="-2.30247">
        <ele>28.2</ele>
        <time>2017-08-15T06:03:03Z</time>
      </trkpt>
      <trkpt lat="48.62065" lon="-2.30238">
        <ele>29.2</ele>
        <time>2017-08-15T06:03:07Z</time>
      </trkpt>
      <trkpt lat="48.62071" lon="-2.30228">
        <ele>29.4</ele>
        <time>2017-08-15T06:03:11Z</time>
      </trkpt>
      <trkpt lat="48.62077" lon="-2.30216">
        <ele>29.6</ele>
        <time>2017-08-15T06:03:15Z</time>
      </trkpt>
      <trkpt lat="48.62082" lon="-2.30204">
        <ele>30.2</ele>
        <time>2017-08-15T06:03:19Z</time>
      </trkpt>
      <trkpt lat="48.62086" lon="-2.3019">
        <ele>31.2</ele>
        <time>2017-08-15T06:03:23Z</time>
      </trkpt>
      <trkpt lat="48.62089" lon="-2.30176">
        <ele>32.4</ele>
        <time>2017-08-15T06:03:27Z</time>
      </trkpt>
      <trkpt lat="48.62091" lon="-2.30164">
        <ele>33.4</ele>
        <time>2017-08-15T06:03:31Z</time>
      </trkpt>
      <trkpt lat="48.62095" lon="-2.3015">
        <ele>34.2</ele>
        <time>2017-08-15T06:03:35Z</time>
      </trkpt>
      <trkpt lat="48.62098" lon="-2.30137">
        <ele>34</ele>
        <time>2017-08-15T06:03:39Z</time>
      </trkpt>
      <trkpt lat="48.62103" lon="-2.30125">
        <ele>34.6</ele>
        <time>2017-08-15T06:03:43Z</time>
      </trkpt>
      <trkpt lat="48.62108" lon="-2.30115">
        <ele>35.4</ele>
        <time>2017-08-15T06:03:47Z</time>
      </trkpt>
      <trkpt lat="48.62113" lon="-2.30103">
        <ele>35</ele>
        <time>2017-08-15T06:03:51Z</time>
      </trkpt>
      <trkpt lat="48.62117" lon="-2.3009">
        <ele>36.6</ele>
        <time>2017-08-15T06:03:55Z</time>
      </trkpt>
      <trkpt lat="48.62122" lon="-2.30081">
        <ele>36.6</ele>
        <time>2017-08-15T06:03:59Z</time>
      </trkpt>
      <trkpt lat="48.62131" lon="-2.30071">
        <ele>36.6</ele>
        <time>2017-08-15T06:04:03Z</time>
      </trkpt>
      <trkpt lat="48.62136" lon="-2.30058">
        <ele>36.4</ele>
        <time>2017-08-15T06:04:07Z</time>
      </trkpt>
      <trkpt lat="48.62144" lon="-2.30046">
        <ele>35</ele>
        <time>2017-08-15T06:04:11Z</time>
      </trkpt>
      <trkpt lat="48.62162" lon="-2.30036">
        <ele>33</ele>
        <time>2017-08-15T06:04:15Z</time>
      </trkpt>
      <trkpt lat="48.62175" lon="-2.30012">
        <ele>31.4</ele>
        <time>2017-08-15T06:04:19Z</time>
      </trkpt>
      <trkpt lat="48.62191" lon="-2.3">
        <ele>30.6</ele>
        <time>2017-08-15T06:04:23Z</time>
      </trkpt>
      <trkpt lat="48.62202" lon="-2.2999">
        <ele>32</ele>
        <time>2017-08-15T06:04:27Z</time>
      </trkpt>
      <trkpt lat="48.6221" lon="-2.29982">
        <ele>33.6</ele>
        <time>2017-08-15T06:04:31Z</time>
      </trkpt>
      <trkpt lat="48.62216" lon="-2.29975">
        <ele>34.6</ele>
        <time>2017-08-15T06:04:35Z</time>
      </trkpt>
      <trkpt lat="48.62222" lon="-2.29969">
        <ele>37</ele>
        <time>2017-08-15T06:04:39Z</time>
      </trkpt>
      <trkpt lat="48.62229" lon="-2.29963">
        <ele>37.8</ele>
        <time>2017-08-15T06:04:43Z</time>
      </trkpt>
      <trkpt lat="48.62235" lon="-2.29957">
        <ele>39.8</ele>
        <time>2017-08-15T06:04:47Z</time>
      </trkpt>
      <trkpt lat="48.62241" lon="-2.29949">
        <ele>42</ele>
        <time>2017-08-15T06:04:51Z</time>
      </trkpt>
      <trkpt lat="48.62246" lon="-2.29939">
        <ele>42.8</ele>
        <time>2017-08-15T06:04:55Z</time>
      </trkpt>
      <trkpt lat="48.62251" lon="-2.2993">
        <ele>43</ele>
        <time>2017-08-15T06:04:59Z</time>
      </trkpt>
      <trkpt lat="48.62256" lon="-2.2992">
        <ele>42.8</ele>
        <time>2017-08-15T06:05:03Z</time>
      </trkpt>
      <trkpt lat="48.62263" lon="-2.2991">
        <ele>44</ele>
        <time>2017-08-15T06:05:07Z</time>
      </trkpt>
      <trkpt lat="48.62271" lon="-2.29909">
        <ele>44.2</ele>
        <time>2017-08-15T06:05:11Z</time>
      </trkpt>
      <trkpt lat="48.62279" lon="-2.29913">
        <ele>44.2</ele>
        <time>2017-08-15T06:05:15Z</time>
      </trkpt>
      <trkpt lat="48.62281" lon="-2.29924">
        <ele>44.4</ele>
        <time>2017-08-15T06:05:19Z</time>
      </trkpt>
      <trkpt lat="48.62285" lon="-2.29936">
        <ele>44</ele>
        <time>2017-08-15T06:05:23Z</time>
      </trkpt>
      <trkpt lat="48.62296" lon="-2.29934">
        <ele>43.4</ele>
        <time>2017-08-15T06:05:27Z</time>
      </trkpt>
      <trkpt lat="48.62307" lon="-2.29927">
        <ele>44</ele>
        <time>2017-08-15T06:05:31Z</time>
      </trkpt>
      <trkpt lat="48.62318" lon="-2.29922">
        <ele>43.4</ele>
        <time>2017-08-15T06:05:35Z</time>
      </trkpt>
      <trkpt lat="48.62329" lon="-2.29918">
        <ele>43</ele>
        <time>2017-08-15T06:05:39Z</time>
      </trkpt>
      <trkpt lat="48.62336" lon="-2.29932">
        <ele>40</ele>
        <time>2017-08-15T06:05:43Z</time>
      </trkpt>
      <trkpt lat="48.62345" lon="-2.29937">
        <ele>38.8</ele>
        <time>2017-08-15T06:05:47Z</time>
      </trkpt>
      <trkpt lat="48.62358" lon="-2.29932">
        <ele>37.6</ele>
        <time>2017-08-15T06:05:51Z</time>
      </trkpt>
      <trkpt lat="48.62377" lon="-2.29929">
        <ele>36.6</ele>
        <time>2017-08-15T06:05:55Z</time>
      </trkpt>
      <trkpt lat="48.62398" lon="-2.29925">
        <ele>35.4</ele>
        <time>2017-08-15T06:05:59Z</time>
      </trkpt>
      <trkpt lat="48.62421" lon="-2.29911">
        <ele>33.8</ele>
        <time>2017-08-15T06:06:03Z</time>
      </trkpt>
      <trkpt lat="48.6244" lon="-2.29895">
        <ele>33.4</ele>
        <time>2017-08-15T06:06:07Z</time>
      </trkpt>
      <trkpt lat="48.62461" lon="-2.2989">
        <ele>33</ele>
        <time>2017-08-15T06:06:11Z</time>
      </trkpt>
      <trkpt lat="48.62475" lon="-2.29881">
        <ele>34</ele>
        <time>2017-08-15T06:06:15Z</time>
      </trkpt>
      <trkpt lat="48.62485" lon="-2.29873">
        <ele>34.2</ele>
        <time>2017-08-15T06:06:19Z</time>
      </trkpt>
      <trkpt lat="48.62495" lon="-2.29865">
        <ele>35</ele>
        <time>2017-08-15T06:06:23Z</time>
      </trkpt>
      <trkpt lat="48.62504" lon="-2.29857">
        <ele>34.8</ele>
        <time>2017-08-15T06:06:27Z</time>
      </trkpt>
      <trkpt lat="48.62514" lon="-2.29847">
        <ele>33</ele>
        <time>2017-08-15T06:06:31Z</time>
      </trkpt>
      <trkpt lat="48.62526" lon="-2.29832">
        <ele>32</ele>
        <time>2017-08-15T06:06:35Z</time>
      </trkpt>
      <trkpt lat="48.62536" lon="-2.29817">
        <ele>32</ele>
        <time>2017-08-15T06:06:39Z</time>
      </trkpt>
      <trkpt lat="48.62547" lon="-2.29802">
        <ele>32</ele>
        <time>2017-08-15T06:06:43Z</time>
      </trkpt>
      <trkpt lat="48.62556" lon="-2.2979">
        <ele>32.4</ele>
        <time>2017-08-15T06:06:47Z</time>
      </trkpt>
      <trkpt lat="48.62565" lon="-2.2978">
        <ele>32</ele>
        <time>2017-08-15T06:06:51Z</time>
      </trkpt>
      <trkpt lat="48.62574" lon="-2.29767">
        <ele>31.4</ele>
        <time>2017-08-15T06:06:55Z</time>
      </trkpt>
      <trkpt lat="48.62588" lon="-2.29748">
        <ele>30.4</ele>
        <time>2017-08-15T06:06:59Z</time>
      </trkpt>
      <trkpt lat="48.62598" lon="-2.29719">
        <ele>29.6</ele>
        <time>2017-08-15T06:07:03Z</time>
      </trkpt>
      <trkpt lat="48.62596" lon="-2.29685">
        <ele>28.2</ele>
        <time>2017-08-15T06:07:07Z</time>
      </trkpt>
      <trkpt lat="48.6259" lon="-2.29657">
        <ele>27.2</ele>
        <time>2017-08-15T06:07:11Z</time>
      </trkpt>
      <trkpt lat="48.62592" lon="-2.29632">
        <ele>26.8</ele>
        <time>2017-08-15T06:07:15Z</time>
      </trkpt>
      <trkpt lat="48.62595" lon="-2.29604">
        <ele>24.4</ele>
        <time>2017-08-15T06:07:19Z</time>
      </trkpt>
      <trkpt lat="48.62593" lon="-2.2958">
        <ele>24</ele>
        <time>2017-08-15T06:07:23Z</time>
      </trkpt>
      <trkpt lat="48.62584" lon="-2.29572">
        <ele>24.6</ele>
        <time>2017-08-15T06:07:27Z</time>
      </trkpt>
      <trkpt lat="48.62573" lon="-2.29573">
        <ele>25.2</ele>
        <time>2017-08-15T06:07:31Z</time>
      </trkpt>
      <trkpt lat="48.62562" lon="-2.29578">
        <ele>25.8</ele>
        <time>2017-08-15T06:07:35Z</time>
      </trkpt>
      <trkpt lat="48.62553" lon="-2.29586">
        <ele>26.8</ele>
        <time>2017-08-15T06:07:39Z</time>
      </trkpt>
      <trkpt lat="48.62545" lon="-2.29592">
        <ele>27.6</ele>
        <time>2017-08-15T06:07:43Z</time>
      </trkpt>
      <trkpt lat="48.62537" lon="-2.29599">
        <ele>28.8</ele>
        <time>2017-08-15T06:07:47Z</time>
      </trkpt>
      <trkpt lat="48.6253" lon="-2.29605">
        <ele>30</ele>
        <time>2017-08-15T06:07:51Z</time>
      </trkpt>
      <trkpt lat="48.62523" lon="-2.29609">
        <ele>30.4</ele>
        <time>2017-08-15T06:07:55Z</time>
      </trkpt>
      <trkpt lat="48.62517" lon="-2.29613">
        <ele>30.6</ele>
        <time>2017-08-15T06:07:59Z</time>
      </trkpt>
      <trkpt lat="48.62512" lon="-2.29613">
        <ele>30.8</ele>
        <time>2017-08-15T06:08:23Z</time>
      </trkpt>
      <trkpt lat="48.62507" lon="-2.29612">
        <ele>31.4</ele>
        <time>2017-08-15T06:08:27Z</time>
      </trkpt>
      <trkpt lat="48.625" lon="-2.29608">
        <ele>31.4</ele>
        <time>2017-08-15T06:08:31Z</time>
      </trkpt>
      <trkpt lat="48.62492" lon="-2.29603">
        <ele>32</ele>
        <time>2017-08-15T06:08:35Z</time>
      </trkpt>
      <trkpt lat="48.62483" lon="-2.29596">
        <ele>31.6</ele>
        <time>2017-08-15T06:08:39Z</time>
      </trkpt>
      <trkpt lat="48.62473" lon="-2.29589">
        <ele>31.2</ele>
        <time>2017-08-15T06:08:43Z</time>
      </trkpt>
      <trkpt lat="48.62461" lon="-2.29581">
        <ele>31</ele>
        <time>2017-08-15T06:08:47Z</time>
      </trkpt>
      <trkpt lat="48.62447" lon="-2.2954">
        <ele>28.4</ele>
        <time>2017-08-15T06:08:55Z</time>
      </trkpt>
      <trkpt lat="48.62434" lon="-2.2953">
        <ele>30</ele>
        <time>2017-08-15T06:08:59Z</time>
      </trkpt>
      <trkpt lat="48.62425" lon="-2.29525">
        <ele>31.2</ele>
        <time>2017-08-15T06:09:03Z</time>
      </trkpt>
      <trkpt lat="48.62417" lon="-2.2952">
        <ele>31.6</ele>
        <time>2017-08-15T06:09:07Z</time>
      </trkpt>
      <trkpt lat="48.62406" lon="-2.29516">
        <ele>31.2</ele>
        <time>2017-08-15T06:09:11Z</time>
      </trkpt>
      <trkpt lat="48.62395" lon="-2.29513">
        <ele>31.2</ele>
        <time>2017-08-15T06:09:15Z</time>
      </trkpt>
      <trkpt lat="48.62383" lon="-2.2951">
        <ele>30.6</ele>
        <time>2017-08-15T06:09:19Z</time>
      </trkpt>
      <trkpt lat="48.62368" lon="-2.29506">
        <ele>29.4</ele>
        <time>2017-08-15T06:09:23Z</time>
      </trkpt>
      <trkpt lat="48.62359" lon="-2.29498">
        <ele>28.8</ele>
        <time>2017-08-15T06:09:27Z</time>
      </trkpt>
      <trkpt lat="48.62364" lon="-2.29472">
        <ele>24.4</ele>
        <time>2017-08-15T06:09:31Z</time>
      </trkpt>
      <trkpt lat="48.6236" lon="-2.29458">
        <ele>25.4</ele>
        <time>2017-08-15T06:09:35Z</time>
      </trkpt>
      <trkpt lat="48.6235" lon="-2.29457">
        <ele>24.8</ele>
        <time>2017-08-15T06:09:39Z</time>
      </trkpt>
      <trkpt lat="48.62338" lon="-2.29455">
        <ele>25</ele>
        <time>2017-08-15T06:09:43Z</time>
      </trkpt>
      <trkpt lat="48.62326" lon="-2.29454">
        <ele>25.6</ele>
        <time>2017-08-15T06:09:47Z</time>
      </trkpt>
      <trkpt lat="48.62315" lon="-2.29451">
        <ele>26</ele>
        <time>2017-08-15T06:09:51Z</time>
      </trkpt>
      <trkpt lat="48.62305" lon="-2.29451">
        <ele>26.4</ele>
        <time>2017-08-15T06:09:55Z</time>
      </trkpt>
      <trkpt lat="48.62295" lon="-2.29452">
        <ele>27</ele>
        <time>2017-08-15T06:09:59Z</time>
      </trkpt>
      <trkpt lat="48.62286" lon="-2.29452">
        <ele>24.8</ele>
        <time>2017-08-15T06:10:03Z</time>
      </trkpt>
      <trkpt lat="48.62278" lon="-2.29436">
        <ele>22.6</ele>
        <time>2017-08-15T06:10:07Z</time>
      </trkpt>
      <trkpt lat="48.62282" lon="-2.29424">
        <ele>20.4</ele>
        <time>2017-08-15T06:10:11Z</time>
      </trkpt>
      <trkpt lat="48.62295" lon="-2.29427">
        <ele>15.8</ele>
        <time>2017-08-15T06:10:15Z</time>
      </trkpt>
      <trkpt lat="48.62317" lon="-2.29417">
        <ele>11.2</ele>
        <time>2017-08-15T06:10:19Z</time>
      </trkpt>
      <trkpt lat="48.62339" lon="-2.2941">
        <ele>6.2</ele>
        <time>2017-08-15T06:10:23Z</time>
      </trkpt>
      <trkpt lat="48.62364" lon="-2.29409">
        <ele>3</ele>
        <time>2017-08-15T06:10:27Z</time>
      </trkpt>
      <trkpt lat="48.62377" lon="-2.29408">
        <ele>2.4</ele>
        <time>2017-08-15T06:10:31Z</time>
      </trkpt>
      <trkpt lat="48.62381" lon="-2.29401">
        <ele>1.4</ele>
        <time>2017-08-15T06:10:43Z</time>
      </trkpt>
      <trkpt lat="48.62381" lon="-2.29398">
        <ele>0.2</ele>
        <time>2017-08-15T06:10:47Z</time>
      </trkpt>
      <trkpt lat="48.62382" lon="-2.29391">
        <ele>-0.6</ele>
        <time>2017-08-15T06:10:59Z</time>
      </trkpt>
      <trkpt lat="48.62381" lon="-2.29387">
        <ele>-1.2</ele>
        <time>2017-08-15T06:11:07Z</time>
      </trkpt>
      <trkpt lat="48.62379" lon="-2.29385">
        <ele>-2</ele>
        <time>2017-08-15T06:11:11Z</time>
      </trkpt>
      <trkpt lat="48.62377" lon="-2.29382">
        <ele>-1.6</ele>
        <time>2017-08-15T06:11:15Z</time>
      </trkpt>
      <trkpt lat="48.62374" lon="-2.2938">
        <ele>-1.6</ele>
        <time>2017-08-15T06:11:19Z</time>
      </trkpt>
      <trkpt lat="48.6237" lon="-2.2938">
        <ele>-1.6</ele>
        <time>2017-08-15T06:11:23Z</time>
      </trkpt>
      <trkpt lat="48.62367" lon="-2.29381">
        <ele>-1.4</ele>
        <time>2017-08-15T06:11:27Z</time>
      </trkpt>
      <trkpt lat="48.62364" lon="-2.29381">
        <ele>-1.8</ele>
        <time>2017-08-15T06:11:31Z</time>
      </trkpt>
      <trkpt lat="48.6236" lon="-2.2938">
        <ele>-1.6</ele>
        <time>2017-08-15T06:11:35Z</time>
      </trkpt>
      <trkpt lat="48.62355" lon="-2.29379">
        <ele>-1.8</ele>
        <time>2017-08-15T06:11:39Z</time>
      </trkpt>
      <trkpt lat="48.62351" lon="-2.29376">
        <ele>-1.6</ele>
        <time>2017-08-15T06:11:43Z</time>
      </trkpt>
      <trkpt lat="48.62346" lon="-2.29374">
        <ele>-1.2</ele>
        <time>2017-08-15T06:11:47Z</time>
      </trkpt>
      <trkpt lat="48.62341" lon="-2.29373">
        <ele>-1</ele>
        <time>2017-08-15T06:11:51Z</time>
      </trkpt>
      <trkpt lat="48.62337" lon="-2.29371">
        <ele>-1.4</ele>
        <time>2017-08-15T06:11:55Z</time>
      </trkpt>
      <trkpt lat="48.62333" lon="-2.29369">
        <ele>-1.2</ele>
        <time>2017-08-15T06:11:59Z</time>
      </trkpt>
      <trkpt lat="48.6233" lon="-2.29363">
        <ele>-1.2</ele>
        <time>2017-08-15T06:12:03Z</time>
      </trkpt>
      <trkpt lat="48.62327" lon="-2.29359">
        <ele>-1.6</ele>
        <time>2017-08-15T06:12:07Z</time>
      </trkpt>
      <trkpt lat="48.62324" lon="-2.29357">
        <ele>-0.8</ele>
        <time>2017-08-15T06:12:11Z</time>
      </trkpt>
      <trkpt lat="48.62321" lon="-2.29358">
        <ele>-1</ele>
        <time>2017-08-15T06:12:15Z</time>
      </trkpt>
      <trkpt lat="48.62317" lon="-2.29357">
        <ele>-1</ele>
        <time>2017-08-15T06:12:19Z</time>
      </trkpt>
      <trkpt lat="48.62314" lon="-2.29357">
        <ele>-1</ele>
        <time>2017-08-15T06:12:23Z</time>
      </trkpt>
      <trkpt lat="48.6231" lon="-2.29356">
        <ele>-0.8</ele>
        <time>2017-08-15T06:12:27Z</time>
      </trkpt>
      <trkpt lat="48.62306" lon="-2.29356">
        <ele>-0.8</ele>
        <time>2017-08-15T06:12:31Z</time>
      </trkpt>
      <trkpt lat="48.62302" lon="-2.29354">
        <ele>-0.8</ele>
        <time>2017-08-15T06:12:35Z</time>
      </trkpt>
      <trkpt lat="48.62298" lon="-2.29352">
        <ele>-0.8</ele>
        <time>2017-08-15T06:12:39Z</time>
      </trkpt>
      <trkpt lat="48.62294" lon="-2.29352">
        <ele>-0.2</ele>
        <time>2017-08-15T06:12:43Z</time>
      </trkpt>
      <trkpt lat="48.6229" lon="-2.29351">
        <ele>-0.4</ele>
        <time>2017-08-15T06:12:47Z</time>
      </trkpt>
      <trkpt lat="48.62287" lon="-2.29352">
        <ele>-0.6</ele>
        <time>2017-08-15T06:12:51Z</time>
      </trkpt>
      <trkpt lat="48.62283" lon="-2.29352">
        <ele>-0.4</ele>
        <time>2017-08-15T06:12:55Z</time>
      </trkpt>
      <trkpt lat="48.62282" lon="-2.29351">
        <ele>-0.8</ele>
        <time>2017-08-15T06:12:59Z</time>
      </trkpt>
      <trkpt lat="48.62276" lon="-2.2935">
        <ele>-0.6</ele>
        <time>2017-08-15T06:13:03Z</time>
      </trkpt>
      <trkpt lat="48.62266" lon="-2.29349">
        <ele>-0.6</ele>
        <time>2017-08-15T06:13:07Z</time>
      </trkpt>
      <trkpt lat="48.62254" lon="-2.29337">
        <ele>-0.8</ele>
        <time>2017-08-15T06:13:11Z</time>
      </trkpt>
      <trkpt lat="48.62245" lon="-2.29331">
        <ele>-0.2</ele>
        <time>2017-08-15T06:13:15Z</time>
      </trkpt>
      <trkpt lat="48.62236" lon="-2.29327">
        <ele>-1.2</ele>
        <time>2017-08-15T06:13:19Z</time>
      </trkpt>
      <trkpt lat="48.62227" lon="-2.29321">
        <ele>0.2</ele>
        <time>2017-08-15T06:13:23Z</time>
      </trkpt>
      <trkpt lat="48.62217" lon="-2.29317">
        <ele>1.2</ele>
        <time>2017-08-15T06:13:27Z</time>
      </trkpt>
      <trkpt lat="48.62207" lon="-2.29314">
        <ele>1.6</ele>
        <time>2017-08-15T06:13:31Z</time>
      </trkpt>
      <trkpt lat="48.62189" lon="-2.29316">
        <ele>0.2</ele>
        <time>2017-08-15T06:13:35Z</time>
      </trkpt>
      <trkpt lat="48.62178" lon="-2.29319">
        <ele>0.8</ele>
        <time>2017-08-15T06:13:39Z</time>
      </trkpt>
      <trkpt lat="48.62166" lon="-2.29319">
        <ele>0.6</ele>
        <time>2017-08-15T06:13:43Z</time>
      </trkpt>
      <trkpt lat="48.62154" lon="-2.29319">
        <ele>1.2</ele>
        <time>2017-08-15T06:13:47Z</time>
      </trkpt>
      <trkpt lat="48.62142" lon="-2.29322">
        <ele>0.8</ele>
        <time>2017-08-15T06:13:51Z</time>
      </trkpt>
      <trkpt lat="48.62128" lon="-2.29321">
        <ele>0.8</ele>
        <time>2017-08-15T06:13:55Z</time>
      </trkpt>
      <trkpt lat="48.62115" lon="-2.29319">
        <ele>0.2</ele>
        <time>2017-08-15T06:13:59Z</time>
      </trkpt>
      <trkpt lat="48.62102" lon="-2.29318">
        <ele>0.8</ele>
        <time>2017-08-15T06:14:03Z</time>
      </trkpt>
      <trkpt lat="48.62087" lon="-2.29315">
        <ele>0.6</ele>
        <time>2017-08-15T06:14:07Z</time>
      </trkpt>
      <trkpt lat="48.62075" lon="-2.2932">
        <ele>0.4</ele>
        <time>2017-08-15T06:14:11Z</time>
      </trkpt>
      <trkpt lat="48.62063" lon="-2.29325">
        <ele>-1.2</ele>
        <time>2017-08-15T06:14:15Z</time>
      </trkpt>
      <trkpt lat="48.62053" lon="-2.29329">
        <ele>-0.6</ele>
        <time>2017-08-15T06:14:19Z</time>
      </trkpt>
      <trkpt lat="48.62043" lon="-2.2934">
        <ele>-0.2</ele>
        <time>2017-08-15T06:14:23Z</time>
      </trkpt>
      <trkpt lat="48.62037" lon="-2.29355">
        <ele>0.2</ele>
        <time>2017-08-15T06:14:27Z</time>
      </trkpt>
      <trkpt lat="48.62031" lon="-2.29371">
        <ele>0.6</ele>
        <time>2017-08-15T06:14:31Z</time>
      </trkpt>
      <trkpt lat="48.62031" lon="-2.29387">
        <ele>0.6</ele>
        <time>2017-08-15T06:14:35Z</time>
      </trkpt>
      <trkpt lat="48.6203" lon="-2.29399">
        <ele>1</ele>
        <time>2017-08-15T06:14:39Z</time>
      </trkpt>
      <trkpt lat="48.62026" lon="-2.29416">
        <ele>1.2</ele>
        <time>2017-08-15T06:14:43Z</time>
      </trkpt>
      <trkpt lat="48.6202" lon="-2.29431">
        <ele>1.8</ele>
        <time>2017-08-15T06:14:47Z</time>
      </trkpt>
      <trkpt lat="48.62012" lon="-2.29442">
        <ele>2.2</ele>
        <time>2017-08-15T06:14:51Z</time>
      </trkpt>
      <trkpt lat="48.62001" lon="-2.29458">
        <ele>2.2</ele>
        <time>2017-08-15T06:14:55Z</time>
      </trkpt>
      <trkpt lat="48.61991" lon="-2.29468">
        <ele>2.2</ele>
        <time>2017-08-15T06:14:59Z</time>
      </trkpt>
      <trkpt lat="48.6198" lon="-2.29477">
        <ele>2.6</ele>
        <time>2017-08-15T06:15:03Z</time>
      </trkpt>
      <trkpt lat="48.61969" lon="-2.29484">
        <ele>2.6</ele>
        <time>2017-08-15T06:15:07Z</time>
      </trkpt>
      <trkpt lat="48.61956" lon="-2.29493">
        <ele>2.4</ele>
        <time>2017-08-15T06:15:11Z</time>
      </trkpt>
      <trkpt lat="48.61949" lon="-2.29503">
        <ele>3.2</ele>
        <time>2017-08-15T06:15:15Z</time>
      </trkpt>
      <trkpt lat="48.61942" lon="-2.29516">
        <ele>3.4</ele>
        <time>2017-08-15T06:15:19Z</time>
      </trkpt>
      <trkpt lat="48.61934" lon="-2.29526">
        <ele>4.2</ele>
        <time>2017-08-15T06:15:23Z</time>
      </trkpt>
      <trkpt lat="48.6193" lon="-2.29534">
        <ele>6.2</ele>
        <time>2017-08-15T06:15:27Z</time>
      </trkpt>
      <trkpt lat="48.61929" lon="-2.29546">
        <ele>7</ele>
        <time>2017-08-15T06:15:31Z</time>
      </trkpt>
      <trkpt lat="48.61927" lon="-2.29558">
        <ele>8.2</ele>
        <time>2017-08-15T06:15:35Z</time>
      </trkpt>
      <trkpt lat="48.61925" lon="-2.2957">
        <ele>10.6</ele>
        <time>2017-08-15T06:15:39Z</time>
      </trkpt>
      <trkpt lat="48.61923" lon="-2.2958">
        <ele>12.6</ele>
        <time>2017-08-15T06:15:43Z</time>
      </trkpt>
      <trkpt lat="48.61919" lon="-2.29593">
        <ele>13.6</ele>
        <time>2017-08-15T06:15:47Z</time>
      </trkpt>
      <trkpt lat="48.61915" lon="-2.29605">
        <ele>15.4</ele>
        <time>2017-08-15T06:15:51Z</time>
      </trkpt>
      <trkpt lat="48.61912" lon="-2.29614">
        <ele>16.2</ele>
        <time>2017-08-15T06:15:55Z</time>
      </trkpt>
      <trkpt lat="48.61911" lon="-2.29622">
        <ele>17</ele>
        <time>2017-08-15T06:15:59Z</time>
      </trkpt>
      <trkpt lat="48.6191" lon="-2.29629">
        <ele>18.6</ele>
        <time>2017-08-15T06:16:03Z</time>
      </trkpt>
      <trkpt lat="48.61907" lon="-2.29638">
        <ele>19.2</ele>
        <time>2017-08-15T06:16:07Z</time>
      </trkpt>
      <trkpt lat="48.61903" lon="-2.29643">
        <ele>21</ele>
        <time>2017-08-15T06:16:11Z</time>
      </trkpt>
      <trkpt lat="48.619" lon="-2.29652">
        <ele>22.2</ele>
        <time>2017-08-15T06:16:15Z</time>
      </trkpt>
      <trkpt lat="48.61898" lon="-2.29662">
        <ele>24</ele>
        <time>2017-08-15T06:16:19Z</time>
      </trkpt>
      <trkpt lat="48.61896" lon="-2.2967">
        <ele>24.8</ele>
        <time>2017-08-15T06:16:23Z</time>
      </trkpt>
      <trkpt lat="48.61895" lon="-2.29677">
        <ele>26.6</ele>
        <time>2017-08-15T06:16:27Z</time>
      </trkpt>
      <trkpt lat="48.61892" lon="-2.29684">
        <ele>28</ele>
        <time>2017-08-15T06:16:31Z</time>
      </trkpt>
      <trkpt lat="48.61888" lon="-2.29693">
        <ele>29.2</ele>
        <time>2017-08-15T06:16:35Z</time>
      </trkpt>
      <trkpt lat="48.61886" lon="-2.29703">
        <ele>30</ele>
        <time>2017-08-15T06:16:39Z</time>
      </trkpt>
      <trkpt lat="48.61883" lon="-2.29714">
        <ele>30.4</ele>
        <time>2017-08-15T06:16:43Z</time>
      </trkpt>
      <trkpt lat="48.61881" lon="-2.29724">
        <ele>31.2</ele>
        <time>2017-08-15T06:16:47Z</time>
      </trkpt>
      <trkpt lat="48.61878" lon="-2.29735">
        <ele>31.2</ele>
        <time>2017-08-15T06:16:51Z</time>
      </trkpt>
      <trkpt lat="48.61875" lon="-2.29744">
        <ele>32.2</ele>
        <time>2017-08-15T06:16:55Z</time>
      </trkpt>
      <trkpt lat="48.61872" lon="-2.29754">
        <ele>32.8</ele>
        <time>2017-08-15T06:16:59Z</time>
      </trkpt>
      <trkpt lat="48.6187" lon="-2.29764">
        <ele>33.4</ele>
        <time>2017-08-15T06:17:03Z</time>
      </trkpt>
      <trkpt lat="48.61868" lon="-2.29774">
        <ele>34</ele>
        <time>2017-08-15T06:17:07Z</time>
      </trkpt>
      <trkpt lat="48.61868" lon="-2.29785">
        <ele>34.8</ele>
        <time>2017-08-15T06:17:11Z</time>
      </trkpt>
      <trkpt lat="48.61869" lon="-2.29795">
        <ele>35.6</ele>
        <time>2017-08-15T06:17:15Z</time>
      </trkpt>
      <trkpt lat="48.61871" lon="-2.29804">
        <ele>35.6</ele>
        <time>2017-08-15T06:17:19Z</time>
      </trkpt>
      <trkpt lat="48.61872" lon="-2.29815">
        <ele>36.4</ele>
        <time>2017-08-15T06:17:23Z</time>
      </trkpt>
      <trkpt lat="48.61874" lon="-2.29826">
        <ele>36.8</ele>
        <time>2017-08-15T06:17:27Z</time>
      </trkpt>
      <trkpt lat="48.61875" lon="-2.29837">
        <ele>37.6</ele>
        <time>2017-08-15T06:17:31Z</time>
      </trkpt>
      <trkpt lat="48.61876" lon="-2.29848">
        <ele>37.8</ele>
        <time>2017-08-15T06:17:35Z</time>
      </trkpt>
      <trkpt lat="48.61877" lon="-2.29859">
        <ele>39.2</ele>
        <time>2017-08-15T06:17:39Z</time>
      </trkpt>
      <trkpt lat="48.61878" lon="-2.2987">
        <ele>39.6</ele>
        <time>2017-08-15T06:17:43Z</time>
      </trkpt>
      <trkpt lat="48.61879" lon="-2.29881">
        <ele>39.6</ele>
        <time>2017-08-15T06:17:47Z</time>
      </trkpt>
      <trkpt lat="48.6188" lon="-2.29892">
        <ele>40.6</ele>
        <time>2017-08-15T06:17:51Z</time>
      </trkpt>
      <trkpt lat="48.61881" lon="-2.29902">
        <ele>40.6</ele>
        <time>2017-08-15T06:17:55Z</time>
      </trkpt>
      <trkpt lat="48.61882" lon="-2.29913">
        <ele>41.6</ele>
        <time>2017-08-15T06:17:59Z</time>
      </trkpt>
      <trkpt lat="48.61884" lon="-2.29924">
        <ele>41.4</ele>
        <time>2017-08-15T06:18:03Z</time>
      </trkpt>
      <trkpt lat="48.61885" lon="-2.29937">
        <ele>42.2</ele>
        <time>2017-08-15T06:18:07Z</time>
      </trkpt>
      <trkpt lat="48.61885" lon="-2.2995">
        <ele>42.4</ele>
        <time>2017-08-15T06:18:11Z</time>
      </trkpt>
      <trkpt lat="48.61881" lon="-2.29963">
        <ele>42.2</ele>
        <time>2017-08-15T06:18:15Z</time>
      </trkpt>
      <trkpt lat="48.61875" lon="-2.29976">
        <ele>42.6</ele>
        <time>2017-08-15T06:18:19Z</time>
      </trkpt>
      <trkpt lat="48.61867" lon="-2.2999">
        <ele>42.2</ele>
        <time>2017-08-15T06:18:23Z</time>
      </trkpt>
      <trkpt lat="48.61861" lon="-2.30006">
        <ele>42.6</ele>
        <time>2017-08-15T06:18:27Z</time>
      </trkpt>
      <trkpt lat="48.61853" lon="-2.30023">
        <ele>42.6</ele>
        <time>2017-08-15T06:18:31Z</time>
      </trkpt>
      <trkpt lat="48.61842" lon="-2.30025">
        <ele>42.4</ele>
        <time>2017-08-15T06:18:35Z</time>
      </trkpt>
      <trkpt lat="48.61832" lon="-2.30016">
        <ele>43.4</ele>
        <time>2017-08-15T06:18:39Z</time>
      </trkpt>
      <trkpt lat="48.61821" lon="-2.3001">
        <ele>43.4</ele>
        <time>2017-08-15T06:18:43Z</time>
      </trkpt>
      <trkpt lat="48.61805" lon="-2.30005">
        <ele>43</ele>
        <time>2017-08-15T06:18:47Z</time>
      </trkpt>
      <trkpt lat="48.61784" lon="-2.30004">
        <ele>42</ele>
        <time>2017-08-15T06:18:51Z</time>
      </trkpt>
      <trkpt lat="48.61764" lon="-2.30004">
        <ele>42.2</ele>
        <time>2017-08-15T06:18:55Z</time>
      </trkpt>
      <trkpt lat="48.61748" lon="-2.30006">
        <ele>40.6</ele>
        <time>2017-08-15T06:18:59Z</time>
      </trkpt>
      <trkpt lat="48.61733" lon="-2.30008">
        <ele>41</ele>
        <time>2017-08-15T06:19:03Z</time>
      </trkpt>
      <trkpt lat="48.61719" lon="-2.30007">
        <ele>40.8</ele>
        <time>2017-08-15T06:19:07Z</time>
      </trkpt>
      <trkpt lat="48.61706" lon="-2.30005">
        <ele>41.6</ele>
        <time>2017-08-15T06:19:11Z</time>
      </trkpt>
      <trkpt lat="48.61692" lon="-2.30003">
        <ele>41.8</ele>
        <time>2017-08-15T06:19:15Z</time>
      </trkpt>
      <trkpt lat="48.61679" lon="-2.30002">
        <ele>42.4</ele>
        <time>2017-08-15T06:19:19Z</time>
      </trkpt>
      <trkpt lat="48.61667" lon="-2.3">
        <ele>42.8</ele>
        <time>2017-08-15T06:19:23Z</time>
      </trkpt>
      <trkpt lat="48.61655" lon="-2.29999">
        <ele>43.2</ele>
        <time>2017-08-15T06:19:27Z</time>
      </trkpt>
      <trkpt lat="48.61642" lon="-2.29998">
        <ele>43.2</ele>
        <time>2017-08-15T06:19:31Z</time>
      </trkpt>
      <trkpt lat="48.61628" lon="-2.29996">
        <ele>44</ele>
        <time>2017-08-15T06:19:35Z</time>
      </trkpt>
      <trkpt lat="48.61617" lon="-2.29995">
        <ele>44.6</ele>
        <time>2017-08-15T06:19:39Z</time>
      </trkpt>
      <trkpt lat="48.61609" lon="-2.29994">
        <ele>45</ele>
        <time>2017-08-15T06:19:43Z</time>
      </trkpt>
      <trkpt lat="48.61607" lon="-2.29977">
        <ele>44.2</ele>
        <time>2017-08-15T06:19:47Z</time>
      </trkpt>
      <trkpt lat="48.61608" lon="-2.29953">
        <ele>43.4</ele>
        <time>2017-08-15T06:19:51Z</time>
      </trkpt>
      <trkpt lat="48.61604" lon="-2.29917">
        <ele>41.8</ele>
        <time>2017-08-15T06:19:55Z</time>
      </trkpt>
      <trkpt lat="48.61599" lon="-2.29887">
        <ele>41</ele>
        <time>2017-08-15T06:19:59Z</time>
      </trkpt>
      <trkpt lat="48.61594" lon="-2.29853">
        <ele>40</ele>
        <time>2017-08-15T06:20:03Z</time>
      </trkpt>
      <trkpt lat="48.61586" lon="-2.29813">
        <ele>38.8</ele>
        <time>2017-08-15T06:20:07Z</time>
      </trkpt>
      <trkpt lat="48.61582" lon="-2.29776">
        <ele>38.4</ele>
        <time>2017-08-15T06:20:11Z</time>
      </trkpt>
      <trkpt lat="48.61579" lon="-2.29738">
        <ele>36.2</ele>
        <time>2017-08-15T06:20:15Z</time>
      </trkpt>
      <trkpt lat="48.61577" lon="-2.29703">
        <ele>34.2</ele>
        <time>2017-08-15T06:20:19Z</time>
      </trkpt>
      <trkpt lat="48.61575" lon="-2.2966">
        <ele>33</ele>
        <time>2017-08-15T06:20:23Z</time>
      </trkpt>
      <trkpt lat="48.61573" lon="-2.29613">
        <ele>31.4</ele>
        <time>2017-08-15T06:20:27Z</time>
      </trkpt>
      <trkpt lat="48.61568" lon="-2.29558">
        <ele>28.8</ele>
        <time>2017-08-15T06:20:31Z</time>
      </trkpt>
      <trkpt lat="48.61566" lon="-2.29508">
        <ele>26.4</ele>
        <time>2017-08-15T06:20:35Z</time>
      </trkpt>
      <trkpt lat="48.6158" lon="-2.29479">
        <ele>24</ele>
        <time>2017-08-15T06:20:39Z</time>
      </trkpt>
      <trkpt lat="48.61606" lon="-2.29461">
        <ele>21.2</ele>
        <time>2017-08-15T06:20:43Z</time>
      </trkpt>
      <trkpt lat="48.61632" lon="-2.2946">
        <ele>18.6</ele>
        <time>2017-08-15T06:20:47Z</time>
      </trkpt>
      <trkpt lat="48.61654" lon="-2.29461">
        <ele>11.8</ele>
        <time>2017-08-15T06:20:51Z</time>
      </trkpt>
      <trkpt lat="48.61675" lon="-2.2947">
        <ele>10.2</ele>
        <time>2017-08-15T06:20:55Z</time>
      </trkpt>
      <trkpt lat="48.61696" lon="-2.29479">
        <ele>8.8</ele>
        <time>2017-08-15T06:20:59Z</time>
      </trkpt>
      <trkpt lat="48.61723" lon="-2.29496">
        <ele>8</ele>
        <time>2017-08-15T06:21:03Z</time>
      </trkpt>
      <trkpt lat="48.61737" lon="-2.295">
        <ele>8.4</ele>
        <time>2017-08-15T06:21:07Z</time>
      </trkpt>
      <trkpt lat="48.61761" lon="-2.29506">
        <ele>7.6</ele>
        <time>2017-08-15T06:21:11Z</time>
      </trkpt>
      <trkpt lat="48.61782" lon="-2.29512">
        <ele>7.6</ele>
        <time>2017-08-15T06:21:15Z</time>
      </trkpt>
      <trkpt lat="48.61805" lon="-2.29517">
        <ele>7.8</ele>
        <time>2017-08-15T06:21:19Z</time>
      </trkpt>
      <trkpt lat="48.61821" lon="-2.2952">
        <ele>7.4</ele>
        <time>2017-08-15T06:21:23Z</time>
      </trkpt>
      <trkpt lat="48.61841" lon="-2.29521">
        <ele>7.6</ele>
        <time>2017-08-15T06:21:27Z</time>
      </trkpt>
      <trkpt lat="48.61857" lon="-2.29519">
        <ele>7.8</ele>
        <time>2017-08-15T06:21:31Z</time>
      </trkpt>
      <trkpt lat="48.6187" lon="-2.29524">
        <ele>7.6</ele>
        <time>2017-08-15T06:21:35Z</time>
      </trkpt>
      <trkpt lat="48.61884" lon="-2.29514">
        <ele>6.8</ele>
        <time>2017-08-15T06:21:39Z</time>
      </trkpt>
      <trkpt lat="48.61888" lon="-2.29495">
        <ele>5.8</ele>
        <time>2017-08-15T06:21:43Z</time>
      </trkpt>
      <trkpt lat="48.61898" lon="-2.29476">
        <ele>5</ele>
        <time>2017-08-15T06:21:47Z</time>
      </trkpt>
      <trkpt lat="48.61911" lon="-2.29478">
        <ele>2.8</ele>
        <time>2017-08-15T06:21:51Z</time>
      </trkpt>
      <trkpt lat="48.61926" lon="-2.29474">
        <ele>8.9</ele>
        <time>2017-08-15T06:21:55Z</time>
      </trkpt>
      <trkpt lat="48.61935" lon="-2.29469">
        <ele>1.8</ele>
        <time>2017-08-15T06:21:59Z</time>
      </trkpt>
      <trkpt lat="48.61943" lon="-2.29464">
        <ele>2.2</ele>
        <time>2017-08-15T06:22:03Z</time>
      </trkpt>
      <trkpt lat="48.6195" lon="-2.29452">
        <ele>2.8</ele>
        <time>2017-08-15T06:22:07Z</time>
      </trkpt>
      <trkpt lat="48.61955" lon="-2.29441">
        <ele>3.8</ele>
        <time>2017-08-15T06:22:11Z</time>
      </trkpt>
      <trkpt lat="48.61961" lon="-2.2943">
        <ele>4</ele>
        <time>2017-08-15T06:22:15Z</time>
      </trkpt>
      <trkpt lat="48.61967" lon="-2.29413">
        <ele>4.4</ele>
        <time>2017-08-15T06:22:19Z</time>
      </trkpt>
      <trkpt lat="48.61973" lon="-2.29398">
        <ele>4</ele>
        <time>2017-08-15T06:22:23Z</time>
      </trkpt>
      <trkpt lat="48.61976" lon="-2.29383">
        <ele>4.8</ele>
        <time>2017-08-15T06:22:27Z</time>
      </trkpt>
      <trkpt lat="48.61976" lon="-2.29369">
        <ele>5.6</ele>
        <time>2017-08-15T06:22:31Z</time>
      </trkpt>
      <trkpt lat="48.6198" lon="-2.29355">
        <ele>6.2</ele>
        <time>2017-08-15T06:22:35Z</time>
      </trkpt>
      <trkpt lat="48.61981" lon="-2.29339">
        <ele>6.6</ele>
        <time>2017-08-15T06:22:39Z</time>
      </trkpt>
      <trkpt lat="48.61975" lon="-2.29328">
        <ele>7</ele>
        <time>2017-08-15T06:22:43Z</time>
      </trkpt>
      <trkpt lat="48.61969" lon="-2.29332">
        <ele>7.8</ele>
        <time>2017-08-15T06:22:47Z</time>
      </trkpt>
      <trkpt lat="48.61964" lon="-2.29339">
        <ele>8.8</ele>
        <time>2017-08-15T06:22:51Z</time>
      </trkpt>
      <trkpt lat="48.61963" lon="-2.29348">
        <ele>10</ele>
        <time>2017-08-15T06:22:55Z</time>
      </trkpt>
      <trkpt lat="48.61959" lon="-2.29354">
        <ele>11.2</ele>
        <time>2017-08-15T06:22:59Z</time>
      </trkpt>
      <trkpt lat="48.61953" lon="-2.29364">
        <ele>12.8</ele>
        <time>2017-08-15T06:23:03Z</time>
      </trkpt>
      <trkpt lat="48.61949" lon="-2.29374">
        <ele>13.4</ele>
        <time>2017-08-15T06:23:07Z</time>
      </trkpt>
      <trkpt lat="48.61943" lon="-2.29382">
        <ele>13.8</ele>
        <time>2017-08-15T06:23:11Z</time>
      </trkpt>
      <trkpt lat="48.61938" lon="-2.29389">
        <ele>15.2</ele>
        <time>2017-08-15T06:23:15Z</time>
      </trkpt>
      <trkpt lat="48.61935" lon="-2.29394">
        <ele>15.4</ele>
        <time>2017-08-15T06:23:19Z</time>
      </trkpt>
      <trkpt lat="48.6193" lon="-2.29398">
        <ele>16.4</ele>
        <time>2017-08-15T06:23:23Z</time>
      </trkpt>
      <trkpt lat="48.61927" lon="-2.29398">
        <ele>17.6</ele>
        <time>2017-08-15T06:23:27Z</time>
      </trkpt>
      <trkpt lat="48.6192" lon="-2.29399">
        <ele>18.2</ele>
        <time>2017-08-15T06:23:31Z</time>
      </trkpt>
      <trkpt lat="48.6191" lon="-2.29399">
        <ele>19.8</ele>
        <time>2017-08-15T06:23:35Z</time>
      </trkpt>
      <trkpt lat="48.61903" lon="-2.29398">
        <ele>20.2</ele>
        <time>2017-08-15T06:23:39Z</time>
      </trkpt>
      <trkpt lat="48.61896" lon="-2.29397">
        <ele>21.2</ele>
        <time>2017-08-15T06:23:43Z</time>
      </trkpt>
      <trkpt lat="48.61889" lon="-2.29396">
        <ele>22.2</ele>
        <time>2017-08-15T06:23:47Z</time>
      </trkpt>
      <trkpt lat="48.61883" lon="-2.29394">
        <ele>23.6</ele>
        <time>2017-08-15T06:23:51Z</time>
      </trkpt>
      <trkpt lat="48.61878" lon="-2.29393">
        <ele>23.8</ele>
        <time>2017-08-15T06:23:55Z</time>
      </trkpt>
      <trkpt lat="48.61871" lon="-2.29392">
        <ele>24.6</ele>
        <time>2017-08-15T06:23:59Z</time>
      </trkpt>
      <trkpt lat="48.61866" lon="-2.29388">
        <ele>26</ele>
        <time>2017-08-15T06:24:03Z</time>
      </trkpt>
      <trkpt lat="48.61858" lon="-2.29386">
        <ele>26.4</ele>
        <time>2017-08-15T06:24:07Z</time>
      </trkpt>
      <trkpt lat="48.61852" lon="-2.29381">
        <ele>26.8</ele>
        <time>2017-08-15T06:24:11Z</time>
      </trkpt>
      <trkpt lat="48.61845" lon="-2.29373">
        <ele>28.8</ele>
        <time>2017-08-15T06:24:15Z</time>
      </trkpt>
      <trkpt lat="48.61841" lon="-2.29369">
        <ele>29.8</ele>
        <time>2017-08-15T06:24:19Z</time>
      </trkpt>
      <trkpt lat="48.61838" lon="-2.29362">
        <ele>31.2</ele>
        <time>2017-08-15T06:24:23Z</time>
      </trkpt>
      <trkpt lat="48.61835" lon="-2.29354">
        <ele>32.8</ele>
        <time>2017-08-15T06:24:27Z</time>
      </trkpt>
      <trkpt lat="48.61832" lon="-2.29345">
        <ele>34</ele>
        <time>2017-08-15T06:24:31Z</time>
      </trkpt>
      <trkpt lat="48.6183" lon="-2.29337">
        <ele>34.6</ele>
        <time>2017-08-15T06:24:35Z</time>
      </trkpt>
      <trkpt lat="48.61828" lon="-2.29329">
        <ele>35.4</ele>
        <time>2017-08-15T06:24:39Z</time>
      </trkpt>
      <trkpt lat="48.61824" lon="-2.29321">
        <ele>36</ele>
        <time>2017-08-15T06:24:43Z</time>
      </trkpt>
      <trkpt lat="48.6182" lon="-2.29313">
        <ele>37</ele>
        <time>2017-08-15T06:24:47Z</time>
      </trkpt>
      <trkpt lat="48.61816" lon="-2.29305">
        <ele>37.6</ele>
        <time>2017-08-15T06:24:51Z</time>
      </trkpt>
      <trkpt lat="48.61809" lon="-2.29297">
        <ele>38.4</ele>
        <time>2017-08-15T06:24:55Z</time>
      </trkpt>
      <trkpt lat="48.61804" lon="-2.29287">
        <ele>38.4</ele>
        <time>2017-08-15T06:24:59Z</time>
      </trkpt>
      <trkpt lat="48.61799" lon="-2.29277">
        <ele>39.4</ele>
        <time>2017-08-15T06:25:03Z</time>
      </trkpt>
      <trkpt lat="48.61795" lon="-2.29268">
        <ele>39.4</ele>
        <time>2017-08-15T06:25:07Z</time>
      </trkpt>
      <trkpt lat="48.61789" lon="-2.2926">
        <ele>40.4</ele>
        <time>2017-08-15T06:25:11Z</time>
      </trkpt>
      <trkpt lat="48.61782" lon="-2.2925">
        <ele>39.8</ele>
        <time>2017-08-15T06:25:15Z</time>
      </trkpt>
      <trkpt lat="48.61776" lon="-2.29239">
        <ele>40</ele>
        <time>2017-08-15T06:25:19Z</time>
      </trkpt>
      <trkpt lat="48.61771" lon="-2.29227">
        <ele>40.6</ele>
        <time>2017-08-15T06:25:23Z</time>
      </trkpt>
      <trkpt lat="48.61762" lon="-2.29219">
        <ele>41</ele>
        <time>2017-08-15T06:25:27Z</time>
      </trkpt>
      <trkpt lat="48.61752" lon="-2.29205">
        <ele>40.6</ele>
        <time>2017-08-15T06:25:31Z</time>
      </trkpt>
      <trkpt lat="48.6174" lon="-2.29191">
        <ele>40</ele>
        <time>2017-08-15T06:25:35Z</time>
      </trkpt>
      <trkpt lat="48.61732" lon="-2.29168">
        <ele>38.6</ele>
        <time>2017-08-15T06:25:39Z</time>
      </trkpt>
      <trkpt lat="48.6172" lon="-2.29144">
        <ele>37.6</ele>
        <time>2017-08-15T06:25:43Z</time>
      </trkpt>
      <trkpt lat="48.61704" lon="-2.29125">
        <ele>37.4</ele>
        <time>2017-08-15T06:25:47Z</time>
      </trkpt>
      <trkpt lat="48.617" lon="-2.29101">
        <ele>37.2</ele>
        <time>2017-08-15T06:25:51Z</time>
      </trkpt>
      <trkpt lat="48.61706" lon="-2.29089">
        <ele>38</ele>
        <time>2017-08-15T06:25:55Z</time>
      </trkpt>
      <trkpt lat="48.61713" lon="-2.29081">
        <ele>39</ele>
        <time>2017-08-15T06:25:59Z</time>
      </trkpt>
      <trkpt lat="48.61721" lon="-2.29075">
        <ele>39.6</ele>
        <time>2017-08-15T06:26:03Z</time>
      </trkpt>
      <trkpt lat="48.61729" lon="-2.2907">
        <ele>40.2</ele>
        <time>2017-08-15T06:26:07Z</time>
      </trkpt>
      <trkpt lat="48.61739" lon="-2.29067">
        <ele>41.4</ele>
        <time>2017-08-15T06:26:11Z</time>
      </trkpt>
      <trkpt lat="48.6175" lon="-2.2906">
        <ele>41.6</ele>
        <time>2017-08-15T06:26:15Z</time>
      </trkpt>
      <trkpt lat="48.61761" lon="-2.29051">
        <ele>42.8</ele>
        <time>2017-08-15T06:26:19Z</time>
      </trkpt>
      <trkpt lat="48.61769" lon="-2.29039">
        <ele>42.6</ele>
        <time>2017-08-15T06:26:23Z</time>
      </trkpt>
      <trkpt lat="48.61778" lon="-2.29029">
        <ele>43.4</ele>
        <time>2017-08-15T06:26:27Z</time>
      </trkpt>
      <trkpt lat="48.61787" lon="-2.29019">
        <ele>43.2</ele>
        <time>2017-08-15T06:26:31Z</time>
      </trkpt>
      <trkpt lat="48.61795" lon="-2.2901">
        <ele>43.2</ele>
        <time>2017-08-15T06:26:35Z</time>
      </trkpt>
      <trkpt lat="48.61803" lon="-2.28999">
        <ele>44</ele>
        <time>2017-08-15T06:26:39Z</time>
      </trkpt>
      <trkpt lat="48.61809" lon="-2.2899">
        <ele>44.4</ele>
        <time>2017-08-15T06:26:43Z</time>
      </trkpt>
      <trkpt lat="48.61816" lon="-2.28981">
        <ele>45</ele>
        <time>2017-08-15T06:26:47Z</time>
      </trkpt>
      <trkpt lat="48.61821" lon="-2.28971">
        <ele>45.6</ele>
        <time>2017-08-15T06:26:51Z</time>
      </trkpt>
      <trkpt lat="48.61825" lon="-2.28959">
        <ele>46</ele>
        <time>2017-08-15T06:26:55Z</time>
      </trkpt>
      <trkpt lat="48.61829" lon="-2.28948">
        <ele>46.6</ele>
        <time>2017-08-15T06:26:59Z</time>
      </trkpt>
      <trkpt lat="48.61832" lon="-2.28938">
        <ele>47.4</ele>
        <time>2017-08-15T06:27:03Z</time>
      </trkpt>
      <trkpt lat="48.61833" lon="-2.28924">
        <ele>47</ele>
        <time>2017-08-15T06:27:07Z</time>
      </trkpt>
      <trkpt lat="48.61828" lon="-2.28906">
        <ele>47.2</ele>
        <time>2017-08-15T06:27:11Z</time>
      </trkpt>
      <trkpt lat="48.61828" lon="-2.28885">
        <ele>46.8</ele>
        <time>2017-08-15T06:27:15Z</time>
      </trkpt>
      <trkpt lat="48.61829" lon="-2.28864">
        <ele>47.4</ele>
        <time>2017-08-15T06:27:19Z</time>
      </trkpt>
      <trkpt lat="48.6183" lon="-2.28841">
        <ele>47.4</ele>
        <time>2017-08-15T06:27:23Z</time>
      </trkpt>
      <trkpt lat="48.6183" lon="-2.28814">
        <ele>47</ele>
        <time>2017-08-15T06:27:27Z</time>
      </trkpt>
      <trkpt lat="48.61829" lon="-2.28784">
        <ele>46.2</ele>
        <time>2017-08-15T06:27:31Z</time>
      </trkpt>
      <trkpt lat="48.61827" lon="-2.2875">
        <ele>45.6</ele>
        <time>2017-08-15T06:27:35Z</time>
      </trkpt>
      <trkpt lat="48.61827" lon="-2.28722">
        <ele>44</ele>
        <time>2017-08-15T06:27:39Z</time>
      </trkpt>
      <trkpt lat="48.61832" lon="-2.28703">
        <ele>43.2</ele>
        <time>2017-08-15T06:27:43Z</time>
      </trkpt>
      <trkpt lat="48.61843" lon="-2.28687">
        <ele>43.6</ele>
        <time>2017-08-15T06:27:47Z</time>
      </trkpt>
      <trkpt lat="48.61856" lon="-2.28675">
        <ele>44.4</ele>
        <time>2017-08-15T06:27:51Z</time>
      </trkpt>
      <trkpt lat="48.61871" lon="-2.28664">
        <ele>44</ele>
        <time>2017-08-15T06:27:55Z</time>
      </trkpt>
      <trkpt lat="48.61888" lon="-2.28652">
        <ele>44.4</ele>
        <time>2017-08-15T06:27:59Z</time>
      </trkpt>
      <trkpt lat="48.61907" lon="-2.28637">
        <ele>44</ele>
        <time>2017-08-15T06:28:03Z</time>
      </trkpt>
      <trkpt lat="48.61925" lon="-2.2862">
        <ele>44.2</ele>
        <time>2017-08-15T06:28:07Z</time>
      </trkpt>
      <trkpt lat="48.61945" lon="-2.28605">
        <ele>43.8</ele>
        <time>2017-08-15T06:28:11Z</time>
      </trkpt>
      <trkpt lat="48.61966" lon="-2.28592">
        <ele>44</ele>
        <time>2017-08-15T06:28:15Z</time>
      </trkpt>
      <trkpt lat="48.61988" lon="-2.28585">
        <ele>43.6</ele>
        <time>2017-08-15T06:28:19Z</time>
      </trkpt>
      <trkpt lat="48.62009" lon="-2.28578">
        <ele>44.4</ele>
        <time>2017-08-15T06:28:23Z</time>
      </trkpt>
      <trkpt lat="48.62028" lon="-2.28565">
        <ele>44</ele>
        <time>2017-08-15T06:28:27Z</time>
      </trkpt>
      <trkpt lat="48.62045" lon="-2.28543">
        <ele>43.2</ele>
        <time>2017-08-15T06:28:31Z</time>
      </trkpt>
      <trkpt lat="48.62058" lon="-2.28516">
        <ele>43</ele>
        <time>2017-08-15T06:28:35Z</time>
      </trkpt>
      <trkpt lat="48.62067" lon="-2.28484">
        <ele>42.2</ele>
        <time>2017-08-15T06:28:39Z</time>
      </trkpt>
      <trkpt lat="48.62073" lon="-2.28448">
        <ele>41.8</ele>
        <time>2017-08-15T06:28:43Z</time>
      </trkpt>
      <trkpt lat="48.62079" lon="-2.2841">
        <ele>40.8</ele>
        <time>2017-08-15T06:28:47Z</time>
      </trkpt>
      <trkpt lat="48.62085" lon="-2.28366">
        <ele>39.6</ele>
        <time>2017-08-15T06:28:51Z</time>
      </trkpt>
      <trkpt lat="48.62087" lon="-2.28321">
        <ele>38.8</ele>
        <time>2017-08-15T06:28:55Z</time>
      </trkpt>
      <trkpt lat="48.62085" lon="-2.28271">
        <ele>38</ele>
        <time>2017-08-15T06:28:59Z</time>
      </trkpt>
      <trkpt lat="48.62082" lon="-2.28215">
        <ele>36</ele>
        <time>2017-08-15T06:29:03Z</time>
      </trkpt>
      <trkpt lat="48.62077" lon="-2.28159">
        <ele>33.4</ele>
        <time>2017-08-15T06:29:07Z</time>
      </trkpt>
      <trkpt lat="48.62071" lon="-2.28118">
        <ele>31.8</ele>
        <time>2017-08-15T06:29:11Z</time>
      </trkpt>
      <trkpt lat="48.62068" lon="-2.28079">
        <ele>30.8</ele>
        <time>2017-08-15T06:29:15Z</time>
      </trkpt>
      <trkpt lat="48.62055" lon="-2.28035">
        <ele>29.2</ele>
        <time>2017-08-15T06:29:19Z</time>
      </trkpt>
      <trkpt lat="48.62037" lon="-2.2799">
        <ele>27.8</ele>
        <time>2017-08-15T06:29:23Z</time>
      </trkpt>
      <trkpt lat="48.62029" lon="-2.27943">
        <ele>27</ele>
        <time>2017-08-15T06:29:27Z</time>
      </trkpt>
      <trkpt lat="48.62033" lon="-2.279">
        <ele>26.8</ele>
        <time>2017-08-15T06:29:31Z</time>
      </trkpt>
      <trkpt lat="48.62039" lon="-2.27876">
        <ele>26.8</ele>
        <time>2017-08-15T06:29:35Z</time>
      </trkpt>
      <trkpt lat="48.62055" lon="-2.27875">
        <ele>27</ele>
        <time>2017-08-15T06:29:39Z</time>
      </trkpt>
      <trkpt lat="48.62067" lon="-2.2788">
        <ele>26</ele>
        <time>2017-08-15T06:29:43Z</time>
      </trkpt>
      <trkpt lat="48.62081" lon="-2.27883">
        <ele>27</ele>
        <time>2017-08-15T06:29:47Z</time>
      </trkpt>
      <trkpt lat="48.62096" lon="-2.2789">
        <ele>26</ele>
        <time>2017-08-15T06:29:51Z</time>
      </trkpt>
      <trkpt lat="48.62113" lon="-2.27897">
        <ele>25.6</ele>
        <time>2017-08-15T06:29:55Z</time>
      </trkpt>
      <trkpt lat="48.62132" lon="-2.27905">
        <ele>25.4</ele>
        <time>2017-08-15T06:29:59Z</time>
      </trkpt>
      <trkpt lat="48.62148" lon="-2.27909">
        <ele>25.4</ele>
        <time>2017-08-15T06:30:03Z</time>
      </trkpt>
      <trkpt lat="48.62164" lon="-2.27912">
        <ele>24.6</ele>
        <time>2017-08-15T06:30:07Z</time>
      </trkpt>
      <trkpt lat="48.6218" lon="-2.27913">
        <ele>24.2</ele>
        <time>2017-08-15T06:30:11Z</time>
      </trkpt>
      <trkpt lat="48.62193" lon="-2.27905">
        <ele>23.8</ele>
        <time>2017-08-15T06:30:15Z</time>
      </trkpt>
      <trkpt lat="48.62205" lon="-2.27889">
        <ele>22.8</ele>
        <time>2017-08-15T06:30:19Z</time>
      </trkpt>
      <trkpt lat="48.62216" lon="-2.27872">
        <ele>23</ele>
        <time>2017-08-15T06:30:23Z</time>
      </trkpt>
      <trkpt lat="48.62224" lon="-2.27864">
        <ele>23.6</ele>
        <time>2017-08-15T06:30:27Z</time>
      </trkpt>
      <trkpt lat="48.6224" lon="-2.27864">
        <ele>23.8</ele>
        <time>2017-08-15T06:30:31Z</time>
      </trkpt>
      <trkpt lat="48.62253" lon="-2.2786">
        <ele>22.8</ele>
        <time>2017-08-15T06:30:35Z</time>
      </trkpt>
      <trkpt lat="48.62267" lon="-2.27853">
        <ele>23.4</ele>
        <time>2017-08-15T06:30:39Z</time>
      </trkpt>
      <trkpt lat="48.6228" lon="-2.27843">
        <ele>23</ele>
        <time>2017-08-15T06:30:43Z</time>
      </trkpt>
      <trkpt lat="48.62287" lon="-2.27838">
        <ele>23.6</ele>
        <time>2017-08-15T06:30:47Z</time>
      </trkpt>
      <trkpt lat="48.62304" lon="-2.27837">
        <ele>21.4</ele>
        <time>2017-08-15T06:30:51Z</time>
      </trkpt>
      <trkpt lat="48.62317" lon="-2.27836">
        <ele>21.6</ele>
        <time>2017-08-15T06:30:55Z</time>
      </trkpt>
      <trkpt lat="48.62327" lon="-2.27823">
        <ele>22.2</ele>
        <time>2017-08-15T06:30:59Z</time>
      </trkpt>
      <trkpt lat="48.62339" lon="-2.27813">
        <ele>22.4</ele>
        <time>2017-08-15T06:31:03Z</time>
      </trkpt>
      <trkpt lat="48.62355" lon="-2.27803">
        <ele>22.2</ele>
        <time>2017-08-15T06:31:07Z</time>
      </trkpt>
      <trkpt lat="48.62368" lon="-2.27804">
        <ele>22.8</ele>
        <time>2017-08-15T06:31:11Z</time>
      </trkpt>
      <trkpt lat="48.62375" lon="-2.27801">
        <ele>22.4</ele>
        <time>2017-08-15T06:31:23Z</time>
      </trkpt>
      <trkpt lat="48.62381" lon="-2.27798">
        <ele>22.8</ele>
        <time>2017-08-15T06:31:27Z</time>
      </trkpt>
      <trkpt lat="48.62389" lon="-2.27796">
        <ele>24</ele>
        <time>2017-08-15T06:31:31Z</time>
      </trkpt>
      <trkpt lat="48.624" lon="-2.27796">
        <ele>24.6</ele>
        <time>2017-08-15T06:31:35Z</time>
      </trkpt>
      <trkpt lat="48.62413" lon="-2.27793">
        <ele>23.4</ele>
        <time>2017-08-15T06:31:39Z</time>
      </trkpt>
      <trkpt lat="48.62425" lon="-2.27799">
        <ele>23.2</ele>
        <time>2017-08-15T06:31:43Z</time>
      </trkpt>
      <trkpt lat="48.62437" lon="-2.27804">
        <ele>22.8</ele>
        <time>2017-08-15T06:31:47Z</time>
      </trkpt>
      <trkpt lat="48.62451" lon="-2.27803">
        <ele>23.4</ele>
        <time>2017-08-15T06:31:51Z</time>
      </trkpt>
      <trkpt lat="48.62458" lon="-2.27806">
        <ele>23</ele>
        <time>2017-08-15T06:31:55Z</time>
      </trkpt>
      <trkpt lat="48.62468" lon="-2.27809">
        <ele>23.2</ele>
        <time>2017-08-15T06:32:03Z</time>
      </trkpt>
      <trkpt lat="48.62475" lon="-2.27814">
        <ele>22.6</ele>
        <time>2017-08-15T06:32:07Z</time>
      </trkpt>
      <trkpt lat="48.62477" lon="-2.27818">
        <ele>22.2</ele>
        <time>2017-08-15T06:32:11Z</time>
      </trkpt>
      <trkpt lat="48.62483" lon="-2.27831">
        <ele>20.4</ele>
        <time>2017-08-15T06:32:15Z</time>
      </trkpt>
      <trkpt lat="48.62496" lon="-2.27836">
        <ele>19.2</ele>
        <time>2017-08-15T06:32:19Z</time>
      </trkpt>
      <trkpt lat="48.62507" lon="-2.27845">
        <ele>19</ele>
        <time>2017-08-15T06:32:23Z</time>
      </trkpt>
      <trkpt lat="48.6252" lon="-2.27862">
        <ele>17.6</ele>
        <time>2017-08-15T06:32:27Z</time>
      </trkpt>
      <trkpt lat="48.62533" lon="-2.27869">
        <ele>17.8</ele>
        <time>2017-08-15T06:32:31Z</time>
      </trkpt>
      <trkpt lat="48.62543" lon="-2.2788">
        <ele>17.8</ele>
        <time>2017-08-15T06:32:35Z</time>
      </trkpt>
      <trkpt lat="48.62555" lon="-2.27895">
        <ele>17.8</ele>
        <time>2017-08-15T06:32:39Z</time>
      </trkpt>
      <trkpt lat="48.62565" lon="-2.27908">
        <ele>18.2</ele>
        <time>2017-08-15T06:32:43Z</time>
      </trkpt>
      <trkpt lat="48.62579" lon="-2.27927">
        <ele>18.8</ele>
        <time>2017-08-15T06:32:47Z</time>
      </trkpt>
      <trkpt lat="48.62587" lon="-2.27945">
        <ele>17.8</ele>
        <time>2017-08-15T06:32:51Z</time>
      </trkpt>
      <trkpt lat="48.62596" lon="-2.27965">
        <ele>17.4</ele>
        <time>2017-08-15T06:32:55Z</time>
      </trkpt>
      <trkpt lat="48.62604" lon="-2.27992">
        <ele>17</ele>
        <time>2017-08-15T06:32:59Z</time>
      </trkpt>
      <trkpt lat="48.62612" lon="-2.2802">
        <ele>16</ele>
        <time>2017-08-15T06:33:03Z</time>
      </trkpt>
      <trkpt lat="48.62616" lon="-2.28047">
        <ele>15</ele>
        <time>2017-08-15T06:33:07Z</time>
      </trkpt>
      <trkpt lat="48.62621" lon="-2.28082">
        <ele>13.8</ele>
        <time>2017-08-15T06:33:11Z</time>
      </trkpt>
      <trkpt lat="48.62635" lon="-2.28104">
        <ele>13.6</ele>
        <time>2017-08-15T06:33:15Z</time>
      </trkpt>
      <trkpt lat="48.62645" lon="-2.28115">
        <ele>14.6</ele>
        <time>2017-08-15T06:33:19Z</time>
      </trkpt>
      <trkpt lat="48.6265" lon="-2.28132">
        <ele>13.4</ele>
        <time>2017-08-15T06:33:23Z</time>
      </trkpt>
      <trkpt lat="48.62652" lon="-2.28162">
        <ele>12.2</ele>
        <time>2017-08-15T06:33:27Z</time>
      </trkpt>
      <trkpt lat="48.62655" lon="-2.28189">
        <ele>11.4</ele>
        <time>2017-08-15T06:33:31Z</time>
      </trkpt>
      <trkpt lat="48.62658" lon="-2.28213">
        <ele>10.4</ele>
        <time>2017-08-15T06:33:35Z</time>
      </trkpt>
      <trkpt lat="48.62657" lon="-2.28236">
        <ele>10.4</ele>
        <time>2017-08-15T06:33:39Z</time>
      </trkpt>
      <trkpt lat="48.62658" lon="-2.28255">
        <ele>10.4</ele>
        <time>2017-08-15T06:33:43Z</time>
      </trkpt>
      <trkpt lat="48.62656" lon="-2.2827">
        <ele>10.2</ele>
        <time>2017-08-15T06:33:47Z</time>
      </trkpt>
      <trkpt lat="48.62652" lon="-2.2829">
        <ele>10</ele>
        <time>2017-08-15T06:33:51Z</time>
      </trkpt>
      <trkpt lat="48.62643" lon="-2.28317">
        <ele>9.4</ele>
        <time>2017-08-15T06:33:55Z</time>
      </trkpt>
      <trkpt lat="48.6264" lon="-2.28337">
        <ele>10</ele>
        <time>2017-08-15T06:33:59Z</time>
      </trkpt>
      <trkpt lat="48.62633" lon="-2.28355">
        <ele>9.4</ele>
        <time>2017-08-15T06:34:03Z</time>
      </trkpt>
      <trkpt lat="48.62624" lon="-2.28368">
        <ele>8.6</ele>
        <time>2017-08-15T06:34:07Z</time>
      </trkpt>
      <trkpt lat="48.62619" lon="-2.28392">
        <ele>8.2</ele>
        <time>2017-08-15T06:34:11Z</time>
      </trkpt>
      <trkpt lat="48.62608" lon="-2.28417">
        <ele>5.4</ele>
        <time>2017-08-15T06:34:15Z</time>
      </trkpt>
      <trkpt lat="48.62603" lon="-2.2845">
        <ele>4.2</ele>
        <time>2017-08-15T06:34:19Z</time>
      </trkpt>
      <trkpt lat="48.62604" lon="-2.2847">
        <ele>3.8</ele>
        <time>2017-08-15T06:34:23Z</time>
      </trkpt>
      <trkpt lat="48.6261" lon="-2.28491">
        <ele>2.8</ele>
        <time>2017-08-15T06:34:27Z</time>
      </trkpt>
      <trkpt lat="48.6262" lon="-2.28508">
        <ele>2.6</ele>
        <time>2017-08-15T06:34:31Z</time>
      </trkpt>
      <trkpt lat="48.62632" lon="-2.28525">
        <ele>2.2</ele>
        <time>2017-08-15T06:34:35Z</time>
      </trkpt>
      <trkpt lat="48.62643" lon="-2.28537">
        <ele>2.2</ele>
        <time>2017-08-15T06:34:39Z</time>
      </trkpt>
      <trkpt lat="48.62651" lon="-2.28553">
        <ele>1.2</ele>
        <time>2017-08-15T06:34:43Z</time>
      </trkpt>
      <trkpt lat="48.62661" lon="-2.2857">
        <ele>0.8</ele>
        <time>2017-08-15T06:34:47Z</time>
      </trkpt>
      <trkpt lat="48.62671" lon="-2.28588">
        <ele>0.8</ele>
        <time>2017-08-15T06:34:51Z</time>
      </trkpt>
      <trkpt lat="48.62676" lon="-2.28612">
        <ele>0.2</ele>
        <time>2017-08-15T06:34:55Z</time>
      </trkpt>
      <trkpt lat="48.6268" lon="-2.28632">
        <ele>-0.4</ele>
        <time>2017-08-15T06:34:59Z</time>
      </trkpt>
      <trkpt lat="48.62688" lon="-2.2865">
        <ele>-0.4</ele>
        <time>2017-08-15T06:35:03Z</time>
      </trkpt>
      <trkpt lat="48.62691" lon="-2.28672">
        <ele>-0.6</ele>
        <time>2017-08-15T06:35:07Z</time>
      </trkpt>
      <trkpt lat="48.62696" lon="-2.28691">
        <ele>-0.2</ele>
        <time>2017-08-15T06:35:11Z</time>
      </trkpt>
      <trkpt lat="48.62702" lon="-2.28705">
        <ele>-0.6</ele>
        <time>2017-08-15T06:35:15Z</time>
      </trkpt>
      <trkpt lat="48.62705" lon="-2.28719">
        <ele>-0.6</ele>
        <time>2017-08-15T06:35:19Z</time>
      </trkpt>
      <trkpt lat="48.62704" lon="-2.28723">
        <ele>-0.6</ele>
        <time>2017-08-15T06:35:23Z</time>
      </trkpt>
      <trkpt lat="48.62702" lon="-2.28728">
        <ele>-0.4</ele>
        <time>2017-08-15T06:35:31Z</time>
      </trkpt>
      <trkpt lat="48.62701" lon="-2.28733">
        <ele>-0.8</ele>
        <time>2017-08-15T06:35:35Z</time>
      </trkpt>
      <trkpt lat="48.62698" lon="-2.28739">
        <ele>0.6</ele>
        <time>2017-08-15T06:35:39Z</time>
      </trkpt>
      <trkpt lat="48.62697" lon="-2.28744">
        <ele>1.2</ele>
        <time>2017-08-15T06:35:43Z</time>
      </trkpt>
      <trkpt lat="48.62698" lon="-2.2875">
        <ele>1.8</ele>
        <time>2017-08-15T06:35:47Z</time>
      </trkpt>
      <trkpt lat="48.62697" lon="-2.28754">
        <ele>1.6</ele>
        <time>2017-08-15T06:35:51Z</time>
      </trkpt>
      <trkpt lat="48.62694" lon="-2.28758">
        <ele>1.2</ele>
        <time>2017-08-15T06:35:55Z</time>
      </trkpt>
      <trkpt lat="48.62691" lon="-2.28756">
        <ele>2.4</ele>
        <time>2017-08-15T06:35:59Z</time>
      </trkpt>
      <trkpt lat="48.62692" lon="-2.2875">
        <ele>2.6</ele>
        <time>2017-08-15T06:36:03Z</time>
      </trkpt>
      <trkpt lat="48.62697" lon="-2.28757">
        <ele>2</ele>
        <time>2017-08-15T06:36:07Z</time>
      </trkpt>
      <trkpt lat="48.62702" lon="-2.28766">
        <ele>2.4</ele>
        <time>2017-08-15T06:36:11Z</time>
      </trkpt>
      <trkpt lat="48.62706" lon="-2.28776">
        <ele>1.4</ele>
        <time>2017-08-15T06:36:15Z</time>
      </trkpt>
      <trkpt lat="48.6271" lon="-2.28784">
        <ele>1</ele>
        <time>2017-08-15T06:36:19Z</time>
      </trkpt>
      <trkpt lat="48.62706" lon="-2.28784">
        <ele>0.4</ele>
        <time>2017-08-15T06:36:23Z</time>
      </trkpt>
      <trkpt lat="48.62704" lon="-2.28772">
        <ele>1.2</ele>
        <time>2017-08-15T06:36:27Z</time>
      </trkpt>
      <trkpt lat="48.62699" lon="-2.28759">
        <ele>1.6</ele>
        <time>2017-08-15T06:36:31Z</time>
      </trkpt>
      <trkpt lat="48.62692" lon="-2.28749">
        <ele>1.8</ele>
        <time>2017-08-15T06:36:35Z</time>
      </trkpt>
      <trkpt lat="48.62685" lon="-2.28736">
        <ele>4.2</ele>
        <time>2017-08-15T06:36:39Z</time>
      </trkpt>
      <trkpt lat="48.62679" lon="-2.28727">
        <ele>4.2</ele>
        <time>2017-08-15T06:36:43Z</time>
      </trkpt>
      <trkpt lat="48.62673" lon="-2.28721">
        <ele>6.6</ele>
        <time>2017-08-15T06:36:47Z</time>
      </trkpt>
      <trkpt lat="48.62665" lon="-2.28715">
        <ele>7.2</ele>
        <time>2017-08-15T06:36:51Z</time>
      </trkpt>
      <trkpt lat="48.62658" lon="-2.28711">
        <ele>8.4</ele>
        <time>2017-08-15T06:36:55Z</time>
      </trkpt>
      <trkpt lat="48.62651" lon="-2.28707">
        <ele>8.8</ele>
        <time>2017-08-15T06:36:59Z</time>
      </trkpt>
      <trkpt lat="48.62641" lon="-2.28703">
        <ele>9.2</ele>
        <time>2017-08-15T06:37:03Z</time>
      </trkpt>
      <trkpt lat="48.62631" lon="-2.287">
        <ele>10.8</ele>
        <time>2017-08-15T06:37:07Z</time>
      </trkpt>
      <trkpt lat="48.62621" lon="-2.28697">
        <ele>11.4</ele>
        <time>2017-08-15T06:37:11Z</time>
      </trkpt>
      <trkpt lat="48.62613" lon="-2.28695">
        <ele>12.8</ele>
        <time>2017-08-15T06:37:15Z</time>
      </trkpt>
      <trkpt lat="48.62603" lon="-2.287">
        <ele>14</ele>
        <time>2017-08-15T06:37:19Z</time>
      </trkpt>
      <trkpt lat="48.62597" lon="-2.28706">
        <ele>14.8</ele>
        <time>2017-08-15T06:37:23Z</time>
      </trkpt>
      <trkpt lat="48.62592" lon="-2.28716">
        <ele>15.8</ele>
        <time>2017-08-15T06:37:27Z</time>
      </trkpt>
      <trkpt lat="48.62584" lon="-2.28724">
        <ele>16.8</ele>
        <time>2017-08-15T06:37:31Z</time>
      </trkpt>
      <trkpt lat="48.62577" lon="-2.2873">
        <ele>17.4</ele>
        <time>2017-08-15T06:37:35Z</time>
      </trkpt>
      <trkpt lat="48.62571" lon="-2.28738">
        <ele>18.8</ele>
        <time>2017-08-15T06:37:39Z</time>
      </trkpt>
      <trkpt lat="48.62567" lon="-2.28749">
        <ele>19.8</ele>
        <time>2017-08-15T06:37:43Z</time>
      </trkpt>
      <trkpt lat="48.62556" lon="-2.28759">
        <ele>20.2</ele>
        <time>2017-08-15T06:37:47Z</time>
      </trkpt>
      <trkpt lat="48.62547" lon="-2.28761">
        <ele>21.2</ele>
        <time>2017-08-15T06:37:51Z</time>
      </trkpt>
      <trkpt lat="48.6254" lon="-2.28768">
        <ele>21.8</ele>
        <time>2017-08-15T06:37:55Z</time>
      </trkpt>
      <trkpt lat="48.62534" lon="-2.28764">
        <ele>22.8</ele>
        <time>2017-08-15T06:37:59Z</time>
      </trkpt>
      <trkpt lat="48.62529" lon="-2.28754">
        <ele>23.8</ele>
        <time>2017-08-15T06:38:03Z</time>
      </trkpt>
      <trkpt lat="48.62527" lon="-2.28745">
        <ele>25.2</ele>
        <time>2017-08-15T06:38:07Z</time>
      </trkpt>
      <trkpt lat="48.62527" lon="-2.28735">
        <ele>26</ele>
        <time>2017-08-15T06:38:11Z</time>
      </trkpt>
      <trkpt lat="48.62527" lon="-2.28721">
        <ele>26.2</ele>
        <time>2017-08-15T06:38:15Z</time>
      </trkpt>
      <trkpt lat="48.62524" lon="-2.28709">
        <ele>27.2</ele>
        <time>2017-08-15T06:38:19Z</time>
      </trkpt>
      <trkpt lat="48.62518" lon="-2.28697">
        <ele>28.6</ele>
        <time>2017-08-15T06:38:23Z</time>
      </trkpt>
      <trkpt lat="48.62509" lon="-2.28692">
        <ele>29.8</ele>
        <time>2017-08-15T06:38:27Z</time>
      </trkpt>
      <trkpt lat="48.625" lon="-2.28695">
        <ele>30.8</ele>
        <time>2017-08-15T06:38:31Z</time>
      </trkpt>
      <trkpt lat="48.62491" lon="-2.28702">
        <ele>31.4</ele>
        <time>2017-08-15T06:38:35Z</time>
      </trkpt>
      <trkpt lat="48.62484" lon="-2.2871">
        <ele>31.8</ele>
        <time>2017-08-15T06:38:39Z</time>
      </trkpt>
      <trkpt lat="48.62475" lon="-2.28718">
        <ele>32.4</ele>
        <time>2017-08-15T06:38:43Z</time>
      </trkpt>
      <trkpt lat="48.62466" lon="-2.28726">
        <ele>32.6</ele>
        <time>2017-08-15T06:38:47Z</time>
      </trkpt>
      <trkpt lat="48.62457" lon="-2.28734">
        <ele>32.8</ele>
        <time>2017-08-15T06:38:51Z</time>
      </trkpt>
      <trkpt lat="48.62448" lon="-2.2874">
        <ele>33.4</ele>
        <time>2017-08-15T06:38:55Z</time>
      </trkpt>
      <trkpt lat="48.62439" lon="-2.28744">
        <ele>34</ele>
        <time>2017-08-15T06:38:59Z</time>
      </trkpt>
      <trkpt lat="48.62427" lon="-2.28748">
        <ele>35</ele>
        <time>2017-08-15T06:39:03Z</time>
      </trkpt>
      <trkpt lat="48.62417" lon="-2.28749">
        <ele>35.2</ele>
        <time>2017-08-15T06:39:07Z</time>
      </trkpt>
      <trkpt lat="48.62405" lon="-2.28748">
        <ele>35.8</ele>
        <time>2017-08-15T06:39:11Z</time>
      </trkpt>
      <trkpt lat="48.62395" lon="-2.28743">
        <ele>36.2</ele>
        <time>2017-08-15T06:39:15Z</time>
      </trkpt>
      <trkpt lat="48.62384" lon="-2.28735">
        <ele>36.6</ele>
        <time>2017-08-15T06:39:19Z</time>
      </trkpt>
      <trkpt lat="48.62373" lon="-2.28729">
        <ele>37.2</ele>
        <time>2017-08-15T06:39:23Z</time>
      </trkpt>
      <trkpt lat="48.62363" lon="-2.28723">
        <ele>37.6</ele>
        <time>2017-08-15T06:39:27Z</time>
      </trkpt>
      <trkpt lat="48.62354" lon="-2.28716">
        <ele>38.6</ele>
        <time>2017-08-15T06:39:31Z</time>
      </trkpt>
      <trkpt lat="48.62344" lon="-2.28711">
        <ele>38.6</ele>
        <time>2017-08-15T06:39:35Z</time>
      </trkpt>
      <trkpt lat="48.62334" lon="-2.28706">
        <ele>39.4</ele>
        <time>2017-08-15T06:39:39Z</time>
      </trkpt>
      <trkpt lat="48.62324" lon="-2.28699">
        <ele>39.8</ele>
        <time>2017-08-15T06:39:43Z</time>
      </trkpt>
      <trkpt lat="48.62314" lon="-2.28692">
        <ele>40</ele>
        <time>2017-08-15T06:39:47Z</time>
      </trkpt>
      <trkpt lat="48.62304" lon="-2.28686">
        <ele>40.4</ele>
        <time>2017-08-15T06:39:51Z</time>
      </trkpt>
      <trkpt lat="48.62295" lon="-2.2868">
        <ele>41</ele>
        <time>2017-08-15T06:39:55Z</time>
      </trkpt>
      <trkpt lat="48.62285" lon="-2.28673">
        <ele>41.4</ele>
        <time>2017-08-15T06:39:59Z</time>
      </trkpt>
      <trkpt lat="48.62275" lon="-2.28666">
        <ele>41.8</ele>
        <time>2017-08-15T06:40:03Z</time>
      </trkpt>
      <trkpt lat="48.62265" lon="-2.28658">
        <ele>41.8</ele>
        <time>2017-08-15T06:40:07Z</time>
      </trkpt>
      <trkpt lat="48.62255" lon="-2.28649">
        <ele>41.8</ele>
        <time>2017-08-15T06:40:11Z</time>
      </trkpt>
      <trkpt lat="48.62242" lon="-2.28637">
        <ele>41.8</ele>
        <time>2017-08-15T06:40:15Z</time>
      </trkpt>
      <trkpt lat="48.6223" lon="-2.28625">
        <ele>42</ele>
        <time>2017-08-15T06:40:19Z</time>
      </trkpt>
      <trkpt lat="48.62218" lon="-2.28613">
        <ele>42.6</ele>
        <time>2017-08-15T06:40:23Z</time>
      </trkpt>
      <trkpt lat="48.62207" lon="-2.28599">
        <ele>42.8</ele>
        <time>2017-08-15T06:40:27Z</time>
      </trkpt>
      <trkpt lat="48.62196" lon="-2.28585">
        <ele>42.8</ele>
        <time>2017-08-15T06:40:31Z</time>
      </trkpt>
      <trkpt lat="48.62184" lon="-2.28571">
        <ele>43</ele>
        <time>2017-08-15T06:40:35Z</time>
      </trkpt>
      <trkpt lat="48.62171" lon="-2.28554">
        <ele>42.6</ele>
        <time>2017-08-15T06:40:39Z</time>
      </trkpt>
      <trkpt lat="48.62153" lon="-2.28534">
        <ele>42</ele>
        <time>2017-08-15T06:40:43Z</time>
      </trkpt>
      <trkpt lat="48.62133" lon="-2.28517">
        <ele>41.2</ele>
        <time>2017-08-15T06:40:47Z</time>
      </trkpt>
      <trkpt lat="48.6211" lon="-2.28505">
        <ele>40.6</ele>
        <time>2017-08-15T06:40:51Z</time>
      </trkpt>
      <trkpt lat="48.62085" lon="-2.28496">
        <ele>40.8</ele>
        <time>2017-08-15T06:40:55Z</time>
      </trkpt>
      <trkpt lat="48.62065" lon="-2.28509">
        <ele>40.8</ele>
        <time>2017-08-15T06:40:59Z</time>
      </trkpt>
      <trkpt lat="48.62052" lon="-2.28535">
        <ele>41</ele>
        <time>2017-08-15T06:41:03Z</time>
      </trkpt>
      <trkpt lat="48.62039" lon="-2.28559">
        <ele>42</ele>
        <time>2017-08-15T06:41:07Z</time>
      </trkpt>
      <trkpt lat="48.62021" lon="-2.28575">
        <ele>42</ele>
        <time>2017-08-15T06:41:11Z</time>
      </trkpt>
      <trkpt lat="48.62" lon="-2.28584">
        <ele>42</ele>
        <time>2017-08-15T06:41:15Z</time>
      </trkpt>
      <trkpt lat="48.61979" lon="-2.28591">
        <ele>41.8</ele>
        <time>2017-08-15T06:41:19Z</time>
      </trkpt>
      <trkpt lat="48.61957" lon="-2.28601">
        <ele>41.8</ele>
        <time>2017-08-15T06:41:23Z</time>
      </trkpt>
      <trkpt lat="48.61938" lon="-2.28615">
        <ele>42</ele>
        <time>2017-08-15T06:41:27Z</time>
      </trkpt>
      <trkpt lat="48.61919" lon="-2.2863">
        <ele>42.4</ele>
        <time>2017-08-15T06:41:31Z</time>
      </trkpt>
      <trkpt lat="48.619" lon="-2.28646">
        <ele>42.6</ele>
        <time>2017-08-15T06:41:35Z</time>
      </trkpt>
      <trkpt lat="48.61882" lon="-2.2866">
        <ele>42.8</ele>
        <time>2017-08-15T06:41:39Z</time>
      </trkpt>
      <trkpt lat="48.61863" lon="-2.28672">
        <ele>43.2</ele>
        <time>2017-08-15T06:41:43Z</time>
      </trkpt>
      <trkpt lat="48.61846" lon="-2.28689">
        <ele>43.2</ele>
        <time>2017-08-15T06:41:47Z</time>
      </trkpt>
      <trkpt lat="48.61826" lon="-2.28708">
        <ele>42.8</ele>
        <time>2017-08-15T06:41:51Z</time>
      </trkpt>
      <trkpt lat="48.61804" lon="-2.28719">
        <ele>41.8</ele>
        <time>2017-08-15T06:41:55Z</time>
      </trkpt>
      <trkpt lat="48.61783" lon="-2.28727">
        <ele>41.8</ele>
        <time>2017-08-15T06:41:59Z</time>
      </trkpt>
      <trkpt lat="48.61762" lon="-2.28736">
        <ele>41.8</ele>
        <time>2017-08-15T06:42:03Z</time>
      </trkpt>
      <trkpt lat="48.6174" lon="-2.28745">
        <ele>40.8</ele>
        <time>2017-08-15T06:42:07Z</time>
      </trkpt>
      <trkpt lat="48.61717" lon="-2.28754">
        <ele>40.8</ele>
        <time>2017-08-15T06:42:11Z</time>
      </trkpt>
      <trkpt lat="48.61697" lon="-2.28762">
        <ele>39.8</ele>
        <time>2017-08-15T06:42:15Z</time>
      </trkpt>
      <trkpt lat="48.61676" lon="-2.28772">
        <ele>39.8</ele>
        <time>2017-08-15T06:42:19Z</time>
      </trkpt>
      <trkpt lat="48.61655" lon="-2.2879">
        <ele>39.4</ele>
        <time>2017-08-15T06:42:23Z</time>
      </trkpt>
      <trkpt lat="48.61638" lon="-2.28815">
        <ele>38.6</ele>
        <time>2017-08-15T06:42:27Z</time>
      </trkpt>
      <trkpt lat="48.6163" lon="-2.28852">
        <ele>37.6</ele>
        <time>2017-08-15T06:42:31Z</time>
      </trkpt>
      <trkpt lat="48.61624" lon="-2.2889">
        <ele>36.8</ele>
        <time>2017-08-15T06:42:35Z</time>
      </trkpt>
      <trkpt lat="48.61618" lon="-2.28927">
        <ele>36.4</ele>
        <time>2017-08-15T06:42:39Z</time>
      </trkpt>
      <trkpt lat="48.61612" lon="-2.28964">
        <ele>35.4</ele>
        <time>2017-08-15T06:42:43Z</time>
      </trkpt>
      <trkpt lat="48.61604" lon="-2.29008">
        <ele>32.6</ele>
        <time>2017-08-15T06:42:47Z</time>
      </trkpt>
      <trkpt lat="48.61596" lon="-2.2906">
        <ele>30.2</ele>
        <time>2017-08-15T06:42:51Z</time>
      </trkpt>
      <trkpt lat="48.61588" lon="-2.29122">
        <ele>26.2</ele>
        <time>2017-08-15T06:42:55Z</time>
      </trkpt>
      <trkpt lat="48.61592" lon="-2.29189">
        <ele>21.8</ele>
        <time>2017-08-15T06:42:59Z</time>
      </trkpt>
      <trkpt lat="48.61592" lon="-2.29254">
        <ele>17.8</ele>
        <time>2017-08-15T06:43:03Z</time>
      </trkpt>
      <trkpt lat="48.61585" lon="-2.29306">
        <ele>12.2</ele>
        <time>2017-08-15T06:43:07Z</time>
      </trkpt>
      <trkpt lat="48.61582" lon="-2.29335">
        <ele>9.6</ele>
        <time>2017-08-15T06:43:11Z</time>
      </trkpt>
      <trkpt lat="48.61578" lon="-2.29357">
        <ele>8</ele>
        <time>2017-08-15T06:43:15Z</time>
      </trkpt>
      <trkpt lat="48.61572" lon="-2.2938">
        <ele>7</ele>
        <time>2017-08-15T06:43:19Z</time>
      </trkpt>
      <trkpt lat="48.61558" lon="-2.29396">
        <ele>6.2</ele>
        <time>2017-08-15T06:43:23Z</time>
      </trkpt>
      <trkpt lat="48.61542" lon="-2.29411">
        <ele>5.6</ele>
        <time>2017-08-15T06:43:27Z</time>
      </trkpt>
      <trkpt lat="48.61533" lon="-2.29416">
        <ele>6</ele>
        <time>2017-08-15T06:43:31Z</time>
      </trkpt>
      <trkpt lat="48.61524" lon="-2.29413">
        <ele>5.4</ele>
        <time>2017-08-15T06:43:35Z</time>
      </trkpt>
      <trkpt lat="48.61515" lon="-2.29409">
        <ele>5.6</ele>
        <time>2017-08-15T06:43:39Z</time>
      </trkpt>
      <trkpt lat="48.61501" lon="-2.29405">
        <ele>5.8</ele>
        <time>2017-08-15T06:43:43Z</time>
      </trkpt>
      <trkpt lat="48.61487" lon="-2.294">
        <ele>6</ele>
        <time>2017-08-15T06:43:47Z</time>
      </trkpt>
      <trkpt lat="48.61471" lon="-2.29391">
        <ele>6.6</ele>
        <time>2017-08-15T06:43:51Z</time>
      </trkpt>
      <trkpt lat="48.61456" lon="-2.29383">
        <ele>6.6</ele>
        <time>2017-08-15T06:43:55Z</time>
      </trkpt>
      <trkpt lat="48.61445" lon="-2.29375">
        <ele>7.6</ele>
        <time>2017-08-15T06:43:59Z</time>
      </trkpt>
      <trkpt lat="48.61434" lon="-2.29366">
        <ele>6.8</ele>
        <time>2017-08-15T06:44:03Z</time>
      </trkpt>
      <trkpt lat="48.6142" lon="-2.29356">
        <ele>7</ele>
        <time>2017-08-15T06:44:07Z</time>
      </trkpt>
      <trkpt lat="48.61404" lon="-2.29344">
        <ele>6.6</ele>
        <time>2017-08-15T06:44:11Z</time>
      </trkpt>
      <trkpt lat="48.61387" lon="-2.29336">
        <ele>6.8</ele>
        <time>2017-08-15T06:44:15Z</time>
      </trkpt>
      <trkpt lat="48.61376" lon="-2.29326">
        <ele>6.4</ele>
        <time>2017-08-15T06:44:19Z</time>
      </trkpt>
      <trkpt lat="48.61367" lon="-2.29317">
        <ele>6.4</ele>
        <time>2017-08-15T06:44:23Z</time>
      </trkpt>
      <trkpt lat="48.6136" lon="-2.29305">
        <ele>6.8</ele>
        <time>2017-08-15T06:44:27Z</time>
      </trkpt>
      <trkpt lat="48.61352" lon="-2.29295">
        <ele>6.4</ele>
        <time>2017-08-15T06:44:31Z</time>
      </trkpt>
      <trkpt lat="48.6134" lon="-2.29289">
        <ele>7</ele>
        <time>2017-08-15T06:44:35Z</time>
      </trkpt>
      <trkpt lat="48.6133" lon="-2.2928">
        <ele>7</ele>
        <time>2017-08-15T06:44:39Z</time>
      </trkpt>
      <trkpt lat="48.61316" lon="-2.29271">
        <ele>7</ele>
        <time>2017-08-15T06:44:43Z</time>
      </trkpt>
      <trkpt lat="48.61303" lon="-2.29263">
        <ele>7.2</ele>
        <time>2017-08-15T06:44:47Z</time>
      </trkpt>
      <trkpt lat="48.61294" lon="-2.29259">
        <ele>7.4</ele>
        <time>2017-08-15T06:44:51Z</time>
      </trkpt>
      <trkpt lat="48.61282" lon="-2.29254">
        <ele>7.6</ele>
        <time>2017-08-15T06:44:55Z</time>
      </trkpt>
      <trkpt lat="48.61267" lon="-2.29247">
        <ele>7.6</ele>
        <time>2017-08-15T06:44:59Z</time>
      </trkpt>
      <trkpt lat="48.61255" lon="-2.29238">
        <ele>7.8</ele>
        <time>2017-08-15T06:45:03Z</time>
      </trkpt>
      <trkpt lat="48.61242" lon="-2.29231">
        <ele>8</ele>
        <time>2017-08-15T06:45:07Z</time>
      </trkpt>
      <trkpt lat="48.61231" lon="-2.29226">
        <ele>7.8</ele>
        <time>2017-08-15T06:45:11Z</time>
      </trkpt>
      <trkpt lat="48.61218" lon="-2.29219">
        <ele>8.6</ele>
        <time>2017-08-15T06:45:15Z</time>
      </trkpt>
      <trkpt lat="48.61205" lon="-2.29213">
        <ele>8</ele>
        <time>2017-08-15T06:45:19Z</time>
      </trkpt>
      <trkpt lat="48.61194" lon="-2.29215">
        <ele>8.4</ele>
        <time>2017-08-15T06:45:23Z</time>
      </trkpt>
      <trkpt lat="48.61183" lon="-2.29218">
        <ele>7.6</ele>
        <time>2017-08-15T06:45:27Z</time>
      </trkpt>
      <trkpt lat="48.61169" lon="-2.29214">
        <ele>8.2</ele>
        <time>2017-08-15T06:45:31Z</time>
      </trkpt>
      <trkpt lat="48.61158" lon="-2.29211">
        <ele>8.2</ele>
        <time>2017-08-15T06:45:35Z</time>
      </trkpt>
      <trkpt lat="48.61149" lon="-2.29211">
        <ele>8</ele>
        <time>2017-08-15T06:45:39Z</time>
      </trkpt>
      <trkpt lat="48.61132" lon="-2.29217">
        <ele>8.6</ele>
        <time>2017-08-15T06:45:43Z</time>
      </trkpt>
      <trkpt lat="48.61125" lon="-2.29228">
        <ele>9.2</ele>
        <time>2017-08-15T06:45:47Z</time>
      </trkpt>
      <trkpt lat="48.6112" lon="-2.29243">
        <ele>8.4</ele>
        <time>2017-08-15T06:45:51Z</time>
      </trkpt>
      <trkpt lat="48.61112" lon="-2.2925">
        <ele>8.6</ele>
        <time>2017-08-15T06:45:55Z</time>
      </trkpt>
      <trkpt lat="48.611" lon="-2.29264">
        <ele>9</ele>
        <time>2017-08-15T06:45:59Z</time>
      </trkpt>
      <trkpt lat="48.61092" lon="-2.29269">
        <ele>9</ele>
        <time>2017-08-15T06:46:03Z</time>
      </trkpt>
      <trkpt lat="48.61082" lon="-2.29275">
        <ele>9</ele>
        <time>2017-08-15T06:46:07Z</time>
      </trkpt>
      <trkpt lat="48.61076" lon="-2.29286">
        <ele>9.6</ele>
        <time>2017-08-15T06:46:11Z</time>
      </trkpt>
      <trkpt lat="48.61069" lon="-2.29297">
        <ele>9.8</ele>
        <time>2017-08-15T06:46:15Z</time>
      </trkpt>
      <trkpt lat="48.61061" lon="-2.29302">
        <ele>9</ele>
        <time>2017-08-15T06:46:19Z</time>
      </trkpt>
      <trkpt lat="48.61048" lon="-2.29303">
        <ele>9.6</ele>
        <time>2017-08-15T06:46:23Z</time>
      </trkpt>
      <trkpt lat="48.61037" lon="-2.29311">
        <ele>9.2</ele>
        <time>2017-08-15T06:46:27Z</time>
      </trkpt>
      <trkpt lat="48.61027" lon="-2.29321">
        <ele>10.2</ele>
        <time>2017-08-15T06:46:31Z</time>
      </trkpt>
      <trkpt lat="48.61016" lon="-2.29331">
        <ele>9.8</ele>
        <time>2017-08-15T06:46:35Z</time>
      </trkpt>
      <trkpt lat="48.61009" lon="-2.29344">
        <ele>9.8</ele>
        <time>2017-08-15T06:46:39Z</time>
      </trkpt>
      <trkpt lat="48.60999" lon="-2.29345">
        <ele>10.2</ele>
        <time>2017-08-15T06:46:43Z</time>
      </trkpt>
      <trkpt lat="48.60988" lon="-2.29341">
        <ele>10</ele>
        <time>2017-08-15T06:46:47Z</time>
      </trkpt>
      <trkpt lat="48.60982" lon="-2.29349">
        <ele>10</ele>
        <time>2017-08-15T06:46:51Z</time>
      </trkpt>
      <trkpt lat="48.60978" lon="-2.29361">
        <ele>10</ele>
        <time>2017-08-15T06:46:55Z</time>
      </trkpt>
      <trkpt lat="48.60976" lon="-2.29378">
        <ele>9.6</ele>
        <time>2017-08-15T06:46:59Z</time>
      </trkpt>
      <trkpt lat="48.60967" lon="-2.2939">
        <ele>10</ele>
        <time>2017-08-15T06:47:03Z</time>
      </trkpt>
      <trkpt lat="48.60955" lon="-2.29401">
        <ele>10</ele>
        <time>2017-08-15T06:47:07Z</time>
      </trkpt>
      <trkpt lat="48.60944" lon="-2.29415">
        <ele>10</ele>
        <time>2017-08-15T06:47:11Z</time>
      </trkpt>
      <trkpt lat="48.60934" lon="-2.29425">
        <ele>10.4</ele>
        <time>2017-08-15T06:47:15Z</time>
      </trkpt>
      <trkpt lat="48.60923" lon="-2.29431">
        <ele>10.2</ele>
        <time>2017-08-15T06:47:19Z</time>
      </trkpt>
      <trkpt lat="48.60915" lon="-2.29435">
        <ele>10.2</ele>
        <time>2017-08-15T06:47:23Z</time>
      </trkpt>
      <trkpt lat="48.60905" lon="-2.29447">
        <ele>10.6</ele>
        <time>2017-08-15T06:47:27Z</time>
      </trkpt>
      <trkpt lat="48.6089" lon="-2.2946">
        <ele>11.2</ele>
        <time>2017-08-15T06:47:31Z</time>
      </trkpt>
      <trkpt lat="48.60878" lon="-2.29473">
        <ele>11</ele>
        <time>2017-08-15T06:47:35Z</time>
      </trkpt>
      <trkpt lat="48.60868" lon="-2.29486">
        <ele>12.4</ele>
        <time>2017-08-15T06:47:39Z</time>
      </trkpt>
      <trkpt lat="48.60857" lon="-2.29497">
        <ele>11.4</ele>
        <time>2017-08-15T06:47:43Z</time>
      </trkpt>
      <trkpt lat="48.60848" lon="-2.2951">
        <ele>12.2</ele>
        <time>2017-08-15T06:47:47Z</time>
      </trkpt>
      <trkpt lat="48.6084" lon="-2.29519">
        <ele>11.6</ele>
        <time>2017-08-15T06:47:51Z</time>
      </trkpt>
      <trkpt lat="48.60832" lon="-2.29532">
        <ele>12</ele>
        <time>2017-08-15T06:47:55Z</time>
      </trkpt>
      <trkpt lat="48.60822" lon="-2.29545">
        <ele>12.4</ele>
        <time>2017-08-15T06:47:59Z</time>
      </trkpt>
      <trkpt lat="48.6081" lon="-2.29558">
        <ele>14.2</ele>
        <time>2017-08-15T06:48:03Z</time>
      </trkpt>
      <trkpt lat="48.60801" lon="-2.29567">
        <ele>12.8</ele>
        <time>2017-08-15T06:48:07Z</time>
      </trkpt>
      <trkpt lat="48.60788" lon="-2.29571">
        <ele>12.6</ele>
        <time>2017-08-15T06:48:11Z</time>
      </trkpt>
      <trkpt lat="48.60779" lon="-2.2958">
        <ele>12.8</ele>
        <time>2017-08-15T06:48:15Z</time>
      </trkpt>
      <trkpt lat="48.6077" lon="-2.29589">
        <ele>12.8</ele>
        <time>2017-08-15T06:48:19Z</time>
      </trkpt>
      <trkpt lat="48.6076" lon="-2.29595">
        <ele>13</ele>
        <time>2017-08-15T06:48:23Z</time>
      </trkpt>
      <trkpt lat="48.60752" lon="-2.29602">
        <ele>13.2</ele>
        <time>2017-08-15T06:48:27Z</time>
      </trkpt>
      <trkpt lat="48.60744" lon="-2.29609">
        <ele>13.6</ele>
        <time>2017-08-15T06:48:31Z</time>
      </trkpt>
      <trkpt lat="48.60735" lon="-2.29616">
        <ele>14.2</ele>
        <time>2017-08-15T06:48:35Z</time>
      </trkpt>
      <trkpt lat="48.60726" lon="-2.29626">
        <ele>12.8</ele>
        <time>2017-08-15T06:48:39Z</time>
      </trkpt>
      <trkpt lat="48.60716" lon="-2.29635">
        <ele>13.2</ele>
        <time>2017-08-15T06:48:43Z</time>
      </trkpt>
      <trkpt lat="48.60705" lon="-2.29644">
        <ele>14.4</ele>
        <time>2017-08-15T06:48:47Z</time>
      </trkpt>
      <trkpt lat="48.60695" lon="-2.29652">
        <ele>14</ele>
        <time>2017-08-15T06:48:51Z</time>
      </trkpt>
      <trkpt lat="48.60686" lon="-2.29661">
        <ele>13.8</ele>
        <time>2017-08-15T06:48:55Z</time>
      </trkpt>
      <trkpt lat="48.60674" lon="-2.29669">
        <ele>13.4</ele>
        <time>2017-08-15T06:48:59Z</time>
      </trkpt>
      <trkpt lat="48.60656" lon="-2.2968">
        <ele>14.4</ele>
        <time>2017-08-15T06:49:03Z</time>
      </trkpt>
      <trkpt lat="48.60646" lon="-2.29693">
        <ele>14</ele>
        <time>2017-08-15T06:49:07Z</time>
      </trkpt>
      <trkpt lat="48.60637" lon="-2.29703">
        <ele>14.6</ele>
        <time>2017-08-15T06:49:11Z</time>
      </trkpt>
      <trkpt lat="48.60626" lon="-2.29712">
        <ele>14.2</ele>
        <time>2017-08-15T06:49:15Z</time>
      </trkpt>
      <trkpt lat="48.6062" lon="-2.29723">
        <ele>14.2</ele>
        <time>2017-08-15T06:49:19Z</time>
      </trkpt>
      <trkpt lat="48.60614" lon="-2.29734">
        <ele>14.8</ele>
        <time>2017-08-15T06:49:23Z</time>
      </trkpt>
      <trkpt lat="48.60605" lon="-2.29744">
        <ele>14.6</ele>
        <time>2017-08-15T06:49:27Z</time>
      </trkpt>
      <trkpt lat="48.60594" lon="-2.29755">
        <ele>14.8</ele>
        <time>2017-08-15T06:49:31Z</time>
      </trkpt>
      <trkpt lat="48.60584" lon="-2.29762">
        <ele>14.8</ele>
        <time>2017-08-15T06:49:35Z</time>
      </trkpt>
      <trkpt lat="48.60577" lon="-2.29766">
        <ele>14.6</ele>
        <time>2017-08-15T06:49:39Z</time>
      </trkpt>
      <trkpt lat="48.6057" lon="-2.29766">
        <ele>15</ele>
        <time>2017-08-15T06:49:43Z</time>
      </trkpt>
      <trkpt lat="48.60561" lon="-2.29771">
        <ele>15.4</ele>
        <time>2017-08-15T06:49:47Z</time>
      </trkpt>
      <trkpt lat="48.60553" lon="-2.29775">
        <ele>15.8</ele>
        <time>2017-08-15T06:49:51Z</time>
      </trkpt>
      <trkpt lat="48.60542" lon="-2.29773">
        <ele>15.4</ele>
        <time>2017-08-15T06:49:55Z</time>
      </trkpt>
      <trkpt lat="48.60533" lon="-2.29778">
        <ele>15.4</ele>
        <time>2017-08-15T06:49:59Z</time>
      </trkpt>
      <trkpt lat="48.60525" lon="-2.2978">
        <ele>15.8</ele>
        <time>2017-08-15T06:50:03Z</time>
      </trkpt>
      <trkpt lat="48.60515" lon="-2.29785">
        <ele>16.2</ele>
        <time>2017-08-15T06:50:07Z</time>
      </trkpt>
      <trkpt lat="48.60499" lon="-2.29791">
        <ele>16.4</ele>
        <time>2017-08-15T06:50:11Z</time>
      </trkpt>
      <trkpt lat="48.60487" lon="-2.29798">
        <ele>16</ele>
        <time>2017-08-15T06:50:15Z</time>
      </trkpt>
      <trkpt lat="48.60475" lon="-2.29805">
        <ele>17.4</ele>
        <time>2017-08-15T06:50:19Z</time>
      </trkpt>
      <trkpt lat="48.60464" lon="-2.29814">
        <ele>17.2</ele>
        <time>2017-08-15T06:50:23Z</time>
      </trkpt>
      <trkpt lat="48.60454" lon="-2.29825">
        <ele>18</ele>
        <time>2017-08-15T06:50:27Z</time>
      </trkpt>
      <trkpt lat="48.60445" lon="-2.29834">
        <ele>18.2</ele>
        <time>2017-08-15T06:50:31Z</time>
      </trkpt>
      <trkpt lat="48.60434" lon="-2.29841">
        <ele>17.6</ele>
        <time>2017-08-15T06:50:35Z</time>
      </trkpt>
      <trkpt lat="48.60423" lon="-2.29852">
        <ele>17.6</ele>
        <time>2017-08-15T06:50:39Z</time>
      </trkpt>
      <trkpt lat="48.60409" lon="-2.29861">
        <ele>17.8</ele>
        <time>2017-08-15T06:50:43Z</time>
      </trkpt>
      <trkpt lat="48.60397" lon="-2.29866">
        <ele>18.4</ele>
        <time>2017-08-15T06:50:47Z</time>
      </trkpt>
      <trkpt lat="48.60391" lon="-2.29871">
        <ele>18.4</ele>
        <time>2017-08-15T06:50:51Z</time>
      </trkpt>
      <trkpt lat="48.60382" lon="-2.29872">
        <ele>19</ele>
        <time>2017-08-15T06:50:55Z</time>
      </trkpt>
      <trkpt lat="48.60375" lon="-2.29869">
        <ele>18.8</ele>
        <time>2017-08-15T06:50:59Z</time>
      </trkpt>
      <trkpt lat="48.60364" lon="-2.29866">
        <ele>19.6</ele>
        <time>2017-08-15T06:51:03Z</time>
      </trkpt>
      <trkpt lat="48.60355" lon="-2.29866">
        <ele>20.2</ele>
        <time>2017-08-15T06:51:07Z</time>
      </trkpt>
      <trkpt lat="48.60345" lon="-2.29865">
        <ele>20.4</ele>
        <time>2017-08-15T06:51:11Z</time>
      </trkpt>
      <trkpt lat="48.60337" lon="-2.29866">
        <ele>21.2</ele>
        <time>2017-08-15T06:51:15Z</time>
      </trkpt>
      <trkpt lat="48.60332" lon="-2.29872">
        <ele>21.8</ele>
        <time>2017-08-15T06:51:19Z</time>
      </trkpt>
      <trkpt lat="48.60323" lon="-2.29873">
        <ele>22.8</ele>
        <time>2017-08-15T06:51:23Z</time>
      </trkpt>
      <trkpt lat="48.60314" lon="-2.29872">
        <ele>23.4</ele>
        <time>2017-08-15T06:51:27Z</time>
      </trkpt>
      <trkpt lat="48.60306" lon="-2.29868">
        <ele>24.4</ele>
        <time>2017-08-15T06:51:31Z</time>
      </trkpt>
      <trkpt lat="48.60297" lon="-2.2986">
        <ele>24.6</ele>
        <time>2017-08-15T06:51:35Z</time>
      </trkpt>
      <trkpt lat="48.60288" lon="-2.29853">
        <ele>25.2</ele>
        <time>2017-08-15T06:51:39Z</time>
      </trkpt>
      <trkpt lat="48.60277" lon="-2.29855">
        <ele>24.8</ele>
        <time>2017-08-15T06:51:43Z</time>
      </trkpt>
      <trkpt lat="48.6027" lon="-2.29873">
        <ele>22.2</ele>
        <time>2017-08-15T06:51:47Z</time>
      </trkpt>
      <trkpt lat="48.60256" lon="-2.29889">
        <ele>20.4</ele>
        <time>2017-08-15T06:51:51Z</time>
      </trkpt>
      <trkpt lat="48.60243" lon="-2.29899">
        <ele>19.2</ele>
        <time>2017-08-15T06:51:55Z</time>
      </trkpt>
      <trkpt lat="48.60236" lon="-2.29928">
        <ele>18.4</ele>
        <time>2017-08-15T06:51:59Z</time>
      </trkpt>
      <trkpt lat="48.60224" lon="-2.29946">
        <ele>18.2</ele>
        <time>2017-08-15T06:52:03Z</time>
      </trkpt>
      <trkpt lat="48.60213" lon="-2.29944">
        <ele>19</ele>
        <time>2017-08-15T06:52:07Z</time>
      </trkpt>
      <trkpt lat="48.60201" lon="-2.29943">
        <ele>19.2</ele>
        <time>2017-08-15T06:52:11Z</time>
      </trkpt>
      <trkpt lat="48.6019" lon="-2.29943">
        <ele>18.4</ele>
        <time>2017-08-15T06:52:15Z</time>
      </trkpt>
      <trkpt lat="48.60182" lon="-2.29945">
        <ele>18.4</ele>
        <time>2017-08-15T06:52:19Z</time>
      </trkpt>
      <trkpt lat="48.60167" lon="-2.29947">
        <ele>19</ele>
        <time>2017-08-15T06:52:23Z</time>
      </trkpt>
      <trkpt lat="48.60155" lon="-2.2995">
        <ele>19.2</ele>
        <time>2017-08-15T06:52:27Z</time>
      </trkpt>
      <trkpt lat="48.60142" lon="-2.29951">
        <ele>19.8</ele>
        <time>2017-08-15T06:52:31Z</time>
      </trkpt>
      <trkpt lat="48.60121" lon="-2.29954">
        <ele>19.6</ele>
        <time>2017-08-15T06:52:35Z</time>
      </trkpt>
      <trkpt lat="48.60107" lon="-2.2996">
        <ele>19.8</ele>
        <time>2017-08-15T06:52:39Z</time>
      </trkpt>
      <trkpt lat="48.60094" lon="-2.29964">
        <ele>20.4</ele>
        <time>2017-08-15T06:52:43Z</time>
      </trkpt>
      <trkpt lat="48.6008" lon="-2.2997">
        <ele>20.4</ele>
        <time>2017-08-15T06:52:47Z</time>
      </trkpt>
      <trkpt lat="48.60071" lon="-2.29974">
        <ele>20.8</ele>
        <time>2017-08-15T06:52:51Z</time>
      </trkpt>
      <trkpt lat="48.60057" lon="-2.29974">
        <ele>21</ele>
        <time>2017-08-15T06:52:55Z</time>
      </trkpt>
      <trkpt lat="48.60048" lon="-2.29976">
        <ele>20.6</ele>
        <time>2017-08-15T06:52:59Z</time>
      </trkpt>
      <trkpt lat="48.60034" lon="-2.29975">
        <ele>20.6</ele>
        <time>2017-08-15T06:53:03Z</time>
      </trkpt>
      <trkpt lat="48.60017" lon="-2.29971">
        <ele>20.2</ele>
        <time>2017-08-15T06:53:07Z</time>
      </trkpt>
      <trkpt lat="48.60003" lon="-2.29966">
        <ele>20.4</ele>
        <time>2017-08-15T06:53:11Z</time>
      </trkpt>
      <trkpt lat="48.59989" lon="-2.29967">
        <ele>20.4</ele>
        <time>2017-08-15T06:53:15Z</time>
      </trkpt>
      <trkpt lat="48.59976" lon="-2.29969">
        <ele>20.6</ele>
        <time>2017-08-15T06:53:19Z</time>
      </trkpt>
      <trkpt lat="48.59966" lon="-2.29969">
        <ele>21</ele>
        <time>2017-08-15T06:53:23Z</time>
      </trkpt>
      <trkpt lat="48.59954" lon="-2.29966">
        <ele>20.8</ele>
        <time>2017-08-15T06:53:27Z</time>
      </trkpt>
      <trkpt lat="48.5994" lon="-2.29958">
        <ele>21.4</ele>
        <time>2017-08-15T06:53:31Z</time>
      </trkpt>
      <trkpt lat="48.59927" lon="-2.29954">
        <ele>21.2</ele>
        <time>2017-08-15T06:53:35Z</time>
      </trkpt>
      <trkpt lat="48.59915" lon="-2.2995">
        <ele>21.2</ele>
        <time>2017-08-15T06:53:39Z</time>
      </trkpt>
      <trkpt lat="48.59903" lon="-2.29946">
        <ele>21.2</ele>
        <time>2017-08-15T06:53:43Z</time>
      </trkpt>
      <trkpt lat="48.59891" lon="-2.29941">
        <ele>21.6</ele>
        <time>2017-08-15T06:53:47Z</time>
      </trkpt>
      <trkpt lat="48.59879" lon="-2.29935">
        <ele>22.2</ele>
        <time>2017-08-15T06:53:51Z</time>
      </trkpt>
      <trkpt lat="48.59867" lon="-2.29926">
        <ele>22.2</ele>
        <time>2017-08-15T06:53:55Z</time>
      </trkpt>
      <trkpt lat="48.59859" lon="-2.29915">
        <ele>22.2</ele>
        <time>2017-08-15T06:53:59Z</time>
      </trkpt>
      <trkpt lat="48.59858" lon="-2.29899">
        <ele>22.2</ele>
        <time>2017-08-15T06:54:03Z</time>
      </trkpt>
      <trkpt lat="48.59863" lon="-2.29884">
        <ele>23</ele>
        <time>2017-08-15T06:54:07Z</time>
      </trkpt>
      <trkpt lat="48.59867" lon="-2.2987">
        <ele>22.8</ele>
        <time>2017-08-15T06:54:11Z</time>
      </trkpt>
      <trkpt lat="48.59866" lon="-2.29853">
        <ele>23</ele>
        <time>2017-08-15T06:54:15Z</time>
      </trkpt>
      <trkpt lat="48.5986" lon="-2.29846">
        <ele>23</ele>
        <time>2017-08-15T06:54:19Z</time>
      </trkpt>
      <trkpt lat="48.59851" lon="-2.29855">
        <ele>22.8</ele>
        <time>2017-08-15T06:54:23Z</time>
      </trkpt>
      <trkpt lat="48.59843" lon="-2.29846">
        <ele>22.8</ele>
        <time>2017-08-15T06:54:27Z</time>
      </trkpt>
      <trkpt lat="48.59836" lon="-2.29834">
        <ele>23.2</ele>
        <time>2017-08-15T06:54:31Z</time>
      </trkpt>
      <trkpt lat="48.59828" lon="-2.29823">
        <ele>23</ele>
        <time>2017-08-15T06:54:35Z</time>
      </trkpt>
      <trkpt lat="48.59822" lon="-2.29812">
        <ele>22.8</ele>
        <time>2017-08-15T06:54:39Z</time>
      </trkpt>
      <trkpt lat="48.59815" lon="-2.29801">
        <ele>22.8</ele>
        <time>2017-08-15T06:54:43Z</time>
      </trkpt>
      <trkpt lat="48.59807" lon="-2.29792">
        <ele>23.4</ele>
        <time>2017-08-15T06:54:47Z</time>
      </trkpt>
      <trkpt lat="48.59799" lon="-2.29782">
        <ele>23.2</ele>
        <time>2017-08-15T06:54:51Z</time>
      </trkpt>
      <trkpt lat="48.5979" lon="-2.29775">
        <ele>23</ele>
        <time>2017-08-15T06:54:55Z</time>
      </trkpt>
      <trkpt lat="48.59781" lon="-2.2977">
        <ele>24</ele>
        <time>2017-08-15T06:54:59Z</time>
      </trkpt>
      <trkpt lat="48.59772" lon="-2.29768">
        <ele>23.6</ele>
        <time>2017-08-15T06:55:03Z</time>
      </trkpt>
      <trkpt lat="48.59763" lon="-2.29767">
        <ele>24.4</ele>
        <time>2017-08-15T06:55:07Z</time>
      </trkpt>
      <trkpt lat="48.59754" lon="-2.2976">
        <ele>24.2</ele>
        <time>2017-08-15T06:55:11Z</time>
      </trkpt>
      <trkpt lat="48.59745" lon="-2.29753">
        <ele>24.4</ele>
        <time>2017-08-15T06:55:15Z</time>
      </trkpt>
      <trkpt lat="48.59735" lon="-2.29744">
        <ele>24.2</ele>
        <time>2017-08-15T06:55:19Z</time>
      </trkpt>
      <trkpt lat="48.59726" lon="-2.29737">
        <ele>24.6</ele>
        <time>2017-08-15T06:55:23Z</time>
      </trkpt>
      <trkpt lat="48.59716" lon="-2.29731">
        <ele>24.2</ele>
        <time>2017-08-15T06:55:27Z</time>
      </trkpt>
      <trkpt lat="48.59704" lon="-2.29728">
        <ele>24.6</ele>
        <time>2017-08-15T06:55:31Z</time>
      </trkpt>
      <trkpt lat="48.59697" lon="-2.29719">
        <ele>24.2</ele>
        <time>2017-08-15T06:55:35Z</time>
      </trkpt>
      <trkpt lat="48.59688" lon="-2.29713">
        <ele>24.8</ele>
        <time>2017-08-15T06:55:39Z</time>
      </trkpt>
      <trkpt lat="48.59677" lon="-2.29715">
        <ele>25.2</ele>
        <time>2017-08-15T06:55:43Z</time>
      </trkpt>
      <trkpt lat="48.59669" lon="-2.2972">
        <ele>25.4</ele>
        <time>2017-08-15T06:55:47Z</time>
      </trkpt>
      <trkpt lat="48.59659" lon="-2.29727">
        <ele>25.4</ele>
        <time>2017-08-15T06:55:51Z</time>
      </trkpt>
      <trkpt lat="48.5965" lon="-2.29732">
        <ele>25.8</ele>
        <time>2017-08-15T06:55:55Z</time>
      </trkpt>
      <trkpt lat="48.59641" lon="-2.29737">
        <ele>25.8</ele>
        <time>2017-08-15T06:55:59Z</time>
      </trkpt>
      <trkpt lat="48.59631" lon="-2.29748">
        <ele>25.8</ele>
        <time>2017-08-15T06:56:03Z</time>
      </trkpt>
      <trkpt lat="48.5962" lon="-2.29755">
        <ele>26.2</ele>
        <time>2017-08-15T06:56:07Z</time>
      </trkpt>
      <trkpt lat="48.59608" lon="-2.29756">
        <ele>26.2</ele>
        <time>2017-08-15T06:56:11Z</time>
      </trkpt>
      <trkpt lat="48.59597" lon="-2.29758">
        <ele>26.6</ele>
        <time>2017-08-15T06:56:15Z</time>
      </trkpt>
      <trkpt lat="48.59587" lon="-2.2976">
        <ele>26.4</ele>
        <time>2017-08-15T06:56:19Z</time>
      </trkpt>
      <trkpt lat="48.59577" lon="-2.29764">
        <ele>27</ele>
        <time>2017-08-15T06:56:23Z</time>
      </trkpt>
      <trkpt lat="48.59572" lon="-2.29775">
        <ele>27.2</ele>
        <time>2017-08-15T06:56:27Z</time>
      </trkpt>
      <trkpt lat="48.59571" lon="-2.29789">
        <ele>27.6</ele>
        <time>2017-08-15T06:56:31Z</time>
      </trkpt>
      <trkpt lat="48.59572" lon="-2.29805">
        <ele>28</ele>
        <time>2017-08-15T06:56:35Z</time>
      </trkpt>
      <trkpt lat="48.59574" lon="-2.29818">
        <ele>28.4</ele>
        <time>2017-08-15T06:56:39Z</time>
      </trkpt>
      <trkpt lat="48.5958" lon="-2.29831">
        <ele>29</ele>
        <time>2017-08-15T06:56:43Z</time>
      </trkpt>
      <trkpt lat="48.59585" lon="-2.29842">
        <ele>30.2</ele>
        <time>2017-08-15T06:56:47Z</time>
      </trkpt>
      <trkpt lat="48.59589" lon="-2.29853">
        <ele>31.8</ele>
        <time>2017-08-15T06:56:51Z</time>
      </trkpt>
      <trkpt lat="48.59597" lon="-2.29867">
        <ele>32</ele>
        <time>2017-08-15T06:56:55Z</time>
      </trkpt>
      <trkpt lat="48.59603" lon="-2.29878">
        <ele>33.4</ele>
        <time>2017-08-15T06:56:59Z</time>
      </trkpt>
      <trkpt lat="48.5961" lon="-2.2989">
        <ele>33.8</ele>
        <time>2017-08-15T06:57:03Z</time>
      </trkpt>
      <trkpt lat="48.59615" lon="-2.299">
        <ele>34.2</ele>
        <time>2017-08-15T06:57:07Z</time>
      </trkpt>
      <trkpt lat="48.59623" lon="-2.29911">
        <ele>34.2</ele>
        <time>2017-08-15T06:57:11Z</time>
      </trkpt>
      <trkpt lat="48.59633" lon="-2.29929">
        <ele>34.6</ele>
        <time>2017-08-15T06:57:15Z</time>
      </trkpt>
      <trkpt lat="48.5964" lon="-2.29947">
        <ele>35</ele>
        <time>2017-08-15T06:57:19Z</time>
      </trkpt>
      <trkpt lat="48.59647" lon="-2.29964">
        <ele>34.8</ele>
        <time>2017-08-15T06:57:23Z</time>
      </trkpt>
      <trkpt lat="48.59654" lon="-2.29982">
        <ele>35.6</ele>
        <time>2017-08-15T06:57:27Z</time>
      </trkpt>
      <trkpt lat="48.5966" lon="-2.29999">
        <ele>35.6</ele>
        <time>2017-08-15T06:57:31Z</time>
      </trkpt>
      <trkpt lat="48.59667" lon="-2.30016">
        <ele>35.8</ele>
        <time>2017-08-15T06:57:35Z</time>
      </trkpt>
      <trkpt lat="48.59674" lon="-2.30033">
        <ele>35.8</ele>
        <time>2017-08-15T06:57:39Z</time>
      </trkpt>
      <trkpt lat="48.59682" lon="-2.30052">
        <ele>36</ele>
        <time>2017-08-15T06:57:43Z</time>
      </trkpt>
      <trkpt lat="48.5969" lon="-2.30069">
        <ele>36</ele>
        <time>2017-08-15T06:57:47Z</time>
      </trkpt>
      <trkpt lat="48.59703" lon="-2.30088">
        <ele>36</ele>
        <time>2017-08-15T06:57:51Z</time>
      </trkpt>
      <trkpt lat="48.59715" lon="-2.30103">
        <ele>36.2</ele>
        <time>2017-08-15T06:57:55Z</time>
      </trkpt>
      <trkpt lat="48.59728" lon="-2.3012">
        <ele>35.8</ele>
        <time>2017-08-15T06:57:59Z</time>
      </trkpt>
      <trkpt lat="48.59742" lon="-2.30137">
        <ele>36.4</ele>
        <time>2017-08-15T06:58:03Z</time>
      </trkpt>
      <trkpt lat="48.59755" lon="-2.30154">
        <ele>36.4</ele>
        <time>2017-08-15T06:58:07Z</time>
      </trkpt>
      <trkpt lat="48.59768" lon="-2.30172">
        <ele>36.6</ele>
        <time>2017-08-15T06:58:11Z</time>
      </trkpt>
      <trkpt lat="48.59781" lon="-2.3019">
        <ele>36.6</ele>
        <time>2017-08-15T06:58:15Z</time>
      </trkpt>
      <trkpt lat="48.59793" lon="-2.30209">
        <ele>36.4</ele>
        <time>2017-08-15T06:58:19Z</time>
      </trkpt>
      <trkpt lat="48.59806" lon="-2.30228">
        <ele>36.8</ele>
        <time>2017-08-15T06:58:23Z</time>
      </trkpt>
      <trkpt lat="48.59816" lon="-2.30249">
        <ele>36.6</ele>
        <time>2017-08-15T06:58:27Z</time>
      </trkpt>
      <trkpt lat="48.59822" lon="-2.30274">
        <ele>36.8</ele>
        <time>2017-08-15T06:58:31Z</time>
      </trkpt>
      <trkpt lat="48.59822" lon="-2.30299">
        <ele>37.2</ele>
        <time>2017-08-15T06:58:35Z</time>
      </trkpt>
      <trkpt lat="48.59819" lon="-2.30325">
        <ele>37.2</ele>
        <time>2017-08-15T06:58:39Z</time>
      </trkpt>
      <trkpt lat="48.59815" lon="-2.3035">
        <ele>38</ele>
        <time>2017-08-15T06:58:43Z</time>
      </trkpt>
      <trkpt lat="48.59811" lon="-2.30375">
        <ele>37.8</ele>
        <time>2017-08-15T06:58:47Z</time>
      </trkpt>
      <trkpt lat="48.59807" lon="-2.30399">
        <ele>38.6</ele>
        <time>2017-08-15T06:58:51Z</time>
      </trkpt>
      <trkpt lat="48.59803" lon="-2.30424">
        <ele>39.2</ele>
        <time>2017-08-15T06:58:55Z</time>
      </trkpt>
      <trkpt lat="48.59801" lon="-2.30448">
        <ele>39.4</ele>
        <time>2017-08-15T06:58:59Z</time>
      </trkpt>
      <trkpt lat="48.59799" lon="-2.30473">
        <ele>39.8</ele>
        <time>2017-08-15T06:59:03Z</time>
      </trkpt>
      <trkpt lat="48.59797" lon="-2.30497">
        <ele>40.6</ele>
        <time>2017-08-15T06:59:07Z</time>
      </trkpt>
      <trkpt lat="48.59795" lon="-2.30519">
        <ele>41</ele>
        <time>2017-08-15T06:59:11Z</time>
      </trkpt>
      <trkpt lat="48.59793" lon="-2.30537">
        <ele>41</ele>
        <time>2017-08-15T06:59:15Z</time>
      </trkpt>
      <trkpt lat="48.59794" lon="-2.30552">
        <ele>41</ele>
        <time>2017-08-15T06:59:19Z</time>
      </trkpt>
      <trkpt lat="48.59805" lon="-2.30557">
        <ele>40.6</ele>
        <time>2017-08-15T06:59:23Z</time>
      </trkpt>
      <trkpt lat="48.59821" lon="-2.30558">
        <ele>40.4</ele>
        <time>2017-08-15T06:59:27Z</time>
      </trkpt>
      <trkpt lat="48.59836" lon="-2.30558">
        <ele>39.8</ele>
        <time>2017-08-15T06:59:31Z</time>
      </trkpt>
      <trkpt lat="48.59848" lon="-2.30561">
        <ele>39.8</ele>
        <time>2017-08-15T06:59:35Z</time>
      </trkpt>
      <trkpt lat="48.59861" lon="-2.30563">
        <ele>40.4</ele>
        <time>2017-08-15T06:59:39Z</time>
      </trkpt>
      <trkpt lat="48.5988" lon="-2.30568">
        <ele>40.6</ele>
        <time>2017-08-15T06:59:43Z</time>
      </trkpt>
      <trkpt lat="48.599" lon="-2.30573">
        <ele>40</ele>
        <time>2017-08-15T06:59:47Z</time>
      </trkpt>
      <trkpt lat="48.5992" lon="-2.30577">
        <ele>39.2</ele>
        <time>2017-08-15T06:59:51Z</time>
      </trkpt>
      <trkpt lat="48.5994" lon="-2.3058">
        <ele>39.4</ele>
        <time>2017-08-15T06:59:55Z</time>
      </trkpt>
      <trkpt lat="48.59958" lon="-2.30585">
        <ele>39.2</ele>
        <time>2017-08-15T06:59:59Z</time>
      </trkpt>
      <trkpt lat="48.59978" lon="-2.30586">
        <ele>39.2</ele>
        <time>2017-08-15T07:00:03Z</time>
      </trkpt>
      <trkpt lat="48.59998" lon="-2.30592">
        <ele>39.2</ele>
        <time>2017-08-15T07:00:07Z</time>
      </trkpt>
      <trkpt lat="48.60019" lon="-2.30594">
        <ele>39</ele>
        <time>2017-08-15T07:00:11Z</time>
      </trkpt>
      <trkpt lat="48.6004" lon="-2.30599">
        <ele>38.8</ele>
        <time>2017-08-15T07:00:15Z</time>
      </trkpt>
      <trkpt lat="48.60058" lon="-2.30604">
        <ele>38.6</ele>
        <time>2017-08-15T07:00:19Z</time>
      </trkpt>
      <trkpt lat="48.60076" lon="-2.30609">
        <ele>38.8</ele>
        <time>2017-08-15T07:00:23Z</time>
      </trkpt>
      <trkpt lat="48.60096" lon="-2.30612">
        <ele>38.6</ele>
        <time>2017-08-15T07:00:27Z</time>
      </trkpt>
      <trkpt lat="48.60117" lon="-2.30617">
        <ele>38.4</ele>
        <time>2017-08-15T07:00:31Z</time>
      </trkpt>
      <trkpt lat="48.60135" lon="-2.30624">
        <ele>38.2</ele>
        <time>2017-08-15T07:00:35Z</time>
      </trkpt>
      <trkpt lat="48.60153" lon="-2.30642">
        <ele>38.4</ele>
        <time>2017-08-15T07:00:39Z</time>
      </trkpt>
      <trkpt lat="48.60167" lon="-2.30658">
        <ele>38.4</ele>
        <time>2017-08-15T07:00:43Z</time>
      </trkpt>
      <trkpt lat="48.60184" lon="-2.30672">
        <ele>38</ele>
        <time>2017-08-15T07:00:47Z</time>
      </trkpt>
      <trkpt lat="48.60198" lon="-2.30688">
        <ele>38</ele>
        <time>2017-08-15T07:00:51Z</time>
      </trkpt>
      <trkpt lat="48.60215" lon="-2.30701">
        <ele>38</ele>
        <time>2017-08-15T07:00:55Z</time>
      </trkpt>
      <trkpt lat="48.6023" lon="-2.30712">
        <ele>37.8</ele>
        <time>2017-08-15T07:00:59Z</time>
      </trkpt>
      <trkpt lat="48.60249" lon="-2.30722">
        <ele>37.8</ele>
        <time>2017-08-15T07:01:03Z</time>
      </trkpt>
      <trkpt lat="48.60268" lon="-2.30731">
        <ele>37.6</ele>
        <time>2017-08-15T07:01:07Z</time>
      </trkpt>
      <trkpt lat="48.60284" lon="-2.30739">
        <ele>37.8</ele>
        <time>2017-08-15T07:01:11Z</time>
      </trkpt>
      <trkpt lat="48.60302" lon="-2.30748">
        <ele>37.8</ele>
        <time>2017-08-15T07:01:15Z</time>
      </trkpt>
      <trkpt lat="48.60319" lon="-2.30756">
        <ele>38.2</ele>
        <time>2017-08-15T07:01:19Z</time>
      </trkpt>
      <trkpt lat="48.60335" lon="-2.30765">
        <ele>38.4</ele>
        <time>2017-08-15T07:01:23Z</time>
      </trkpt>
      <trkpt lat="48.60352" lon="-2.30778">
        <ele>38.6</ele>
        <time>2017-08-15T07:01:27Z</time>
      </trkpt>
      <trkpt lat="48.60362" lon="-2.30788">
        <ele>38.4</ele>
        <time>2017-08-15T07:01:31Z</time>
      </trkpt>
      <trkpt lat="48.60367" lon="-2.30811">
        <ele>37.6</ele>
        <time>2017-08-15T07:01:35Z</time>
      </trkpt>
      <trkpt lat="48.60366" lon="-2.30835">
        <ele>37.6</ele>
        <time>2017-08-15T07:01:39Z</time>
      </trkpt>
      <trkpt lat="48.60365" lon="-2.30863">
        <ele>38</ele>
        <time>2017-08-15T07:01:43Z</time>
      </trkpt>
      <trkpt lat="48.60364" lon="-2.30893">
        <ele>37.2</ele>
        <time>2017-08-15T07:01:47Z</time>
      </trkpt>
      <trkpt lat="48.60365" lon="-2.30921">
        <ele>36.6</ele>
        <time>2017-08-15T07:01:51Z</time>
      </trkpt>
      <trkpt lat="48.60365" lon="-2.30951">
        <ele>36.6</ele>
        <time>2017-08-15T07:01:55Z</time>
      </trkpt>
      <trkpt lat="48.60365" lon="-2.30982">
        <ele>36.8</ele>
        <time>2017-08-15T07:01:59Z</time>
      </trkpt>
      <trkpt lat="48.60367" lon="-2.31013">
        <ele>35.2</ele>
        <time>2017-08-15T07:02:03Z</time>
      </trkpt>
      <trkpt lat="48.6037" lon="-2.31038">
        <ele>35.4</ele>
        <time>2017-08-15T07:02:07Z</time>
      </trkpt>
      <trkpt lat="48.60378" lon="-2.3106">
        <ele>34.8</ele>
        <time>2017-08-15T07:02:11Z</time>
      </trkpt>
      <trkpt lat="48.60389" lon="-2.31078">
        <ele>34.8</ele>
        <time>2017-08-15T07:02:15Z</time>
      </trkpt>
      <trkpt lat="48.60399" lon="-2.31098">
        <ele>34.8</ele>
        <time>2017-08-15T07:02:19Z</time>
      </trkpt>
      <trkpt lat="48.60409" lon="-2.31119">
        <ele>34.4</ele>
        <time>2017-08-15T07:02:23Z</time>
      </trkpt>
      <trkpt lat="48.60421" lon="-2.31138">
        <ele>33.4</ele>
        <time>2017-08-15T07:02:27Z</time>
      </trkpt>
      <trkpt lat="48.60434" lon="-2.31154">
        <ele>32.2</ele>
        <time>2017-08-15T07:02:31Z</time>
      </trkpt>
      <trkpt lat="48.6045" lon="-2.31173">
        <ele>31.8</ele>
        <time>2017-08-15T07:02:35Z</time>
      </trkpt>
      <trkpt lat="48.60465" lon="-2.31192">
        <ele>30.6</ele>
        <time>2017-08-15T07:02:39Z</time>
      </trkpt>
      <trkpt lat="48.60479" lon="-2.31216">
        <ele>29.8</ele>
        <time>2017-08-15T07:02:43Z</time>
      </trkpt>
      <trkpt lat="48.60495" lon="-2.31239">
        <ele>28.4</ele>
        <time>2017-08-15T07:02:47Z</time>
      </trkpt>
      <trkpt lat="48.6051" lon="-2.3126">
        <ele>26.8</ele>
        <time>2017-08-15T07:02:51Z</time>
      </trkpt>
      <trkpt lat="48.60524" lon="-2.31278">
        <ele>26.8</ele>
        <time>2017-08-15T07:02:55Z</time>
      </trkpt>
      <trkpt lat="48.60537" lon="-2.31297">
        <ele>25.8</ele>
        <time>2017-08-15T07:02:59Z</time>
      </trkpt>
      <trkpt lat="48.60558" lon="-2.31311">
        <ele>24</ele>
        <time>2017-08-15T07:03:03Z</time>
      </trkpt>
      <trkpt lat="48.6058" lon="-2.31319">
        <ele>24</ele>
        <time>2017-08-15T07:03:07Z</time>
      </trkpt>
      <trkpt lat="48.60601" lon="-2.31337">
        <ele>21.6</ele>
        <time>2017-08-15T07:03:11Z</time>
      </trkpt>
      <trkpt lat="48.60621" lon="-2.31358">
        <ele>19.4</ele>
        <time>2017-08-15T07:03:15Z</time>
      </trkpt>
      <trkpt lat="48.60639" lon="-2.31376">
        <ele>18.8</ele>
        <time>2017-08-15T07:03:19Z</time>
      </trkpt>
      <trkpt lat="48.60656" lon="-2.314">
        <ele>18</ele>
        <time>2017-08-15T07:03:23Z</time>
      </trkpt>
      <trkpt lat="48.60684" lon="-2.31428">
        <ele>15.4</ele>
        <time>2017-08-15T07:03:27Z</time>
      </trkpt>
      <trkpt lat="48.60711" lon="-2.31455">
        <ele>14.8</ele>
        <time>2017-08-15T07:03:31Z</time>
      </trkpt>
      <trkpt lat="48.60742" lon="-2.31475">
        <ele>13.6</ele>
        <time>2017-08-15T07:03:35Z</time>
      </trkpt>
      <trkpt lat="48.60775" lon="-2.31488">
        <ele>11</ele>
        <time>2017-08-15T07:03:39Z</time>
      </trkpt>
      <trkpt lat="48.60805" lon="-2.31487">
        <ele>6.6</ele>
        <time>2017-08-15T07:03:43Z</time>
      </trkpt>
      <trkpt lat="48.6083" lon="-2.31487">
        <ele>3.8</ele>
        <time>2017-08-15T07:03:47Z</time>
      </trkpt>
      <trkpt lat="48.60858" lon="-2.31483">
        <ele>3.8</ele>
        <time>2017-08-15T07:03:51Z</time>
      </trkpt>
      <trkpt lat="48.60884" lon="-2.31495">
        <ele>3.8</ele>
        <time>2017-08-15T07:03:55Z</time>
      </trkpt>
      <trkpt lat="48.60908" lon="-2.31513">
        <ele>1.6</ele>
        <time>2017-08-15T07:03:59Z</time>
      </trkpt>
      <trkpt lat="48.60929" lon="-2.31535">
        <ele>-0.4</ele>
        <time>2017-08-15T07:04:03Z</time>
      </trkpt>
      <trkpt lat="48.60951" lon="-2.31554">
        <ele>-0.8</ele>
        <time>2017-08-15T07:04:07Z</time>
      </trkpt>
      <trkpt lat="48.60969" lon="-2.31572">
        <ele>9.9</ele>
        <time>2017-08-15T07:04:11Z</time>
      </trkpt>
      <trkpt lat="48.60979" lon="-2.31591">
        <ele>-0.8</ele>
        <time>2017-08-15T07:04:15Z</time>
      </trkpt>
      <trkpt lat="48.60988" lon="-2.31607">
        <ele>10.1</ele>
        <time>2017-08-15T07:04:19Z</time>
      </trkpt>
      <trkpt lat="48.60996" lon="-2.31621">
        <ele>9.7</ele>
        <time>2017-08-15T07:04:23Z</time>
      </trkpt>
      <trkpt lat="48.61004" lon="-2.31638">
        <ele>-1.4</ele>
        <time>2017-08-15T07:04:27Z</time>
      </trkpt>
      <trkpt lat="48.6101" lon="-2.31655">
        <ele>-1.8</ele>
        <time>2017-08-15T07:04:31Z</time>
      </trkpt>
      <trkpt lat="48.61011" lon="-2.3167">
        <ele>-2.8</ele>
        <time>2017-08-15T07:04:35Z</time>
      </trkpt>
      <trkpt lat="48.61012" lon="-2.31678">
        <ele>-3.4</ele>
        <time>2017-08-15T07:04:43Z</time>
      </trkpt>
      <trkpt lat="48.61011" lon="-2.3168">
        <ele>-3.4</ele>
        <time>2017-08-15T07:05:27Z</time>
      </trkpt>
      <trkpt lat="48.61011" lon="-2.31683">
        <ele>-3.6</ele>
        <time>2017-08-15T07:05:31Z</time>
      </trkpt>
      <trkpt lat="48.61013" lon="-2.31694">
        <ele>-4</ele>
        <time>2017-08-15T07:05:35Z</time>
      </trkpt>
      <trkpt lat="48.61014" lon="-2.31713">
        <ele>-4.4</ele>
        <time>2017-08-15T07:05:39Z</time>
      </trkpt>
      <trkpt lat="48.61017" lon="-2.31729">
        <ele>-4.8</ele>
        <time>2017-08-15T07:05:43Z</time>
      </trkpt>
      <trkpt lat="48.6102" lon="-2.31744">
        <ele>-5</ele>
        <time>2017-08-15T07:05:47Z</time>
      </trkpt>
      <trkpt lat="48.61024" lon="-2.31761">
        <ele>-5</ele>
        <time>2017-08-15T07:05:51Z</time>
      </trkpt>
      <trkpt lat="48.61026" lon="-2.31781">
        <ele>-4.6</ele>
        <time>2017-08-15T07:05:55Z</time>
      </trkpt>
      <trkpt lat="48.61029" lon="-2.31802">
        <ele>-4.8</ele>
        <time>2017-08-15T07:05:59Z</time>
      </trkpt>
      <trkpt lat="48.61032" lon="-2.31825">
        <ele>-3.6</ele>
        <time>2017-08-15T07:06:03Z</time>
      </trkpt>
      <trkpt lat="48.61034" lon="-2.31842">
        <ele>-5.8</ele>
        <time>2017-08-15T07:06:07Z</time>
      </trkpt>
      <trkpt lat="48.61034" lon="-2.31859">
        <ele>-5</ele>
        <time>2017-08-15T07:06:11Z</time>
      </trkpt>
      <trkpt lat="48.61034" lon="-2.31883">
        <ele>-5.2</ele>
        <time>2017-08-15T07:06:15Z</time>
      </trkpt>
      <trkpt lat="48.61035" lon="-2.31904">
        <ele>-4.6</ele>
        <time>2017-08-15T07:06:19Z</time>
      </trkpt>
      <trkpt lat="48.61036" lon="-2.31923">
        <ele>-4.6</ele>
        <time>2017-08-15T07:06:23Z</time>
      </trkpt>
      <trkpt lat="48.61042" lon="-2.31945">
        <ele>-4.6</ele>
        <time>2017-08-15T07:06:27Z</time>
      </trkpt>
      <trkpt lat="48.61047" lon="-2.31963">
        <ele>-4.8</ele>
        <time>2017-08-15T07:06:31Z</time>
      </trkpt>
      <trkpt lat="48.61049" lon="-2.31986">
        <ele>-4.8</ele>
        <time>2017-08-15T07:06:35Z</time>
      </trkpt>
      <trkpt lat="48.61055" lon="-2.32009">
        <ele>-4.6</ele>
        <time>2017-08-15T07:06:39Z</time>
      </trkpt>
      <trkpt lat="48.61062" lon="-2.32037">
        <ele>-5.2</ele>
        <time>2017-08-15T07:06:43Z</time>
      </trkpt>
      <trkpt lat="48.61068" lon="-2.32062">
        <ele>-4.6</ele>
        <time>2017-08-15T07:06:47Z</time>
      </trkpt>
      <trkpt lat="48.6107" lon="-2.3208">
        <ele>-4.2</ele>
        <time>2017-08-15T07:06:51Z</time>
      </trkpt>
      <trkpt lat="48.61071" lon="-2.32098">
        <ele>-4</ele>
        <time>2017-08-15T07:06:55Z</time>
      </trkpt>
      <trkpt lat="48.61075" lon="-2.32122">
        <ele>-4.4</ele>
        <time>2017-08-15T07:06:59Z</time>
      </trkpt>
      <trkpt lat="48.61079" lon="-2.32143">
        <ele>-3.8</ele>
        <time>2017-08-15T07:07:03Z</time>
      </trkpt>
      <trkpt lat="48.6108" lon="-2.32163">
        <ele>-4.2</ele>
        <time>2017-08-15T07:07:07Z</time>
      </trkpt>
      <trkpt lat="48.61089" lon="-2.32186">
        <ele>-4.2</ele>
        <time>2017-08-15T07:07:11Z</time>
      </trkpt>
      <trkpt lat="48.61093" lon="-2.32208">
        <ele>-3.4</ele>
        <time>2017-08-15T07:07:15Z</time>
      </trkpt>
      <trkpt lat="48.61095" lon="-2.32227">
        <ele>-3.8</ele>
        <time>2017-08-15T07:07:19Z</time>
      </trkpt>
      <trkpt lat="48.611" lon="-2.32247">
        <ele>-3</ele>
        <time>2017-08-15T07:07:23Z</time>
      </trkpt>
      <trkpt lat="48.61104" lon="-2.32267">
        <ele>-3.6</ele>
        <time>2017-08-15T07:07:27Z</time>
      </trkpt>
      <trkpt lat="48.61106" lon="-2.32289">
        <ele>-3.6</ele>
        <time>2017-08-15T07:07:31Z</time>
      </trkpt>
      <trkpt lat="48.61108" lon="-2.32312">
        <ele>-3.6</ele>
        <time>2017-08-15T07:07:35Z</time>
      </trkpt>
      <trkpt lat="48.61109" lon="-2.32335">
        <ele>-4.6</ele>
        <time>2017-08-15T07:07:39Z</time>
      </trkpt>
      <trkpt lat="48.61106" lon="-2.32356">
        <ele>-3.6</ele>
        <time>2017-08-15T07:07:43Z</time>
      </trkpt>
      <trkpt lat="48.61107" lon="-2.32376">
        <ele>-4.2</ele>
        <time>2017-08-15T07:07:47Z</time>
      </trkpt>
      <trkpt lat="48.61109" lon="-2.32397">
        <ele>-4.2</ele>
        <time>2017-08-15T07:07:51Z</time>
      </trkpt>
      <trkpt lat="48.61109" lon="-2.32418">
        <ele>-3.8</ele>
        <time>2017-08-15T07:07:55Z</time>
      </trkpt>
      <trkpt lat="48.61106" lon="-2.32439">
        <ele>-3.4</ele>
        <time>2017-08-15T07:07:59Z</time>
      </trkpt>
      <trkpt lat="48.61103" lon="-2.3246">
        <ele>-3.4</ele>
        <time>2017-08-15T07:08:03Z</time>
      </trkpt>
      <trkpt lat="48.61102" lon="-2.32481">
        <ele>-2.4</ele>
        <time>2017-08-15T07:08:07Z</time>
      </trkpt>
      <trkpt lat="48.61106" lon="-2.32502">
        <ele>-3.8</ele>
        <time>2017-08-15T07:08:11Z</time>
      </trkpt>
      <trkpt lat="48.6112" lon="-2.32509">
        <ele>-3.6</ele>
        <time>2017-08-15T07:08:15Z</time>
      </trkpt>
      <trkpt lat="48.61137" lon="-2.32513">
        <ele>-3.4</ele>
        <time>2017-08-15T07:08:19Z</time>
      </trkpt>
      <trkpt lat="48.61153" lon="-2.3252">
        <ele>-3.8</ele>
        <time>2017-08-15T07:08:23Z</time>
      </trkpt>
      <trkpt lat="48.61167" lon="-2.32536">
        <ele>-3.6</ele>
        <time>2017-08-15T07:08:27Z</time>
      </trkpt>
      <trkpt lat="48.6118" lon="-2.32558">
        <ele>-3.6</ele>
        <time>2017-08-15T07:08:31Z</time>
      </trkpt>
      <trkpt lat="48.61193" lon="-2.3258">
        <ele>-3.4</ele>
        <time>2017-08-15T07:08:35Z</time>
      </trkpt>
      <trkpt lat="48.61204" lon="-2.326">
        <ele>-3.8</ele>
        <time>2017-08-15T07:08:39Z</time>
      </trkpt>
      <trkpt lat="48.61216" lon="-2.32619">
        <ele>-3.4</ele>
        <time>2017-08-15T07:08:43Z</time>
      </trkpt>
      <trkpt lat="48.61228" lon="-2.32627">
        <ele>-3.8</ele>
        <time>2017-08-15T07:08:47Z</time>
      </trkpt>
      <trkpt lat="48.61235" lon="-2.32603">
        <ele>-4.8</ele>
        <time>2017-08-15T07:08:51Z</time>
      </trkpt>
      <trkpt lat="48.61245" lon="-2.32575">
        <ele>-4.6</ele>
        <time>2017-08-15T07:08:55Z</time>
      </trkpt>
      <trkpt lat="48.61256" lon="-2.32551">
        <ele>-4.6</ele>
        <time>2017-08-15T07:08:59Z</time>
      </trkpt>
      <trkpt lat="48.61267" lon="-2.32528">
        <ele>-4.4</ele>
        <time>2017-08-15T07:09:03Z</time>
      </trkpt>
      <trkpt lat="48.61275" lon="-2.32505">
        <ele>-4.6</ele>
        <time>2017-08-15T07:09:07Z</time>
      </trkpt>
      <trkpt lat="48.61282" lon="-2.32478">
        <ele>-4.8</ele>
        <time>2017-08-15T07:09:11Z</time>
      </trkpt>
      <trkpt lat="48.61285" lon="-2.32451">
        <ele>-4.6</ele>
        <time>2017-08-15T07:09:15Z</time>
      </trkpt>
      <trkpt lat="48.61285" lon="-2.32422">
        <ele>-4.8</ele>
        <time>2017-08-15T07:09:19Z</time>
      </trkpt>
      <trkpt lat="48.61283" lon="-2.32394">
        <ele>-4.6</ele>
        <time>2017-08-15T07:09:23Z</time>
      </trkpt>
      <trkpt lat="48.61281" lon="-2.32366">
        <ele>-5</ele>
        <time>2017-08-15T07:09:27Z</time>
      </trkpt>
      <trkpt lat="48.61284" lon="-2.3234">
        <ele>-4.4</ele>
        <time>2017-08-15T07:09:31Z</time>
      </trkpt>
      <trkpt lat="48.6129" lon="-2.32317">
        <ele>-4.2</ele>
        <time>2017-08-15T07:09:35Z</time>
      </trkpt>
      <trkpt lat="48.61299" lon="-2.32297">
        <ele>-3.6</ele>
        <time>2017-08-15T07:09:39Z</time>
      </trkpt>
      <trkpt lat="48.61309" lon="-2.3228">
        <ele>-3</ele>
        <time>2017-08-15T07:09:43Z</time>
      </trkpt>
      <trkpt lat="48.61317" lon="-2.32268">
        <ele>-2.4</ele>
        <time>2017-08-15T07:09:47Z</time>
      </trkpt>
      <trkpt lat="48.61324" lon="-2.32257">
        <ele>-2</ele>
        <time>2017-08-15T07:09:51Z</time>
      </trkpt>
      <trkpt lat="48.6133" lon="-2.32246">
        <ele>-1</ele>
        <time>2017-08-15T07:09:55Z</time>
      </trkpt>
      <trkpt lat="48.61336" lon="-2.32243">
        <ele>-0.2</ele>
        <time>2017-08-15T07:09:59Z</time>
      </trkpt>
      <trkpt lat="48.61341" lon="-2.32245">
        <ele>0.2</ele>
        <time>2017-08-15T07:10:03Z</time>
      </trkpt>
      <trkpt lat="48.61348" lon="-2.32252">
        <ele>0.8</ele>
        <time>2017-08-15T07:10:07Z</time>
      </trkpt>
      <trkpt lat="48.61356" lon="-2.32247">
        <ele>1.2</ele>
        <time>2017-08-15T07:10:11Z</time>
      </trkpt>
      <trkpt lat="48.61361" lon="-2.3224">
        <ele>2.4</ele>
        <time>2017-08-15T07:10:15Z</time>
      </trkpt>
      <trkpt lat="48.61369" lon="-2.32234">
        <ele>2.6</ele>
        <time>2017-08-15T07:10:19Z</time>
      </trkpt>
      <trkpt lat="48.61377" lon="-2.32227">
        <ele>3.6</ele>
        <time>2017-08-15T07:10:23Z</time>
      </trkpt>
      <trkpt lat="48.61384" lon="-2.32219">
        <ele>4.6</ele>
        <time>2017-08-15T07:10:27Z</time>
      </trkpt>
      <trkpt lat="48.61392" lon="-2.32212">
        <ele>5.2</ele>
        <time>2017-08-15T07:10:31Z</time>
      </trkpt>
      <trkpt lat="48.61399" lon="-2.32205">
        <ele>5.8</ele>
        <time>2017-08-15T07:10:35Z</time>
      </trkpt>
      <trkpt lat="48.61407" lon="-2.322">
        <ele>6.2</ele>
        <time>2017-08-15T07:10:39Z</time>
      </trkpt>
      <trkpt lat="48.61415" lon="-2.32195">
        <ele>7</ele>
        <time>2017-08-15T07:10:43Z</time>
      </trkpt>
      <trkpt lat="48.61423" lon="-2.32192">
        <ele>7.8</ele>
        <time>2017-08-15T07:10:47Z</time>
      </trkpt>
      <trkpt lat="48.61431" lon="-2.32188">
        <ele>8.6</ele>
        <time>2017-08-15T07:10:51Z</time>
      </trkpt>
      <trkpt lat="48.61439" lon="-2.32185">
        <ele>9.4</ele>
        <time>2017-08-15T07:10:55Z</time>
      </trkpt>
      <trkpt lat="48.61448" lon="-2.32182">
        <ele>10.8</ele>
        <time>2017-08-15T07:10:59Z</time>
      </trkpt>
      <trkpt lat="48.61457" lon="-2.32179">
        <ele>11.2</ele>
        <time>2017-08-15T07:11:03Z</time>
      </trkpt>
      <trkpt lat="48.61465" lon="-2.32178">
        <ele>12.6</ele>
        <time>2017-08-15T07:11:07Z</time>
      </trkpt>
      <trkpt lat="48.61474" lon="-2.32177">
        <ele>13.6</ele>
        <time>2017-08-15T07:11:11Z</time>
      </trkpt>
      <trkpt lat="48.61482" lon="-2.32179">
        <ele>14.4</ele>
        <time>2017-08-15T07:11:15Z</time>
      </trkpt>
      <trkpt lat="48.61491" lon="-2.32179">
        <ele>15.8</ele>
        <time>2017-08-15T07:11:19Z</time>
      </trkpt>
      <trkpt lat="48.615" lon="-2.32181">
        <ele>16.6</ele>
        <time>2017-08-15T07:11:23Z</time>
      </trkpt>
      <trkpt lat="48.61508" lon="-2.32182">
        <ele>16.8</ele>
        <time>2017-08-15T07:11:27Z</time>
      </trkpt>
      <trkpt lat="48.61517" lon="-2.32183">
        <ele>17.4</ele>
        <time>2017-08-15T07:11:31Z</time>
      </trkpt>
      <trkpt lat="48.61526" lon="-2.32184">
        <ele>17.6</ele>
        <time>2017-08-15T07:11:35Z</time>
      </trkpt>
      <trkpt lat="48.61536" lon="-2.32186">
        <ele>17.6</ele>
        <time>2017-08-15T07:11:39Z</time>
      </trkpt>
      <trkpt lat="48.61546" lon="-2.32187">
        <ele>18.4</ele>
        <time>2017-08-15T07:11:43Z</time>
      </trkpt>
      <trkpt lat="48.61557" lon="-2.32188">
        <ele>18.2</ele>
        <time>2017-08-15T07:11:47Z</time>
      </trkpt>
      <trkpt lat="48.61567" lon="-2.32189">
        <ele>18.4</ele>
        <time>2017-08-15T07:11:51Z</time>
      </trkpt>
      <trkpt lat="48.61577" lon="-2.32192">
        <ele>18.4</ele>
        <time>2017-08-15T07:11:55Z</time>
      </trkpt>
      <trkpt lat="48.61587" lon="-2.32196">
        <ele>18.6</ele>
        <time>2017-08-15T07:11:59Z</time>
      </trkpt>
      <trkpt lat="48.61596" lon="-2.32201">
        <ele>18.8</ele>
        <time>2017-08-15T07:12:03Z</time>
      </trkpt>
      <trkpt lat="48.61605" lon="-2.32208">
        <ele>19.4</ele>
        <time>2017-08-15T07:12:07Z</time>
      </trkpt>
      <trkpt lat="48.61614" lon="-2.32217">
        <ele>18.6</ele>
        <time>2017-08-15T07:12:11Z</time>
      </trkpt>
      <trkpt lat="48.61621" lon="-2.32227">
        <ele>19.8</ele>
        <time>2017-08-15T07:12:15Z</time>
      </trkpt>
      <trkpt lat="48.61628" lon="-2.32238">
        <ele>20.2</ele>
        <time>2017-08-15T07:12:19Z</time>
      </trkpt>
      <trkpt lat="48.61636" lon="-2.32249">
        <ele>21.2</ele>
        <time>2017-08-15T07:12:23Z</time>
      </trkpt>
      <trkpt lat="48.61641" lon="-2.32261">
        <ele>22.2</ele>
        <time>2017-08-15T07:12:27Z</time>
      </trkpt>
      <trkpt lat="48.61647" lon="-2.32273">
        <ele>22.8</ele>
        <time>2017-08-15T07:12:31Z</time>
      </trkpt>
      <trkpt lat="48.61653" lon="-2.32286">
        <ele>22.8</ele>
        <time>2017-08-15T07:12:35Z</time>
      </trkpt>
      <trkpt lat="48.61658" lon="-2.32299">
        <ele>23.6</ele>
        <time>2017-08-15T07:12:39Z</time>
      </trkpt>
      <trkpt lat="48.61663" lon="-2.32313">
        <ele>24.4</ele>
        <time>2017-08-15T07:12:43Z</time>
      </trkpt>
      <trkpt lat="48.61666" lon="-2.32328">
        <ele>25.2</ele>
        <time>2017-08-15T07:12:47Z</time>
      </trkpt>
      <trkpt lat="48.61667" lon="-2.32344">
        <ele>26</ele>
        <time>2017-08-15T07:12:51Z</time>
      </trkpt>
      <trkpt lat="48.61666" lon="-2.32361">
        <ele>26.8</ele>
        <time>2017-08-15T07:12:55Z</time>
      </trkpt>
      <trkpt lat="48.61664" lon="-2.32377">
        <ele>27.8</ele>
        <time>2017-08-15T07:12:59Z</time>
      </trkpt>
      <trkpt lat="48.61663" lon="-2.32393">
        <ele>28</ele>
        <time>2017-08-15T07:13:03Z</time>
      </trkpt>
      <trkpt lat="48.61662" lon="-2.32409">
        <ele>29.2</ele>
        <time>2017-08-15T07:13:07Z</time>
      </trkpt>
      <trkpt lat="48.61661" lon="-2.32425">
        <ele>30</ele>
        <time>2017-08-15T07:13:11Z</time>
      </trkpt>
      <trkpt lat="48.61658" lon="-2.32441">
        <ele>30.6</ele>
        <time>2017-08-15T07:13:15Z</time>
      </trkpt>
      <trkpt lat="48.61655" lon="-2.32457">
        <ele>31.2</ele>
        <time>2017-08-15T07:13:19Z</time>
      </trkpt>
      <trkpt lat="48.6165" lon="-2.32471">
        <ele>32</ele>
        <time>2017-08-15T07:13:23Z</time>
      </trkpt>
      <trkpt lat="48.61644" lon="-2.32485">
        <ele>33</ele>
        <time>2017-08-15T07:13:27Z</time>
      </trkpt>
      <trkpt lat="48.61639" lon="-2.32501">
        <ele>33.6</ele>
        <time>2017-08-15T07:13:31Z</time>
      </trkpt>
      <trkpt lat="48.61635" lon="-2.32516">
        <ele>34.6</ele>
        <time>2017-08-15T07:13:35Z</time>
      </trkpt>
      <trkpt lat="48.6163" lon="-2.32531">
        <ele>35.4</ele>
        <time>2017-08-15T07:13:39Z</time>
      </trkpt>
      <trkpt lat="48.61625" lon="-2.32547">
        <ele>36</ele>
        <time>2017-08-15T07:13:43Z</time>
      </trkpt>
      <trkpt lat="48.6162" lon="-2.32562">
        <ele>35.8</ele>
        <time>2017-08-15T07:13:47Z</time>
      </trkpt>
      <trkpt lat="48.61615" lon="-2.32576">
        <ele>36.6</ele>
        <time>2017-08-15T07:13:51Z</time>
      </trkpt>
      <trkpt lat="48.6161" lon="-2.32591">
        <ele>36.6</ele>
        <time>2017-08-15T07:13:55Z</time>
      </trkpt>
      <trkpt lat="48.61605" lon="-2.32605">
        <ele>36.8</ele>
        <time>2017-08-15T07:13:59Z</time>
      </trkpt>
      <trkpt lat="48.616" lon="-2.32623">
        <ele>36.2</ele>
        <time>2017-08-15T07:14:03Z</time>
      </trkpt>
      <trkpt lat="48.61593" lon="-2.32642">
        <ele>35.8</ele>
        <time>2017-08-15T07:14:07Z</time>
      </trkpt>
      <trkpt lat="48.61584" lon="-2.32666">
        <ele>34.2</ele>
        <time>2017-08-15T07:14:11Z</time>
      </trkpt>
      <trkpt lat="48.61575" lon="-2.32696">
        <ele>33</ele>
        <time>2017-08-15T07:14:15Z</time>
      </trkpt>
      <trkpt lat="48.6157" lon="-2.32735">
        <ele>31.8</ele>
        <time>2017-08-15T07:14:19Z</time>
      </trkpt>
      <trkpt lat="48.61565" lon="-2.32777">
        <ele>31.4</ele>
        <time>2017-08-15T07:14:23Z</time>
      </trkpt>
      <trkpt lat="48.61561" lon="-2.32813">
        <ele>29.4</ele>
        <time>2017-08-15T07:14:27Z</time>
      </trkpt>
      <trkpt lat="48.61559" lon="-2.32841">
        <ele>28.2</ele>
        <time>2017-08-15T07:14:31Z</time>
      </trkpt>
      <trkpt lat="48.61568" lon="-2.32851">
        <ele>29.2</ele>
        <time>2017-08-15T07:14:35Z</time>
      </trkpt>
      <trkpt lat="48.6158" lon="-2.32849">
        <ele>30</ele>
        <time>2017-08-15T07:14:39Z</time>
      </trkpt>
      <trkpt lat="48.61591" lon="-2.32847">
        <ele>30.6</ele>
        <time>2017-08-15T07:14:43Z</time>
      </trkpt>
      <trkpt lat="48.61602" lon="-2.32846">
        <ele>32.4</ele>
        <time>2017-08-15T07:14:47Z</time>
      </trkpt>
      <trkpt lat="48.61612" lon="-2.32845">
        <ele>32.4</ele>
        <time>2017-08-15T07:14:51Z</time>
      </trkpt>
      <trkpt lat="48.61623" lon="-2.32844">
        <ele>33</ele>
        <time>2017-08-15T07:14:55Z</time>
      </trkpt>
      <trkpt lat="48.61634" lon="-2.32842">
        <ele>33.4</ele>
        <time>2017-08-15T07:14:59Z</time>
      </trkpt>
      <trkpt lat="48.61644" lon="-2.3284">
        <ele>34</ele>
        <time>2017-08-15T07:15:03Z</time>
      </trkpt>
      <trkpt lat="48.61655" lon="-2.32837">
        <ele>34</ele>
        <time>2017-08-15T07:15:07Z</time>
      </trkpt>
      <trkpt lat="48.61666" lon="-2.32833">
        <ele>34.2</ele>
        <time>2017-08-15T07:15:11Z</time>
      </trkpt>
      <trkpt lat="48.61679" lon="-2.32828">
        <ele>34.8</ele>
        <time>2017-08-15T07:15:15Z</time>
      </trkpt>
      <trkpt lat="48.61691" lon="-2.32823">
        <ele>34</ele>
        <time>2017-08-15T07:15:19Z</time>
      </trkpt>
      <trkpt lat="48.61705" lon="-2.32817">
        <ele>33.6</ele>
        <time>2017-08-15T07:15:23Z</time>
      </trkpt>
      <trkpt lat="48.61718" lon="-2.32811">
        <ele>34.2</ele>
        <time>2017-08-15T07:15:27Z</time>
      </trkpt>
      <trkpt lat="48.61731" lon="-2.32807">
        <ele>34</ele>
        <time>2017-08-15T07:15:31Z</time>
      </trkpt>
      <trkpt lat="48.61743" lon="-2.32802">
        <ele>33.2</ele>
        <time>2017-08-15T07:15:35Z</time>
      </trkpt>
      <trkpt lat="48.61756" lon="-2.32797">
        <ele>33.2</ele>
        <time>2017-08-15T07:15:39Z</time>
      </trkpt>
      <trkpt lat="48.61772" lon="-2.3279">
        <ele>32.6</ele>
        <time>2017-08-15T07:15:43Z</time>
      </trkpt>
      <trkpt lat="48.6179" lon="-2.32783">
        <ele>31.4</ele>
        <time>2017-08-15T07:15:47Z</time>
      </trkpt>
      <trkpt lat="48.61812" lon="-2.32774">
        <ele>30.2</ele>
        <time>2017-08-15T07:15:51Z</time>
      </trkpt>
      <trkpt lat="48.61837" lon="-2.32764">
        <ele>28.2</ele>
        <time>2017-08-15T07:15:55Z</time>
      </trkpt>
      <trkpt lat="48.61865" lon="-2.32754">
        <ele>25.2</ele>
        <time>2017-08-15T07:15:59Z</time>
      </trkpt>
      <trkpt lat="48.61892" lon="-2.32743">
        <ele>22.4</ele>
        <time>2017-08-15T07:16:03Z</time>
      </trkpt>
      <trkpt lat="48.6191" lon="-2.32738">
        <ele>21</ele>
        <time>2017-08-15T07:16:07Z</time>
      </trkpt>
      <trkpt lat="48.61918" lon="-2.32752">
        <ele>20</ele>
        <time>2017-08-15T07:16:11Z</time>
      </trkpt>
      <trkpt lat="48.61913" lon="-2.32771">
        <ele>20.6</ele>
        <time>2017-08-15T07:16:15Z</time>
      </trkpt>
      <trkpt lat="48.61908" lon="-2.32785">
        <ele>22.2</ele>
        <time>2017-08-15T07:16:19Z</time>
      </trkpt>
      <trkpt lat="48.61902" lon="-2.32799">
        <ele>22.8</ele>
        <time>2017-08-15T07:16:23Z</time>
      </trkpt>
      <trkpt lat="48.61897" lon="-2.32813">
        <ele>23.2</ele>
        <time>2017-08-15T07:16:27Z</time>
      </trkpt>
      <trkpt lat="48.61893" lon="-2.32827">
        <ele>24</ele>
        <time>2017-08-15T07:16:31Z</time>
      </trkpt>
      <trkpt lat="48.61891" lon="-2.32842">
        <ele>23.6</ele>
        <time>2017-08-15T07:16:35Z</time>
      </trkpt>
      <trkpt lat="48.61891" lon="-2.32858">
        <ele>23</ele>
        <time>2017-08-15T07:16:39Z</time>
      </trkpt>
      <trkpt lat="48.61894" lon="-2.32877">
        <ele>22</ele>
        <time>2017-08-15T07:16:43Z</time>
      </trkpt>
      <trkpt lat="48.61899" lon="-2.32906">
        <ele>20.8</ele>
        <time>2017-08-15T07:16:47Z</time>
      </trkpt>
      <trkpt lat="48.61904" lon="-2.32933">
        <ele>17.2</ele>
        <time>2017-08-15T07:16:51Z</time>
      </trkpt>
      <trkpt lat="48.61906" lon="-2.32955">
        <ele>13.8</ele>
        <time>2017-08-15T07:16:55Z</time>
      </trkpt>
      <trkpt lat="48.61911" lon="-2.32976">
        <ele>8.8</ele>
        <time>2017-08-15T07:16:59Z</time>
      </trkpt>
      <trkpt lat="48.61916" lon="-2.32998">
        <ele>4.6</ele>
        <time>2017-08-15T07:17:03Z</time>
      </trkpt>
      <trkpt lat="48.6192" lon="-2.33019">
        <ele>1.4</ele>
        <time>2017-08-15T07:17:07Z</time>
      </trkpt>
      <trkpt lat="48.61925" lon="-2.33041">
        <ele>-1.2</ele>
        <time>2017-08-15T07:17:11Z</time>
      </trkpt>
      <trkpt lat="48.61936" lon="-2.33058">
        <ele>-3</ele>
        <time>2017-08-15T07:17:15Z</time>
      </trkpt>
      <trkpt lat="48.61944" lon="-2.33057">
        <ele>-4.2</ele>
        <time>2017-08-15T07:17:19Z</time>
      </trkpt>
      <trkpt lat="48.61952" lon="-2.33061">
        <ele>-4.4</ele>
        <time>2017-08-15T07:17:23Z</time>
      </trkpt>
      <trkpt lat="48.61959" lon="-2.33071">
        <ele>-4.2</ele>
        <time>2017-08-15T07:17:27Z</time>
      </trkpt>
      <trkpt lat="48.61966" lon="-2.3308">
        <ele>-4.4</ele>
        <time>2017-08-15T07:17:31Z</time>
      </trkpt>
      <trkpt lat="48.61973" lon="-2.33091">
        <ele>-4.4</ele>
        <time>2017-08-15T07:17:35Z</time>
      </trkpt>
      <trkpt lat="48.61976" lon="-2.33105">
        <ele>-4.4</ele>
        <time>2017-08-15T07:17:39Z</time>
      </trkpt>
      <trkpt lat="48.61978" lon="-2.33123">
        <ele>-4.6</ele>
        <time>2017-08-15T07:17:43Z</time>
      </trkpt>
      <trkpt lat="48.61977" lon="-2.33139">
        <ele>-4.6</ele>
        <time>2017-08-15T07:17:47Z</time>
      </trkpt>
      <trkpt lat="48.61977" lon="-2.33155">
        <ele>-4.6</ele>
        <time>2017-08-15T07:17:51Z</time>
      </trkpt>
      <trkpt lat="48.61976" lon="-2.33173">
        <ele>-4.4</ele>
        <time>2017-08-15T07:17:55Z</time>
      </trkpt>
      <trkpt lat="48.61975" lon="-2.33192">
        <ele>-5</ele>
        <time>2017-08-15T07:17:59Z</time>
      </trkpt>
      <trkpt lat="48.61977" lon="-2.3321">
        <ele>-4.8</ele>
        <time>2017-08-15T07:18:03Z</time>
      </trkpt>
      <trkpt lat="48.6198" lon="-2.33229">
        <ele>-5.4</ele>
        <time>2017-08-15T07:18:07Z</time>
      </trkpt>
      <trkpt lat="48.61981" lon="-2.33251">
        <ele>-6</ele>
        <time>2017-08-15T07:18:11Z</time>
      </trkpt>
      <trkpt lat="48.6198" lon="-2.33273">
        <ele>-5.8</ele>
        <time>2017-08-15T07:18:15Z</time>
      </trkpt>
      <trkpt lat="48.61978" lon="-2.33294">
        <ele>-5.8</ele>
        <time>2017-08-15T07:18:19Z</time>
      </trkpt>
      <trkpt lat="48.61976" lon="-2.33314">
        <ele>-5.6</ele>
        <time>2017-08-15T07:18:23Z</time>
      </trkpt>
      <trkpt lat="48.61971" lon="-2.33333">
        <ele>-5.8</ele>
        <time>2017-08-15T07:18:27Z</time>
      </trkpt>
      <trkpt lat="48.61965" lon="-2.3335">
        <ele>-6</ele>
        <time>2017-08-15T07:18:31Z</time>
      </trkpt>
      <trkpt lat="48.6196" lon="-2.33365">
        <ele>-6</ele>
        <time>2017-08-15T07:18:35Z</time>
      </trkpt>
      <trkpt lat="48.61952" lon="-2.33381">
        <ele>-6.6</ele>
        <time>2017-08-15T07:18:39Z</time>
      </trkpt>
      <trkpt lat="48.61945" lon="-2.33394">
        <ele>-6.6</ele>
        <time>2017-08-15T07:18:43Z</time>
      </trkpt>
      <trkpt lat="48.61934" lon="-2.3339">
        <ele>-7</ele>
        <time>2017-08-15T07:18:47Z</time>
      </trkpt>
      <trkpt lat="48.61922" lon="-2.33392">
        <ele>-6.4</ele>
        <time>2017-08-15T07:18:51Z</time>
      </trkpt>
      <trkpt lat="48.61913" lon="-2.33406">
        <ele>-6</ele>
        <time>2017-08-15T07:18:55Z</time>
      </trkpt>
      <trkpt lat="48.61905" lon="-2.33419">
        <ele>-6</ele>
        <time>2017-08-15T07:18:59Z</time>
      </trkpt>
      <trkpt lat="48.619" lon="-2.33437">
        <ele>-5.8</ele>
        <time>2017-08-15T07:19:03Z</time>
      </trkpt>
      <trkpt lat="48.61898" lon="-2.33454">
        <ele>-6</ele>
        <time>2017-08-15T07:19:07Z</time>
      </trkpt>
      <trkpt lat="48.61893" lon="-2.33472">
        <ele>-5.8</ele>
        <time>2017-08-15T07:19:11Z</time>
      </trkpt>
      <trkpt lat="48.6189" lon="-2.3349">
        <ele>-6</ele>
        <time>2017-08-15T07:19:15Z</time>
      </trkpt>
      <trkpt lat="48.61887" lon="-2.33507">
        <ele>-5.6</ele>
        <time>2017-08-15T07:19:19Z</time>
      </trkpt>
      <trkpt lat="48.61884" lon="-2.33524">
        <ele>-5.4</ele>
        <time>2017-08-15T07:19:23Z</time>
      </trkpt>
      <trkpt lat="48.61884" lon="-2.33543">
        <ele>-6</ele>
        <time>2017-08-15T07:19:27Z</time>
      </trkpt>
      <trkpt lat="48.61877" lon="-2.33558">
        <ele>-5.8</ele>
        <time>2017-08-15T07:19:31Z</time>
      </trkpt>
      <trkpt lat="48.61866" lon="-2.33564">
        <ele>-5.4</ele>
        <time>2017-08-15T07:19:35Z</time>
      </trkpt>
      <trkpt lat="48.61858" lon="-2.33571">
        <ele>-4.4</ele>
        <time>2017-08-15T07:19:39Z</time>
      </trkpt>
      <trkpt lat="48.61857" lon="-2.33587">
        <ele>-4.8</ele>
        <time>2017-08-15T07:19:43Z</time>
      </trkpt>
      <trkpt lat="48.6186" lon="-2.33604">
        <ele>-4.6</ele>
        <time>2017-08-15T07:19:47Z</time>
      </trkpt>
      <trkpt lat="48.61865" lon="-2.3362">
        <ele>-4.4</ele>
        <time>2017-08-15T07:19:51Z</time>
      </trkpt>
      <trkpt lat="48.6187" lon="-2.33633">
        <ele>-3.6</ele>
        <time>2017-08-15T07:19:55Z</time>
      </trkpt>
      <trkpt lat="48.61877" lon="-2.33646">
        <ele>-3.4</ele>
        <time>2017-08-15T07:19:59Z</time>
      </trkpt>
      <trkpt lat="48.61884" lon="-2.33657">
        <ele>-2.6</ele>
        <time>2017-08-15T07:20:03Z</time>
      </trkpt>
      <trkpt lat="48.61894" lon="-2.33668">
        <ele>-2.6</ele>
        <time>2017-08-15T07:20:07Z</time>
      </trkpt>
      <trkpt lat="48.61904" lon="-2.33679">
        <ele>-2.4</ele>
        <time>2017-08-15T07:20:11Z</time>
      </trkpt>
      <trkpt lat="48.61914" lon="-2.33692">
        <ele>-2.8</ele>
        <time>2017-08-15T07:20:15Z</time>
      </trkpt>
      <trkpt lat="48.61924" lon="-2.33705">
        <ele>-2.2</ele>
        <time>2017-08-15T07:20:19Z</time>
      </trkpt>
      <trkpt lat="48.61935" lon="-2.33719">
        <ele>-2.8</ele>
        <time>2017-08-15T07:20:23Z</time>
      </trkpt>
      <trkpt lat="48.61946" lon="-2.33732">
        <ele>-2.2</ele>
        <time>2017-08-15T07:20:27Z</time>
      </trkpt>
      <trkpt lat="48.61957" lon="-2.33747">
        <ele>-1.2</ele>
        <time>2017-08-15T07:20:31Z</time>
      </trkpt>
      <trkpt lat="48.61968" lon="-2.33762">
        <ele>-1.8</ele>
        <time>2017-08-15T07:20:35Z</time>
      </trkpt>
      <trkpt lat="48.6198" lon="-2.33777">
        <ele>-2.2</ele>
        <time>2017-08-15T07:20:39Z</time>
      </trkpt>
      <trkpt lat="48.61992" lon="-2.33793">
        <ele>-2.6</ele>
        <time>2017-08-15T07:20:43Z</time>
      </trkpt>
      <trkpt lat="48.62005" lon="-2.33809">
        <ele>-2.8</ele>
        <time>2017-08-15T07:20:47Z</time>
      </trkpt>
      <trkpt lat="48.62015" lon="-2.3382">
        <ele>-2.8</ele>
        <time>2017-08-15T07:20:51Z</time>
      </trkpt>
      <trkpt lat="48.62028" lon="-2.33813">
        <ele>-2.8</ele>
        <time>2017-08-15T07:20:55Z</time>
      </trkpt>
      <trkpt lat="48.62041" lon="-2.33795">
        <ele>-3.8</ele>
        <time>2017-08-15T07:20:59Z</time>
      </trkpt>
      <trkpt lat="48.62055" lon="-2.33772">
        <ele>-4.4</ele>
        <time>2017-08-15T07:21:03Z</time>
      </trkpt>
      <trkpt lat="48.62067" lon="-2.33749">
        <ele>-4.2</ele>
        <time>2017-08-15T07:21:07Z</time>
      </trkpt>
      <trkpt lat="48.62077" lon="-2.33729">
        <ele>-4.4</ele>
        <time>2017-08-15T07:21:11Z</time>
      </trkpt>
      <trkpt lat="48.62085" lon="-2.33715">
        <ele>-3.8</ele>
        <time>2017-08-15T07:21:15Z</time>
      </trkpt>
      <trkpt lat="48.62093" lon="-2.33702">
        <ele>-3.4</ele>
        <time>2017-08-15T07:21:19Z</time>
      </trkpt>
      <trkpt lat="48.62099" lon="-2.33687">
        <ele>-2.8</ele>
        <time>2017-08-15T07:21:23Z</time>
      </trkpt>
      <trkpt lat="48.62108" lon="-2.33674">
        <ele>-2.8</ele>
        <time>2017-08-15T07:21:27Z</time>
      </trkpt>
      <trkpt lat="48.62112" lon="-2.33659">
        <ele>-2.6</ele>
        <time>2017-08-15T07:21:31Z</time>
      </trkpt>
      <trkpt lat="48.62121" lon="-2.33646">
        <ele>-2</ele>
        <time>2017-08-15T07:21:35Z</time>
      </trkpt>
      <trkpt lat="48.62129" lon="-2.33633">
        <ele>-1.8</ele>
        <time>2017-08-15T07:21:39Z</time>
      </trkpt>
      <trkpt lat="48.62136" lon="-2.3362">
        <ele>-1.2</ele>
        <time>2017-08-15T07:21:43Z</time>
      </trkpt>
      <trkpt lat="48.62143" lon="-2.33607">
        <ele>-0.8</ele>
        <time>2017-08-15T07:21:47Z</time>
      </trkpt>
      <trkpt lat="48.62151" lon="-2.33595">
        <ele>-0.2</ele>
        <time>2017-08-15T07:21:51Z</time>
      </trkpt>
      <trkpt lat="48.62158" lon="-2.33581">
        <ele>0.4</ele>
        <time>2017-08-15T07:21:55Z</time>
      </trkpt>
      <trkpt lat="48.62165" lon="-2.33568">
        <ele>0.8</ele>
        <time>2017-08-15T07:21:59Z</time>
      </trkpt>
      <trkpt lat="48.62174" lon="-2.33559">
        <ele>1.2</ele>
        <time>2017-08-15T07:22:03Z</time>
      </trkpt>
      <trkpt lat="48.62182" lon="-2.33548">
        <ele>1.2</ele>
        <time>2017-08-15T07:22:07Z</time>
      </trkpt>
      <trkpt lat="48.62189" lon="-2.33536">
        <ele>2</ele>
        <time>2017-08-15T07:22:11Z</time>
      </trkpt>
      <trkpt lat="48.62199" lon="-2.33528">
        <ele>2.2</ele>
        <time>2017-08-15T07:22:15Z</time>
      </trkpt>
      <trkpt lat="48.62207" lon="-2.33518">
        <ele>2.6</ele>
        <time>2017-08-15T07:22:19Z</time>
      </trkpt>
      <trkpt lat="48.62217" lon="-2.33508">
        <ele>3.4</ele>
        <time>2017-08-15T07:22:23Z</time>
      </trkpt>
      <trkpt lat="48.62223" lon="-2.33494">
        <ele>3.6</ele>
        <time>2017-08-15T07:22:27Z</time>
      </trkpt>
      <trkpt lat="48.62228" lon="-2.33487">
        <ele>4</ele>
        <time>2017-08-15T07:22:31Z</time>
      </trkpt>
      <trkpt lat="48.62241" lon="-2.33478">
        <ele>4.2</ele>
        <time>2017-08-15T07:22:35Z</time>
      </trkpt>
      <trkpt lat="48.62249" lon="-2.33471">
        <ele>4.8</ele>
        <time>2017-08-15T07:22:39Z</time>
      </trkpt>
      <trkpt lat="48.62258" lon="-2.33465">
        <ele>5.2</ele>
        <time>2017-08-15T07:22:43Z</time>
      </trkpt>
      <trkpt lat="48.6227" lon="-2.33456">
        <ele>5.8</ele>
        <time>2017-08-15T07:22:47Z</time>
      </trkpt>
      <trkpt lat="48.62281" lon="-2.33446">
        <ele>6.4</ele>
        <time>2017-08-15T07:22:51Z</time>
      </trkpt>
      <trkpt lat="48.62289" lon="-2.33437">
        <ele>6.4</ele>
        <time>2017-08-15T07:22:55Z</time>
      </trkpt>
      <trkpt lat="48.62296" lon="-2.33427">
        <ele>7</ele>
        <time>2017-08-15T07:22:59Z</time>
      </trkpt>
      <trkpt lat="48.62304" lon="-2.33417">
        <ele>7.2</ele>
        <time>2017-08-15T07:23:03Z</time>
      </trkpt>
      <trkpt lat="48.62312" lon="-2.33403">
        <ele>7.8</ele>
        <time>2017-08-15T07:23:07Z</time>
      </trkpt>
      <trkpt lat="48.62319" lon="-2.33389">
        <ele>8.4</ele>
        <time>2017-08-15T07:23:11Z</time>
      </trkpt>
      <trkpt lat="48.62325" lon="-2.33376">
        <ele>8.8</ele>
        <time>2017-08-15T07:23:15Z</time>
      </trkpt>
      <trkpt lat="48.62331" lon="-2.33363">
        <ele>9</ele>
        <time>2017-08-15T07:23:19Z</time>
      </trkpt>
      <trkpt lat="48.62337" lon="-2.33349">
        <ele>9.4</ele>
        <time>2017-08-15T07:23:23Z</time>
      </trkpt>
      <trkpt lat="48.62343" lon="-2.33336">
        <ele>9.6</ele>
        <time>2017-08-15T07:23:27Z</time>
      </trkpt>
      <trkpt lat="48.62348" lon="-2.33322">
        <ele>10.2</ele>
        <time>2017-08-15T07:23:31Z</time>
      </trkpt>
      <trkpt lat="48.62354" lon="-2.33308">
        <ele>10.2</ele>
        <time>2017-08-15T07:23:35Z</time>
      </trkpt>
      <trkpt lat="48.6236" lon="-2.33294">
        <ele>10</ele>
        <time>2017-08-15T07:23:39Z</time>
      </trkpt>
      <trkpt lat="48.62365" lon="-2.3328">
        <ele>10.6</ele>
        <time>2017-08-15T07:23:43Z</time>
      </trkpt>
      <trkpt lat="48.62371" lon="-2.33266">
        <ele>11</ele>
        <time>2017-08-15T07:23:47Z</time>
      </trkpt>
      <trkpt lat="48.62377" lon="-2.33253">
        <ele>11.4</ele>
        <time>2017-08-15T07:23:51Z</time>
      </trkpt>
      <trkpt lat="48.62383" lon="-2.33239">
        <ele>12.4</ele>
        <time>2017-08-15T07:23:55Z</time>
      </trkpt>
      <trkpt lat="48.62388" lon="-2.33225">
        <ele>12.2</ele>
        <time>2017-08-15T07:23:59Z</time>
      </trkpt>
      <trkpt lat="48.62394" lon="-2.33212">
        <ele>12.8</ele>
        <time>2017-08-15T07:24:03Z</time>
      </trkpt>
      <trkpt lat="48.624" lon="-2.33199">
        <ele>13.4</ele>
        <time>2017-08-15T07:24:07Z</time>
      </trkpt>
      <trkpt lat="48.62406" lon="-2.33186">
        <ele>13.6</ele>
        <time>2017-08-15T07:24:11Z</time>
      </trkpt>
      <trkpt lat="48.62412" lon="-2.33174">
        <ele>14.6</ele>
        <time>2017-08-15T07:24:15Z</time>
      </trkpt>
      <trkpt lat="48.62419" lon="-2.33162">
        <ele>14.8</ele>
        <time>2017-08-15T07:24:19Z</time>
      </trkpt>
      <trkpt lat="48.62426" lon="-2.3315">
        <ele>15.4</ele>
        <time>2017-08-15T07:24:23Z</time>
      </trkpt>
      <trkpt lat="48.62433" lon="-2.33138">
        <ele>15.4</ele>
        <time>2017-08-15T07:24:27Z</time>
      </trkpt>
      <trkpt lat="48.6244" lon="-2.33126">
        <ele>15.6</ele>
        <time>2017-08-15T07:24:31Z</time>
      </trkpt>
      <trkpt lat="48.62448" lon="-2.33115">
        <ele>15.8</ele>
        <time>2017-08-15T07:24:35Z</time>
      </trkpt>
      <trkpt lat="48.62456" lon="-2.33104">
        <ele>16</ele>
        <time>2017-08-15T07:24:39Z</time>
      </trkpt>
      <trkpt lat="48.62464" lon="-2.33093">
        <ele>16.6</ele>
        <time>2017-08-15T07:24:43Z</time>
      </trkpt>
      <trkpt lat="48.62471" lon="-2.33083">
        <ele>16.8</ele>
        <time>2017-08-15T07:24:47Z</time>
      </trkpt>
      <trkpt lat="48.62479" lon="-2.33073">
        <ele>17.6</ele>
        <time>2017-08-15T07:24:51Z</time>
      </trkpt>
      <trkpt lat="48.62486" lon="-2.33062">
        <ele>17.8</ele>
        <time>2017-08-15T07:24:55Z</time>
      </trkpt>
      <trkpt lat="48.62494" lon="-2.33051">
        <ele>18.2</ele>
        <time>2017-08-15T07:24:59Z</time>
      </trkpt>
      <trkpt lat="48.62501" lon="-2.3304">
        <ele>19.2</ele>
        <time>2017-08-15T07:25:03Z</time>
      </trkpt>
      <trkpt lat="48.6251" lon="-2.33029">
        <ele>19.4</ele>
        <time>2017-08-15T07:25:07Z</time>
      </trkpt>
      <trkpt lat="48.62518" lon="-2.33019">
        <ele>19.8</ele>
        <time>2017-08-15T07:25:11Z</time>
      </trkpt>
      <trkpt lat="48.62527" lon="-2.33008">
        <ele>20.2</ele>
        <time>2017-08-15T07:25:15Z</time>
      </trkpt>
      <trkpt lat="48.62534" lon="-2.32997">
        <ele>20.2</ele>
        <time>2017-08-15T07:25:19Z</time>
      </trkpt>
      <trkpt lat="48.62542" lon="-2.32986">
        <ele>20.8</ele>
        <time>2017-08-15T07:25:23Z</time>
      </trkpt>
      <trkpt lat="48.6255" lon="-2.32975">
        <ele>21.4</ele>
        <time>2017-08-15T07:25:27Z</time>
      </trkpt>
      <trkpt lat="48.62558" lon="-2.32963">
        <ele>21.4</ele>
        <time>2017-08-15T07:25:31Z</time>
      </trkpt>
      <trkpt lat="48.62565" lon="-2.32951">
        <ele>22.2</ele>
        <time>2017-08-15T07:25:35Z</time>
      </trkpt>
      <trkpt lat="48.62572" lon="-2.32939">
        <ele>22.2</ele>
        <time>2017-08-15T07:25:39Z</time>
      </trkpt>
      <trkpt lat="48.62579" lon="-2.32928">
        <ele>22.2</ele>
        <time>2017-08-15T07:25:43Z</time>
      </trkpt>
      <trkpt lat="48.62586" lon="-2.32917">
        <ele>22.6</ele>
        <time>2017-08-15T07:25:47Z</time>
      </trkpt>
      <trkpt lat="48.62595" lon="-2.32906">
        <ele>23.4</ele>
        <time>2017-08-15T07:25:51Z</time>
      </trkpt>
      <trkpt lat="48.62603" lon="-2.32896">
        <ele>24.2</ele>
        <time>2017-08-15T07:25:55Z</time>
      </trkpt>
      <trkpt lat="48.62611" lon="-2.32887">
        <ele>24.2</ele>
        <time>2017-08-15T07:25:59Z</time>
      </trkpt>
      <trkpt lat="48.62619" lon="-2.32878">
        <ele>24.4</ele>
        <time>2017-08-15T07:26:03Z</time>
      </trkpt>
      <trkpt lat="48.62627" lon="-2.32868">
        <ele>24.8</ele>
        <time>2017-08-15T07:26:07Z</time>
      </trkpt>
      <trkpt lat="48.62634" lon="-2.32859">
        <ele>25.2</ele>
        <time>2017-08-15T07:26:11Z</time>
      </trkpt>
      <trkpt lat="48.62642" lon="-2.32849">
        <ele>25.6</ele>
        <time>2017-08-15T07:26:15Z</time>
      </trkpt>
      <trkpt lat="48.62647" lon="-2.32841">
        <ele>25.8</ele>
        <time>2017-08-15T07:26:19Z</time>
      </trkpt>
      <trkpt lat="48.62653" lon="-2.32833">
        <ele>26.8</ele>
        <time>2017-08-15T07:26:23Z</time>
      </trkpt>
      <trkpt lat="48.62659" lon="-2.32825">
        <ele>27</ele>
        <time>2017-08-15T07:26:27Z</time>
      </trkpt>
      <trkpt lat="48.62661" lon="-2.32817">
        <ele>27</ele>
        <time>2017-08-15T07:26:31Z</time>
      </trkpt>
      <trkpt lat="48.62667" lon="-2.3281">
        <ele>26.8</ele>
        <time>2017-08-15T07:26:35Z</time>
      </trkpt>
      <trkpt lat="48.62678" lon="-2.32798">
        <ele>27.4</ele>
        <time>2017-08-15T07:26:39Z</time>
      </trkpt>
      <trkpt lat="48.6269" lon="-2.32785">
        <ele>29</ele>
        <time>2017-08-15T07:26:43Z</time>
      </trkpt>
      <trkpt lat="48.62703" lon="-2.32779">
        <ele>28.2</ele>
        <time>2017-08-15T07:26:47Z</time>
      </trkpt>
      <trkpt lat="48.62712" lon="-2.32788">
        <ele>30.2</ele>
        <time>2017-08-15T07:26:51Z</time>
      </trkpt>
      <trkpt lat="48.62717" lon="-2.328">
        <ele>30</ele>
        <time>2017-08-15T07:26:55Z</time>
      </trkpt>
      <trkpt lat="48.62722" lon="-2.32813">
        <ele>31.2</ele>
        <time>2017-08-15T07:26:59Z</time>
      </trkpt>
      <trkpt lat="48.62726" lon="-2.32824">
        <ele>32</ele>
        <time>2017-08-15T07:27:03Z</time>
      </trkpt>
      <trkpt lat="48.6273" lon="-2.32835">
        <ele>32.2</ele>
        <time>2017-08-15T07:27:07Z</time>
      </trkpt>
      <trkpt lat="48.62733" lon="-2.32848">
        <ele>32.6</ele>
        <time>2017-08-15T07:27:11Z</time>
      </trkpt>
      <trkpt lat="48.62736" lon="-2.3286">
        <ele>33.6</ele>
        <time>2017-08-15T07:27:15Z</time>
      </trkpt>
      <trkpt lat="48.62736" lon="-2.32873">
        <ele>34.2</ele>
        <time>2017-08-15T07:27:19Z</time>
      </trkpt>
      <trkpt lat="48.62734" lon="-2.32886">
        <ele>35</ele>
        <time>2017-08-15T07:27:23Z</time>
      </trkpt>
      <trkpt lat="48.62732" lon="-2.32898">
        <ele>35.2</ele>
        <time>2017-08-15T07:27:27Z</time>
      </trkpt>
      <trkpt lat="48.62728" lon="-2.3291">
        <ele>36</ele>
        <time>2017-08-15T07:27:31Z</time>
      </trkpt>
      <trkpt lat="48.62723" lon="-2.32919">
        <ele>36.6</ele>
        <time>2017-08-15T07:27:35Z</time>
      </trkpt>
      <trkpt lat="48.62716" lon="-2.32925">
        <ele>37.6</ele>
        <time>2017-08-15T07:27:39Z</time>
      </trkpt>
      <trkpt lat="48.62713" lon="-2.32935">
        <ele>37.8</ele>
        <time>2017-08-15T07:27:43Z</time>
      </trkpt>
      <trkpt lat="48.62721" lon="-2.32941">
        <ele>37</ele>
        <time>2017-08-15T07:27:47Z</time>
      </trkpt>
      <trkpt lat="48.62722" lon="-2.32954">
        <ele>36.6</ele>
        <time>2017-08-15T07:27:51Z</time>
      </trkpt>
      <trkpt lat="48.62724" lon="-2.32971">
        <ele>35.8</ele>
        <time>2017-08-15T07:27:55Z</time>
      </trkpt>
      <trkpt lat="48.62731" lon="-2.33005">
        <ele>33.6</ele>
        <time>2017-08-15T07:27:59Z</time>
      </trkpt>
      <trkpt lat="48.62734" lon="-2.33043">
        <ele>33</ele>
        <time>2017-08-15T07:28:03Z</time>
      </trkpt>
      <trkpt lat="48.62738" lon="-2.3308">
        <ele>31.8</ele>
        <time>2017-08-15T07:28:07Z</time>
      </trkpt>
      <trkpt lat="48.62755" lon="-2.33103">
        <ele>28.2</ele>
        <time>2017-08-15T07:28:11Z</time>
      </trkpt>
      <trkpt lat="48.62759" lon="-2.331">
        <ele>25.4</ele>
        <time>2017-08-15T07:28:15Z</time>
      </trkpt>
      <trkpt lat="48.62758" lon="-2.33085">
        <ele>24.2</ele>
        <time>2017-08-15T07:28:19Z</time>
      </trkpt>
      <trkpt lat="48.62762" lon="-2.33064">
        <ele>23.6</ele>
        <time>2017-08-15T07:28:23Z</time>
      </trkpt>
      <trkpt lat="48.6277" lon="-2.33043">
        <ele>22.8</ele>
        <time>2017-08-15T07:28:27Z</time>
      </trkpt>
      <trkpt lat="48.62785" lon="-2.33015">
        <ele>21.4</ele>
        <time>2017-08-15T07:28:31Z</time>
      </trkpt>
      <trkpt lat="48.62785" lon="-2.32978">
        <ele>19.4</ele>
        <time>2017-08-15T07:28:35Z</time>
      </trkpt>
      <trkpt lat="48.62792" lon="-2.32943">
        <ele>17.4</ele>
        <time>2017-08-15T07:28:39Z</time>
      </trkpt>
      <trkpt lat="48.6279" lon="-2.32908">
        <ele>16.6</ele>
        <time>2017-08-15T07:28:43Z</time>
      </trkpt>
      <trkpt lat="48.62796" lon="-2.32875">
        <ele>15.4</ele>
        <time>2017-08-15T07:28:47Z</time>
      </trkpt>
      <trkpt lat="48.62806" lon="-2.32842">
        <ele>12.8</ele>
        <time>2017-08-15T07:28:51Z</time>
      </trkpt>
      <trkpt lat="48.62815" lon="-2.32802">
        <ele>8</ele>
        <time>2017-08-15T07:28:55Z</time>
      </trkpt>
      <trkpt lat="48.62813" lon="-2.32782">
        <ele>6.8</ele>
        <time>2017-08-15T07:28:59Z</time>
      </trkpt>
      <trkpt lat="48.62837" lon="-2.32751">
        <ele>4.6</ele>
        <time>2017-08-15T07:29:27Z</time>
      </trkpt>
      <trkpt lat="48.62842" lon="-2.32751">
        <ele>4.4</ele>
        <time>2017-08-15T07:29:31Z</time>
      </trkpt>
      <trkpt lat="48.62846" lon="-2.32748">
        <ele>4.6</ele>
        <time>2017-08-15T07:29:35Z</time>
      </trkpt>
      <trkpt lat="48.62849" lon="-2.32747">
        <ele>4.6</ele>
        <time>2017-08-15T07:29:39Z</time>
      </trkpt>
      <trkpt lat="48.62853" lon="-2.32745">
        <ele>4.8</ele>
        <time>2017-08-15T07:29:43Z</time>
      </trkpt>
      <trkpt lat="48.62856" lon="-2.32741">
        <ele>5.2</ele>
        <time>2017-08-15T07:29:47Z</time>
      </trkpt>
      <trkpt lat="48.62868" lon="-2.32729">
        <ele>5</ele>
        <time>2017-08-15T07:30:11Z</time>
      </trkpt>
      <trkpt lat="48.62871" lon="-2.32726">
        <ele>6.2</ele>
        <time>2017-08-15T07:30:15Z</time>
      </trkpt>
      <trkpt lat="48.62876" lon="-2.32727">
        <ele>7.8</ele>
        <time>2017-08-15T07:30:19Z</time>
      </trkpt>
      <trkpt lat="48.62878" lon="-2.32734">
        <ele>8</ele>
        <time>2017-08-15T07:30:23Z</time>
      </trkpt>
      <trkpt lat="48.62881" lon="-2.32741">
        <ele>8.6</ele>
        <time>2017-08-15T07:30:27Z</time>
      </trkpt>
      <trkpt lat="48.62882" lon="-2.32747">
        <ele>9.4</ele>
        <time>2017-08-15T07:30:31Z</time>
      </trkpt>
      <trkpt lat="48.62886" lon="-2.32752">
        <ele>10.6</ele>
        <time>2017-08-15T07:30:35Z</time>
      </trkpt>
      <trkpt lat="48.6289" lon="-2.32758">
        <ele>11.4</ele>
        <time>2017-08-15T07:30:39Z</time>
      </trkpt>
      <trkpt lat="48.62895" lon="-2.32764">
        <ele>12.8</ele>
        <time>2017-08-15T07:30:43Z</time>
      </trkpt>
      <trkpt lat="48.62899" lon="-2.3277">
        <ele>14.2</ele>
        <time>2017-08-15T07:30:47Z</time>
      </trkpt>
      <trkpt lat="48.62903" lon="-2.32776">
        <ele>15.4</ele>
        <time>2017-08-15T07:30:51Z</time>
      </trkpt>
      <trkpt lat="48.62908" lon="-2.32782">
        <ele>16.4</ele>
        <time>2017-08-15T07:30:55Z</time>
      </trkpt>
      <trkpt lat="48.62912" lon="-2.32787">
        <ele>17.6</ele>
        <time>2017-08-15T07:30:59Z</time>
      </trkpt>
      <trkpt lat="48.62915" lon="-2.32794">
        <ele>18.4</ele>
        <time>2017-08-15T07:31:03Z</time>
      </trkpt>
      <trkpt lat="48.62919" lon="-2.32803">
        <ele>19.4</ele>
        <time>2017-08-15T07:31:07Z</time>
      </trkpt>
      <trkpt lat="48.62925" lon="-2.32812">
        <ele>19.8</ele>
        <time>2017-08-15T07:31:11Z</time>
      </trkpt>
      <trkpt lat="48.62928" lon="-2.32821">
        <ele>21.2</ele>
        <time>2017-08-15T07:31:15Z</time>
      </trkpt>
      <trkpt lat="48.62931" lon="-2.32827">
        <ele>22.4</ele>
        <time>2017-08-15T07:31:19Z</time>
      </trkpt>
      <trkpt lat="48.62933" lon="-2.32825">
        <ele>22.8</ele>
        <time>2017-08-15T07:31:23Z</time>
      </trkpt>
      <trkpt lat="48.62931" lon="-2.3282">
        <ele>23.2</ele>
        <time>2017-08-15T07:31:27Z</time>
      </trkpt>
      <trkpt lat="48.6293" lon="-2.32811">
        <ele>23.2</ele>
        <time>2017-08-15T07:31:31Z</time>
      </trkpt>
      <trkpt lat="48.62933" lon="-2.32806">
        <ele>23.4</ele>
        <time>2017-08-15T07:31:35Z</time>
      </trkpt>
      <trkpt lat="48.62935" lon="-2.328">
        <ele>23.6</ele>
        <time>2017-08-15T07:31:39Z</time>
      </trkpt>
      <trkpt lat="48.62929" lon="-2.32789">
        <ele>24.2</ele>
        <time>2017-08-15T07:31:43Z</time>
      </trkpt>
      <trkpt lat="48.62929" lon="-2.3278">
        <ele>24.4</ele>
        <time>2017-08-15T07:31:47Z</time>
      </trkpt>
      <trkpt lat="48.6293" lon="-2.32768">
        <ele>24.6</ele>
        <time>2017-08-15T07:31:51Z</time>
      </trkpt>
      <trkpt lat="48.62927" lon="-2.32755">
        <ele>25</ele>
        <time>2017-08-15T07:31:55Z</time>
      </trkpt>
      <trkpt lat="48.62924" lon="-2.32737">
        <ele>25.2</ele>
        <time>2017-08-15T07:31:59Z</time>
      </trkpt>
      <trkpt lat="48.62921" lon="-2.32722">
        <ele>25.2</ele>
        <time>2017-08-15T07:32:03Z</time>
      </trkpt>
      <trkpt lat="48.62915" lon="-2.32707">
        <ele>26</ele>
        <time>2017-08-15T07:32:07Z</time>
      </trkpt>
      <trkpt lat="48.62913" lon="-2.32696">
        <ele>26.6</ele>
        <time>2017-08-15T07:32:11Z</time>
      </trkpt>
      <trkpt lat="48.62911" lon="-2.32683">
        <ele>27.8</ele>
        <time>2017-08-15T07:32:15Z</time>
      </trkpt>
      <trkpt lat="48.62911" lon="-2.32673">
        <ele>29.2</ele>
        <time>2017-08-15T07:32:19Z</time>
      </trkpt>
      <trkpt lat="48.62915" lon="-2.32666">
        <ele>29.4</ele>
        <time>2017-08-15T07:32:23Z</time>
      </trkpt>
      <trkpt lat="48.62926" lon="-2.32659">
        <ele>29.6</ele>
        <time>2017-08-15T07:32:27Z</time>
      </trkpt>
      <trkpt lat="48.62934" lon="-2.32655">
        <ele>30</ele>
        <time>2017-08-15T07:32:31Z</time>
      </trkpt>
      <trkpt lat="48.62945" lon="-2.3265">
        <ele>31.2</ele>
        <time>2017-08-15T07:32:35Z</time>
      </trkpt>
      <trkpt lat="48.62952" lon="-2.32646">
        <ele>31.8</ele>
        <time>2017-08-15T07:32:39Z</time>
      </trkpt>
      <trkpt lat="48.62961" lon="-2.32645">
        <ele>32.4</ele>
        <time>2017-08-15T07:32:43Z</time>
      </trkpt>
      <trkpt lat="48.62969" lon="-2.32643">
        <ele>33</ele>
        <time>2017-08-15T07:32:47Z</time>
      </trkpt>
      <trkpt lat="48.62979" lon="-2.32643">
        <ele>33.6</ele>
        <time>2017-08-15T07:32:51Z</time>
      </trkpt>
      <trkpt lat="48.62986" lon="-2.32641">
        <ele>33.4</ele>
        <time>2017-08-15T07:32:55Z</time>
      </trkpt>
      <trkpt lat="48.62993" lon="-2.32642">
        <ele>34</ele>
        <time>2017-08-15T07:32:59Z</time>
      </trkpt>
      <trkpt lat="48.63002" lon="-2.32641">
        <ele>34.6</ele>
        <time>2017-08-15T07:33:03Z</time>
      </trkpt>
      <trkpt lat="48.63013" lon="-2.32639">
        <ele>35</ele>
        <time>2017-08-15T07:33:07Z</time>
      </trkpt>
      <trkpt lat="48.63022" lon="-2.32638">
        <ele>35.4</ele>
        <time>2017-08-15T07:33:11Z</time>
      </trkpt>
      <trkpt lat="48.63028" lon="-2.32637">
        <ele>35.6</ele>
        <time>2017-08-15T07:33:15Z</time>
      </trkpt>
      <trkpt lat="48.63038" lon="-2.32637">
        <ele>36.2</ele>
        <time>2017-08-15T07:33:19Z</time>
      </trkpt>
      <trkpt lat="48.63047" lon="-2.32636">
        <ele>36.2</ele>
        <time>2017-08-15T07:33:23Z</time>
      </trkpt>
      <trkpt lat="48.6306" lon="-2.32635">
        <ele>36.2</ele>
        <time>2017-08-15T07:33:27Z</time>
      </trkpt>
      <trkpt lat="48.63069" lon="-2.32635">
        <ele>37.4</ele>
        <time>2017-08-15T07:33:31Z</time>
      </trkpt>
      <trkpt lat="48.63077" lon="-2.32636">
        <ele>37.8</ele>
        <time>2017-08-15T07:33:35Z</time>
      </trkpt>
      <trkpt lat="48.63084" lon="-2.32635">
        <ele>38.6</ele>
        <time>2017-08-15T07:33:39Z</time>
      </trkpt>
      <trkpt lat="48.63085" lon="-2.32626">
        <ele>39.4</ele>
        <time>2017-08-15T07:33:43Z</time>
      </trkpt>
      <trkpt lat="48.63087" lon="-2.32615">
        <ele>39.2</ele>
        <time>2017-08-15T07:33:47Z</time>
      </trkpt>
      <trkpt lat="48.63098" lon="-2.32611">
        <ele>39</ele>
        <time>2017-08-15T07:33:51Z</time>
      </trkpt>
      <trkpt lat="48.63109" lon="-2.32611">
        <ele>39</ele>
        <time>2017-08-15T07:33:55Z</time>
      </trkpt>
      <trkpt lat="48.6312" lon="-2.32612">
        <ele>39.6</ele>
        <time>2017-08-15T07:33:59Z</time>
      </trkpt>
      <trkpt lat="48.63131" lon="-2.32613">
        <ele>40.8</ele>
        <time>2017-08-15T07:34:03Z</time>
      </trkpt>
      <trkpt lat="48.63141" lon="-2.32615">
        <ele>41</ele>
        <time>2017-08-15T07:34:07Z</time>
      </trkpt>
      <trkpt lat="48.63151" lon="-2.32617">
        <ele>40.6</ele>
        <time>2017-08-15T07:34:11Z</time>
      </trkpt>
      <trkpt lat="48.63162" lon="-2.32619">
        <ele>41.6</ele>
        <time>2017-08-15T07:34:15Z</time>
      </trkpt>
      <trkpt lat="48.63172" lon="-2.32621">
        <ele>42.2</ele>
        <time>2017-08-15T07:34:19Z</time>
      </trkpt>
      <trkpt lat="48.63183" lon="-2.32623">
        <ele>43</ele>
        <time>2017-08-15T07:34:23Z</time>
      </trkpt>
      <trkpt lat="48.63193" lon="-2.32625">
        <ele>43.4</ele>
        <time>2017-08-15T07:34:27Z</time>
      </trkpt>
      <trkpt lat="48.63205" lon="-2.32627">
        <ele>43</ele>
        <time>2017-08-15T07:34:31Z</time>
      </trkpt>
      <trkpt lat="48.63219" lon="-2.32629">
        <ele>43.8</ele>
        <time>2017-08-15T07:34:35Z</time>
      </trkpt>
      <trkpt lat="48.63232" lon="-2.32631">
        <ele>42.8</ele>
        <time>2017-08-15T07:34:39Z</time>
      </trkpt>
      <trkpt lat="48.63245" lon="-2.32635">
        <ele>43</ele>
        <time>2017-08-15T07:34:43Z</time>
      </trkpt>
      <trkpt lat="48.63257" lon="-2.3264">
        <ele>43.6</ele>
        <time>2017-08-15T07:34:47Z</time>
      </trkpt>
      <trkpt lat="48.63268" lon="-2.3264">
        <ele>43.4</ele>
        <time>2017-08-15T07:34:51Z</time>
      </trkpt>
      <trkpt lat="48.63279" lon="-2.32631">
        <ele>42.8</ele>
        <time>2017-08-15T07:34:55Z</time>
      </trkpt>
      <trkpt lat="48.63287" lon="-2.32615">
        <ele>42.8</ele>
        <time>2017-08-15T07:34:59Z</time>
      </trkpt>
      <trkpt lat="48.63293" lon="-2.32598">
        <ele>43</ele>
        <time>2017-08-15T07:35:03Z</time>
      </trkpt>
      <trkpt lat="48.63292" lon="-2.32584">
        <ele>42.6</ele>
        <time>2017-08-15T07:35:07Z</time>
      </trkpt>
      <trkpt lat="48.63281" lon="-2.32584">
        <ele>43.2</ele>
        <time>2017-08-15T07:35:11Z</time>
      </trkpt>
      <trkpt lat="48.63269" lon="-2.32584">
        <ele>43</ele>
        <time>2017-08-15T07:35:15Z</time>
      </trkpt>
      <trkpt lat="48.63261" lon="-2.32571">
        <ele>43</ele>
        <time>2017-08-15T07:35:19Z</time>
      </trkpt>
      <trkpt lat="48.63257" lon="-2.32551">
        <ele>43.2</ele>
        <time>2017-08-15T07:35:23Z</time>
      </trkpt>
      <trkpt lat="48.63253" lon="-2.32533">
        <ele>42.6</ele>
        <time>2017-08-15T07:35:27Z</time>
      </trkpt>
      <trkpt lat="48.63241" lon="-2.32518">
        <ele>42</ele>
        <time>2017-08-15T07:35:31Z</time>
      </trkpt>
      <trkpt lat="48.63222" lon="-2.32496">
        <ele>40.2</ele>
        <time>2017-08-15T07:35:35Z</time>
      </trkpt>
      <trkpt lat="48.63214" lon="-2.32472">
        <ele>35.8</ele>
        <time>2017-08-15T07:35:39Z</time>
      </trkpt>
      <trkpt lat="48.63206" lon="-2.32446">
        <ele>33.6</ele>
        <time>2017-08-15T07:35:43Z</time>
      </trkpt>
      <trkpt lat="48.63208" lon="-2.32413">
        <ele>27.6</ele>
        <time>2017-08-15T07:35:47Z</time>
      </trkpt>
      <trkpt lat="48.63205" lon="-2.32387">
        <ele>25</ele>
        <time>2017-08-15T07:35:51Z</time>
      </trkpt>
      <trkpt lat="48.632" lon="-2.32369">
        <ele>22.6</ele>
        <time>2017-08-15T07:35:55Z</time>
      </trkpt>
      <trkpt lat="48.63187" lon="-2.32353">
        <ele>20.2</ele>
        <time>2017-08-15T07:35:59Z</time>
      </trkpt>
      <trkpt lat="48.63173" lon="-2.3234">
        <ele>18.2</ele>
        <time>2017-08-15T07:36:03Z</time>
      </trkpt>
      <trkpt lat="48.63161" lon="-2.32329">
        <ele>15.4</ele>
        <time>2017-08-15T07:36:07Z</time>
      </trkpt>
      <trkpt lat="48.63157" lon="-2.32318">
        <ele>13.8</ele>
        <time>2017-08-15T07:36:11Z</time>
      </trkpt>
      <trkpt lat="48.6314" lon="-2.32288">
        <ele>11.2</ele>
        <time>2017-08-15T07:36:15Z</time>
      </trkpt>
      <trkpt lat="48.6313" lon="-2.32264">
        <ele>9</ele>
        <time>2017-08-15T07:36:19Z</time>
      </trkpt>
      <trkpt lat="48.63132" lon="-2.32252">
        <ele>9.4</ele>
        <time>2017-08-15T07:36:23Z</time>
      </trkpt>
      <trkpt lat="48.63136" lon="-2.3224">
        <ele>10</ele>
        <time>2017-08-15T07:36:27Z</time>
      </trkpt>
      <trkpt lat="48.63142" lon="-2.32231">
        <ele>11</ele>
        <time>2017-08-15T07:36:31Z</time>
      </trkpt>
      <trkpt lat="48.63145" lon="-2.32219">
        <ele>12</ele>
        <time>2017-08-15T07:36:35Z</time>
      </trkpt>
      <trkpt lat="48.63151" lon="-2.3221">
        <ele>12.8</ele>
        <time>2017-08-15T07:36:39Z</time>
      </trkpt>
      <trkpt lat="48.63156" lon="-2.32203">
        <ele>13.8</ele>
        <time>2017-08-15T07:36:43Z</time>
      </trkpt>
      <trkpt lat="48.63164" lon="-2.32195">
        <ele>14.8</ele>
        <time>2017-08-15T07:36:47Z</time>
      </trkpt>
      <trkpt lat="48.6317" lon="-2.32187">
        <ele>15.6</ele>
        <time>2017-08-15T07:36:51Z</time>
      </trkpt>
      <trkpt lat="48.63174" lon="-2.32181">
        <ele>16.4</ele>
        <time>2017-08-15T07:36:55Z</time>
      </trkpt>
      <trkpt lat="48.63181" lon="-2.32176">
        <ele>17.6</ele>
        <time>2017-08-15T07:36:59Z</time>
      </trkpt>
      <trkpt lat="48.63186" lon="-2.32169">
        <ele>18</ele>
        <time>2017-08-15T07:37:03Z</time>
      </trkpt>
      <trkpt lat="48.63185" lon="-2.32158">
        <ele>18.6</ele>
        <time>2017-08-15T07:37:07Z</time>
      </trkpt>
      <trkpt lat="48.6319" lon="-2.32149">
        <ele>18.8</ele>
        <time>2017-08-15T07:37:11Z</time>
      </trkpt>
      <trkpt lat="48.63199" lon="-2.32143">
        <ele>19.2</ele>
        <time>2017-08-15T07:37:15Z</time>
      </trkpt>
      <trkpt lat="48.6321" lon="-2.32134">
        <ele>19.6</ele>
        <time>2017-08-15T07:37:19Z</time>
      </trkpt>
      <trkpt lat="48.63222" lon="-2.32124">
        <ele>20</ele>
        <time>2017-08-15T07:37:23Z</time>
      </trkpt>
      <trkpt lat="48.63229" lon="-2.32116">
        <ele>20.8</ele>
        <time>2017-08-15T07:37:27Z</time>
      </trkpt>
      <trkpt lat="48.63236" lon="-2.3211">
        <ele>21.6</ele>
        <time>2017-08-15T07:37:31Z</time>
      </trkpt>
      <trkpt lat="48.63242" lon="-2.32106">
        <ele>22.6</ele>
        <time>2017-08-15T07:37:35Z</time>
      </trkpt>
      <trkpt lat="48.6325" lon="-2.32105">
        <ele>23.4</ele>
        <time>2017-08-15T07:37:39Z</time>
      </trkpt>
      <trkpt lat="48.63257" lon="-2.32103">
        <ele>24.2</ele>
        <time>2017-08-15T07:37:43Z</time>
      </trkpt>
      <trkpt lat="48.63264" lon="-2.32101">
        <ele>25.6</ele>
        <time>2017-08-15T07:37:47Z</time>
      </trkpt>
      <trkpt lat="48.63273" lon="-2.32097">
        <ele>26.8</ele>
        <time>2017-08-15T07:37:51Z</time>
      </trkpt>
      <trkpt lat="48.63285" lon="-2.32093">
        <ele>27.2</ele>
        <time>2017-08-15T07:37:55Z</time>
      </trkpt>
      <trkpt lat="48.63296" lon="-2.3209">
        <ele>28.6</ele>
        <time>2017-08-15T07:37:59Z</time>
      </trkpt>
      <trkpt lat="48.63303" lon="-2.3209">
        <ele>29</ele>
        <time>2017-08-15T07:38:03Z</time>
      </trkpt>
      <trkpt lat="48.63312" lon="-2.3209">
        <ele>30.2</ele>
        <time>2017-08-15T07:38:07Z</time>
      </trkpt>
      <trkpt lat="48.6332" lon="-2.32091">
        <ele>30.6</ele>
        <time>2017-08-15T07:38:11Z</time>
      </trkpt>
      <trkpt lat="48.63328" lon="-2.32094">
        <ele>31.2</ele>
        <time>2017-08-15T07:38:15Z</time>
      </trkpt>
      <trkpt lat="48.63339" lon="-2.32095">
        <ele>32</ele>
        <time>2017-08-15T07:38:19Z</time>
      </trkpt>
      <trkpt lat="48.63349" lon="-2.32098">
        <ele>33.2</ele>
        <time>2017-08-15T07:38:23Z</time>
      </trkpt>
      <trkpt lat="48.63359" lon="-2.32101">
        <ele>34</ele>
        <time>2017-08-15T07:38:27Z</time>
      </trkpt>
      <trkpt lat="48.63371" lon="-2.32103">
        <ele>35</ele>
        <time>2017-08-15T07:38:31Z</time>
      </trkpt>
      <trkpt lat="48.63382" lon="-2.32107">
        <ele>36.2</ele>
        <time>2017-08-15T07:38:35Z</time>
      </trkpt>
      <trkpt lat="48.63391" lon="-2.32111">
        <ele>37.4</ele>
        <time>2017-08-15T07:38:39Z</time>
      </trkpt>
      <trkpt lat="48.634" lon="-2.32114">
        <ele>37.6</ele>
        <time>2017-08-15T07:38:43Z</time>
      </trkpt>
      <trkpt lat="48.63409" lon="-2.32113">
        <ele>38.2</ele>
        <time>2017-08-15T07:38:47Z</time>
      </trkpt>
      <trkpt lat="48.6342" lon="-2.3211">
        <ele>37.6</ele>
        <time>2017-08-15T07:38:51Z</time>
      </trkpt>
      <trkpt lat="48.63433" lon="-2.32102">
        <ele>38.6</ele>
        <time>2017-08-15T07:38:59Z</time>
      </trkpt>
      <trkpt lat="48.6344" lon="-2.32097">
        <ele>39</ele>
        <time>2017-08-15T07:39:03Z</time>
      </trkpt>
      <trkpt lat="48.6345" lon="-2.32091">
        <ele>39.4</ele>
        <time>2017-08-15T07:39:07Z</time>
      </trkpt>
      <trkpt lat="48.63457" lon="-2.32087">
        <ele>39.6</ele>
        <time>2017-08-15T07:39:11Z</time>
      </trkpt>
      <trkpt lat="48.63464" lon="-2.32081">
        <ele>40.2</ele>
        <time>2017-08-15T07:39:15Z</time>
      </trkpt>
      <trkpt lat="48.63477" lon="-2.32069">
        <ele>41</ele>
        <time>2017-08-15T07:39:19Z</time>
      </trkpt>
      <trkpt lat="48.63491" lon="-2.32058">
        <ele>41.6</ele>
        <time>2017-08-15T07:39:23Z</time>
      </trkpt>
      <trkpt lat="48.63502" lon="-2.32049">
        <ele>42</ele>
        <time>2017-08-15T07:39:27Z</time>
      </trkpt>
      <trkpt lat="48.6351" lon="-2.32038">
        <ele>43</ele>
        <time>2017-08-15T07:39:31Z</time>
      </trkpt>
      <trkpt lat="48.6352" lon="-2.32029">
        <ele>43.6</ele>
        <time>2017-08-15T07:39:35Z</time>
      </trkpt>
      <trkpt lat="48.63528" lon="-2.3202">
        <ele>43.8</ele>
        <time>2017-08-15T07:39:39Z</time>
      </trkpt>
      <trkpt lat="48.63529" lon="-2.32007">
        <ele>43</ele>
        <time>2017-08-15T07:39:43Z</time>
      </trkpt>
      <trkpt lat="48.63521" lon="-2.31992">
        <ele>42</ele>
        <time>2017-08-15T07:39:47Z</time>
      </trkpt>
      <trkpt lat="48.63511" lon="-2.3197">
        <ele>42</ele>
        <time>2017-08-15T07:39:51Z</time>
      </trkpt>
      <trkpt lat="48.635" lon="-2.31941">
        <ele>39.6</ele>
        <time>2017-08-15T07:39:55Z</time>
      </trkpt>
      <trkpt lat="48.63482" lon="-2.31909">
        <ele>38.2</ele>
        <time>2017-08-15T07:39:59Z</time>
      </trkpt>
      <trkpt lat="48.63472" lon="-2.31899">
        <ele>37.8</ele>
        <time>2017-08-15T07:40:03Z</time>
      </trkpt>
      <trkpt lat="48.63457" lon="-2.31912">
        <ele>37.8</ele>
        <time>2017-08-15T07:40:07Z</time>
      </trkpt>
      <trkpt lat="48.6344" lon="-2.31906">
        <ele>38.8</ele>
        <time>2017-08-15T07:40:11Z</time>
      </trkpt>
      <trkpt lat="48.63436" lon="-2.31893">
        <ele>39.8</ele>
        <time>2017-08-15T07:40:15Z</time>
      </trkpt>
      <trkpt lat="48.63425" lon="-2.31874">
        <ele>41.4</ele>
        <time>2017-08-15T07:40:19Z</time>
      </trkpt>
      <trkpt lat="48.63417" lon="-2.3186">
        <ele>43.4</ele>
        <time>2017-08-15T07:40:23Z</time>
      </trkpt>
      <trkpt lat="48.63409" lon="-2.31846">
        <ele>44.8</ele>
        <time>2017-08-15T07:40:27Z</time>
      </trkpt>
      <trkpt lat="48.63404" lon="-2.31834">
        <ele>45.6</ele>
        <time>2017-08-15T07:40:31Z</time>
      </trkpt>
      <trkpt lat="48.634" lon="-2.31823">
        <ele>46.2</ele>
        <time>2017-08-15T07:40:35Z</time>
      </trkpt>
      <trkpt lat="48.63398" lon="-2.31814">
        <ele>45.8</ele>
        <time>2017-08-15T07:40:39Z</time>
      </trkpt>
      <trkpt lat="48.6339" lon="-2.31808">
        <ele>46.4</ele>
        <time>2017-08-15T07:40:43Z</time>
      </trkpt>
      <trkpt lat="48.63383" lon="-2.31807">
        <ele>47.2</ele>
        <time>2017-08-15T07:40:47Z</time>
      </trkpt>
      <trkpt lat="48.63376" lon="-2.31806">
        <ele>47.6</ele>
        <time>2017-08-15T07:40:51Z</time>
      </trkpt>
      <trkpt lat="48.63364" lon="-2.31801">
        <ele>47.6</ele>
        <time>2017-08-15T07:40:55Z</time>
      </trkpt>
      <trkpt lat="48.63355" lon="-2.31788">
        <ele>48.2</ele>
        <time>2017-08-15T07:40:59Z</time>
      </trkpt>
      <trkpt lat="48.63348" lon="-2.31772">
        <ele>48.4</ele>
        <time>2017-08-15T07:41:03Z</time>
      </trkpt>
      <trkpt lat="48.63344" lon="-2.3176">
        <ele>48.8</ele>
        <time>2017-08-15T07:41:07Z</time>
      </trkpt>
      <trkpt lat="48.63338" lon="-2.31746">
        <ele>48.4</ele>
        <time>2017-08-15T07:41:11Z</time>
      </trkpt>
      <trkpt lat="48.63335" lon="-2.31733">
        <ele>48.8</ele>
        <time>2017-08-15T07:41:15Z</time>
      </trkpt>
      <trkpt lat="48.63329" lon="-2.3172">
        <ele>49</ele>
        <time>2017-08-15T07:41:19Z</time>
      </trkpt>
      <trkpt lat="48.63324" lon="-2.31695">
        <ele>48.4</ele>
        <time>2017-08-15T07:41:23Z</time>
      </trkpt>
      <trkpt lat="48.63321" lon="-2.31682">
        <ele>48</ele>
        <time>2017-08-15T07:41:27Z</time>
      </trkpt>
      <trkpt lat="48.63319" lon="-2.31669">
        <ele>48</ele>
        <time>2017-08-15T07:41:31Z</time>
      </trkpt>
      <trkpt lat="48.63316" lon="-2.31655">
        <ele>48</ele>
        <time>2017-08-15T07:41:35Z</time>
      </trkpt>
      <trkpt lat="48.63313" lon="-2.31642">
        <ele>48</ele>
        <time>2017-08-15T07:41:39Z</time>
      </trkpt>
      <trkpt lat="48.63311" lon="-2.31629">
        <ele>48</ele>
        <time>2017-08-15T07:41:43Z</time>
      </trkpt>
      <trkpt lat="48.63308" lon="-2.31615">
        <ele>48</ele>
        <time>2017-08-15T07:41:47Z</time>
      </trkpt>
      <trkpt lat="48.63306" lon="-2.31602">
        <ele>48</ele>
        <time>2017-08-15T07:41:51Z</time>
      </trkpt>
      <trkpt lat="48.63303" lon="-2.31589">
        <ele>47.8</ele>
        <time>2017-08-15T07:41:55Z</time>
      </trkpt>
      <trkpt lat="48.63297" lon="-2.31583">
        <ele>47.4</ele>
        <time>2017-08-15T07:41:59Z</time>
      </trkpt>
      <trkpt lat="48.63302" lon="-2.31574">
        <ele>47</ele>
        <time>2017-08-15T07:42:03Z</time>
      </trkpt>
      <trkpt lat="48.63312" lon="-2.31566">
        <ele>47</ele>
        <time>2017-08-15T07:42:07Z</time>
      </trkpt>
      <trkpt lat="48.63323" lon="-2.31561">
        <ele>47.4</ele>
        <time>2017-08-15T07:42:11Z</time>
      </trkpt>
      <trkpt lat="48.63334" lon="-2.31552">
        <ele>47.4</ele>
        <time>2017-08-15T07:42:15Z</time>
      </trkpt>
      <trkpt lat="48.63344" lon="-2.31546">
        <ele>48.6</ele>
        <time>2017-08-15T07:42:19Z</time>
      </trkpt>
      <trkpt lat="48.63351" lon="-2.31537">
        <ele>49.4</ele>
        <time>2017-08-15T07:42:23Z</time>
      </trkpt>
      <trkpt lat="48.63358" lon="-2.31534">
        <ele>49.6</ele>
        <time>2017-08-15T07:42:27Z</time>
      </trkpt>
      <trkpt lat="48.63356" lon="-2.31516">
        <ele>49.6</ele>
        <time>2017-08-15T07:42:31Z</time>
      </trkpt>
      <trkpt lat="48.63361" lon="-2.315">
        <ele>49</ele>
        <time>2017-08-15T07:42:35Z</time>
      </trkpt>
      <trkpt lat="48.63367" lon="-2.31491">
        <ele>50</ele>
        <time>2017-08-15T07:42:39Z</time>
      </trkpt>
      <trkpt lat="48.63373" lon="-2.31485">
        <ele>50.4</ele>
        <time>2017-08-15T07:42:43Z</time>
      </trkpt>
      <trkpt lat="48.63379" lon="-2.31482">
        <ele>51</ele>
        <time>2017-08-15T07:42:47Z</time>
      </trkpt>
      <trkpt lat="48.63388" lon="-2.31477">
        <ele>52.2</ele>
        <time>2017-08-15T07:42:51Z</time>
      </trkpt>
      <trkpt lat="48.63396" lon="-2.31471">
        <ele>52.8</ele>
        <time>2017-08-15T07:42:55Z</time>
      </trkpt>
      <trkpt lat="48.63404" lon="-2.3147">
        <ele>53</ele>
        <time>2017-08-15T07:42:59Z</time>
      </trkpt>
      <trkpt lat="48.63414" lon="-2.31468">
        <ele>53.6</ele>
        <time>2017-08-15T07:43:03Z</time>
      </trkpt>
      <trkpt lat="48.63424" lon="-2.31458">
        <ele>53</ele>
        <time>2017-08-15T07:43:07Z</time>
      </trkpt>
      <trkpt lat="48.63426" lon="-2.31443">
        <ele>53.6</ele>
        <time>2017-08-15T07:43:11Z</time>
      </trkpt>
      <trkpt lat="48.63431" lon="-2.31427">
        <ele>53.8</ele>
        <time>2017-08-15T07:43:15Z</time>
      </trkpt>
      <trkpt lat="48.63438" lon="-2.31412">
        <ele>53</ele>
        <time>2017-08-15T07:43:19Z</time>
      </trkpt>
      <trkpt lat="48.63444" lon="-2.314">
        <ele>52.8</ele>
        <time>2017-08-15T07:43:23Z</time>
      </trkpt>
      <trkpt lat="48.6345" lon="-2.31387">
        <ele>52.8</ele>
        <time>2017-08-15T07:43:27Z</time>
      </trkpt>
      <trkpt lat="48.63451" lon="-2.31366">
        <ele>52.6</ele>
        <time>2017-08-15T07:43:31Z</time>
      </trkpt>
      <trkpt lat="48.63451" lon="-2.31351">
        <ele>51.4</ele>
        <time>2017-08-15T07:43:35Z</time>
      </trkpt>
      <trkpt lat="48.63459" lon="-2.31337">
        <ele>49.8</ele>
        <time>2017-08-15T07:43:39Z</time>
      </trkpt>
      <trkpt lat="48.63468" lon="-2.31337">
        <ele>49.4</ele>
        <time>2017-08-15T07:43:43Z</time>
      </trkpt>
      <trkpt lat="48.63476" lon="-2.31341">
        <ele>49.8</ele>
        <time>2017-08-15T07:43:47Z</time>
      </trkpt>
      <trkpt lat="48.63484" lon="-2.31343">
        <ele>50</ele>
        <time>2017-08-15T07:43:51Z</time>
      </trkpt>
      <trkpt lat="48.63492" lon="-2.31344">
        <ele>50</ele>
        <time>2017-08-15T07:43:55Z</time>
      </trkpt>
      <trkpt lat="48.63501" lon="-2.31344">
        <ele>49.8</ele>
        <time>2017-08-15T07:43:59Z</time>
      </trkpt>
      <trkpt lat="48.63516" lon="-2.31341">
        <ele>49.4</ele>
        <time>2017-08-15T07:44:03Z</time>
      </trkpt>
      <trkpt lat="48.63532" lon="-2.31334">
        <ele>48.6</ele>
        <time>2017-08-15T07:44:07Z</time>
      </trkpt>
      <trkpt lat="48.63546" lon="-2.31315">
        <ele>48.6</ele>
        <time>2017-08-15T07:44:11Z</time>
      </trkpt>
      <trkpt lat="48.63563" lon="-2.31306">
        <ele>48.8</ele>
        <time>2017-08-15T07:44:15Z</time>
      </trkpt>
      <trkpt lat="48.63578" lon="-2.31303">
        <ele>49</ele>
        <time>2017-08-15T07:44:19Z</time>
      </trkpt>
      <trkpt lat="48.6359" lon="-2.31299">
        <ele>47.6</ele>
        <time>2017-08-15T07:44:27Z</time>
      </trkpt>
      <trkpt lat="48.63599" lon="-2.31286">
        <ele>46.8</ele>
        <time>2017-08-15T07:44:31Z</time>
      </trkpt>
      <trkpt lat="48.63612" lon="-2.31278">
        <ele>47</ele>
        <time>2017-08-15T07:44:35Z</time>
      </trkpt>
      <trkpt lat="48.63621" lon="-2.3127">
        <ele>46.6</ele>
        <time>2017-08-15T07:44:39Z</time>
      </trkpt>
      <trkpt lat="48.63631" lon="-2.31258">
        <ele>45.8</ele>
        <time>2017-08-15T07:44:43Z</time>
      </trkpt>
      <trkpt lat="48.63642" lon="-2.31248">
        <ele>45</ele>
        <time>2017-08-15T07:44:47Z</time>
      </trkpt>
      <trkpt lat="48.63659" lon="-2.31239">
        <ele>44</ele>
        <time>2017-08-15T07:44:51Z</time>
      </trkpt>
      <trkpt lat="48.63674" lon="-2.31229">
        <ele>44</ele>
        <time>2017-08-15T07:44:55Z</time>
      </trkpt>
      <trkpt lat="48.63687" lon="-2.31209">
        <ele>43</ele>
        <time>2017-08-15T07:44:59Z</time>
      </trkpt>
      <trkpt lat="48.63703" lon="-2.3119">
        <ele>43.4</ele>
        <time>2017-08-15T07:45:03Z</time>
      </trkpt>
      <trkpt lat="48.63712" lon="-2.31173">
        <ele>42</ele>
        <time>2017-08-15T07:45:07Z</time>
      </trkpt>
      <trkpt lat="48.63717" lon="-2.31157">
        <ele>41.6</ele>
        <time>2017-08-15T07:45:11Z</time>
      </trkpt>
      <trkpt lat="48.63721" lon="-2.31142">
        <ele>40.8</ele>
        <time>2017-08-15T07:45:15Z</time>
      </trkpt>
      <trkpt lat="48.63727" lon="-2.31127">
        <ele>39.8</ele>
        <time>2017-08-15T07:45:19Z</time>
      </trkpt>
      <trkpt lat="48.63733" lon="-2.3111">
        <ele>39.6</ele>
        <time>2017-08-15T07:45:23Z</time>
      </trkpt>
      <trkpt lat="48.63744" lon="-2.31096">
        <ele>37.6</ele>
        <time>2017-08-15T07:45:27Z</time>
      </trkpt>
      <trkpt lat="48.63754" lon="-2.31077">
        <ele>34.8</ele>
        <time>2017-08-15T07:45:31Z</time>
      </trkpt>
      <trkpt lat="48.63762" lon="-2.31067">
        <ele>34.4</ele>
        <time>2017-08-15T07:45:35Z</time>
      </trkpt>
      <trkpt lat="48.63763" lon="-2.31063">
        <ele>34</ele>
        <time>2017-08-15T07:45:39Z</time>
      </trkpt>
      <trkpt lat="48.63765" lon="-2.3106">
        <ele>32.8</ele>
        <time>2017-08-15T07:45:43Z</time>
      </trkpt>
      <trkpt lat="48.63767" lon="-2.31056">
        <ele>31.8</ele>
        <time>2017-08-15T07:45:47Z</time>
      </trkpt>
      <trkpt lat="48.63768" lon="-2.31053">
        <ele>32</ele>
        <time>2017-08-15T07:45:51Z</time>
      </trkpt>
      <trkpt lat="48.63768" lon="-2.31051">
        <ele>32.2</ele>
        <time>2017-08-15T07:45:55Z</time>
      </trkpt>
      <trkpt lat="48.6378" lon="-2.31037">
        <ele>31.8</ele>
        <time>2017-08-15T07:46:03Z</time>
      </trkpt>
      <trkpt lat="48.63787" lon="-2.31033">
        <ele>32.4</ele>
        <time>2017-08-15T07:46:07Z</time>
      </trkpt>
      <trkpt lat="48.63793" lon="-2.31028">
        <ele>34.4</ele>
        <time>2017-08-15T07:46:11Z</time>
      </trkpt>
      <trkpt lat="48.638" lon="-2.31024">
        <ele>36</ele>
        <time>2017-08-15T07:46:15Z</time>
      </trkpt>
      <trkpt lat="48.63807" lon="-2.3102">
        <ele>36.4</ele>
        <time>2017-08-15T07:46:19Z</time>
      </trkpt>
      <trkpt lat="48.63809" lon="-2.31015">
        <ele>37.4</ele>
        <time>2017-08-15T07:46:23Z</time>
      </trkpt>
      <trkpt lat="48.63817" lon="-2.31012">
        <ele>38.6</ele>
        <time>2017-08-15T07:46:27Z</time>
      </trkpt>
      <trkpt lat="48.63826" lon="-2.31012">
        <ele>39.8</ele>
        <time>2017-08-15T07:46:31Z</time>
      </trkpt>
      <trkpt lat="48.6383" lon="-2.31021">
        <ele>40</ele>
        <time>2017-08-15T07:46:35Z</time>
      </trkpt>
      <trkpt lat="48.63834" lon="-2.31031">
        <ele>40.8</ele>
        <time>2017-08-15T07:46:39Z</time>
      </trkpt>
      <trkpt lat="48.63839" lon="-2.3104">
        <ele>42</ele>
        <time>2017-08-15T07:46:43Z</time>
      </trkpt>
      <trkpt lat="48.63844" lon="-2.31049">
        <ele>43</ele>
        <time>2017-08-15T07:46:47Z</time>
      </trkpt>
      <trkpt lat="48.63848" lon="-2.31058">
        <ele>43</ele>
        <time>2017-08-15T07:46:51Z</time>
      </trkpt>
      <trkpt lat="48.63851" lon="-2.31068">
        <ele>43.6</ele>
        <time>2017-08-15T07:46:55Z</time>
      </trkpt>
      <trkpt lat="48.63854" lon="-2.31077">
        <ele>43.6</ele>
        <time>2017-08-15T07:46:59Z</time>
      </trkpt>
      <trkpt lat="48.6386" lon="-2.31091">
        <ele>43.2</ele>
        <time>2017-08-15T07:47:03Z</time>
      </trkpt>
      <trkpt lat="48.6387" lon="-2.31101">
        <ele>43</ele>
        <time>2017-08-15T07:47:07Z</time>
      </trkpt>
      <trkpt lat="48.63873" lon="-2.31117">
        <ele>40.4</ele>
        <time>2017-08-15T07:47:11Z</time>
      </trkpt>
      <trkpt lat="48.6387" lon="-2.31137">
        <ele>40.4</ele>
        <time>2017-08-15T07:47:15Z</time>
      </trkpt>
      <trkpt lat="48.63857" lon="-2.31158">
        <ele>39.8</ele>
        <time>2017-08-15T07:47:19Z</time>
      </trkpt>
      <trkpt lat="48.63848" lon="-2.31182">
        <ele>39.4</ele>
        <time>2017-08-15T07:47:23Z</time>
      </trkpt>
      <trkpt lat="48.63835" lon="-2.31214">
        <ele>36.2</ele>
        <time>2017-08-15T07:47:27Z</time>
      </trkpt>
      <trkpt lat="48.63817" lon="-2.31265">
        <ele>34.4</ele>
        <time>2017-08-15T07:47:31Z</time>
      </trkpt>
      <trkpt lat="48.63803" lon="-2.31291">
        <ele>32.8</ele>
        <time>2017-08-15T07:47:35Z</time>
      </trkpt>
      <trkpt lat="48.63798" lon="-2.31304">
        <ele>32.4</ele>
        <time>2017-08-15T07:47:39Z</time>
      </trkpt>
      <trkpt lat="48.63807" lon="-2.31307">
        <ele>30.6</ele>
        <time>2017-08-15T07:47:43Z</time>
      </trkpt>
      <trkpt lat="48.63824" lon="-2.31298">
        <ele>29.6</ele>
        <time>2017-08-15T07:47:47Z</time>
      </trkpt>
      <trkpt lat="48.63835" lon="-2.3128">
        <ele>26</ele>
        <time>2017-08-15T07:47:51Z</time>
      </trkpt>
      <trkpt lat="48.63854" lon="-2.31248">
        <ele>21.6</ele>
        <time>2017-08-15T07:47:55Z</time>
      </trkpt>
      <trkpt lat="48.63866" lon="-2.3122">
        <ele>19</ele>
        <time>2017-08-15T07:47:59Z</time>
      </trkpt>
      <trkpt lat="48.63882" lon="-2.31194">
        <ele>13.8</ele>
        <time>2017-08-15T07:48:03Z</time>
      </trkpt>
      <trkpt lat="48.63892" lon="-2.312">
        <ele>12</ele>
        <time>2017-08-15T07:48:07Z</time>
      </trkpt>
      <trkpt lat="48.63904" lon="-2.31207">
        <ele>11.4</ele>
        <time>2017-08-15T07:48:11Z</time>
      </trkpt>
      <trkpt lat="48.63927" lon="-2.31217">
        <ele>11.4</ele>
        <time>2017-08-15T07:48:15Z</time>
      </trkpt>
      <trkpt lat="48.63939" lon="-2.31225">
        <ele>12</ele>
        <time>2017-08-15T07:48:19Z</time>
      </trkpt>
      <trkpt lat="48.63951" lon="-2.31234">
        <ele>12.2</ele>
        <time>2017-08-15T07:48:23Z</time>
      </trkpt>
      <trkpt lat="48.63959" lon="-2.31244">
        <ele>13</ele>
        <time>2017-08-15T07:48:27Z</time>
      </trkpt>
      <trkpt lat="48.63964" lon="-2.31251">
        <ele>13.4</ele>
        <time>2017-08-15T07:48:31Z</time>
      </trkpt>
      <trkpt lat="48.63966" lon="-2.31256">
        <ele>14.4</ele>
        <time>2017-08-15T07:48:35Z</time>
      </trkpt>
      <trkpt lat="48.63967" lon="-2.31264">
        <ele>15.2</ele>
        <time>2017-08-15T07:48:39Z</time>
      </trkpt>
      <trkpt lat="48.63969" lon="-2.31275">
        <ele>16.2</ele>
        <time>2017-08-15T07:48:43Z</time>
      </trkpt>
      <trkpt lat="48.63971" lon="-2.31287">
        <ele>16.2</ele>
        <time>2017-08-15T07:48:47Z</time>
      </trkpt>
      <trkpt lat="48.63972" lon="-2.31297">
        <ele>17.4</ele>
        <time>2017-08-15T07:48:51Z</time>
      </trkpt>
      <trkpt lat="48.63972" lon="-2.31309">
        <ele>18.8</ele>
        <time>2017-08-15T07:48:55Z</time>
      </trkpt>
      <trkpt lat="48.63975" lon="-2.31318">
        <ele>19.4</ele>
        <time>2017-08-15T07:48:59Z</time>
      </trkpt>
      <trkpt lat="48.63977" lon="-2.31327">
        <ele>21</ele>
        <time>2017-08-15T07:49:03Z</time>
      </trkpt>
      <trkpt lat="48.63979" lon="-2.31335">
        <ele>22.6</ele>
        <time>2017-08-15T07:49:07Z</time>
      </trkpt>
      <trkpt lat="48.63984" lon="-2.31342">
        <ele>23.2</ele>
        <time>2017-08-15T07:49:11Z</time>
      </trkpt>
      <trkpt lat="48.63988" lon="-2.3135">
        <ele>24.2</ele>
        <time>2017-08-15T07:49:15Z</time>
      </trkpt>
      <trkpt lat="48.63993" lon="-2.31358">
        <ele>24.6</ele>
        <time>2017-08-15T07:49:19Z</time>
      </trkpt>
      <trkpt lat="48.63998" lon="-2.31367">
        <ele>25.8</ele>
        <time>2017-08-15T07:49:23Z</time>
      </trkpt>
      <trkpt lat="48.64004" lon="-2.31372">
        <ele>26.8</ele>
        <time>2017-08-15T07:49:27Z</time>
      </trkpt>
      <trkpt lat="48.64008" lon="-2.31379">
        <ele>27.6</ele>
        <time>2017-08-15T07:49:31Z</time>
      </trkpt>
      <trkpt lat="48.64013" lon="-2.31385">
        <ele>28.6</ele>
        <time>2017-08-15T07:49:35Z</time>
      </trkpt>
      <trkpt lat="48.64018" lon="-2.31391">
        <ele>29.6</ele>
        <time>2017-08-15T07:49:39Z</time>
      </trkpt>
      <trkpt lat="48.64023" lon="-2.31397">
        <ele>30.4</ele>
        <time>2017-08-15T07:49:43Z</time>
      </trkpt>
      <trkpt lat="48.64027" lon="-2.31403">
        <ele>31.2</ele>
        <time>2017-08-15T07:49:47Z</time>
      </trkpt>
      <trkpt lat="48.64032" lon="-2.31412">
        <ele>31.8</ele>
        <time>2017-08-15T07:49:51Z</time>
      </trkpt>
      <trkpt lat="48.64038" lon="-2.31417">
        <ele>32.4</ele>
        <time>2017-08-15T07:49:55Z</time>
      </trkpt>
      <trkpt lat="48.64052" lon="-2.31428">
        <ele>33</ele>
        <time>2017-08-15T07:49:59Z</time>
      </trkpt>
      <trkpt lat="48.64063" lon="-2.31438">
        <ele>34.2</ele>
        <time>2017-08-15T07:50:03Z</time>
      </trkpt>
      <trkpt lat="48.64066" lon="-2.31444">
        <ele>34.2</ele>
        <time>2017-08-15T07:50:07Z</time>
      </trkpt>
      <trkpt lat="48.64071" lon="-2.31454">
        <ele>34.8</ele>
        <time>2017-08-15T07:50:11Z</time>
      </trkpt>
      <trkpt lat="48.64073" lon="-2.3146">
        <ele>35</ele>
        <time>2017-08-15T07:50:15Z</time>
      </trkpt>
      <trkpt lat="48.64075" lon="-2.31466">
        <ele>36</ele>
        <time>2017-08-15T07:50:19Z</time>
      </trkpt>
      <trkpt lat="48.64085" lon="-2.31473">
        <ele>36.2</ele>
        <time>2017-08-15T07:50:23Z</time>
      </trkpt>
      <trkpt lat="48.64097" lon="-2.31478">
        <ele>36</ele>
        <time>2017-08-15T07:50:27Z</time>
      </trkpt>
      <trkpt lat="48.64103" lon="-2.31483">
        <ele>36</ele>
        <time>2017-08-15T07:50:31Z</time>
      </trkpt>
      <trkpt lat="48.6411" lon="-2.31485">
        <ele>36.8</ele>
        <time>2017-08-15T07:50:35Z</time>
      </trkpt>
      <trkpt lat="48.6412" lon="-2.31484">
        <ele>37</ele>
        <time>2017-08-15T07:50:39Z</time>
      </trkpt>
      <trkpt lat="48.64129" lon="-2.31488">
        <ele>38</ele>
        <time>2017-08-15T07:50:43Z</time>
      </trkpt>
      <trkpt lat="48.64133" lon="-2.31498">
        <ele>38.8</ele>
        <time>2017-08-15T07:50:47Z</time>
      </trkpt>
      <trkpt lat="48.64129" lon="-2.31506">
        <ele>39.6</ele>
        <time>2017-08-15T07:50:51Z</time>
      </trkpt>
      <trkpt lat="48.64129" lon="-2.31514">
        <ele>40.4</ele>
        <time>2017-08-15T07:50:55Z</time>
      </trkpt>
      <trkpt lat="48.64127" lon="-2.31522">
        <ele>40.2</ele>
        <time>2017-08-15T07:50:59Z</time>
      </trkpt>
      <trkpt lat="48.64119" lon="-2.31535">
        <ele>40.6</ele>
        <time>2017-08-15T07:51:03Z</time>
      </trkpt>
      <trkpt lat="48.64118" lon="-2.3155">
        <ele>41.4</ele>
        <time>2017-08-15T07:51:07Z</time>
      </trkpt>
      <trkpt lat="48.64124" lon="-2.31563">
        <ele>42</ele>
        <time>2017-08-15T07:51:11Z</time>
      </trkpt>
      <trkpt lat="48.6413" lon="-2.31577">
        <ele>42.4</ele>
        <time>2017-08-15T07:51:15Z</time>
      </trkpt>
      <trkpt lat="48.64138" lon="-2.31591">
        <ele>42.6</ele>
        <time>2017-08-15T07:51:19Z</time>
      </trkpt>
      <trkpt lat="48.64147" lon="-2.31606">
        <ele>43</ele>
        <time>2017-08-15T07:51:23Z</time>
      </trkpt>
      <trkpt lat="48.64156" lon="-2.31618">
        <ele>43.6</ele>
        <time>2017-08-15T07:51:27Z</time>
      </trkpt>
      <trkpt lat="48.64165" lon="-2.3163">
        <ele>43.8</ele>
        <time>2017-08-15T07:51:31Z</time>
      </trkpt>
      <trkpt lat="48.64174" lon="-2.31642">
        <ele>44.4</ele>
        <time>2017-08-15T07:51:35Z</time>
      </trkpt>
      <trkpt lat="48.64182" lon="-2.31656">
        <ele>43.8</ele>
        <time>2017-08-15T07:51:39Z</time>
      </trkpt>
      <trkpt lat="48.64189" lon="-2.31672">
        <ele>44</ele>
        <time>2017-08-15T07:51:43Z</time>
      </trkpt>
      <trkpt lat="48.64194" lon="-2.31689">
        <ele>43.6</ele>
        <time>2017-08-15T07:51:47Z</time>
      </trkpt>
      <trkpt lat="48.64196" lon="-2.31708">
        <ele>44.6</ele>
        <time>2017-08-15T07:51:51Z</time>
      </trkpt>
      <trkpt lat="48.64194" lon="-2.31727">
        <ele>44.2</ele>
        <time>2017-08-15T07:51:55Z</time>
      </trkpt>
      <trkpt lat="48.64192" lon="-2.31747">
        <ele>44.6</ele>
        <time>2017-08-15T07:51:59Z</time>
      </trkpt>
      <trkpt lat="48.64189" lon="-2.31765">
        <ele>44.6</ele>
        <time>2017-08-15T07:52:03Z</time>
      </trkpt>
      <trkpt lat="48.64185" lon="-2.31784">
        <ele>45</ele>
        <time>2017-08-15T07:52:07Z</time>
      </trkpt>
      <trkpt lat="48.64181" lon="-2.31802">
        <ele>45.4</ele>
        <time>2017-08-15T07:52:11Z</time>
      </trkpt>
      <trkpt lat="48.6418" lon="-2.31819">
        <ele>45.6</ele>
        <time>2017-08-15T07:52:15Z</time>
      </trkpt>
      <trkpt lat="48.64177" lon="-2.31835">
        <ele>45.6</ele>
        <time>2017-08-15T07:52:19Z</time>
      </trkpt>
      <trkpt lat="48.642" lon="-2.31828">
        <ele>61.2</ele>
      </trkpt>
      <trkpt lat="48.64237" lon="-2.31802">
        <ele>61.5</ele>
      </trkpt>
      <trkpt lat="48.64286" lon="-2.31778">
        <ele>61</ele>
      </trkpt>
      <trkpt lat="48.64456" lon="-2.31668">
        <ele>59</ele>
      </trkpt>
      <trkpt lat="48.64456" lon="-2.31745">
        <ele>60.5</ele>
      </trkpt>
      <trkpt lat="48.64459" lon="-2.31761">
        <ele>60.1</ele>
      </trkpt>
      <trkpt lat="48.6447" lon="-2.31789">
        <ele>59.4</ele>
      </trkpt>
      <trkpt lat="48.64556" lon="-2.31905">
        <ele>60</ele>
      </trkpt>
      <trkpt lat="48.64578" lon="-2.31931">
        <ele>60</ele>
      </trkpt>
      <trkpt lat="48.64613" lon="-2.31966">
        <ele>59</ele>
      </trkpt>
      <trkpt lat="48.64674" lon="-2.32023">
        <ele>58.7</ele>
      </trkpt>
      <trkpt lat="48.6469" lon="-2.32043">
        <ele>58.1</ele>
      </trkpt>
      <trkpt lat="48.64695" lon="-2.32054">
        <ele>58</ele>
      </trkpt>
      <trkpt lat="48.64704" lon="-2.32069">
        <ele>58.7</ele>
      </trkpt>
      <trkpt lat="48.64723" lon="-2.32109">
        <ele>58.1</ele>
      </trkpt>
      <trkpt lat="48.64746" lon="-2.32154">
        <ele>59</ele>
      </trkpt>
      <trkpt lat="48.64758" lon="-2.32175">
        <ele>59.3</ele>
      </trkpt>
      <trkpt lat="48.64771" lon="-2.32195">
        <ele>59.7</ele>
      </trkpt>
      <trkpt lat="48.64789" lon="-2.32213">
        <ele>60</ele>
      </trkpt>
      <trkpt lat="48.64974" lon="-2.32379">
        <ele>58</ele>
      </trkpt>
      <trkpt lat="48.65015" lon="-2.3242">
        <ele>58.5</ele>
      </trkpt>
      <trkpt lat="48.65142" lon="-2.32559">
        <ele>55</ele>
      </trkpt>
      <trkpt lat="48.65185" lon="-2.32594">
        <ele>54.1</ele>
      </trkpt>
      <trkpt lat="48.65205" lon="-2.32595">
        <ele>54</ele>
      </trkpt>
      <trkpt lat="48.65216" lon="-2.32611">
        <ele>54</ele>
      </trkpt>
      <trkpt lat="48.65239" lon="-2.32669">
        <ele>53.9</ele>
      </trkpt>
      <trkpt lat="48.65285" lon="-2.32779">
        <ele>51.3</ele>
      </trkpt>
      <trkpt lat="48.65293" lon="-2.32792">
        <ele>51.2</ele>
      </trkpt>
      <trkpt lat="48.65315" lon="-2.32816">
        <ele>50.9</ele>
      </trkpt>
      <trkpt lat="48.65342" lon="-2.32837">
        <ele>50.4</ele>
      </trkpt>
      <trkpt lat="48.65345" lon="-2.32853">
        <ele>50.5</ele>
      </trkpt>
      <trkpt lat="48.65371" lon="-2.32903">
        <ele>50.8</ele>
      </trkpt>
      <trkpt lat="48.65376" lon="-2.32921">
        <ele>50.8</ele>
      </trkpt>
      <trkpt lat="48.65379" lon="-2.32942">
        <ele>50.1</ele>
      </trkpt>
      <trkpt lat="48.65379" lon="-2.32963">
        <ele>50.2</ele>
      </trkpt>
      <trkpt lat="48.65371" lon="-2.33023">
        <ele>49.5</ele>
      </trkpt>
      <trkpt lat="48.65371" lon="-2.33048">
        <ele>49.3</ele>
      </trkpt>
      <trkpt lat="48.65373" lon="-2.3306">
        <ele>49.2</ele>
      </trkpt>
      <trkpt lat="48.65387" lon="-2.33104">
        <ele>48.1</ele>
      </trkpt>
      <trkpt lat="48.65409" lon="-2.33142">
        <ele>48</ele>
      </trkpt>
      <trkpt lat="48.65419" lon="-2.33166">
        <ele>47.9</ele>
      </trkpt>
      <trkpt lat="48.65431" lon="-2.33212">
        <ele>47.8</ele>
      </trkpt>
      <trkpt lat="48.65424" lon="-2.33222">
        <ele>48</ele>
      </trkpt>
      <trkpt lat="48.65433" lon="-2.33255">
        <ele>47.9</ele>
        <extensions>
          <visugpx:TrkExtension xmlns:visugpx="https://www.visugpx.com/editgpx/">
            <visugpx:node>1</visugpx:node>
            </visugpx:TrkExtension>
        </extensions>
      </trkpt>
      <trkpt lat="48.65444" lon="-2.33286">
        <ele>46.7</ele>
      </trkpt>
      <trkpt lat="48.65444" lon="-2.33304">
        <ele>46.1</ele>
      </trkpt>
      <trkpt lat="48.65438" lon="-2.33352">
        <ele>45.1</ele>
      </trkpt>
      <trkpt lat="48.65444" lon="-2.33398">
        <ele>43.7</ele>
      </trkpt>
      <trkpt lat="48.65445" lon="-2.33432">
        <ele>42.5</ele>
      </trkpt>
      <trkpt lat="48.65444" lon="-2.33465">
        <ele>42.1</ele>
      </trkpt>
      <trkpt lat="48.65441" lon="-2.33482">
        <ele>42.2</ele>
      </trkpt>
      <trkpt lat="48.65416" lon="-2.33613">
        <ele>43</ele>
      </trkpt>
      <trkpt lat="48.65394" lon="-2.33751">
        <ele>43.2</ele>
      </trkpt>
      <trkpt lat="48.65386" lon="-2.33852">
        <ele>43</ele>
      </trkpt>
      <trkpt lat="48.65378" lon="-2.33898">
        <ele>42.5</ele>
      </trkpt>
      <trkpt lat="48.65368" lon="-2.33943">
        <ele>41.3</ele>
      </trkpt>
      <trkpt lat="48.65353" lon="-2.33998">
        <ele>39</ele>
      </trkpt>
      <trkpt lat="48.65337" lon="-2.34042">
        <ele>39.2</ele>
      </trkpt>
      <trkpt lat="48.65317" lon="-2.3409">
        <ele>41.1</ele>
      </trkpt>
      <trkpt lat="48.65306" lon="-2.34123">
        <ele>41.4</ele>
      </trkpt>
      <trkpt lat="48.653" lon="-2.34145">
        <ele>42</ele>
      </trkpt>
      <trkpt lat="48.65283" lon="-2.34228">
        <ele>41.8</ele>
      </trkpt>
      <trkpt lat="48.65272" lon="-2.34314">
        <ele>40.8</ele>
      </trkpt>
      <trkpt lat="48.6527" lon="-2.34403">
        <ele>40</ele>
      </trkpt>
      <trkpt lat="48.65268" lon="-2.34435">
        <ele>39.6</ele>
      </trkpt>
      <trkpt lat="48.65264" lon="-2.34449">
        <ele>39.5</ele>
      </trkpt>
      <trkpt lat="48.6526" lon="-2.34461">
        <ele>39.6</ele>
      </trkpt>
      <trkpt lat="48.65248" lon="-2.34482">
        <ele>40</ele>
      </trkpt>
      <trkpt lat="48.65216" lon="-2.34524">
        <ele>40</ele>
      </trkpt>
      <trkpt lat="48.65194" lon="-2.34556">
        <ele>39</ele>
      </trkpt>
      <trkpt lat="48.65165" lon="-2.34598">
        <ele>39</ele>
      </trkpt>
      <trkpt lat="48.65154" lon="-2.34618">
        <ele>38.7</ele>
      </trkpt>
      <trkpt lat="48.65142" lon="-2.34641">
        <ele>38</ele>
      </trkpt>
      <trkpt lat="48.6508" lon="-2.34782">
        <ele>38</ele>
      </trkpt>
      <trkpt lat="48.65042" lon="-2.34863">
        <ele>37</ele>
      </trkpt>
      <trkpt lat="48.65024" lon="-2.34895">
        <ele>36.1</ele>
      </trkpt>
      <trkpt lat="48.65005" lon="-2.34924">
        <ele>35.8</ele>
      </trkpt>
      <trkpt lat="48.6499" lon="-2.34953">
        <ele>35.2</ele>
      </trkpt>
      <trkpt lat="48.64982" lon="-2.34985">
        <ele>35.4</ele>
      </trkpt>
      <trkpt lat="48.64979" lon="-2.35026">
        <ele>35.5</ele>
      </trkpt>
      <trkpt lat="48.64979" lon="-2.3505">
        <ele>35.5</ele>
      </trkpt>
      <trkpt lat="48.64982" lon="-2.35089">
        <ele>35.2</ele>
      </trkpt>
      <trkpt lat="48.64989" lon="-2.35125">
        <ele>34.6</ele>
      </trkpt>
      <trkpt lat="48.65011" lon="-2.35177">
        <ele>33.2</ele>
      </trkpt>
      <trkpt lat="48.65022" lon="-2.35206">
        <ele>32.7</ele>
      </trkpt>
      <trkpt lat="48.65026" lon="-2.35222">
        <ele>32.1</ele>
      </trkpt>
      <trkpt lat="48.65032" lon="-2.35254">
        <ele>32.1</ele>
      </trkpt>
      <trkpt lat="48.65041" lon="-2.35338">
        <ele>32.5</ele>
      </trkpt>
      <trkpt lat="48.65048" lon="-2.35376">
        <ele>32.3</ele>
      </trkpt>
      <trkpt lat="48.65056" lon="-2.35409">
        <ele>31.3</ele>
      </trkpt>
      <trkpt lat="48.65056" lon="-2.35421">
        <ele>31</ele>
      </trkpt>
      <trkpt lat="48.65053" lon="-2.35436">
        <ele>31.1</ele>
        <extensions>
          <visugpx:TrkExtension xmlns:visugpx="https://www.visugpx.com/editgpx/">
            <visugpx:node>2</visugpx:node>
            </visugpx:TrkExtension>
        </extensions>
      </trkpt>
      <trkpt lat="48.65047" lon="-2.35453">
        <ele>31.5</ele>
      </trkpt>
      <trkpt lat="48.65039" lon="-2.35465">
        <ele>31.9</ele>
      </trkpt>
      <trkpt lat="48.6502" lon="-2.35486">
        <ele>32.4</ele>
      </trkpt>
      <trkpt lat="48.65" lon="-2.35511">
        <ele>32.4</ele>
      </trkpt>
      <trkpt lat="48.64991" lon="-2.35525">
        <ele>32.6</ele>
      </trkpt>
      <trkpt lat="48.64983" lon="-2.35541">
        <ele>32.6</ele>
      </trkpt>
      <trkpt lat="48.64976" lon="-2.3556">
        <ele>32.4</ele>
      </trkpt>
      <trkpt lat="48.64964" lon="-2.35601">
        <ele>33.3</ele>
      </trkpt>
      <trkpt lat="48.64898" lon="-2.35853">
        <ele>40.1</ele>
      </trkpt>
      <trkpt lat="48.64882" lon="-2.35895">
        <ele>41.3</ele>
      </trkpt>
      <trkpt lat="48.64867" lon="-2.35916">
        <ele>41.4</ele>
      </trkpt>
      <trkpt lat="48.64858" lon="-2.35926">
        <ele>41.5</ele>
      </trkpt>
      <trkpt lat="48.64927" lon="-2.35972">
        <ele>46.8</ele>
      </trkpt>
      <trkpt lat="48.6495" lon="-2.35992">
        <ele>48.5</ele>
      </trkpt>
      <trkpt lat="48.6497" lon="-2.36014">
        <ele>50.8</ele>
      </trkpt>
      <trkpt lat="48.65056" lon="-2.36127">
        <ele>56.5</ele>
      </trkpt>
      <trkpt lat="48.65055" lon="-2.36301">
        <ele>57</ele>
      </trkpt>
      <trkpt lat="48.65056" lon="-2.3638">
        <ele>56</ele>
      </trkpt>
      <trkpt lat="48.65054" lon="-2.36547">
        <ele>56.9</ele>
      </trkpt>
      <trkpt lat="48.65065" lon="-2.36555">
        <ele>57</ele>
      </trkpt>
      <trkpt lat="48.65062" lon="-2.36588">
        <ele>58</ele>
      </trkpt>
      <trkpt lat="48.65053" lon="-2.36638">
        <ele>58.8</ele>
      </trkpt>
      <trkpt lat="48.65039" lon="-2.36679">
        <ele>58.7</ele>
      </trkpt>
      <trkpt lat="48.6503" lon="-2.367">
        <ele>59</ele>
      </trkpt>
      <trkpt lat="48.65017" lon="-2.36729">
        <ele>58.1</ele>
      </trkpt>
      <trkpt lat="48.64997" lon="-2.36759">
        <ele>56</ele>
      </trkpt>
      <trkpt lat="48.64955" lon="-2.36809">
        <ele>51.4</ele>
      </trkpt>
      <trkpt lat="48.64907" lon="-2.36857">
        <ele>47.8</ele>
      </trkpt>
      <trkpt lat="48.64874" lon="-2.36883">
        <ele>44</ele>
      </trkpt>
      <trkpt lat="48.64822" lon="-2.36918">
        <ele>39.4</ele>
      </trkpt>
      <trkpt lat="48.64809" lon="-2.36942">
        <ele>40.5</ele>
      </trkpt>
      <trkpt lat="48.64729" lon="-2.37142">
        <ele>48.9</ele>
        <extensions>
          <visugpx:TrkExtension xmlns:visugpx="https://www.visugpx.com/editgpx/">
            <visugpx:node>3</visugpx:node>
            </visugpx:TrkExtension>
        </extensions>
      </trkpt>
      <trkpt lat="48.64719" lon="-2.37162">
        <ele>49.9</ele>
      </trkpt>
      <trkpt lat="48.64711" lon="-2.37172">
        <ele>50.5</ele>
      </trkpt>
      <trkpt lat="48.64703" lon="-2.37177">
        <ele>50.8</ele>
      </trkpt>
      <trkpt lat="48.64694" lon="-2.37179">
        <ele>51</ele>
      </trkpt>
      <trkpt lat="48.64664" lon="-2.37191">
        <ele>49.1</ele>
      </trkpt>
      <trkpt lat="48.64424" lon="-2.37381">
        <ele>42.7</ele>
      </trkpt>
      <trkpt lat="48.64394" lon="-2.37402">
        <ele>44</ele>
      </trkpt>
      <trkpt lat="48.6437" lon="-2.37415">
        <ele>44.7</ele>
      </trkpt>
      <trkpt lat="48.64315" lon="-2.37461">
        <ele>46</ele>
      </trkpt>
      <trkpt lat="48.643" lon="-2.37468">
        <ele>46</ele>
      </trkpt>
      <trkpt lat="48.64277" lon="-2.37473">
        <ele>46</ele>
      </trkpt>
      <trkpt lat="48.64181" lon="-2.37477">
        <ele>47.7</ele>
      </trkpt>
      <trkpt lat="48.64158" lon="-2.37484">
        <ele>48.4</ele>
      </trkpt>
      <trkpt lat="48.64141" lon="-2.37499">
        <ele>49</ele>
      </trkpt>
      <trkpt lat="48.64054" lon="-2.37603">
        <ele>50</ele>
      </trkpt>
      <trkpt lat="48.64036" lon="-2.37631">
        <ele>49.5</ele>
      </trkpt>
      <trkpt lat="48.64032" lon="-2.37643">
        <ele>49.1</ele>
      </trkpt>
      <trkpt lat="48.6411" lon="-2.37739">
        <ele>48.4</ele>
      </trkpt>
      <trkpt lat="48.64181" lon="-2.37814">
        <ele>47.8</ele>
      </trkpt>
      <trkpt lat="48.64231" lon="-2.37865">
        <ele>47.1</ele>
        <extensions>
          <visugpx:TrkExtension xmlns:visugpx="https://www.visugpx.com/editgpx/">
            <visugpx:node>4</visugpx:node>
            </visugpx:TrkExtension>
        </extensions>
      </trkpt>
      <trkpt lat="48.6426" lon="-2.37898">
        <ele>46.8</ele>
      </trkpt>
      <trkpt lat="48.64323" lon="-2.37991">
        <ele>46</ele>
      </trkpt>
      <trkpt lat="48.64348" lon="-2.38042">
        <ele>46.8</ele>
      </trkpt>
      <trkpt lat="48.64401" lon="-2.38171">
        <ele>49</ele>
      </trkpt>
      <trkpt lat="48.64499" lon="-2.38337">
        <ele>51.1</ele>
      </trkpt>
      <trkpt lat="48.64527" lon="-2.38399">
        <ele>52.4</ele>
      </trkpt>
      <trkpt lat="48.64543" lon="-2.38446">
        <ele>54.1</ele>
      </trkpt>
      <trkpt lat="48.64547" lon="-2.38472">
        <ele>55.3</ele>
      </trkpt>
      <trkpt lat="48.64546" lon="-2.38485">
        <ele>56.2</ele>
      </trkpt>
      <trkpt lat="48.64539" lon="-2.38502">
        <ele>57</ele>
      </trkpt>
      <trkpt lat="48.64489" lon="-2.38572">
        <ele>56.7</ele>
      </trkpt>
      <trkpt lat="48.64393" lon="-2.38768">
        <ele>53</ele>
      </trkpt>
      <trkpt lat="48.64385" lon="-2.38782">
        <ele>53</ele>
      </trkpt>
      <trkpt lat="48.64367" lon="-2.38806">
        <ele>52.2</ele>
      </trkpt>
      <trkpt lat="48.64298" lon="-2.38878">
        <ele>49.8</ele>
      </trkpt>
      <trkpt lat="48.64281" lon="-2.38899">
        <ele>49.1</ele>
      </trkpt>
      <trkpt lat="48.64165" lon="-2.39102">
        <ele>47</ele>
      </trkpt>
      <trkpt lat="48.64114" lon="-2.39202">
        <ele>41.3</ele>
      </trkpt>
      <trkpt lat="48.64081" lon="-2.39273">
        <ele>37.1</ele>
      </trkpt>
      <trkpt lat="48.64062" lon="-2.39324">
        <ele>35.7</ele>
      </trkpt>
      <trkpt lat="48.64054" lon="-2.39351">
        <ele>37.4</ele>
      </trkpt>
      <trkpt lat="48.6405" lon="-2.39379">
        <ele>38.9</ele>
      </trkpt>
      <trkpt lat="48.64049" lon="-2.39394">
        <ele>39.4</ele>
      </trkpt>
      <trkpt lat="48.64053" lon="-2.3943">
        <ele>39.6</ele>
      </trkpt>
      <trkpt lat="48.63888" lon="-2.39484">
        <ele>44</ele>
      </trkpt>
      <trkpt lat="48.63792" lon="-2.39517">
        <ele>45.3</ele>
      </trkpt>
      <trkpt lat="48.63792" lon="-2.39526">
        <ele>45.4</ele>
      </trkpt>
      <trkpt lat="48.63789" lon="-2.39533">
        <ele>45.5</ele>
      </trkpt>
      <trkpt lat="48.63784" lon="-2.39538">
        <ele>45.5</ele>
      </trkpt>
      <trkpt lat="48.63778" lon="-2.39537">
        <ele>45.6</ele>
      </trkpt>
      <trkpt lat="48.63773" lon="-2.39533">
        <ele>45.8</ele>
      </trkpt>
      <trkpt lat="48.6377" lon="-2.39525">
        <ele>45.9</ele>
      </trkpt>
      <trkpt lat="48.6376" lon="-2.39528">
        <ele>46</ele>
        <extensions>
          <visugpx:TrkExtension xmlns:visugpx="https://www.visugpx.com/editgpx/">
            <visugpx:node>5</visugpx:node>
            </visugpx:TrkExtension>
        </extensions>
      </trkpt>
      <trkpt lat="48.6367" lon="-2.39558">
        <ele>43.8</ele>
      </trkpt>
      <trkpt lat="48.63591" lon="-2.39599">
        <ele>37.1</ele>
      </trkpt>
      <trkpt lat="48.63551" lon="-2.39625">
        <ele>37.9</ele>
      </trkpt>
      <trkpt lat="48.63537" lon="-2.39638">
        <ele>39.3</ele>
      </trkpt>
      <trkpt lat="48.63516" lon="-2.39662">
        <ele>41.3</ele>
      </trkpt>
      <trkpt lat="48.63455" lon="-2.39748">
        <ele>44.6</ele>
      </trkpt>
      <trkpt lat="48.63418" lon="-2.39782">
        <ele>45.8</ele>
      </trkpt>
      <trkpt lat="48.63464" lon="-2.39847">
        <ele>42.6</ele>
      </trkpt>
      <trkpt lat="48.63524" lon="-2.39928">
        <ele>38.1</ele>
      </trkpt>
      <trkpt lat="48.63631" lon="-2.40055">
        <ele>33.2</ele>
      </trkpt>
      <trkpt lat="48.63608" lon="-2.4007">
        <ele>34.8</ele>
      </trkpt>
      <trkpt lat="48.63594" lon="-2.40084">
        <ele>36.2</ele>
      </trkpt>
      <trkpt lat="48.63586" lon="-2.40111">
        <ele>36.8</ele>
      </trkpt>
      <trkpt lat="48.63587" lon="-2.40146">
        <ele>36</ele>
      </trkpt>
      <trkpt lat="48.63505" lon="-2.4031">
        <ele>35</ele>
      </trkpt>
      <trkpt lat="48.63482" lon="-2.40294">
        <ele>35.4</ele>
      </trkpt>
      <trkpt lat="48.6349" lon="-2.40311">
        <ele>35.4</ele>
      </trkpt>
      <trkpt lat="48.63496" lon="-2.40321">
        <ele>35.1</ele>
      </trkpt>
      <trkpt lat="48.63501" lon="-2.40332">
        <ele>35</ele>
      </trkpt>
      <trkpt lat="48.63503" lon="-2.40359">
        <ele>35.1</ele>
      </trkpt>
      <trkpt lat="48.63499" lon="-2.40442">
        <ele>35</ele>
        <extensions>
          <visugpx:TrkExtension xmlns:visugpx="https://www.visugpx.com/editgpx/">
            <visugpx:node>6</visugpx:node>
            </visugpx:TrkExtension>
        </extensions>
      </trkpt>
    </trkseg>
  </trk>
</gpx>